<?xml version="1.0" encoding="UTF-8"?>
<gpx xmlns="http://www.topografix.com/GPX/1/1" xmlns:dkl="http://www.gpsware.de/DKL/1/1" xmlns:rtx="http://www.bike-gps.de/RTX/1/1" version="1.1" creator="KOMPASS Digital Map" xmlns:xsi="http://www.w3.org/2001/XMLSchema-instance" xsi:schemaLocation="http://www.topografix.com/GPX/1/1 http://www.topografix.com/GPX/1/1/gpx.xsd">
  <metadata>
    <name>KOMPASS Digital Map Track</name>
    <desc></desc>
    <time>2012-11-17T14:24:25Z</time>
    <bounds minlat="47.330433" minlon="13.204453" maxlat="47.469795" maxlon="13.417441"/>
  </metadata>
  <trk>
    <name>Gründeckrunde_02052012</name>
    <cmt>mit Abstecher nach St.Martin
mit Schwaiger Ernst</cmt>
    <extensions>
      <dkl:dkl>
        <dkl:format_version>1.1</dkl:format_version>
        <dkl:format>
          <dkl:color>FF0000</dkl:color>
          <dkl:style>00000000</dkl:style>
          <dkl:strength>3</dkl:strength>
          <dkl:transparent>0</dkl:transparent>
        </dkl:format>
        <dkl:profile>
          <dkl:mode>0</dkl:mode>
          <dkl:smooth>0</dkl:smooth>
        </dkl:profile>
      </dkl:dkl>
    </extensions>
    <trkseg>
      <trkpt lat="47.422012" lon="13.219353">
        <ele>542.40</ele>
        <time>2012-05-02T09:27:52Z</time>
      </trkpt>
      <trkpt lat="47.421993" lon="13.219362">
        <ele>542.40</ele>
        <time>2012-05-02T09:27:54Z</time>
      </trkpt>
      <trkpt lat="47.421906" lon="13.219414">
        <ele>542.20</ele>
        <time>2012-05-02T09:28:00Z</time>
      </trkpt>
      <trkpt lat="47.421906" lon="13.219423">
        <ele>542.20</ele>
        <time>2012-05-02T09:28:02Z</time>
      </trkpt>
      <trkpt lat="47.421906" lon="13.219432">
        <ele>542.20</ele>
        <time>2012-05-02T09:28:04Z</time>
      </trkpt>
      <trkpt lat="47.421852" lon="13.219449">
        <ele>542.20</ele>
        <time>2012-05-02T09:28:17Z</time>
      </trkpt>
      <trkpt lat="47.421822" lon="13.219457">
        <ele>542.20</ele>
        <time>2012-05-02T09:28:18Z</time>
      </trkpt>
      <trkpt lat="47.421654" lon="13.219490">
        <ele>542.20</ele>
        <time>2012-05-02T09:28:23Z</time>
      </trkpt>
      <trkpt lat="47.421585" lon="13.219476">
        <ele>542.20</ele>
        <time>2012-05-02T09:28:25Z</time>
      </trkpt>
      <trkpt lat="47.421444" lon="13.219469">
        <ele>542.20</ele>
        <time>2012-05-02T09:28:28Z</time>
      </trkpt>
      <trkpt lat="47.421200" lon="13.219444">
        <ele>542.20</ele>
        <time>2012-05-02T09:28:32Z</time>
      </trkpt>
      <trkpt lat="47.421150" lon="13.219417">
        <ele>542.20</ele>
        <time>2012-05-02T09:28:33Z</time>
      </trkpt>
      <trkpt lat="47.420975" lon="13.219318">
        <ele>542.20</ele>
        <time>2012-05-02T09:28:38Z</time>
      </trkpt>
      <trkpt lat="47.420822" lon="13.219211">
        <ele>542.60</ele>
        <time>2012-05-02T09:28:44Z</time>
      </trkpt>
      <trkpt lat="47.420811" lon="13.219194">
        <ele>543.20</ele>
        <time>2012-05-02T09:28:45Z</time>
      </trkpt>
      <trkpt lat="47.420803" lon="13.219178">
        <ele>543.60</ele>
        <time>2012-05-02T09:28:46Z</time>
      </trkpt>
      <trkpt lat="47.420795" lon="13.219157">
        <ele>544.00</ele>
        <time>2012-05-02T09:28:47Z</time>
      </trkpt>
      <trkpt lat="47.420784" lon="13.219144">
        <ele>544.40</ele>
        <time>2012-05-02T09:28:48Z</time>
      </trkpt>
      <trkpt lat="47.420773" lon="13.219113">
        <ele>544.40</ele>
        <time>2012-05-02T09:28:49Z</time>
      </trkpt>
      <trkpt lat="47.420750" lon="13.219020">
        <ele>544.40</ele>
        <time>2012-05-02T09:28:51Z</time>
      </trkpt>
      <trkpt lat="47.420700" lon="13.218938">
        <ele>544.40</ele>
        <time>2012-05-02T09:28:53Z</time>
      </trkpt>
      <trkpt lat="47.420620" lon="13.218975">
        <ele>544.40</ele>
        <time>2012-05-02T09:28:56Z</time>
      </trkpt>
      <trkpt lat="47.420570" lon="13.219066">
        <ele>544.40</ele>
        <time>2012-05-02T09:28:58Z</time>
      </trkpt>
      <trkpt lat="47.420506" lon="13.219145">
        <ele>544.40</ele>
        <time>2012-05-02T09:29:00Z</time>
      </trkpt>
      <trkpt lat="47.420361" lon="13.219217">
        <ele>544.40</ele>
        <time>2012-05-02T09:29:04Z</time>
      </trkpt>
      <trkpt lat="47.420143" lon="13.219282">
        <ele>544.40</ele>
        <time>2012-05-02T09:29:10Z</time>
      </trkpt>
      <trkpt lat="47.420052" lon="13.219301">
        <ele>544.40</ele>
        <time>2012-05-02T09:29:12Z</time>
      </trkpt>
      <trkpt lat="47.419949" lon="13.219314">
        <ele>544.40</ele>
        <time>2012-05-02T09:29:14Z</time>
      </trkpt>
      <trkpt lat="47.419849" lon="13.219324">
        <ele>544.80</ele>
        <time>2012-05-02T09:29:16Z</time>
      </trkpt>
      <trkpt lat="47.419800" lon="13.219329">
        <ele>545.20</ele>
        <time>2012-05-02T09:29:17Z</time>
      </trkpt>
      <trkpt lat="47.419750" lon="13.219336">
        <ele>545.60</ele>
        <time>2012-05-02T09:29:18Z</time>
      </trkpt>
      <trkpt lat="47.419701" lon="13.219343">
        <ele>546.00</ele>
        <time>2012-05-02T09:29:19Z</time>
      </trkpt>
      <trkpt lat="47.419655" lon="13.219339">
        <ele>546.60</ele>
        <time>2012-05-02T09:29:20Z</time>
      </trkpt>
      <trkpt lat="47.419605" lon="13.219340">
        <ele>546.60</ele>
        <time>2012-05-02T09:29:21Z</time>
      </trkpt>
      <trkpt lat="47.419289" lon="13.219375">
        <ele>546.60</ele>
        <time>2012-05-02T09:29:27Z</time>
      </trkpt>
      <trkpt lat="47.418964" lon="13.219397">
        <ele>546.60</ele>
        <time>2012-05-02T09:29:33Z</time>
      </trkpt>
      <trkpt lat="47.418598" lon="13.219439">
        <ele>546.60</ele>
        <time>2012-05-02T09:29:40Z</time>
      </trkpt>
      <trkpt lat="47.418335" lon="13.219439">
        <ele>546.60</ele>
        <time>2012-05-02T09:29:45Z</time>
      </trkpt>
      <trkpt lat="47.418285" lon="13.219428">
        <ele>546.60</ele>
        <time>2012-05-02T09:29:46Z</time>
      </trkpt>
      <trkpt lat="47.418076" lon="13.219396">
        <ele>546.60</ele>
        <time>2012-05-02T09:29:50Z</time>
      </trkpt>
      <trkpt lat="47.417763" lon="13.219337">
        <ele>546.60</ele>
        <time>2012-05-02T09:29:56Z</time>
      </trkpt>
      <trkpt lat="47.417442" lon="13.219289">
        <ele>546.60</ele>
        <time>2012-05-02T09:30:02Z</time>
      </trkpt>
      <trkpt lat="47.417099" lon="13.219378">
        <ele>546.60</ele>
        <time>2012-05-02T09:30:08Z</time>
      </trkpt>
      <trkpt lat="47.416668" lon="13.219503">
        <ele>546.60</ele>
        <time>2012-05-02T09:30:16Z</time>
      </trkpt>
      <trkpt lat="47.416328" lon="13.219559">
        <ele>546.60</ele>
        <time>2012-05-02T09:30:22Z</time>
      </trkpt>
      <trkpt lat="47.415833" lon="13.219610">
        <ele>546.60</ele>
        <time>2012-05-02T09:30:30Z</time>
      </trkpt>
      <trkpt lat="47.415306" lon="13.219617">
        <ele>546.60</ele>
        <time>2012-05-02T09:30:38Z</time>
      </trkpt>
      <trkpt lat="47.415180" lon="13.219595">
        <ele>546.60</ele>
        <time>2012-05-02T09:30:40Z</time>
      </trkpt>
      <trkpt lat="47.415028" lon="13.219510">
        <ele>546.60</ele>
        <time>2012-05-02T09:30:43Z</time>
      </trkpt>
      <trkpt lat="47.414928" lon="13.219348">
        <ele>546.60</ele>
        <time>2012-05-02T09:30:47Z</time>
      </trkpt>
      <trkpt lat="47.414913" lon="13.219303">
        <ele>546.60</ele>
        <time>2012-05-02T09:30:48Z</time>
      </trkpt>
      <trkpt lat="47.414810" lon="13.219121">
        <ele>546.60</ele>
        <time>2012-05-02T09:30:52Z</time>
      </trkpt>
      <trkpt lat="47.414776" lon="13.219087">
        <ele>546.60</ele>
        <time>2012-05-02T09:30:53Z</time>
      </trkpt>
      <trkpt lat="47.414642" lon="13.219049">
        <ele>546.60</ele>
        <time>2012-05-02T09:30:56Z</time>
      </trkpt>
      <trkpt lat="47.414593" lon="13.219035">
        <ele>546.60</ele>
        <time>2012-05-02T09:30:57Z</time>
      </trkpt>
      <trkpt lat="47.414280" lon="13.218940">
        <ele>546.60</ele>
        <time>2012-05-02T09:31:03Z</time>
      </trkpt>
      <trkpt lat="47.414177" lon="13.218910">
        <ele>546.60</ele>
        <time>2012-05-02T09:31:05Z</time>
      </trkpt>
      <trkpt lat="47.413971" lon="13.218845">
        <ele>546.60</ele>
        <time>2012-05-02T09:31:09Z</time>
      </trkpt>
      <trkpt lat="47.413574" lon="13.218763">
        <ele>546.60</ele>
        <time>2012-05-02T09:31:16Z</time>
      </trkpt>
      <trkpt lat="47.413078" lon="13.218723">
        <ele>546.60</ele>
        <time>2012-05-02T09:31:24Z</time>
      </trkpt>
      <trkpt lat="47.412712" lon="13.218618">
        <ele>546.60</ele>
        <time>2012-05-02T09:31:30Z</time>
      </trkpt>
      <trkpt lat="47.412319" lon="13.218475">
        <ele>546.60</ele>
        <time>2012-05-02T09:31:37Z</time>
      </trkpt>
      <trkpt lat="47.411839" lon="13.218321">
        <ele>546.60</ele>
        <time>2012-05-02T09:31:45Z</time>
      </trkpt>
      <trkpt lat="47.411438" lon="13.218184">
        <ele>546.60</ele>
        <time>2012-05-02T09:31:52Z</time>
      </trkpt>
      <trkpt lat="47.411030" lon="13.218055">
        <ele>546.60</ele>
        <time>2012-05-02T09:31:59Z</time>
      </trkpt>
      <trkpt lat="47.410465" lon="13.217826">
        <ele>546.60</ele>
        <time>2012-05-02T09:32:09Z</time>
      </trkpt>
      <trkpt lat="47.410408" lon="13.217797">
        <ele>546.60</ele>
        <time>2012-05-02T09:32:10Z</time>
      </trkpt>
      <trkpt lat="47.410198" lon="13.217667">
        <ele>546.60</ele>
        <time>2012-05-02T09:32:14Z</time>
      </trkpt>
      <trkpt lat="47.409908" lon="13.217401">
        <ele>546.60</ele>
        <time>2012-05-02T09:32:21Z</time>
      </trkpt>
      <trkpt lat="47.409840" lon="13.217319">
        <ele>546.60</ele>
        <time>2012-05-02T09:32:23Z</time>
      </trkpt>
      <trkpt lat="47.409782" lon="13.217151">
        <ele>546.60</ele>
        <time>2012-05-02T09:32:26Z</time>
      </trkpt>
      <trkpt lat="47.409645" lon="13.217026">
        <ele>546.60</ele>
        <time>2012-05-02T09:32:29Z</time>
      </trkpt>
      <trkpt lat="47.409588" lon="13.217002">
        <ele>546.60</ele>
        <time>2012-05-02T09:32:30Z</time>
      </trkpt>
      <trkpt lat="47.409405" lon="13.216938">
        <ele>546.60</ele>
        <time>2012-05-02T09:32:33Z</time>
      </trkpt>
      <trkpt lat="47.409294" lon="13.216928">
        <ele>547.00</ele>
        <time>2012-05-02T09:32:35Z</time>
      </trkpt>
      <trkpt lat="47.409237" lon="13.216923">
        <ele>547.40</ele>
        <time>2012-05-02T09:32:36Z</time>
      </trkpt>
      <trkpt lat="47.409180" lon="13.216919">
        <ele>547.80</ele>
        <time>2012-05-02T09:32:37Z</time>
      </trkpt>
      <trkpt lat="47.409122" lon="13.216916">
        <ele>548.60</ele>
        <time>2012-05-02T09:32:38Z</time>
      </trkpt>
      <trkpt lat="47.408825" lon="13.216886">
        <ele>548.60</ele>
        <time>2012-05-02T09:32:43Z</time>
      </trkpt>
      <trkpt lat="47.408470" lon="13.216859">
        <ele>548.60</ele>
        <time>2012-05-02T09:32:49Z</time>
      </trkpt>
      <trkpt lat="47.408047" lon="13.216862">
        <ele>548.60</ele>
        <time>2012-05-02T09:32:56Z</time>
      </trkpt>
      <trkpt lat="47.407555" lon="13.216988">
        <ele>548.60</ele>
        <time>2012-05-02T09:33:04Z</time>
      </trkpt>
      <trkpt lat="47.407135" lon="13.217177">
        <ele>548.60</ele>
        <time>2012-05-02T09:33:11Z</time>
      </trkpt>
      <trkpt lat="47.406731" lon="13.217443">
        <ele>548.60</ele>
        <time>2012-05-02T09:33:18Z</time>
      </trkpt>
      <trkpt lat="47.406361" lon="13.217790">
        <ele>548.60</ele>
        <time>2012-05-02T09:33:25Z</time>
      </trkpt>
      <trkpt lat="47.405930" lon="13.218327">
        <ele>548.60</ele>
        <time>2012-05-02T09:33:34Z</time>
      </trkpt>
      <trkpt lat="47.405579" lon="13.218874">
        <ele>548.60</ele>
        <time>2012-05-02T09:33:42Z</time>
      </trkpt>
      <trkpt lat="47.405293" lon="13.219306">
        <ele>548.60</ele>
        <time>2012-05-02T09:33:49Z</time>
      </trkpt>
      <trkpt lat="47.405239" lon="13.219339">
        <ele>548.60</ele>
        <time>2012-05-02T09:33:50Z</time>
      </trkpt>
      <trkpt lat="47.405140" lon="13.219390">
        <ele>548.60</ele>
        <time>2012-05-02T09:33:52Z</time>
      </trkpt>
      <trkpt lat="47.405060" lon="13.219587">
        <ele>548.60</ele>
        <time>2012-05-02T09:33:55Z</time>
      </trkpt>
      <trkpt lat="47.405041" lon="13.219661">
        <ele>548.60</ele>
        <time>2012-05-02T09:33:56Z</time>
      </trkpt>
      <trkpt lat="47.405010" lon="13.219725">
        <ele>548.60</ele>
        <time>2012-05-02T09:33:57Z</time>
      </trkpt>
      <trkpt lat="47.404896" lon="13.219943">
        <ele>548.60</ele>
        <time>2012-05-02T09:34:00Z</time>
      </trkpt>
      <trkpt lat="47.404800" lon="13.220080">
        <ele>548.60</ele>
        <time>2012-05-02T09:34:02Z</time>
      </trkpt>
      <trkpt lat="47.404663" lon="13.220277">
        <ele>548.60</ele>
        <time>2012-05-02T09:34:05Z</time>
      </trkpt>
      <trkpt lat="47.404259" lon="13.220882">
        <ele>548.60</ele>
        <time>2012-05-02T09:34:14Z</time>
      </trkpt>
      <trkpt lat="47.403934" lon="13.221339">
        <ele>548.60</ele>
        <time>2012-05-02T09:34:21Z</time>
      </trkpt>
      <trkpt lat="47.403622" lon="13.221808">
        <ele>548.60</ele>
        <time>2012-05-02T09:34:28Z</time>
      </trkpt>
      <trkpt lat="47.403393" lon="13.222133">
        <ele>548.60</ele>
        <time>2012-05-02T09:34:33Z</time>
      </trkpt>
      <trkpt lat="47.403339" lon="13.222191">
        <ele>548.60</ele>
        <time>2012-05-02T09:34:34Z</time>
      </trkpt>
      <trkpt lat="47.403065" lon="13.222573">
        <ele>548.60</ele>
        <time>2012-05-02T09:34:40Z</time>
      </trkpt>
      <trkpt lat="47.402725" lon="13.222979">
        <ele>548.60</ele>
        <time>2012-05-02T09:34:47Z</time>
      </trkpt>
      <trkpt lat="47.402306" lon="13.223378">
        <ele>548.60</ele>
        <time>2012-05-02T09:34:55Z</time>
      </trkpt>
      <trkpt lat="47.401878" lon="13.223729">
        <ele>548.60</ele>
        <time>2012-05-02T09:35:03Z</time>
      </trkpt>
      <trkpt lat="47.401379" lon="13.224054">
        <ele>548.60</ele>
        <time>2012-05-02T09:35:12Z</time>
      </trkpt>
      <trkpt lat="47.400925" lon="13.224278">
        <ele>548.60</ele>
        <time>2012-05-02T09:35:20Z</time>
      </trkpt>
      <trkpt lat="47.400467" lon="13.224449">
        <ele>548.60</ele>
        <time>2012-05-02T09:35:28Z</time>
      </trkpt>
      <trkpt lat="47.400002" lon="13.224566">
        <ele>548.60</ele>
        <time>2012-05-02T09:35:36Z</time>
      </trkpt>
      <trkpt lat="47.399418" lon="13.224638">
        <ele>548.60</ele>
        <time>2012-05-02T09:35:46Z</time>
      </trkpt>
      <trkpt lat="47.398903" lon="13.224611">
        <ele>548.60</ele>
        <time>2012-05-02T09:35:55Z</time>
      </trkpt>
      <trkpt lat="47.398670" lon="13.224569">
        <ele>549.00</ele>
        <time>2012-05-02T09:35:59Z</time>
      </trkpt>
      <trkpt lat="47.398613" lon="13.224554">
        <ele>549.40</ele>
        <time>2012-05-02T09:36:00Z</time>
      </trkpt>
      <trkpt lat="47.398556" lon="13.224545">
        <ele>549.80</ele>
        <time>2012-05-02T09:36:01Z</time>
      </trkpt>
      <trkpt lat="47.398495" lon="13.224528">
        <ele>550.20</ele>
        <time>2012-05-02T09:36:02Z</time>
      </trkpt>
      <trkpt lat="47.398438" lon="13.224506">
        <ele>550.60</ele>
        <time>2012-05-02T09:36:03Z</time>
      </trkpt>
      <trkpt lat="47.398155" lon="13.224406">
        <ele>550.60</ele>
        <time>2012-05-02T09:36:08Z</time>
      </trkpt>
      <trkpt lat="47.397770" lon="13.224184">
        <ele>550.60</ele>
        <time>2012-05-02T09:36:15Z</time>
      </trkpt>
      <trkpt lat="47.397301" lon="13.223822">
        <ele>550.60</ele>
        <time>2012-05-02T09:36:24Z</time>
      </trkpt>
      <trkpt lat="47.396915" lon="13.223413">
        <ele>550.60</ele>
        <time>2012-05-02T09:36:32Z</time>
      </trkpt>
      <trkpt lat="47.396610" lon="13.222990">
        <ele>550.60</ele>
        <time>2012-05-02T09:36:39Z</time>
      </trkpt>
      <trkpt lat="47.396267" lon="13.222367">
        <ele>550.60</ele>
        <time>2012-05-02T09:36:48Z</time>
      </trkpt>
      <trkpt lat="47.396069" lon="13.221910">
        <ele>550.60</ele>
        <time>2012-05-02T09:36:54Z</time>
      </trkpt>
      <trkpt lat="47.396034" lon="13.221832">
        <ele>551.00</ele>
        <time>2012-05-02T09:36:55Z</time>
      </trkpt>
      <trkpt lat="47.396008" lon="13.221754">
        <ele>551.40</ele>
        <time>2012-05-02T09:36:56Z</time>
      </trkpt>
      <trkpt lat="47.395981" lon="13.221672">
        <ele>551.80</ele>
        <time>2012-05-02T09:36:57Z</time>
      </trkpt>
      <trkpt lat="47.395954" lon="13.221588">
        <ele>552.20</ele>
        <time>2012-05-02T09:36:58Z</time>
      </trkpt>
      <trkpt lat="47.395927" lon="13.221502">
        <ele>552.80</ele>
        <time>2012-05-02T09:36:59Z</time>
      </trkpt>
      <trkpt lat="47.395901" lon="13.221419">
        <ele>552.80</ele>
        <time>2012-05-02T09:37:00Z</time>
      </trkpt>
      <trkpt lat="47.395725" lon="13.220939">
        <ele>552.80</ele>
        <time>2012-05-02T09:37:06Z</time>
      </trkpt>
      <trkpt lat="47.395439" lon="13.220208">
        <ele>552.80</ele>
        <time>2012-05-02T09:37:15Z</time>
      </trkpt>
      <trkpt lat="47.395184" lon="13.219563">
        <ele>552.80</ele>
        <time>2012-05-02T09:37:23Z</time>
      </trkpt>
      <trkpt lat="47.394901" lon="13.218816">
        <ele>552.80</ele>
        <time>2012-05-02T09:37:32Z</time>
      </trkpt>
      <trkpt lat="47.394867" lon="13.218727">
        <ele>552.80</ele>
        <time>2012-05-02T09:37:33Z</time>
      </trkpt>
      <trkpt lat="47.394608" lon="13.218187">
        <ele>552.80</ele>
        <time>2012-05-02T09:37:40Z</time>
      </trkpt>
      <trkpt lat="47.394260" lon="13.217609">
        <ele>552.80</ele>
        <time>2012-05-02T09:37:48Z</time>
      </trkpt>
      <trkpt lat="47.393871" lon="13.217090">
        <ele>552.80</ele>
        <time>2012-05-02T09:37:56Z</time>
      </trkpt>
      <trkpt lat="47.393497" lon="13.216693">
        <ele>552.80</ele>
        <time>2012-05-02T09:38:03Z</time>
      </trkpt>
      <trkpt lat="47.393085" lon="13.216352">
        <ele>552.80</ele>
        <time>2012-05-02T09:38:10Z</time>
      </trkpt>
      <trkpt lat="47.392574" lon="13.216064">
        <ele>552.80</ele>
        <time>2012-05-02T09:38:18Z</time>
      </trkpt>
      <trkpt lat="47.392242" lon="13.215929">
        <ele>552.80</ele>
        <time>2012-05-02T09:38:23Z</time>
      </trkpt>
      <trkpt lat="47.392181" lon="13.215899">
        <ele>552.80</ele>
        <time>2012-05-02T09:38:24Z</time>
      </trkpt>
      <trkpt lat="47.391674" lon="13.215629">
        <ele>552.80</ele>
        <time>2012-05-02T09:38:32Z</time>
      </trkpt>
      <trkpt lat="47.391617" lon="13.215585">
        <ele>552.80</ele>
        <time>2012-05-02T09:38:33Z</time>
      </trkpt>
      <trkpt lat="47.391327" lon="13.215344">
        <ele>552.20</ele>
        <time>2012-05-02T09:38:38Z</time>
      </trkpt>
      <trkpt lat="47.391273" lon="13.215293">
        <ele>551.80</ele>
        <time>2012-05-02T09:38:39Z</time>
      </trkpt>
      <trkpt lat="47.391220" lon="13.215240">
        <ele>551.40</ele>
        <time>2012-05-02T09:38:40Z</time>
      </trkpt>
      <trkpt lat="47.391171" lon="13.215188">
        <ele>551.00</ele>
        <time>2012-05-02T09:38:41Z</time>
      </trkpt>
      <trkpt lat="47.391121" lon="13.215138">
        <ele>550.60</ele>
        <time>2012-05-02T09:38:42Z</time>
      </trkpt>
      <trkpt lat="47.390636" lon="13.214678">
        <ele>550.60</ele>
        <time>2012-05-02T09:38:51Z</time>
      </trkpt>
      <trkpt lat="47.390209" lon="13.214307">
        <ele>550.60</ele>
        <time>2012-05-02T09:38:59Z</time>
      </trkpt>
      <trkpt lat="47.389759" lon="13.213995">
        <ele>550.60</ele>
        <time>2012-05-02T09:39:07Z</time>
      </trkpt>
      <trkpt lat="47.389278" lon="13.213770">
        <ele>550.60</ele>
        <time>2012-05-02T09:39:15Z</time>
      </trkpt>
      <trkpt lat="47.389156" lon="13.213734">
        <ele>550.60</ele>
        <time>2012-05-02T09:39:17Z</time>
      </trkpt>
      <trkpt lat="47.388969" lon="13.213682">
        <ele>550.60</ele>
        <time>2012-05-02T09:39:20Z</time>
      </trkpt>
      <trkpt lat="47.388844" lon="13.213643">
        <ele>551.00</ele>
        <time>2012-05-02T09:39:22Z</time>
      </trkpt>
      <trkpt lat="47.388783" lon="13.213625">
        <ele>551.40</ele>
        <time>2012-05-02T09:39:23Z</time>
      </trkpt>
      <trkpt lat="47.388721" lon="13.213602">
        <ele>551.80</ele>
        <time>2012-05-02T09:39:24Z</time>
      </trkpt>
      <trkpt lat="47.388660" lon="13.213574">
        <ele>552.20</ele>
        <time>2012-05-02T09:39:25Z</time>
      </trkpt>
      <trkpt lat="47.388596" lon="13.213551">
        <ele>552.60</ele>
        <time>2012-05-02T09:39:26Z</time>
      </trkpt>
      <trkpt lat="47.388420" lon="13.213470">
        <ele>552.60</ele>
        <time>2012-05-02T09:39:29Z</time>
      </trkpt>
      <trkpt lat="47.387962" lon="13.213215">
        <ele>552.60</ele>
        <time>2012-05-02T09:39:37Z</time>
      </trkpt>
      <trkpt lat="47.387909" lon="13.213188">
        <ele>552.60</ele>
        <time>2012-05-02T09:39:38Z</time>
      </trkpt>
      <trkpt lat="47.387775" lon="13.213194">
        <ele>552.60</ele>
        <time>2012-05-02T09:39:41Z</time>
      </trkpt>
      <trkpt lat="47.387665" lon="13.213312">
        <ele>552.60</ele>
        <time>2012-05-02T09:39:44Z</time>
      </trkpt>
      <trkpt lat="47.387638" lon="13.213348">
        <ele>552.60</ele>
        <time>2012-05-02T09:39:45Z</time>
      </trkpt>
      <trkpt lat="47.387325" lon="13.213751">
        <ele>552.60</ele>
        <time>2012-05-02T09:39:53Z</time>
      </trkpt>
      <trkpt lat="47.386986" lon="13.214108">
        <ele>552.60</ele>
        <time>2012-05-02T09:40:00Z</time>
      </trkpt>
      <trkpt lat="47.386715" lon="13.214304">
        <ele>552.60</ele>
        <time>2012-05-02T09:40:05Z</time>
      </trkpt>
      <trkpt lat="47.386303" lon="13.214452">
        <ele>552.60</ele>
        <time>2012-05-02T09:40:11Z</time>
      </trkpt>
      <trkpt lat="47.385849" lon="13.214569">
        <ele>552.60</ele>
        <time>2012-05-02T09:40:17Z</time>
      </trkpt>
      <trkpt lat="47.385498" lon="13.214673">
        <ele>552.60</ele>
        <time>2012-05-02T09:40:22Z</time>
      </trkpt>
      <trkpt lat="47.385235" lon="13.214759">
        <ele>552.60</ele>
        <time>2012-05-02T09:40:26Z</time>
      </trkpt>
      <trkpt lat="47.384739" lon="13.214918">
        <ele>552.60</ele>
        <time>2012-05-02T09:40:34Z</time>
      </trkpt>
      <trkpt lat="47.384365" lon="13.215035">
        <ele>552.60</ele>
        <time>2012-05-02T09:40:40Z</time>
      </trkpt>
      <trkpt lat="47.383896" lon="13.215204">
        <ele>552.60</ele>
        <time>2012-05-02T09:40:48Z</time>
      </trkpt>
      <trkpt lat="47.383419" lon="13.215446">
        <ele>552.60</ele>
        <time>2012-05-02T09:40:56Z</time>
      </trkpt>
      <trkpt lat="47.382862" lon="13.215764">
        <ele>552.60</ele>
        <time>2012-05-02T09:41:05Z</time>
      </trkpt>
      <trkpt lat="47.382374" lon="13.216044">
        <ele>552.60</ele>
        <time>2012-05-02T09:41:13Z</time>
      </trkpt>
      <trkpt lat="47.381962" lon="13.216287">
        <ele>552.60</ele>
        <time>2012-05-02T09:41:20Z</time>
      </trkpt>
      <trkpt lat="47.381512" lon="13.216544">
        <ele>552.60</ele>
        <time>2012-05-02T09:41:28Z</time>
      </trkpt>
      <trkpt lat="47.381115" lon="13.216731">
        <ele>552.60</ele>
        <time>2012-05-02T09:41:35Z</time>
      </trkpt>
      <trkpt lat="47.380699" lon="13.216805">
        <ele>553.00</ele>
        <time>2012-05-02T09:41:42Z</time>
      </trkpt>
      <trkpt lat="47.380642" lon="13.216805">
        <ele>553.40</ele>
        <time>2012-05-02T09:41:43Z</time>
      </trkpt>
      <trkpt lat="47.380581" lon="13.216804">
        <ele>553.80</ele>
        <time>2012-05-02T09:41:44Z</time>
      </trkpt>
      <trkpt lat="47.380520" lon="13.216795">
        <ele>554.20</ele>
        <time>2012-05-02T09:41:45Z</time>
      </trkpt>
      <trkpt lat="47.380463" lon="13.216780">
        <ele>554.60</ele>
        <time>2012-05-02T09:41:46Z</time>
      </trkpt>
      <trkpt lat="47.380348" lon="13.216738">
        <ele>554.60</ele>
        <time>2012-05-02T09:41:48Z</time>
      </trkpt>
      <trkpt lat="47.380028" lon="13.216520">
        <ele>554.60</ele>
        <time>2012-05-02T09:41:54Z</time>
      </trkpt>
      <trkpt lat="47.379711" lon="13.216183">
        <ele>555.00</ele>
        <time>2012-05-02T09:42:01Z</time>
      </trkpt>
      <trkpt lat="47.379669" lon="13.216132">
        <ele>555.60</ele>
        <time>2012-05-02T09:42:02Z</time>
      </trkpt>
      <trkpt lat="47.379631" lon="13.216083">
        <ele>556.00</ele>
        <time>2012-05-02T09:42:03Z</time>
      </trkpt>
      <trkpt lat="47.379593" lon="13.216031">
        <ele>556.40</ele>
        <time>2012-05-02T09:42:04Z</time>
      </trkpt>
      <trkpt lat="47.379555" lon="13.215978">
        <ele>556.80</ele>
        <time>2012-05-02T09:42:05Z</time>
      </trkpt>
      <trkpt lat="47.379379" lon="13.215790">
        <ele>556.80</ele>
        <time>2012-05-02T09:42:09Z</time>
      </trkpt>
      <trkpt lat="47.379292" lon="13.215714">
        <ele>556.80</ele>
        <time>2012-05-02T09:42:11Z</time>
      </trkpt>
      <trkpt lat="47.379093" lon="13.215579">
        <ele>556.80</ele>
        <time>2012-05-02T09:42:15Z</time>
      </trkpt>
      <trkpt lat="47.378853" lon="13.215435">
        <ele>557.20</ele>
        <time>2012-05-02T09:42:20Z</time>
      </trkpt>
      <trkpt lat="47.378807" lon="13.215413">
        <ele>557.80</ele>
        <time>2012-05-02T09:42:21Z</time>
      </trkpt>
      <trkpt lat="47.378757" lon="13.215391">
        <ele>558.20</ele>
        <time>2012-05-02T09:42:22Z</time>
      </trkpt>
      <trkpt lat="47.378712" lon="13.215366">
        <ele>559.00</ele>
        <time>2012-05-02T09:42:23Z</time>
      </trkpt>
      <trkpt lat="47.378319" lon="13.215167">
        <ele>559.00</ele>
        <time>2012-05-02T09:42:31Z</time>
      </trkpt>
      <trkpt lat="47.378021" lon="13.214960">
        <ele>559.00</ele>
        <time>2012-05-02T09:42:37Z</time>
      </trkpt>
      <trkpt lat="47.377666" lon="13.214675">
        <ele>559.00</ele>
        <time>2012-05-02T09:42:44Z</time>
      </trkpt>
      <trkpt lat="47.377457" lon="13.214512">
        <ele>559.40</ele>
        <time>2012-05-02T09:42:48Z</time>
      </trkpt>
      <trkpt lat="47.377407" lon="13.214469">
        <ele>559.80</ele>
        <time>2012-05-02T09:42:49Z</time>
      </trkpt>
      <trkpt lat="47.377354" lon="13.214425">
        <ele>560.20</ele>
        <time>2012-05-02T09:42:50Z</time>
      </trkpt>
      <trkpt lat="47.377304" lon="13.214383">
        <ele>560.60</ele>
        <time>2012-05-02T09:42:51Z</time>
      </trkpt>
      <trkpt lat="47.377254" lon="13.214340">
        <ele>561.00</ele>
        <time>2012-05-02T09:42:52Z</time>
      </trkpt>
      <trkpt lat="47.377197" lon="13.214294">
        <ele>561.00</ele>
        <time>2012-05-02T09:42:53Z</time>
      </trkpt>
      <trkpt lat="47.376976" lon="13.214158">
        <ele>561.00</ele>
        <time>2012-05-02T09:42:57Z</time>
      </trkpt>
      <trkpt lat="47.376854" lon="13.214119">
        <ele>561.00</ele>
        <time>2012-05-02T09:42:59Z</time>
      </trkpt>
      <trkpt lat="47.376442" lon="13.214076">
        <ele>561.00</ele>
        <time>2012-05-02T09:43:05Z</time>
      </trkpt>
      <trkpt lat="47.376373" lon="13.214060">
        <ele>561.00</ele>
        <time>2012-05-02T09:43:06Z</time>
      </trkpt>
      <trkpt lat="47.376163" lon="13.213930">
        <ele>561.00</ele>
        <time>2012-05-02T09:43:09Z</time>
      </trkpt>
      <trkpt lat="47.376095" lon="13.213875">
        <ele>561.00</ele>
        <time>2012-05-02T09:43:10Z</time>
      </trkpt>
      <trkpt lat="47.375950" lon="13.213760">
        <ele>560.40</ele>
        <time>2012-05-02T09:43:12Z</time>
      </trkpt>
      <trkpt lat="47.375877" lon="13.213694">
        <ele>559.60</ele>
        <time>2012-05-02T09:43:13Z</time>
      </trkpt>
      <trkpt lat="47.375801" lon="13.213626">
        <ele>559.00</ele>
        <time>2012-05-02T09:43:14Z</time>
      </trkpt>
      <trkpt lat="47.375729" lon="13.213561">
        <ele>558.60</ele>
        <time>2012-05-02T09:43:15Z</time>
      </trkpt>
      <trkpt lat="47.375656" lon="13.213495">
        <ele>558.20</ele>
        <time>2012-05-02T09:43:16Z</time>
      </trkpt>
      <trkpt lat="47.375584" lon="13.213436">
        <ele>557.80</ele>
        <time>2012-05-02T09:43:17Z</time>
      </trkpt>
      <trkpt lat="47.375515" lon="13.213381">
        <ele>557.40</ele>
        <time>2012-05-02T09:43:18Z</time>
      </trkpt>
      <trkpt lat="47.375443" lon="13.213329">
        <ele>556.80</ele>
        <time>2012-05-02T09:43:19Z</time>
      </trkpt>
      <trkpt lat="47.375370" lon="13.213285">
        <ele>556.40</ele>
        <time>2012-05-02T09:43:20Z</time>
      </trkpt>
      <trkpt lat="47.375294" lon="13.213243">
        <ele>556.40</ele>
        <time>2012-05-02T09:43:21Z</time>
      </trkpt>
      <trkpt lat="47.374779" lon="13.212996">
        <ele>556.40</ele>
        <time>2012-05-02T09:43:28Z</time>
      </trkpt>
      <trkpt lat="47.374294" lon="13.212813">
        <ele>556.40</ele>
        <time>2012-05-02T09:43:35Z</time>
      </trkpt>
      <trkpt lat="47.373779" lon="13.212707">
        <ele>556.40</ele>
        <time>2012-05-02T09:43:43Z</time>
      </trkpt>
      <trkpt lat="47.373325" lon="13.212738">
        <ele>556.40</ele>
        <time>2012-05-02T09:43:50Z</time>
      </trkpt>
      <trkpt lat="47.372871" lon="13.212825">
        <ele>556.40</ele>
        <time>2012-05-02T09:43:57Z</time>
      </trkpt>
      <trkpt lat="47.372402" lon="13.212829">
        <ele>556.40</ele>
        <time>2012-05-02T09:44:04Z</time>
      </trkpt>
      <trkpt lat="47.372021" lon="13.212713">
        <ele>556.40</ele>
        <time>2012-05-02T09:44:10Z</time>
      </trkpt>
      <trkpt lat="47.371574" lon="13.212520">
        <ele>556.40</ele>
        <time>2012-05-02T09:44:17Z</time>
      </trkpt>
      <trkpt lat="47.371273" lon="13.212307">
        <ele>556.40</ele>
        <time>2012-05-02T09:44:22Z</time>
      </trkpt>
      <trkpt lat="47.370907" lon="13.212061">
        <ele>556.40</ele>
        <time>2012-05-02T09:44:28Z</time>
      </trkpt>
      <trkpt lat="47.370598" lon="13.211930">
        <ele>556.40</ele>
        <time>2012-05-02T09:44:33Z</time>
      </trkpt>
      <trkpt lat="47.370216" lon="13.211777">
        <ele>556.40</ele>
        <time>2012-05-02T09:44:39Z</time>
      </trkpt>
      <trkpt lat="47.370163" lon="13.211732">
        <ele>556.40</ele>
        <time>2012-05-02T09:44:40Z</time>
      </trkpt>
      <trkpt lat="47.370045" lon="13.211632">
        <ele>556.40</ele>
        <time>2012-05-02T09:44:42Z</time>
      </trkpt>
      <trkpt lat="47.369896" lon="13.211455">
        <ele>556.40</ele>
        <time>2012-05-02T09:44:45Z</time>
      </trkpt>
      <trkpt lat="47.369724" lon="13.211083">
        <ele>556.40</ele>
        <time>2012-05-02T09:44:50Z</time>
      </trkpt>
      <trkpt lat="47.369530" lon="13.210774">
        <ele>556.40</ele>
        <time>2012-05-02T09:44:55Z</time>
      </trkpt>
      <trkpt lat="47.369263" lon="13.210595">
        <ele>556.40</ele>
        <time>2012-05-02T09:45:00Z</time>
      </trkpt>
      <trkpt lat="47.368935" lon="13.210549">
        <ele>556.40</ele>
        <time>2012-05-02T09:45:05Z</time>
      </trkpt>
      <trkpt lat="47.368389" lon="13.210497">
        <ele>556.40</ele>
        <time>2012-05-02T09:45:13Z</time>
      </trkpt>
      <trkpt lat="47.368324" lon="13.210480">
        <ele>556.40</ele>
        <time>2012-05-02T09:45:14Z</time>
      </trkpt>
      <trkpt lat="47.367958" lon="13.210302">
        <ele>556.40</ele>
        <time>2012-05-02T09:45:20Z</time>
      </trkpt>
      <trkpt lat="47.367523" lon="13.210106">
        <ele>556.40</ele>
        <time>2012-05-02T09:45:27Z</time>
      </trkpt>
      <trkpt lat="47.367199" lon="13.210089">
        <ele>556.40</ele>
        <time>2012-05-02T09:45:32Z</time>
      </trkpt>
      <trkpt lat="47.366669" lon="13.210101">
        <ele>556.40</ele>
        <time>2012-05-02T09:45:40Z</time>
      </trkpt>
      <trkpt lat="47.366142" lon="13.210074">
        <ele>556.40</ele>
        <time>2012-05-02T09:45:48Z</time>
      </trkpt>
      <trkpt lat="47.365688" lon="13.210010">
        <ele>556.40</ele>
        <time>2012-05-02T09:45:55Z</time>
      </trkpt>
      <trkpt lat="47.365345" lon="13.209777">
        <ele>556.40</ele>
        <time>2012-05-02T09:46:01Z</time>
      </trkpt>
      <trkpt lat="47.364914" lon="13.209591">
        <ele>556.40</ele>
        <time>2012-05-02T09:46:08Z</time>
      </trkpt>
      <trkpt lat="47.364487" lon="13.209434">
        <ele>556.40</ele>
        <time>2012-05-02T09:46:15Z</time>
      </trkpt>
      <trkpt lat="47.364155" lon="13.209208">
        <ele>556.40</ele>
        <time>2012-05-02T09:46:21Z</time>
      </trkpt>
      <trkpt lat="47.364098" lon="13.209174">
        <ele>556.40</ele>
        <time>2012-05-02T09:46:22Z</time>
      </trkpt>
      <trkpt lat="47.363720" lon="13.209047">
        <ele>556.40</ele>
        <time>2012-05-02T09:46:28Z</time>
      </trkpt>
      <trkpt lat="47.363232" lon="13.208970">
        <ele>556.40</ele>
        <time>2012-05-02T09:46:35Z</time>
      </trkpt>
      <trkpt lat="47.362850" lon="13.208797">
        <ele>556.40</ele>
        <time>2012-05-02T09:46:41Z</time>
      </trkpt>
      <trkpt lat="47.362499" lon="13.208598">
        <ele>556.40</ele>
        <time>2012-05-02T09:46:47Z</time>
      </trkpt>
      <trkpt lat="47.362156" lon="13.208455">
        <ele>556.80</ele>
        <time>2012-05-02T09:46:53Z</time>
      </trkpt>
      <trkpt lat="47.362095" lon="13.208440">
        <ele>557.40</ele>
        <time>2012-05-02T09:46:54Z</time>
      </trkpt>
      <trkpt lat="47.362034" lon="13.208425">
        <ele>557.80</ele>
        <time>2012-05-02T09:46:55Z</time>
      </trkpt>
      <trkpt lat="47.361973" lon="13.208411">
        <ele>558.60</ele>
        <time>2012-05-02T09:46:56Z</time>
      </trkpt>
      <trkpt lat="47.361607" lon="13.208334">
        <ele>558.60</ele>
        <time>2012-05-02T09:47:02Z</time>
      </trkpt>
      <trkpt lat="47.361179" lon="13.208270">
        <ele>558.60</ele>
        <time>2012-05-02T09:47:09Z</time>
      </trkpt>
      <trkpt lat="47.360882" lon="13.208197">
        <ele>558.60</ele>
        <time>2012-05-02T09:47:14Z</time>
      </trkpt>
      <trkpt lat="47.360825" lon="13.208171">
        <ele>558.60</ele>
        <time>2012-05-02T09:47:15Z</time>
      </trkpt>
      <trkpt lat="47.360424" lon="13.207902">
        <ele>558.60</ele>
        <time>2012-05-02T09:47:22Z</time>
      </trkpt>
      <trkpt lat="47.359985" lon="13.207538">
        <ele>558.60</ele>
        <time>2012-05-02T09:47:29Z</time>
      </trkpt>
      <trkpt lat="47.359478" lon="13.207161">
        <ele>558.60</ele>
        <time>2012-05-02T09:47:37Z</time>
      </trkpt>
      <trkpt lat="47.359104" lon="13.206989">
        <ele>558.60</ele>
        <time>2012-05-02T09:47:43Z</time>
      </trkpt>
      <trkpt lat="47.358784" lon="13.206892">
        <ele>558.60</ele>
        <time>2012-05-02T09:47:49Z</time>
      </trkpt>
      <trkpt lat="47.358540" lon="13.206802">
        <ele>558.60</ele>
        <time>2012-05-02T09:47:53Z</time>
      </trkpt>
      <trkpt lat="47.358414" lon="13.206748">
        <ele>558.60</ele>
        <time>2012-05-02T09:47:55Z</time>
      </trkpt>
      <trkpt lat="47.357906" lon="13.206457">
        <ele>558.60</ele>
        <time>2012-05-02T09:48:03Z</time>
      </trkpt>
      <trkpt lat="47.357845" lon="13.206429">
        <ele>558.60</ele>
        <time>2012-05-02T09:48:04Z</time>
      </trkpt>
      <trkpt lat="47.357658" lon="13.206430">
        <ele>558.60</ele>
        <time>2012-05-02T09:48:07Z</time>
      </trkpt>
      <trkpt lat="47.357430" lon="13.206573">
        <ele>558.60</ele>
        <time>2012-05-02T09:48:11Z</time>
      </trkpt>
      <trkpt lat="47.357258" lon="13.206710">
        <ele>558.60</ele>
        <time>2012-05-02T09:48:14Z</time>
      </trkpt>
      <trkpt lat="47.357143" lon="13.206759">
        <ele>558.60</ele>
        <time>2012-05-02T09:48:16Z</time>
      </trkpt>
      <trkpt lat="47.356941" lon="13.206899">
        <ele>558.60</ele>
        <time>2012-05-02T09:48:20Z</time>
      </trkpt>
      <trkpt lat="47.356735" lon="13.206971">
        <ele>558.60</ele>
        <time>2012-05-02T09:48:24Z</time>
      </trkpt>
      <trkpt lat="47.356678" lon="13.206973">
        <ele>558.60</ele>
        <time>2012-05-02T09:48:25Z</time>
      </trkpt>
      <trkpt lat="47.356506" lon="13.206930">
        <ele>558.60</ele>
        <time>2012-05-02T09:48:28Z</time>
      </trkpt>
      <trkpt lat="47.356342" lon="13.206860">
        <ele>559.00</ele>
        <time>2012-05-02T09:48:32Z</time>
      </trkpt>
      <trkpt lat="47.356308" lon="13.206852">
        <ele>559.40</ele>
        <time>2012-05-02T09:48:33Z</time>
      </trkpt>
      <trkpt lat="47.356277" lon="13.206849">
        <ele>560.00</ele>
        <time>2012-05-02T09:48:34Z</time>
      </trkpt>
      <trkpt lat="47.356243" lon="13.206851">
        <ele>560.80</ele>
        <time>2012-05-02T09:48:35Z</time>
      </trkpt>
      <trkpt lat="47.356182" lon="13.206865">
        <ele>560.80</ele>
        <time>2012-05-02T09:48:37Z</time>
      </trkpt>
      <trkpt lat="47.356098" lon="13.206901">
        <ele>561.20</ele>
        <time>2012-05-02T09:48:40Z</time>
      </trkpt>
      <trkpt lat="47.356075" lon="13.206909">
        <ele>561.60</ele>
        <time>2012-05-02T09:48:41Z</time>
      </trkpt>
      <trkpt lat="47.356049" lon="13.206919">
        <ele>562.00</ele>
        <time>2012-05-02T09:48:42Z</time>
      </trkpt>
      <trkpt lat="47.356022" lon="13.206929">
        <ele>562.60</ele>
        <time>2012-05-02T09:48:43Z</time>
      </trkpt>
      <trkpt lat="47.355995" lon="13.206942">
        <ele>563.00</ele>
        <time>2012-05-02T09:48:44Z</time>
      </trkpt>
      <trkpt lat="47.355820" lon="13.206973">
        <ele>563.00</ele>
        <time>2012-05-02T09:48:50Z</time>
      </trkpt>
      <trkpt lat="47.355682" lon="13.206936">
        <ele>563.40</ele>
        <time>2012-05-02T09:48:54Z</time>
      </trkpt>
      <trkpt lat="47.355656" lon="13.206926">
        <ele>563.80</ele>
        <time>2012-05-02T09:48:55Z</time>
      </trkpt>
      <trkpt lat="47.355621" lon="13.206914">
        <ele>564.20</ele>
        <time>2012-05-02T09:48:56Z</time>
      </trkpt>
      <trkpt lat="47.355591" lon="13.206902">
        <ele>564.60</ele>
        <time>2012-05-02T09:48:57Z</time>
      </trkpt>
      <trkpt lat="47.355560" lon="13.206887">
        <ele>565.00</ele>
        <time>2012-05-02T09:48:58Z</time>
      </trkpt>
      <trkpt lat="47.355396" lon="13.206850">
        <ele>565.00</ele>
        <time>2012-05-02T09:49:03Z</time>
      </trkpt>
      <trkpt lat="47.355289" lon="13.206852">
        <ele>565.40</ele>
        <time>2012-05-02T09:49:07Z</time>
      </trkpt>
      <trkpt lat="47.355259" lon="13.206853">
        <ele>565.80</ele>
        <time>2012-05-02T09:49:08Z</time>
      </trkpt>
      <trkpt lat="47.355232" lon="13.206849">
        <ele>566.20</ele>
        <time>2012-05-02T09:49:09Z</time>
      </trkpt>
      <trkpt lat="47.355202" lon="13.206846">
        <ele>566.60</ele>
        <time>2012-05-02T09:49:10Z</time>
      </trkpt>
      <trkpt lat="47.355171" lon="13.206845">
        <ele>567.00</ele>
        <time>2012-05-02T09:49:11Z</time>
      </trkpt>
      <trkpt lat="47.355011" lon="13.206869">
        <ele>567.00</ele>
        <time>2012-05-02T09:49:16Z</time>
      </trkpt>
      <trkpt lat="47.354980" lon="13.206874">
        <ele>567.60</ele>
        <time>2012-05-02T09:49:17Z</time>
      </trkpt>
      <trkpt lat="47.354954" lon="13.206880">
        <ele>568.00</ele>
        <time>2012-05-02T09:49:18Z</time>
      </trkpt>
      <trkpt lat="47.354927" lon="13.206883">
        <ele>568.40</ele>
        <time>2012-05-02T09:49:19Z</time>
      </trkpt>
      <trkpt lat="47.354900" lon="13.206886">
        <ele>568.80</ele>
        <time>2012-05-02T09:49:20Z</time>
      </trkpt>
      <trkpt lat="47.354877" lon="13.206888">
        <ele>569.20</ele>
        <time>2012-05-02T09:49:21Z</time>
      </trkpt>
      <trkpt lat="47.354832" lon="13.206893">
        <ele>569.20</ele>
        <time>2012-05-02T09:49:23Z</time>
      </trkpt>
      <trkpt lat="47.354794" lon="13.206903">
        <ele>569.60</ele>
        <time>2012-05-02T09:49:25Z</time>
      </trkpt>
      <trkpt lat="47.354771" lon="13.206908">
        <ele>570.00</ele>
        <time>2012-05-02T09:49:26Z</time>
      </trkpt>
      <trkpt lat="47.354752" lon="13.206915">
        <ele>570.40</ele>
        <time>2012-05-02T09:49:27Z</time>
      </trkpt>
      <trkpt lat="47.354729" lon="13.206926">
        <ele>570.80</ele>
        <time>2012-05-02T09:49:28Z</time>
      </trkpt>
      <trkpt lat="47.354706" lon="13.206935">
        <ele>571.40</ele>
        <time>2012-05-02T09:49:29Z</time>
      </trkpt>
      <trkpt lat="47.354687" lon="13.206950">
        <ele>571.40</ele>
        <time>2012-05-02T09:49:30Z</time>
      </trkpt>
      <trkpt lat="47.354561" lon="13.206976">
        <ele>571.40</ele>
        <time>2012-05-02T09:49:35Z</time>
      </trkpt>
      <trkpt lat="47.354504" lon="13.206999">
        <ele>571.80</ele>
        <time>2012-05-02T09:49:37Z</time>
      </trkpt>
      <trkpt lat="47.354477" lon="13.207007">
        <ele>572.20</ele>
        <time>2012-05-02T09:49:38Z</time>
      </trkpt>
      <trkpt lat="47.354446" lon="13.207002">
        <ele>572.60</ele>
        <time>2012-05-02T09:49:39Z</time>
      </trkpt>
      <trkpt lat="47.354416" lon="13.207004">
        <ele>573.00</ele>
        <time>2012-05-02T09:49:40Z</time>
      </trkpt>
      <trkpt lat="47.354385" lon="13.207008">
        <ele>573.60</ele>
        <time>2012-05-02T09:49:41Z</time>
      </trkpt>
      <trkpt lat="47.354267" lon="13.207011">
        <ele>573.60</ele>
        <time>2012-05-02T09:49:46Z</time>
      </trkpt>
      <trkpt lat="47.354221" lon="13.207011">
        <ele>574.00</ele>
        <time>2012-05-02T09:49:48Z</time>
      </trkpt>
      <trkpt lat="47.354198" lon="13.207015">
        <ele>574.40</ele>
        <time>2012-05-02T09:49:49Z</time>
      </trkpt>
      <trkpt lat="47.354172" lon="13.207020">
        <ele>574.80</ele>
        <time>2012-05-02T09:49:50Z</time>
      </trkpt>
      <trkpt lat="47.354145" lon="13.207023">
        <ele>575.40</ele>
        <time>2012-05-02T09:49:51Z</time>
      </trkpt>
      <trkpt lat="47.354122" lon="13.207024">
        <ele>575.80</ele>
        <time>2012-05-02T09:49:52Z</time>
      </trkpt>
      <trkpt lat="47.354095" lon="13.207024">
        <ele>575.80</ele>
        <time>2012-05-02T09:49:53Z</time>
      </trkpt>
      <trkpt lat="47.353962" lon="13.207037">
        <ele>576.20</ele>
        <time>2012-05-02T09:49:59Z</time>
      </trkpt>
      <trkpt lat="47.353939" lon="13.207041">
        <ele>576.60</ele>
        <time>2012-05-02T09:50:00Z</time>
      </trkpt>
      <trkpt lat="47.353912" lon="13.207041">
        <ele>577.00</ele>
        <time>2012-05-02T09:50:01Z</time>
      </trkpt>
      <trkpt lat="47.353886" lon="13.207047">
        <ele>577.60</ele>
        <time>2012-05-02T09:50:02Z</time>
      </trkpt>
      <trkpt lat="47.353855" lon="13.207051">
        <ele>578.00</ele>
        <time>2012-05-02T09:50:03Z</time>
      </trkpt>
      <trkpt lat="47.353722" lon="13.207045">
        <ele>578.40</ele>
        <time>2012-05-02T09:50:08Z</time>
      </trkpt>
      <trkpt lat="47.353695" lon="13.207046">
        <ele>578.80</ele>
        <time>2012-05-02T09:50:09Z</time>
      </trkpt>
      <trkpt lat="47.353676" lon="13.207047">
        <ele>579.20</ele>
        <time>2012-05-02T09:50:10Z</time>
      </trkpt>
      <trkpt lat="47.353649" lon="13.207048">
        <ele>579.60</ele>
        <time>2012-05-02T09:50:11Z</time>
      </trkpt>
      <trkpt lat="47.353630" lon="13.207049">
        <ele>580.00</ele>
        <time>2012-05-02T09:50:12Z</time>
      </trkpt>
      <trkpt lat="47.353569" lon="13.207047">
        <ele>580.00</ele>
        <time>2012-05-02T09:50:15Z</time>
      </trkpt>
      <trkpt lat="47.353527" lon="13.207050">
        <ele>580.40</ele>
        <time>2012-05-02T09:50:17Z</time>
      </trkpt>
      <trkpt lat="47.353504" lon="13.207052">
        <ele>580.80</ele>
        <time>2012-05-02T09:50:18Z</time>
      </trkpt>
      <trkpt lat="47.353485" lon="13.207050">
        <ele>581.20</ele>
        <time>2012-05-02T09:50:19Z</time>
      </trkpt>
      <trkpt lat="47.353470" lon="13.207054">
        <ele>581.60</ele>
        <time>2012-05-02T09:50:20Z</time>
      </trkpt>
      <trkpt lat="47.353451" lon="13.207057">
        <ele>582.00</ele>
        <time>2012-05-02T09:50:21Z</time>
      </trkpt>
      <trkpt lat="47.353432" lon="13.207059">
        <ele>582.00</ele>
        <time>2012-05-02T09:50:22Z</time>
      </trkpt>
      <trkpt lat="47.353279" lon="13.207073">
        <ele>582.00</ele>
        <time>2012-05-02T09:50:29Z</time>
      </trkpt>
      <trkpt lat="47.353230" lon="13.207077">
        <ele>582.40</ele>
        <time>2012-05-02T09:50:31Z</time>
      </trkpt>
      <trkpt lat="47.353203" lon="13.207077">
        <ele>582.80</ele>
        <time>2012-05-02T09:50:32Z</time>
      </trkpt>
      <trkpt lat="47.353180" lon="13.207079">
        <ele>583.20</ele>
        <time>2012-05-02T09:50:33Z</time>
      </trkpt>
      <trkpt lat="47.353153" lon="13.207085">
        <ele>583.60</ele>
        <time>2012-05-02T09:50:34Z</time>
      </trkpt>
      <trkpt lat="47.353127" lon="13.207085">
        <ele>584.00</ele>
        <time>2012-05-02T09:50:35Z</time>
      </trkpt>
      <trkpt lat="47.353104" lon="13.207087">
        <ele>584.00</ele>
        <time>2012-05-02T09:50:36Z</time>
      </trkpt>
      <trkpt lat="47.352982" lon="13.207047">
        <ele>584.00</ele>
        <time>2012-05-02T09:50:41Z</time>
      </trkpt>
      <trkpt lat="47.352959" lon="13.206984">
        <ele>584.00</ele>
        <time>2012-05-02T09:50:46Z</time>
      </trkpt>
      <trkpt lat="47.352901" lon="13.206924">
        <ele>584.00</ele>
        <time>2012-05-02T09:50:50Z</time>
      </trkpt>
      <trkpt lat="47.352829" lon="13.206946">
        <ele>584.00</ele>
        <time>2012-05-02T09:50:53Z</time>
      </trkpt>
      <trkpt lat="47.352718" lon="13.206958">
        <ele>584.00</ele>
        <time>2012-05-02T09:50:58Z</time>
      </trkpt>
      <trkpt lat="47.352692" lon="13.206957">
        <ele>584.60</ele>
        <time>2012-05-02T09:50:59Z</time>
      </trkpt>
      <trkpt lat="47.352669" lon="13.206952">
        <ele>585.00</ele>
        <time>2012-05-02T09:51:00Z</time>
      </trkpt>
      <trkpt lat="47.352650" lon="13.206944">
        <ele>585.40</ele>
        <time>2012-05-02T09:51:01Z</time>
      </trkpt>
      <trkpt lat="47.352627" lon="13.206936">
        <ele>585.80</ele>
        <time>2012-05-02T09:51:02Z</time>
      </trkpt>
      <trkpt lat="47.352596" lon="13.206932">
        <ele>586.20</ele>
        <time>2012-05-02T09:51:03Z</time>
      </trkpt>
      <trkpt lat="47.352573" lon="13.206933">
        <ele>586.20</ele>
        <time>2012-05-02T09:51:04Z</time>
      </trkpt>
      <trkpt lat="47.352432" lon="13.206882">
        <ele>586.60</ele>
        <time>2012-05-02T09:51:10Z</time>
      </trkpt>
      <trkpt lat="47.352409" lon="13.206875">
        <ele>587.00</ele>
        <time>2012-05-02T09:51:11Z</time>
      </trkpt>
      <trkpt lat="47.352390" lon="13.206868">
        <ele>587.40</ele>
        <time>2012-05-02T09:51:12Z</time>
      </trkpt>
      <trkpt lat="47.352367" lon="13.206861">
        <ele>587.80</ele>
        <time>2012-05-02T09:51:13Z</time>
      </trkpt>
      <trkpt lat="47.352345" lon="13.206853">
        <ele>588.20</ele>
        <time>2012-05-02T09:51:14Z</time>
      </trkpt>
      <trkpt lat="47.352280" lon="13.206829">
        <ele>588.20</ele>
        <time>2012-05-02T09:51:17Z</time>
      </trkpt>
      <trkpt lat="47.352184" lon="13.206756">
        <ele>588.60</ele>
        <time>2012-05-02T09:51:22Z</time>
      </trkpt>
      <trkpt lat="47.352165" lon="13.206737">
        <ele>589.00</ele>
        <time>2012-05-02T09:51:23Z</time>
      </trkpt>
      <trkpt lat="47.352146" lon="13.206718">
        <ele>589.60</ele>
        <time>2012-05-02T09:51:24Z</time>
      </trkpt>
      <trkpt lat="47.352131" lon="13.206701">
        <ele>590.00</ele>
        <time>2012-05-02T09:51:25Z</time>
      </trkpt>
      <trkpt lat="47.352108" lon="13.206685">
        <ele>590.40</ele>
        <time>2012-05-02T09:51:26Z</time>
      </trkpt>
      <trkpt lat="47.352005" lon="13.206558">
        <ele>590.80</ele>
        <time>2012-05-02T09:51:32Z</time>
      </trkpt>
      <trkpt lat="47.351990" lon="13.206532">
        <ele>591.20</ele>
        <time>2012-05-02T09:51:33Z</time>
      </trkpt>
      <trkpt lat="47.351974" lon="13.206507">
        <ele>591.60</ele>
        <time>2012-05-02T09:51:34Z</time>
      </trkpt>
      <trkpt lat="47.351959" lon="13.206487">
        <ele>592.20</ele>
        <time>2012-05-02T09:51:35Z</time>
      </trkpt>
      <trkpt lat="47.351944" lon="13.206462">
        <ele>592.60</ele>
        <time>2012-05-02T09:51:36Z</time>
      </trkpt>
      <trkpt lat="47.351906" lon="13.206383">
        <ele>592.60</ele>
        <time>2012-05-02T09:51:39Z</time>
      </trkpt>
      <trkpt lat="47.351860" lon="13.206243">
        <ele>593.00</ele>
        <time>2012-05-02T09:51:44Z</time>
      </trkpt>
      <trkpt lat="47.351852" lon="13.206211">
        <ele>593.40</ele>
        <time>2012-05-02T09:51:45Z</time>
      </trkpt>
      <trkpt lat="47.351841" lon="13.206177">
        <ele>593.80</ele>
        <time>2012-05-02T09:51:46Z</time>
      </trkpt>
      <trkpt lat="47.351833" lon="13.206145">
        <ele>594.20</ele>
        <time>2012-05-02T09:51:47Z</time>
      </trkpt>
      <trkpt lat="47.351830" lon="13.206115">
        <ele>594.80</ele>
        <time>2012-05-02T09:51:48Z</time>
      </trkpt>
      <trkpt lat="47.351803" lon="13.205955">
        <ele>594.80</ele>
        <time>2012-05-02T09:51:53Z</time>
      </trkpt>
      <trkpt lat="47.351795" lon="13.205921">
        <ele>595.20</ele>
        <time>2012-05-02T09:51:54Z</time>
      </trkpt>
      <trkpt lat="47.351788" lon="13.205887">
        <ele>595.60</ele>
        <time>2012-05-02T09:51:55Z</time>
      </trkpt>
      <trkpt lat="47.351784" lon="13.205855">
        <ele>596.00</ele>
        <time>2012-05-02T09:51:56Z</time>
      </trkpt>
      <trkpt lat="47.351776" lon="13.205819">
        <ele>596.40</ele>
        <time>2012-05-02T09:51:57Z</time>
      </trkpt>
      <trkpt lat="47.351772" lon="13.205786">
        <ele>596.80</ele>
        <time>2012-05-02T09:51:58Z</time>
      </trkpt>
      <trkpt lat="47.351757" lon="13.205718">
        <ele>596.80</ele>
        <time>2012-05-02T09:52:00Z</time>
      </trkpt>
      <trkpt lat="47.351696" lon="13.205567">
        <ele>597.20</ele>
        <time>2012-05-02T09:52:05Z</time>
      </trkpt>
      <trkpt lat="47.351685" lon="13.205534">
        <ele>597.60</ele>
        <time>2012-05-02T09:52:06Z</time>
      </trkpt>
      <trkpt lat="47.351669" lon="13.205501">
        <ele>598.00</ele>
        <time>2012-05-02T09:52:07Z</time>
      </trkpt>
      <trkpt lat="47.351658" lon="13.205462">
        <ele>598.60</ele>
        <time>2012-05-02T09:52:08Z</time>
      </trkpt>
      <trkpt lat="47.351643" lon="13.205429">
        <ele>599.00</ele>
        <time>2012-05-02T09:52:09Z</time>
      </trkpt>
      <trkpt lat="47.351555" lon="13.205277">
        <ele>599.00</ele>
        <time>2012-05-02T09:52:14Z</time>
      </trkpt>
      <trkpt lat="47.351521" lon="13.205221">
        <ele>599.40</ele>
        <time>2012-05-02T09:52:16Z</time>
      </trkpt>
      <trkpt lat="47.351501" lon="13.205192">
        <ele>600.20</ele>
        <time>2012-05-02T09:52:17Z</time>
      </trkpt>
      <trkpt lat="47.351482" lon="13.205165">
        <ele>600.60</ele>
        <time>2012-05-02T09:52:18Z</time>
      </trkpt>
      <trkpt lat="47.351467" lon="13.205139">
        <ele>601.00</ele>
        <time>2012-05-02T09:52:19Z</time>
      </trkpt>
      <trkpt lat="47.351452" lon="13.205112">
        <ele>601.00</ele>
        <time>2012-05-02T09:52:20Z</time>
      </trkpt>
      <trkpt lat="47.351288" lon="13.204995">
        <ele>601.00</ele>
        <time>2012-05-02T09:52:27Z</time>
      </trkpt>
      <trkpt lat="47.351204" lon="13.204959">
        <ele>601.40</ele>
        <time>2012-05-02T09:52:30Z</time>
      </trkpt>
      <trkpt lat="47.351177" lon="13.204947">
        <ele>601.80</ele>
        <time>2012-05-02T09:52:31Z</time>
      </trkpt>
      <trkpt lat="47.351151" lon="13.204939">
        <ele>602.20</ele>
        <time>2012-05-02T09:52:32Z</time>
      </trkpt>
      <trkpt lat="47.351124" lon="13.204930">
        <ele>602.60</ele>
        <time>2012-05-02T09:52:33Z</time>
      </trkpt>
      <trkpt lat="47.351093" lon="13.204918">
        <ele>603.20</ele>
        <time>2012-05-02T09:52:34Z</time>
      </trkpt>
      <trkpt lat="47.351070" lon="13.204910">
        <ele>603.20</ele>
        <time>2012-05-02T09:52:35Z</time>
      </trkpt>
      <trkpt lat="47.350830" lon="13.204865">
        <ele>603.20</ele>
        <time>2012-05-02T09:52:43Z</time>
      </trkpt>
      <trkpt lat="47.350609" lon="13.204823">
        <ele>603.60</ele>
        <time>2012-05-02T09:52:50Z</time>
      </trkpt>
      <trkpt lat="47.350578" lon="13.204814">
        <ele>604.00</ele>
        <time>2012-05-02T09:52:51Z</time>
      </trkpt>
      <trkpt lat="47.350548" lon="13.204805">
        <ele>604.40</ele>
        <time>2012-05-02T09:52:52Z</time>
      </trkpt>
      <trkpt lat="47.350521" lon="13.204791">
        <ele>604.80</ele>
        <time>2012-05-02T09:52:53Z</time>
      </trkpt>
      <trkpt lat="47.350491" lon="13.204783">
        <ele>605.20</ele>
        <time>2012-05-02T09:52:54Z</time>
      </trkpt>
      <trkpt lat="47.350403" lon="13.204772">
        <ele>605.20</ele>
        <time>2012-05-02T09:52:57Z</time>
      </trkpt>
      <trkpt lat="47.350372" lon="13.204769">
        <ele>605.20</ele>
        <time>2012-05-02T09:52:58Z</time>
      </trkpt>
      <trkpt lat="47.350204" lon="13.204739">
        <ele>605.20</ele>
        <time>2012-05-02T09:53:03Z</time>
      </trkpt>
      <trkpt lat="47.349957" lon="13.204670">
        <ele>605.20</ele>
        <time>2012-05-02T09:53:09Z</time>
      </trkpt>
      <trkpt lat="47.349804" lon="13.204646">
        <ele>605.20</ele>
        <time>2012-05-02T09:53:12Z</time>
      </trkpt>
      <trkpt lat="47.349709" lon="13.204636">
        <ele>605.20</ele>
        <time>2012-05-02T09:53:14Z</time>
      </trkpt>
      <trkpt lat="47.349663" lon="13.204622">
        <ele>605.20</ele>
        <time>2012-05-02T09:53:15Z</time>
      </trkpt>
      <trkpt lat="47.349571" lon="13.204592">
        <ele>605.60</ele>
        <time>2012-05-02T09:53:17Z</time>
      </trkpt>
      <trkpt lat="47.349522" lon="13.204574">
        <ele>606.00</ele>
        <time>2012-05-02T09:53:18Z</time>
      </trkpt>
      <trkpt lat="47.349476" lon="13.204558">
        <ele>606.40</ele>
        <time>2012-05-02T09:53:19Z</time>
      </trkpt>
      <trkpt lat="47.349434" lon="13.204547">
        <ele>606.80</ele>
        <time>2012-05-02T09:53:20Z</time>
      </trkpt>
      <trkpt lat="47.349392" lon="13.204532">
        <ele>607.20</ele>
        <time>2012-05-02T09:53:21Z</time>
      </trkpt>
      <trkpt lat="47.349350" lon="13.204520">
        <ele>607.20</ele>
        <time>2012-05-02T09:53:22Z</time>
      </trkpt>
      <trkpt lat="47.349102" lon="13.204453">
        <ele>607.20</ele>
        <time>2012-05-02T09:53:29Z</time>
      </trkpt>
      <trkpt lat="47.349072" lon="13.204557">
        <ele>607.20</ele>
        <time>2012-05-02T09:53:32Z</time>
      </trkpt>
      <trkpt lat="47.348991" lon="13.204850">
        <ele>607.60</ele>
        <time>2012-05-02T09:53:39Z</time>
      </trkpt>
      <trkpt lat="47.348980" lon="13.204894">
        <ele>608.00</ele>
        <time>2012-05-02T09:53:40Z</time>
      </trkpt>
      <trkpt lat="47.348969" lon="13.204941">
        <ele>608.40</ele>
        <time>2012-05-02T09:53:41Z</time>
      </trkpt>
      <trkpt lat="47.348961" lon="13.204987">
        <ele>608.80</ele>
        <time>2012-05-02T09:53:42Z</time>
      </trkpt>
      <trkpt lat="47.348957" lon="13.205033">
        <ele>609.20</ele>
        <time>2012-05-02T09:53:43Z</time>
      </trkpt>
      <trkpt lat="47.348942" lon="13.205218">
        <ele>609.20</ele>
        <time>2012-05-02T09:53:47Z</time>
      </trkpt>
      <trkpt lat="47.348877" lon="13.205531">
        <ele>609.60</ele>
        <time>2012-05-02T09:53:54Z</time>
      </trkpt>
      <trkpt lat="47.348866" lon="13.205572">
        <ele>610.00</ele>
        <time>2012-05-02T09:53:55Z</time>
      </trkpt>
      <trkpt lat="47.348854" lon="13.205612">
        <ele>611.00</ele>
        <time>2012-05-02T09:53:56Z</time>
      </trkpt>
      <trkpt lat="47.348839" lon="13.205649">
        <ele>611.40</ele>
        <time>2012-05-02T09:53:57Z</time>
      </trkpt>
      <trkpt lat="47.348763" lon="13.205876">
        <ele>611.40</ele>
        <time>2012-05-02T09:54:03Z</time>
      </trkpt>
      <trkpt lat="47.348747" lon="13.205909">
        <ele>611.80</ele>
        <time>2012-05-02T09:54:04Z</time>
      </trkpt>
      <trkpt lat="47.348732" lon="13.205937">
        <ele>612.20</ele>
        <time>2012-05-02T09:54:05Z</time>
      </trkpt>
      <trkpt lat="47.348717" lon="13.205969">
        <ele>612.60</ele>
        <time>2012-05-02T09:54:06Z</time>
      </trkpt>
      <trkpt lat="47.348698" lon="13.205997">
        <ele>613.00</ele>
        <time>2012-05-02T09:54:07Z</time>
      </trkpt>
      <trkpt lat="47.348679" lon="13.206023">
        <ele>613.40</ele>
        <time>2012-05-02T09:54:08Z</time>
      </trkpt>
      <trkpt lat="47.348644" lon="13.206070">
        <ele>613.40</ele>
        <time>2012-05-02T09:54:10Z</time>
      </trkpt>
      <trkpt lat="47.348480" lon="13.206235">
        <ele>613.80</ele>
        <time>2012-05-02T09:54:17Z</time>
      </trkpt>
      <trkpt lat="47.348450" lon="13.206248">
        <ele>614.20</ele>
        <time>2012-05-02T09:54:18Z</time>
      </trkpt>
      <trkpt lat="47.348423" lon="13.206262">
        <ele>614.60</ele>
        <time>2012-05-02T09:54:19Z</time>
      </trkpt>
      <trkpt lat="47.348396" lon="13.206274">
        <ele>615.00</ele>
        <time>2012-05-02T09:54:20Z</time>
      </trkpt>
      <trkpt lat="47.348370" lon="13.206281">
        <ele>615.60</ele>
        <time>2012-05-02T09:54:21Z</time>
      </trkpt>
      <trkpt lat="47.348240" lon="13.206323">
        <ele>615.60</ele>
        <time>2012-05-02T09:54:26Z</time>
      </trkpt>
      <trkpt lat="47.348164" lon="13.206344">
        <ele>616.00</ele>
        <time>2012-05-02T09:54:29Z</time>
      </trkpt>
      <trkpt lat="47.348129" lon="13.206346">
        <ele>616.40</ele>
        <time>2012-05-02T09:54:30Z</time>
      </trkpt>
      <trkpt lat="47.348103" lon="13.206349">
        <ele>616.80</ele>
        <time>2012-05-02T09:54:31Z</time>
      </trkpt>
      <trkpt lat="47.348076" lon="13.206348">
        <ele>617.20</ele>
        <time>2012-05-02T09:54:32Z</time>
      </trkpt>
      <trkpt lat="47.348053" lon="13.206348">
        <ele>617.60</ele>
        <time>2012-05-02T09:54:33Z</time>
      </trkpt>
      <trkpt lat="47.347916" lon="13.206352">
        <ele>617.60</ele>
        <time>2012-05-02T09:54:38Z</time>
      </trkpt>
      <trkpt lat="47.347805" lon="13.206350">
        <ele>617.60</ele>
        <time>2012-05-02T09:54:42Z</time>
      </trkpt>
      <trkpt lat="47.347775" lon="13.206352">
        <ele>618.00</ele>
        <time>2012-05-02T09:54:43Z</time>
      </trkpt>
      <trkpt lat="47.347748" lon="13.206353">
        <ele>618.40</ele>
        <time>2012-05-02T09:54:44Z</time>
      </trkpt>
      <trkpt lat="47.347721" lon="13.206354">
        <ele>618.80</ele>
        <time>2012-05-02T09:54:45Z</time>
      </trkpt>
      <trkpt lat="47.347698" lon="13.206355">
        <ele>619.80</ele>
        <time>2012-05-02T09:54:46Z</time>
      </trkpt>
      <trkpt lat="47.347569" lon="13.206353">
        <ele>619.80</ele>
        <time>2012-05-02T09:54:51Z</time>
      </trkpt>
      <trkpt lat="47.347439" lon="13.206355">
        <ele>620.20</ele>
        <time>2012-05-02T09:54:56Z</time>
      </trkpt>
      <trkpt lat="47.347412" lon="13.206359">
        <ele>620.60</ele>
        <time>2012-05-02T09:54:57Z</time>
      </trkpt>
      <trkpt lat="47.347385" lon="13.206360">
        <ele>621.00</ele>
        <time>2012-05-02T09:54:58Z</time>
      </trkpt>
      <trkpt lat="47.347355" lon="13.206358">
        <ele>621.40</ele>
        <time>2012-05-02T09:54:59Z</time>
      </trkpt>
      <trkpt lat="47.347324" lon="13.206360">
        <ele>621.80</ele>
        <time>2012-05-02T09:55:00Z</time>
      </trkpt>
      <trkpt lat="47.347137" lon="13.206366">
        <ele>621.80</ele>
        <time>2012-05-02T09:55:07Z</time>
      </trkpt>
      <trkpt lat="47.347057" lon="13.206387">
        <ele>622.60</ele>
        <time>2012-05-02T09:55:10Z</time>
      </trkpt>
      <trkpt lat="47.347031" lon="13.206390">
        <ele>623.00</ele>
        <time>2012-05-02T09:55:11Z</time>
      </trkpt>
      <trkpt lat="47.347004" lon="13.206392">
        <ele>623.60</ele>
        <time>2012-05-02T09:55:12Z</time>
      </trkpt>
      <trkpt lat="47.346985" lon="13.206386">
        <ele>624.00</ele>
        <time>2012-05-02T09:55:13Z</time>
      </trkpt>
      <trkpt lat="47.346962" lon="13.206381">
        <ele>624.00</ele>
        <time>2012-05-02T09:55:14Z</time>
      </trkpt>
      <trkpt lat="47.346745" lon="13.206412">
        <ele>624.00</ele>
        <time>2012-05-02T09:55:22Z</time>
      </trkpt>
      <trkpt lat="47.346703" lon="13.206416">
        <ele>624.40</ele>
        <time>2012-05-02T09:55:24Z</time>
      </trkpt>
      <trkpt lat="47.346684" lon="13.206419">
        <ele>624.80</ele>
        <time>2012-05-02T09:55:25Z</time>
      </trkpt>
      <trkpt lat="47.346664" lon="13.206419">
        <ele>625.20</ele>
        <time>2012-05-02T09:55:26Z</time>
      </trkpt>
      <trkpt lat="47.346638" lon="13.206420">
        <ele>625.60</ele>
        <time>2012-05-02T09:55:27Z</time>
      </trkpt>
      <trkpt lat="47.346615" lon="13.206421">
        <ele>626.00</ele>
        <time>2012-05-02T09:55:28Z</time>
      </trkpt>
      <trkpt lat="47.346481" lon="13.206480">
        <ele>626.40</ele>
        <time>2012-05-02T09:55:34Z</time>
      </trkpt>
      <trkpt lat="47.346458" lon="13.206490">
        <ele>627.20</ele>
        <time>2012-05-02T09:55:35Z</time>
      </trkpt>
      <trkpt lat="47.346439" lon="13.206502">
        <ele>627.60</ele>
        <time>2012-05-02T09:55:36Z</time>
      </trkpt>
      <trkpt lat="47.346416" lon="13.206512">
        <ele>628.00</ele>
        <time>2012-05-02T09:55:37Z</time>
      </trkpt>
      <trkpt lat="47.346348" lon="13.206549">
        <ele>628.00</ele>
        <time>2012-05-02T09:55:40Z</time>
      </trkpt>
      <trkpt lat="47.346230" lon="13.206614">
        <ele>628.00</ele>
        <time>2012-05-02T09:55:45Z</time>
      </trkpt>
      <trkpt lat="47.346210" lon="13.206625">
        <ele>628.60</ele>
        <time>2012-05-02T09:55:46Z</time>
      </trkpt>
      <trkpt lat="47.346188" lon="13.206636">
        <ele>629.00</ele>
        <time>2012-05-02T09:55:47Z</time>
      </trkpt>
      <trkpt lat="47.346169" lon="13.206645">
        <ele>629.40</ele>
        <time>2012-05-02T09:55:48Z</time>
      </trkpt>
      <trkpt lat="47.346149" lon="13.206655">
        <ele>629.80</ele>
        <time>2012-05-02T09:55:49Z</time>
      </trkpt>
      <trkpt lat="47.346134" lon="13.206667">
        <ele>630.20</ele>
        <time>2012-05-02T09:55:50Z</time>
      </trkpt>
      <trkpt lat="47.346115" lon="13.206677">
        <ele>630.20</ele>
        <time>2012-05-02T09:55:51Z</time>
      </trkpt>
      <trkpt lat="47.346008" lon="13.206721">
        <ele>630.20</ele>
        <time>2012-05-02T09:55:56Z</time>
      </trkpt>
      <trkpt lat="47.345963" lon="13.206738">
        <ele>630.60</ele>
        <time>2012-05-02T09:55:58Z</time>
      </trkpt>
      <trkpt lat="47.345943" lon="13.206749">
        <ele>631.00</ele>
        <time>2012-05-02T09:55:59Z</time>
      </trkpt>
      <trkpt lat="47.345921" lon="13.206764">
        <ele>631.80</ele>
        <time>2012-05-02T09:56:00Z</time>
      </trkpt>
      <trkpt lat="47.345901" lon="13.206776">
        <ele>632.20</ele>
        <time>2012-05-02T09:56:01Z</time>
      </trkpt>
      <trkpt lat="47.345860" lon="13.206801">
        <ele>632.20</ele>
        <time>2012-05-02T09:56:03Z</time>
      </trkpt>
      <trkpt lat="47.345772" lon="13.206861">
        <ele>632.20</ele>
        <time>2012-05-02T09:56:08Z</time>
      </trkpt>
      <trkpt lat="47.345757" lon="13.206874">
        <ele>632.60</ele>
        <time>2012-05-02T09:56:09Z</time>
      </trkpt>
      <trkpt lat="47.345737" lon="13.206886">
        <ele>633.00</ele>
        <time>2012-05-02T09:56:10Z</time>
      </trkpt>
      <trkpt lat="47.345718" lon="13.206898">
        <ele>633.40</ele>
        <time>2012-05-02T09:56:11Z</time>
      </trkpt>
      <trkpt lat="47.345695" lon="13.206912">
        <ele>633.80</ele>
        <time>2012-05-02T09:56:12Z</time>
      </trkpt>
      <trkpt lat="47.345676" lon="13.206926">
        <ele>634.20</ele>
        <time>2012-05-02T09:56:13Z</time>
      </trkpt>
      <trkpt lat="47.345589" lon="13.207000">
        <ele>634.20</ele>
        <time>2012-05-02T09:56:17Z</time>
      </trkpt>
      <trkpt lat="47.345463" lon="13.207113">
        <ele>634.20</ele>
        <time>2012-05-02T09:56:23Z</time>
      </trkpt>
      <trkpt lat="47.345444" lon="13.207131">
        <ele>634.20</ele>
        <time>2012-05-02T09:56:24Z</time>
      </trkpt>
      <trkpt lat="47.345432" lon="13.207150">
        <ele>635.00</ele>
        <time>2012-05-02T09:56:25Z</time>
      </trkpt>
      <trkpt lat="47.345417" lon="13.207169">
        <ele>635.40</ele>
        <time>2012-05-02T09:56:26Z</time>
      </trkpt>
      <trkpt lat="47.345402" lon="13.207187">
        <ele>635.80</ele>
        <time>2012-05-02T09:56:27Z</time>
      </trkpt>
      <trkpt lat="47.345387" lon="13.207205">
        <ele>636.20</ele>
        <time>2012-05-02T09:56:28Z</time>
      </trkpt>
      <trkpt lat="47.345333" lon="13.207255">
        <ele>636.20</ele>
        <time>2012-05-02T09:56:31Z</time>
      </trkpt>
      <trkpt lat="47.345211" lon="13.207400">
        <ele>636.20</ele>
        <time>2012-05-02T09:56:38Z</time>
      </trkpt>
      <trkpt lat="47.345165" lon="13.207430">
        <ele>636.60</ele>
        <time>2012-05-02T09:56:40Z</time>
      </trkpt>
      <trkpt lat="47.345142" lon="13.207447">
        <ele>637.20</ele>
        <time>2012-05-02T09:56:41Z</time>
      </trkpt>
      <trkpt lat="47.345119" lon="13.207467">
        <ele>637.60</ele>
        <time>2012-05-02T09:56:42Z</time>
      </trkpt>
      <trkpt lat="47.345097" lon="13.207487">
        <ele>638.00</ele>
        <time>2012-05-02T09:56:43Z</time>
      </trkpt>
      <trkpt lat="47.345074" lon="13.207504">
        <ele>638.40</ele>
        <time>2012-05-02T09:56:44Z</time>
      </trkpt>
      <trkpt lat="47.345051" lon="13.207522">
        <ele>638.40</ele>
        <time>2012-05-02T09:56:45Z</time>
      </trkpt>
      <trkpt lat="47.344929" lon="13.207582">
        <ele>638.40</ele>
        <time>2012-05-02T09:56:51Z</time>
      </trkpt>
      <trkpt lat="47.344906" lon="13.207587">
        <ele>638.80</ele>
        <time>2012-05-02T09:56:52Z</time>
      </trkpt>
      <trkpt lat="47.344883" lon="13.207593">
        <ele>639.20</ele>
        <time>2012-05-02T09:56:53Z</time>
      </trkpt>
      <trkpt lat="47.344860" lon="13.207598">
        <ele>639.60</ele>
        <time>2012-05-02T09:56:54Z</time>
      </trkpt>
      <trkpt lat="47.344837" lon="13.207603">
        <ele>640.00</ele>
        <time>2012-05-02T09:56:55Z</time>
      </trkpt>
      <trkpt lat="47.344814" lon="13.207607">
        <ele>640.40</ele>
        <time>2012-05-02T09:56:56Z</time>
      </trkpt>
      <trkpt lat="47.344761" lon="13.207630">
        <ele>640.40</ele>
        <time>2012-05-02T09:56:58Z</time>
      </trkpt>
      <trkpt lat="47.344612" lon="13.207682">
        <ele>640.80</ele>
        <time>2012-05-02T09:57:05Z</time>
      </trkpt>
      <trkpt lat="47.344585" lon="13.207692">
        <ele>641.20</ele>
        <time>2012-05-02T09:57:06Z</time>
      </trkpt>
      <trkpt lat="47.344559" lon="13.207706">
        <ele>641.60</ele>
        <time>2012-05-02T09:57:07Z</time>
      </trkpt>
      <trkpt lat="47.344536" lon="13.207715">
        <ele>642.00</ele>
        <time>2012-05-02T09:57:08Z</time>
      </trkpt>
      <trkpt lat="47.344513" lon="13.207722">
        <ele>642.40</ele>
        <time>2012-05-02T09:57:09Z</time>
      </trkpt>
      <trkpt lat="47.344402" lon="13.207745">
        <ele>642.40</ele>
        <time>2012-05-02T09:57:14Z</time>
      </trkpt>
      <trkpt lat="47.344364" lon="13.207753">
        <ele>642.80</ele>
        <time>2012-05-02T09:57:16Z</time>
      </trkpt>
      <trkpt lat="47.344341" lon="13.207762">
        <ele>643.20</ele>
        <time>2012-05-02T09:57:17Z</time>
      </trkpt>
      <trkpt lat="47.344315" lon="13.207770">
        <ele>643.80</ele>
        <time>2012-05-02T09:57:18Z</time>
      </trkpt>
      <trkpt lat="47.344296" lon="13.207777">
        <ele>644.20</ele>
        <time>2012-05-02T09:57:19Z</time>
      </trkpt>
      <trkpt lat="47.344273" lon="13.207788">
        <ele>644.60</ele>
        <time>2012-05-02T09:57:20Z</time>
      </trkpt>
      <trkpt lat="47.344181" lon="13.207819">
        <ele>644.60</ele>
        <time>2012-05-02T09:57:24Z</time>
      </trkpt>
      <trkpt lat="47.344032" lon="13.207858">
        <ele>645.00</ele>
        <time>2012-05-02T09:57:31Z</time>
      </trkpt>
      <trkpt lat="47.344013" lon="13.207870">
        <ele>645.40</ele>
        <time>2012-05-02T09:57:32Z</time>
      </trkpt>
      <trkpt lat="47.343994" lon="13.207888">
        <ele>645.80</ele>
        <time>2012-05-02T09:57:33Z</time>
      </trkpt>
      <trkpt lat="47.343971" lon="13.207897">
        <ele>646.40</ele>
        <time>2012-05-02T09:57:34Z</time>
      </trkpt>
      <trkpt lat="47.343948" lon="13.207900">
        <ele>646.80</ele>
        <time>2012-05-02T09:57:35Z</time>
      </trkpt>
      <trkpt lat="47.343880" lon="13.207930">
        <ele>646.80</ele>
        <time>2012-05-02T09:57:38Z</time>
      </trkpt>
      <trkpt lat="47.343788" lon="13.207961">
        <ele>647.20</ele>
        <time>2012-05-02T09:57:42Z</time>
      </trkpt>
      <trkpt lat="47.343769" lon="13.207969">
        <ele>647.60</ele>
        <time>2012-05-02T09:57:43Z</time>
      </trkpt>
      <trkpt lat="47.343746" lon="13.207975">
        <ele>648.00</ele>
        <time>2012-05-02T09:57:44Z</time>
      </trkpt>
      <trkpt lat="47.343727" lon="13.207979">
        <ele>648.40</ele>
        <time>2012-05-02T09:57:45Z</time>
      </trkpt>
      <trkpt lat="47.343708" lon="13.207987">
        <ele>648.80</ele>
        <time>2012-05-02T09:57:46Z</time>
      </trkpt>
      <trkpt lat="47.343567" lon="13.208030">
        <ele>648.80</ele>
        <time>2012-05-02T09:57:53Z</time>
      </trkpt>
      <trkpt lat="47.343510" lon="13.208059">
        <ele>649.20</ele>
        <time>2012-05-02T09:57:56Z</time>
      </trkpt>
      <trkpt lat="47.343491" lon="13.208071">
        <ele>649.60</ele>
        <time>2012-05-02T09:57:57Z</time>
      </trkpt>
      <trkpt lat="47.343475" lon="13.208086">
        <ele>650.20</ele>
        <time>2012-05-02T09:57:58Z</time>
      </trkpt>
      <trkpt lat="47.343456" lon="13.208106">
        <ele>650.60</ele>
        <time>2012-05-02T09:57:59Z</time>
      </trkpt>
      <trkpt lat="47.343437" lon="13.208127">
        <ele>651.00</ele>
        <time>2012-05-02T09:58:00Z</time>
      </trkpt>
      <trkpt lat="47.343338" lon="13.208324">
        <ele>651.00</ele>
        <time>2012-05-02T09:58:07Z</time>
      </trkpt>
      <trkpt lat="47.343323" lon="13.208418">
        <ele>651.40</ele>
        <time>2012-05-02T09:58:10Z</time>
      </trkpt>
      <trkpt lat="47.343319" lon="13.208449">
        <ele>651.80</ele>
        <time>2012-05-02T09:58:11Z</time>
      </trkpt>
      <trkpt lat="47.343323" lon="13.208481">
        <ele>652.20</ele>
        <time>2012-05-02T09:58:12Z</time>
      </trkpt>
      <trkpt lat="47.343323" lon="13.208510">
        <ele>652.60</ele>
        <time>2012-05-02T09:58:13Z</time>
      </trkpt>
      <trkpt lat="47.343327" lon="13.208543">
        <ele>653.00</ele>
        <time>2012-05-02T09:58:14Z</time>
      </trkpt>
      <trkpt lat="47.343334" lon="13.208736">
        <ele>653.00</ele>
        <time>2012-05-02T09:58:20Z</time>
      </trkpt>
      <trkpt lat="47.343315" lon="13.208913">
        <ele>653.00</ele>
        <time>2012-05-02T09:58:25Z</time>
      </trkpt>
      <trkpt lat="47.343307" lon="13.208948">
        <ele>653.40</ele>
        <time>2012-05-02T09:58:26Z</time>
      </trkpt>
      <trkpt lat="47.343300" lon="13.208983">
        <ele>653.80</ele>
        <time>2012-05-02T09:58:27Z</time>
      </trkpt>
      <trkpt lat="47.343296" lon="13.209018">
        <ele>654.80</ele>
        <time>2012-05-02T09:58:28Z</time>
      </trkpt>
      <trkpt lat="47.343288" lon="13.209052">
        <ele>655.20</ele>
        <time>2012-05-02T09:58:29Z</time>
      </trkpt>
      <trkpt lat="47.343273" lon="13.209175">
        <ele>655.20</ele>
        <time>2012-05-02T09:58:33Z</time>
      </trkpt>
      <trkpt lat="47.343231" lon="13.209414">
        <ele>655.60</ele>
        <time>2012-05-02T09:58:40Z</time>
      </trkpt>
      <trkpt lat="47.343231" lon="13.209447">
        <ele>656.00</ele>
        <time>2012-05-02T09:58:41Z</time>
      </trkpt>
      <trkpt lat="47.343227" lon="13.209476">
        <ele>656.40</ele>
        <time>2012-05-02T09:58:42Z</time>
      </trkpt>
      <trkpt lat="47.343220" lon="13.209508">
        <ele>656.80</ele>
        <time>2012-05-02T09:58:43Z</time>
      </trkpt>
      <trkpt lat="47.343216" lon="13.209539">
        <ele>657.20</ele>
        <time>2012-05-02T09:58:44Z</time>
      </trkpt>
      <trkpt lat="47.343208" lon="13.209570">
        <ele>657.20</ele>
        <time>2012-05-02T09:58:45Z</time>
      </trkpt>
      <trkpt lat="47.343117" lon="13.209748">
        <ele>657.20</ele>
        <time>2012-05-02T09:58:51Z</time>
      </trkpt>
      <trkpt lat="47.342987" lon="13.209940">
        <ele>657.20</ele>
        <time>2012-05-02T09:58:58Z</time>
      </trkpt>
      <trkpt lat="47.342934" lon="13.210021">
        <ele>658.40</ele>
        <time>2012-05-02T09:58:59Z</time>
      </trkpt>
      <trkpt lat="47.342918" lon="13.210051">
        <ele>658.80</ele>
        <time>2012-05-02T09:59:03Z</time>
      </trkpt>
      <trkpt lat="47.342899" lon="13.210086">
        <ele>659.20</ele>
        <time>2012-05-02T09:59:04Z</time>
      </trkpt>
      <trkpt lat="47.342880" lon="13.210120">
        <ele>659.20</ele>
        <time>2012-05-02T09:59:05Z</time>
      </trkpt>
      <trkpt lat="47.342743" lon="13.210329">
        <ele>659.20</ele>
        <time>2012-05-02T09:59:11Z</time>
      </trkpt>
      <trkpt lat="47.342617" lon="13.210508">
        <ele>659.20</ele>
        <time>2012-05-02T09:59:17Z</time>
      </trkpt>
      <trkpt lat="47.342499" lon="13.210688">
        <ele>659.20</ele>
        <time>2012-05-02T09:59:22Z</time>
      </trkpt>
      <trkpt lat="47.342430" lon="13.210771">
        <ele>659.60</ele>
        <time>2012-05-02T09:59:25Z</time>
      </trkpt>
      <trkpt lat="47.342407" lon="13.210790">
        <ele>660.00</ele>
        <time>2012-05-02T09:59:26Z</time>
      </trkpt>
      <trkpt lat="47.342384" lon="13.210814">
        <ele>660.40</ele>
        <time>2012-05-02T09:59:27Z</time>
      </trkpt>
      <trkpt lat="47.342361" lon="13.210835">
        <ele>661.00</ele>
        <time>2012-05-02T09:59:28Z</time>
      </trkpt>
      <trkpt lat="47.342335" lon="13.210854">
        <ele>661.40</ele>
        <time>2012-05-02T09:59:29Z</time>
      </trkpt>
      <trkpt lat="47.342152" lon="13.210976">
        <ele>661.40</ele>
        <time>2012-05-02T09:59:36Z</time>
      </trkpt>
      <trkpt lat="47.342052" lon="13.211055">
        <ele>661.80</ele>
        <time>2012-05-02T09:59:40Z</time>
      </trkpt>
      <trkpt lat="47.342026" lon="13.211071">
        <ele>662.20</ele>
        <time>2012-05-02T09:59:41Z</time>
      </trkpt>
      <trkpt lat="47.342003" lon="13.211085">
        <ele>662.60</ele>
        <time>2012-05-02T09:59:42Z</time>
      </trkpt>
      <trkpt lat="47.341976" lon="13.211103">
        <ele>663.40</ele>
        <time>2012-05-02T09:59:43Z</time>
      </trkpt>
      <trkpt lat="47.341843" lon="13.211231">
        <ele>663.40</ele>
        <time>2012-05-02T09:59:49Z</time>
      </trkpt>
      <trkpt lat="47.341728" lon="13.211385">
        <ele>663.80</ele>
        <time>2012-05-02T09:59:55Z</time>
      </trkpt>
      <trkpt lat="47.341705" lon="13.211411">
        <ele>664.20</ele>
        <time>2012-05-02T09:59:56Z</time>
      </trkpt>
      <trkpt lat="47.341682" lon="13.211439">
        <ele>664.60</ele>
        <time>2012-05-02T09:59:57Z</time>
      </trkpt>
      <trkpt lat="47.341660" lon="13.211465">
        <ele>665.00</ele>
        <time>2012-05-02T09:59:58Z</time>
      </trkpt>
      <trkpt lat="47.341640" lon="13.211492">
        <ele>665.40</ele>
        <time>2012-05-02T09:59:59Z</time>
      </trkpt>
      <trkpt lat="47.341560" lon="13.211601">
        <ele>665.40</ele>
        <time>2012-05-02T10:00:03Z</time>
      </trkpt>
      <trkpt lat="47.341419" lon="13.211740">
        <ele>665.80</ele>
        <time>2012-05-02T10:00:09Z</time>
      </trkpt>
      <trkpt lat="47.341393" lon="13.211750">
        <ele>666.20</ele>
        <time>2012-05-02T10:00:10Z</time>
      </trkpt>
      <trkpt lat="47.341366" lon="13.211754">
        <ele>666.60</ele>
        <time>2012-05-02T10:00:11Z</time>
      </trkpt>
      <trkpt lat="47.341335" lon="13.211761">
        <ele>667.00</ele>
        <time>2012-05-02T10:00:12Z</time>
      </trkpt>
      <trkpt lat="47.341301" lon="13.211768">
        <ele>667.40</ele>
        <time>2012-05-02T10:00:13Z</time>
      </trkpt>
      <trkpt lat="47.341228" lon="13.211773">
        <ele>667.40</ele>
        <time>2012-05-02T10:00:15Z</time>
      </trkpt>
      <trkpt lat="47.340969" lon="13.211741">
        <ele>667.40</ele>
        <time>2012-05-02T10:00:23Z</time>
      </trkpt>
      <trkpt lat="47.340889" lon="13.211737">
        <ele>667.80</ele>
        <time>2012-05-02T10:00:26Z</time>
      </trkpt>
      <trkpt lat="47.340862" lon="13.211737">
        <ele>668.20</ele>
        <time>2012-05-02T10:00:27Z</time>
      </trkpt>
      <trkpt lat="47.340836" lon="13.211740">
        <ele>668.60</ele>
        <time>2012-05-02T10:00:28Z</time>
      </trkpt>
      <trkpt lat="47.340805" lon="13.211740">
        <ele>669.00</ele>
        <time>2012-05-02T10:00:29Z</time>
      </trkpt>
      <trkpt lat="47.340778" lon="13.211740">
        <ele>669.60</ele>
        <time>2012-05-02T10:00:30Z</time>
      </trkpt>
      <trkpt lat="47.340748" lon="13.211746">
        <ele>669.60</ele>
        <time>2012-05-02T10:00:31Z</time>
      </trkpt>
      <trkpt lat="47.340576" lon="13.211838">
        <ele>669.60</ele>
        <time>2012-05-02T10:00:38Z</time>
      </trkpt>
      <trkpt lat="47.340553" lon="13.211852">
        <ele>670.00</ele>
        <time>2012-05-02T10:00:39Z</time>
      </trkpt>
      <trkpt lat="47.340530" lon="13.211863">
        <ele>670.40</ele>
        <time>2012-05-02T10:00:40Z</time>
      </trkpt>
      <trkpt lat="47.340504" lon="13.211869">
        <ele>670.80</ele>
        <time>2012-05-02T10:00:41Z</time>
      </trkpt>
      <trkpt lat="47.340477" lon="13.211880">
        <ele>671.20</ele>
        <time>2012-05-02T10:00:42Z</time>
      </trkpt>
      <trkpt lat="47.340450" lon="13.211894">
        <ele>671.60</ele>
        <time>2012-05-02T10:00:43Z</time>
      </trkpt>
      <trkpt lat="47.340420" lon="13.211906">
        <ele>671.60</ele>
        <time>2012-05-02T10:00:44Z</time>
      </trkpt>
      <trkpt lat="47.340252" lon="13.212010">
        <ele>671.60</ele>
        <time>2012-05-02T10:00:51Z</time>
      </trkpt>
      <trkpt lat="47.340179" lon="13.212042">
        <ele>672.00</ele>
        <time>2012-05-02T10:00:54Z</time>
      </trkpt>
      <trkpt lat="47.340153" lon="13.212063">
        <ele>672.40</ele>
        <time>2012-05-02T10:00:55Z</time>
      </trkpt>
      <trkpt lat="47.340126" lon="13.212080">
        <ele>672.80</ele>
        <time>2012-05-02T10:00:56Z</time>
      </trkpt>
      <trkpt lat="47.340099" lon="13.212099">
        <ele>673.20</ele>
        <time>2012-05-02T10:00:57Z</time>
      </trkpt>
      <trkpt lat="47.340076" lon="13.212120">
        <ele>673.60</ele>
        <time>2012-05-02T10:00:58Z</time>
      </trkpt>
      <trkpt lat="47.339909" lon="13.212261">
        <ele>673.60</ele>
        <time>2012-05-02T10:01:05Z</time>
      </trkpt>
      <trkpt lat="47.339825" lon="13.212351">
        <ele>674.00</ele>
        <time>2012-05-02T10:01:09Z</time>
      </trkpt>
      <trkpt lat="47.339809" lon="13.212377">
        <ele>674.40</ele>
        <time>2012-05-02T10:01:10Z</time>
      </trkpt>
      <trkpt lat="47.339790" lon="13.212403">
        <ele>674.80</ele>
        <time>2012-05-02T10:01:11Z</time>
      </trkpt>
      <trkpt lat="47.339771" lon="13.212436">
        <ele>675.20</ele>
        <time>2012-05-02T10:01:12Z</time>
      </trkpt>
      <trkpt lat="47.339756" lon="13.212466">
        <ele>675.80</ele>
        <time>2012-05-02T10:01:13Z</time>
      </trkpt>
      <trkpt lat="47.339622" lon="13.212644">
        <ele>675.80</ele>
        <time>2012-05-02T10:01:19Z</time>
      </trkpt>
      <trkpt lat="47.339489" lon="13.212835">
        <ele>675.80</ele>
        <time>2012-05-02T10:01:26Z</time>
      </trkpt>
      <trkpt lat="47.339443" lon="13.212876">
        <ele>676.20</ele>
        <time>2012-05-02T10:01:28Z</time>
      </trkpt>
      <trkpt lat="47.339420" lon="13.212895">
        <ele>676.60</ele>
        <time>2012-05-02T10:01:29Z</time>
      </trkpt>
      <trkpt lat="47.339401" lon="13.212911">
        <ele>677.00</ele>
        <time>2012-05-02T10:01:30Z</time>
      </trkpt>
      <trkpt lat="47.339378" lon="13.212930">
        <ele>677.40</ele>
        <time>2012-05-02T10:01:31Z</time>
      </trkpt>
      <trkpt lat="47.339352" lon="13.212951">
        <ele>677.80</ele>
        <time>2012-05-02T10:01:32Z</time>
      </trkpt>
      <trkpt lat="47.339325" lon="13.212969">
        <ele>677.80</ele>
        <time>2012-05-02T10:01:33Z</time>
      </trkpt>
      <trkpt lat="47.339138" lon="13.213057">
        <ele>678.20</ele>
        <time>2012-05-02T10:01:40Z</time>
      </trkpt>
      <trkpt lat="47.339108" lon="13.213065">
        <ele>678.80</ele>
        <time>2012-05-02T10:01:41Z</time>
      </trkpt>
      <trkpt lat="47.339077" lon="13.213072">
        <ele>679.20</ele>
        <time>2012-05-02T10:01:42Z</time>
      </trkpt>
      <trkpt lat="47.339046" lon="13.213081">
        <ele>679.60</ele>
        <time>2012-05-02T10:01:43Z</time>
      </trkpt>
      <trkpt lat="47.339020" lon="13.213089">
        <ele>680.00</ele>
        <time>2012-05-02T10:01:44Z</time>
      </trkpt>
      <trkpt lat="47.338898" lon="13.213092">
        <ele>680.00</ele>
        <time>2012-05-02T10:01:48Z</time>
      </trkpt>
      <trkpt lat="47.338726" lon="13.213115">
        <ele>680.40</ele>
        <time>2012-05-02T10:01:54Z</time>
      </trkpt>
      <trkpt lat="47.338699" lon="13.213125">
        <ele>681.00</ele>
        <time>2012-05-02T10:01:55Z</time>
      </trkpt>
      <trkpt lat="47.338673" lon="13.213136">
        <ele>681.40</ele>
        <time>2012-05-02T10:01:56Z</time>
      </trkpt>
      <trkpt lat="47.338646" lon="13.213147">
        <ele>681.80</ele>
        <time>2012-05-02T10:01:57Z</time>
      </trkpt>
      <trkpt lat="47.338627" lon="13.213163">
        <ele>682.20</ele>
        <time>2012-05-02T10:01:58Z</time>
      </trkpt>
      <trkpt lat="47.338524" lon="13.213266">
        <ele>682.20</ele>
        <time>2012-05-02T10:02:03Z</time>
      </trkpt>
      <trkpt lat="47.338417" lon="13.213439">
        <ele>682.60</ele>
        <time>2012-05-02T10:02:09Z</time>
      </trkpt>
      <trkpt lat="47.338398" lon="13.213470">
        <ele>683.00</ele>
        <time>2012-05-02T10:02:10Z</time>
      </trkpt>
      <trkpt lat="47.338371" lon="13.213501">
        <ele>683.80</ele>
        <time>2012-05-02T10:02:11Z</time>
      </trkpt>
      <trkpt lat="47.338352" lon="13.213531">
        <ele>684.20</ele>
        <time>2012-05-02T10:02:12Z</time>
      </trkpt>
      <trkpt lat="47.338276" lon="13.213643">
        <ele>684.20</ele>
        <time>2012-05-02T10:02:16Z</time>
      </trkpt>
      <trkpt lat="47.338127" lon="13.213813">
        <ele>684.20</ele>
        <time>2012-05-02T10:02:23Z</time>
      </trkpt>
      <trkpt lat="47.338108" lon="13.213832">
        <ele>684.60</ele>
        <time>2012-05-02T10:02:24Z</time>
      </trkpt>
      <trkpt lat="47.338085" lon="13.213855">
        <ele>685.00</ele>
        <time>2012-05-02T10:02:25Z</time>
      </trkpt>
      <trkpt lat="47.338062" lon="13.213877">
        <ele>685.40</ele>
        <time>2012-05-02T10:02:26Z</time>
      </trkpt>
      <trkpt lat="47.338039" lon="13.213895">
        <ele>686.00</ele>
        <time>2012-05-02T10:02:27Z</time>
      </trkpt>
      <trkpt lat="47.338017" lon="13.213910">
        <ele>686.40</ele>
        <time>2012-05-02T10:02:28Z</time>
      </trkpt>
      <trkpt lat="47.337967" lon="13.213942">
        <ele>686.40</ele>
        <time>2012-05-02T10:02:30Z</time>
      </trkpt>
      <trkpt lat="47.337830" lon="13.214054">
        <ele>687.20</ele>
        <time>2012-05-02T10:02:36Z</time>
      </trkpt>
      <trkpt lat="47.337807" lon="13.214079">
        <ele>687.60</ele>
        <time>2012-05-02T10:02:37Z</time>
      </trkpt>
      <trkpt lat="47.337784" lon="13.214102">
        <ele>688.00</ele>
        <time>2012-05-02T10:02:38Z</time>
      </trkpt>
      <trkpt lat="47.337761" lon="13.214125">
        <ele>688.40</ele>
        <time>2012-05-02T10:02:39Z</time>
      </trkpt>
      <trkpt lat="47.337639" lon="13.214261">
        <ele>688.80</ele>
        <time>2012-05-02T10:02:45Z</time>
      </trkpt>
      <trkpt lat="47.337620" lon="13.214283">
        <ele>689.40</ele>
        <time>2012-05-02T10:02:46Z</time>
      </trkpt>
      <trkpt lat="47.337601" lon="13.214304">
        <ele>689.80</ele>
        <time>2012-05-02T10:02:47Z</time>
      </trkpt>
      <trkpt lat="47.337585" lon="13.214330">
        <ele>690.20</ele>
        <time>2012-05-02T10:02:48Z</time>
      </trkpt>
      <trkpt lat="47.337570" lon="13.214355">
        <ele>690.60</ele>
        <time>2012-05-02T10:02:49Z</time>
      </trkpt>
      <trkpt lat="47.337509" lon="13.214459">
        <ele>690.60</ele>
        <time>2012-05-02T10:02:53Z</time>
      </trkpt>
      <trkpt lat="47.337463" lon="13.214533">
        <ele>691.00</ele>
        <time>2012-05-02T10:02:56Z</time>
      </trkpt>
      <trkpt lat="47.337448" lon="13.214561">
        <ele>691.40</ele>
        <time>2012-05-02T10:02:57Z</time>
      </trkpt>
      <trkpt lat="47.337433" lon="13.214590">
        <ele>691.80</ele>
        <time>2012-05-02T10:02:58Z</time>
      </trkpt>
      <trkpt lat="47.337414" lon="13.214615">
        <ele>692.20</ele>
        <time>2012-05-02T10:02:59Z</time>
      </trkpt>
      <trkpt lat="47.337395" lon="13.214640">
        <ele>692.60</ele>
        <time>2012-05-02T10:03:00Z</time>
      </trkpt>
      <trkpt lat="47.337379" lon="13.214666">
        <ele>692.60</ele>
        <time>2012-05-02T10:03:01Z</time>
      </trkpt>
      <trkpt lat="47.337257" lon="13.214890">
        <ele>693.00</ele>
        <time>2012-05-02T10:03:09Z</time>
      </trkpt>
      <trkpt lat="47.337238" lon="13.214916">
        <ele>693.40</ele>
        <time>2012-05-02T10:03:10Z</time>
      </trkpt>
      <trkpt lat="47.337223" lon="13.214946">
        <ele>693.80</ele>
        <time>2012-05-02T10:03:11Z</time>
      </trkpt>
      <trkpt lat="47.337204" lon="13.214973">
        <ele>694.20</ele>
        <time>2012-05-02T10:03:12Z</time>
      </trkpt>
      <trkpt lat="47.337185" lon="13.215003">
        <ele>694.60</ele>
        <time>2012-05-02T10:03:13Z</time>
      </trkpt>
      <trkpt lat="47.337139" lon="13.215084">
        <ele>694.60</ele>
        <time>2012-05-02T10:03:16Z</time>
      </trkpt>
      <trkpt lat="47.337059" lon="13.215223">
        <ele>695.00</ele>
        <time>2012-05-02T10:03:21Z</time>
      </trkpt>
      <trkpt lat="47.337040" lon="13.215248">
        <ele>695.60</ele>
        <time>2012-05-02T10:03:22Z</time>
      </trkpt>
      <trkpt lat="47.337021" lon="13.215275">
        <ele>696.00</ele>
        <time>2012-05-02T10:03:23Z</time>
      </trkpt>
      <trkpt lat="47.337006" lon="13.215304">
        <ele>696.40</ele>
        <time>2012-05-02T10:03:24Z</time>
      </trkpt>
      <trkpt lat="47.336987" lon="13.215329">
        <ele>696.80</ele>
        <time>2012-05-02T10:03:25Z</time>
      </trkpt>
      <trkpt lat="47.336914" lon="13.215424">
        <ele>696.80</ele>
        <time>2012-05-02T10:03:29Z</time>
      </trkpt>
      <trkpt lat="47.336830" lon="13.215503">
        <ele>697.20</ele>
        <time>2012-05-02T10:03:33Z</time>
      </trkpt>
      <trkpt lat="47.336811" lon="13.215523">
        <ele>697.60</ele>
        <time>2012-05-02T10:03:34Z</time>
      </trkpt>
      <trkpt lat="47.336792" lon="13.215542">
        <ele>698.00</ele>
        <time>2012-05-02T10:03:35Z</time>
      </trkpt>
      <trkpt lat="47.336773" lon="13.215566">
        <ele>698.40</ele>
        <time>2012-05-02T10:03:36Z</time>
      </trkpt>
      <trkpt lat="47.336750" lon="13.215585">
        <ele>698.80</ele>
        <time>2012-05-02T10:03:37Z</time>
      </trkpt>
      <trkpt lat="47.336594" lon="13.215749">
        <ele>699.20</ele>
        <time>2012-05-02T10:03:45Z</time>
      </trkpt>
      <trkpt lat="47.336575" lon="13.215775">
        <ele>699.80</ele>
        <time>2012-05-02T10:03:46Z</time>
      </trkpt>
      <trkpt lat="47.336555" lon="13.215798">
        <ele>700.20</ele>
        <time>2012-05-02T10:03:47Z</time>
      </trkpt>
      <trkpt lat="47.336540" lon="13.215820">
        <ele>700.60</ele>
        <time>2012-05-02T10:03:48Z</time>
      </trkpt>
      <trkpt lat="47.336521" lon="13.215849">
        <ele>701.00</ele>
        <time>2012-05-02T10:03:49Z</time>
      </trkpt>
      <trkpt lat="47.336475" lon="13.215937">
        <ele>701.00</ele>
        <time>2012-05-02T10:03:52Z</time>
      </trkpt>
      <trkpt lat="47.336403" lon="13.216075">
        <ele>701.40</ele>
        <time>2012-05-02T10:03:57Z</time>
      </trkpt>
      <trkpt lat="47.336391" lon="13.216109">
        <ele>702.00</ele>
        <time>2012-05-02T10:03:58Z</time>
      </trkpt>
      <trkpt lat="47.336380" lon="13.216141">
        <ele>702.40</ele>
        <time>2012-05-02T10:03:59Z</time>
      </trkpt>
      <trkpt lat="47.336372" lon="13.216172">
        <ele>702.80</ele>
        <time>2012-05-02T10:04:00Z</time>
      </trkpt>
      <trkpt lat="47.336361" lon="13.216205">
        <ele>703.20</ele>
        <time>2012-05-02T10:04:01Z</time>
      </trkpt>
      <trkpt lat="47.336273" lon="13.216489">
        <ele>703.20</ele>
        <time>2012-05-02T10:04:10Z</time>
      </trkpt>
      <trkpt lat="47.336250" lon="13.216559">
        <ele>703.60</ele>
        <time>2012-05-02T10:04:12Z</time>
      </trkpt>
      <trkpt lat="47.336246" lon="13.216597">
        <ele>704.20</ele>
        <time>2012-05-02T10:04:13Z</time>
      </trkpt>
      <trkpt lat="47.336239" lon="13.216631">
        <ele>704.60</ele>
        <time>2012-05-02T10:04:14Z</time>
      </trkpt>
      <trkpt lat="47.336231" lon="13.216663">
        <ele>705.40</ele>
        <time>2012-05-02T10:04:15Z</time>
      </trkpt>
      <trkpt lat="47.336212" lon="13.216731">
        <ele>705.40</ele>
        <time>2012-05-02T10:04:17Z</time>
      </trkpt>
      <trkpt lat="47.336132" lon="13.216998">
        <ele>705.40</ele>
        <time>2012-05-02T10:04:24Z</time>
      </trkpt>
      <trkpt lat="47.336052" lon="13.217211">
        <ele>705.40</ele>
        <time>2012-05-02T10:04:30Z</time>
      </trkpt>
      <trkpt lat="47.336037" lon="13.217241">
        <ele>705.80</ele>
        <time>2012-05-02T10:04:31Z</time>
      </trkpt>
      <trkpt lat="47.336018" lon="13.217274">
        <ele>706.20</ele>
        <time>2012-05-02T10:04:32Z</time>
      </trkpt>
      <trkpt lat="47.336002" lon="13.217300">
        <ele>706.60</ele>
        <time>2012-05-02T10:04:33Z</time>
      </trkpt>
      <trkpt lat="47.335983" lon="13.217333">
        <ele>707.00</ele>
        <time>2012-05-02T10:04:34Z</time>
      </trkpt>
      <trkpt lat="47.335960" lon="13.217366">
        <ele>707.40</ele>
        <time>2012-05-02T10:04:35Z</time>
      </trkpt>
      <trkpt lat="47.335926" lon="13.217424">
        <ele>707.40</ele>
        <time>2012-05-02T10:04:37Z</time>
      </trkpt>
      <trkpt lat="47.335800" lon="13.217566">
        <ele>707.40</ele>
        <time>2012-05-02T10:04:44Z</time>
      </trkpt>
      <trkpt lat="47.335777" lon="13.217583">
        <ele>707.80</ele>
        <time>2012-05-02T10:04:45Z</time>
      </trkpt>
      <trkpt lat="47.335754" lon="13.217601">
        <ele>708.20</ele>
        <time>2012-05-02T10:04:46Z</time>
      </trkpt>
      <trkpt lat="47.335732" lon="13.217615">
        <ele>708.60</ele>
        <time>2012-05-02T10:04:47Z</time>
      </trkpt>
      <trkpt lat="47.335709" lon="13.217624">
        <ele>709.00</ele>
        <time>2012-05-02T10:04:48Z</time>
      </trkpt>
      <trkpt lat="47.335686" lon="13.217630">
        <ele>709.60</ele>
        <time>2012-05-02T10:04:49Z</time>
      </trkpt>
      <trkpt lat="47.335640" lon="13.217640">
        <ele>709.60</ele>
        <time>2012-05-02T10:04:51Z</time>
      </trkpt>
      <trkpt lat="47.335571" lon="13.217659">
        <ele>710.00</ele>
        <time>2012-05-02T10:04:54Z</time>
      </trkpt>
      <trkpt lat="47.335548" lon="13.217669">
        <ele>710.40</ele>
        <time>2012-05-02T10:04:55Z</time>
      </trkpt>
      <trkpt lat="47.335529" lon="13.217684">
        <ele>710.80</ele>
        <time>2012-05-02T10:04:56Z</time>
      </trkpt>
      <trkpt lat="47.335510" lon="13.217697">
        <ele>711.20</ele>
        <time>2012-05-02T10:04:57Z</time>
      </trkpt>
      <trkpt lat="47.335491" lon="13.217713">
        <ele>711.80</ele>
        <time>2012-05-02T10:04:58Z</time>
      </trkpt>
      <trkpt lat="47.335472" lon="13.217724">
        <ele>711.80</ele>
        <time>2012-05-02T10:04:59Z</time>
      </trkpt>
      <trkpt lat="47.335396" lon="13.217794">
        <ele>712.20</ele>
        <time>2012-05-02T10:05:03Z</time>
      </trkpt>
      <trkpt lat="47.335381" lon="13.217813">
        <ele>713.00</ele>
        <time>2012-05-02T10:05:04Z</time>
      </trkpt>
      <trkpt lat="47.335369" lon="13.217833">
        <ele>713.40</ele>
        <time>2012-05-02T10:05:05Z</time>
      </trkpt>
      <trkpt lat="47.335358" lon="13.217850">
        <ele>713.80</ele>
        <time>2012-05-02T10:05:06Z</time>
      </trkpt>
      <trkpt lat="47.335293" lon="13.217975">
        <ele>713.80</ele>
        <time>2012-05-02T10:05:11Z</time>
      </trkpt>
      <trkpt lat="47.335278" lon="13.217995">
        <ele>714.20</ele>
        <time>2012-05-02T10:05:12Z</time>
      </trkpt>
      <trkpt lat="47.335266" lon="13.218013">
        <ele>714.60</ele>
        <time>2012-05-02T10:05:13Z</time>
      </trkpt>
      <trkpt lat="47.335251" lon="13.218032">
        <ele>715.00</ele>
        <time>2012-05-02T10:05:14Z</time>
      </trkpt>
      <trkpt lat="47.335232" lon="13.218049">
        <ele>715.60</ele>
        <time>2012-05-02T10:05:15Z</time>
      </trkpt>
      <trkpt lat="47.335220" lon="13.218067">
        <ele>716.00</ele>
        <time>2012-05-02T10:05:16Z</time>
      </trkpt>
      <trkpt lat="47.335190" lon="13.218098">
        <ele>716.00</ele>
        <time>2012-05-02T10:05:18Z</time>
      </trkpt>
      <trkpt lat="47.335155" lon="13.218158">
        <ele>716.40</ele>
        <time>2012-05-02T10:05:21Z</time>
      </trkpt>
      <trkpt lat="47.335140" lon="13.218179">
        <ele>716.80</ele>
        <time>2012-05-02T10:05:22Z</time>
      </trkpt>
      <trkpt lat="47.335121" lon="13.218194">
        <ele>717.20</ele>
        <time>2012-05-02T10:05:23Z</time>
      </trkpt>
      <trkpt lat="47.335102" lon="13.218214">
        <ele>717.80</ele>
        <time>2012-05-02T10:05:24Z</time>
      </trkpt>
      <trkpt lat="47.335079" lon="13.218231">
        <ele>718.20</ele>
        <time>2012-05-02T10:05:25Z</time>
      </trkpt>
      <trkpt lat="47.335011" lon="13.218282">
        <ele>718.20</ele>
        <time>2012-05-02T10:05:28Z</time>
      </trkpt>
      <trkpt lat="47.334995" lon="13.218293">
        <ele>718.20</ele>
        <time>2012-05-02T10:05:29Z</time>
      </trkpt>
      <trkpt lat="47.334885" lon="13.218304">
        <ele>718.60</ele>
        <time>2012-05-02T10:05:34Z</time>
      </trkpt>
      <trkpt lat="47.334866" lon="13.218301">
        <ele>719.00</ele>
        <time>2012-05-02T10:05:35Z</time>
      </trkpt>
      <trkpt lat="47.334839" lon="13.218296">
        <ele>719.40</ele>
        <time>2012-05-02T10:05:36Z</time>
      </trkpt>
      <trkpt lat="47.334816" lon="13.218291">
        <ele>719.80</ele>
        <time>2012-05-02T10:05:37Z</time>
      </trkpt>
      <trkpt lat="47.334793" lon="13.218286">
        <ele>720.20</ele>
        <time>2012-05-02T10:05:38Z</time>
      </trkpt>
      <trkpt lat="47.334671" lon="13.218278">
        <ele>720.20</ele>
        <time>2012-05-02T10:05:43Z</time>
      </trkpt>
      <trkpt lat="47.334568" lon="13.218276">
        <ele>720.60</ele>
        <time>2012-05-02T10:05:47Z</time>
      </trkpt>
      <trkpt lat="47.334549" lon="13.218287">
        <ele>721.00</ele>
        <time>2012-05-02T10:05:48Z</time>
      </trkpt>
      <trkpt lat="47.334530" lon="13.218299">
        <ele>721.40</ele>
        <time>2012-05-02T10:05:49Z</time>
      </trkpt>
      <trkpt lat="47.334511" lon="13.218315">
        <ele>722.00</ele>
        <time>2012-05-02T10:05:50Z</time>
      </trkpt>
      <trkpt lat="47.334496" lon="13.218330">
        <ele>722.40</ele>
        <time>2012-05-02T10:05:51Z</time>
      </trkpt>
      <trkpt lat="47.334438" lon="13.218406">
        <ele>722.40</ele>
        <time>2012-05-02T10:05:55Z</time>
      </trkpt>
      <trkpt lat="47.334362" lon="13.218582">
        <ele>722.40</ele>
        <time>2012-05-02T10:06:01Z</time>
      </trkpt>
      <trkpt lat="47.334305" lon="13.218756">
        <ele>722.80</ele>
        <time>2012-05-02T10:06:07Z</time>
      </trkpt>
      <trkpt lat="47.334293" lon="13.218781">
        <ele>723.20</ele>
        <time>2012-05-02T10:06:08Z</time>
      </trkpt>
      <trkpt lat="47.334290" lon="13.218806">
        <ele>723.60</ele>
        <time>2012-05-02T10:06:09Z</time>
      </trkpt>
      <trkpt lat="47.334290" lon="13.218833">
        <ele>724.00</ele>
        <time>2012-05-02T10:06:10Z</time>
      </trkpt>
      <trkpt lat="47.334282" lon="13.218864">
        <ele>724.40</ele>
        <time>2012-05-02T10:06:11Z</time>
      </trkpt>
      <trkpt lat="47.334240" lon="13.219062">
        <ele>724.40</ele>
        <time>2012-05-02T10:06:17Z</time>
      </trkpt>
      <trkpt lat="47.334206" lon="13.219373">
        <ele>724.40</ele>
        <time>2012-05-02T10:06:25Z</time>
      </trkpt>
      <trkpt lat="47.334183" lon="13.219477">
        <ele>724.80</ele>
        <time>2012-05-02T10:06:28Z</time>
      </trkpt>
      <trkpt lat="47.334179" lon="13.219509">
        <ele>725.20</ele>
        <time>2012-05-02T10:06:29Z</time>
      </trkpt>
      <trkpt lat="47.334171" lon="13.219547">
        <ele>725.60</ele>
        <time>2012-05-02T10:06:30Z</time>
      </trkpt>
      <trkpt lat="47.334167" lon="13.219581">
        <ele>726.00</ele>
        <time>2012-05-02T10:06:31Z</time>
      </trkpt>
      <trkpt lat="47.334156" lon="13.219612">
        <ele>726.40</ele>
        <time>2012-05-02T10:06:32Z</time>
      </trkpt>
      <trkpt lat="47.334110" lon="13.219852">
        <ele>726.40</ele>
        <time>2012-05-02T10:06:39Z</time>
      </trkpt>
      <trkpt lat="47.334080" lon="13.219934">
        <ele>726.80</ele>
        <time>2012-05-02T10:06:42Z</time>
      </trkpt>
      <trkpt lat="47.334072" lon="13.219964">
        <ele>727.80</ele>
        <time>2012-05-02T10:06:43Z</time>
      </trkpt>
      <trkpt lat="47.334061" lon="13.219994">
        <ele>728.20</ele>
        <time>2012-05-02T10:06:44Z</time>
      </trkpt>
      <trkpt lat="47.334045" lon="13.220023">
        <ele>728.60</ele>
        <time>2012-05-02T10:06:45Z</time>
      </trkpt>
      <trkpt lat="47.334034" lon="13.220059">
        <ele>728.60</ele>
        <time>2012-05-02T10:06:46Z</time>
      </trkpt>
      <trkpt lat="47.333950" lon="13.220217">
        <ele>728.60</ele>
        <time>2012-05-02T10:06:52Z</time>
      </trkpt>
      <trkpt lat="47.333935" lon="13.220240">
        <ele>729.00</ele>
        <time>2012-05-02T10:06:53Z</time>
      </trkpt>
      <trkpt lat="47.333920" lon="13.220262">
        <ele>729.40</ele>
        <time>2012-05-02T10:06:54Z</time>
      </trkpt>
      <trkpt lat="47.333897" lon="13.220278">
        <ele>730.00</ele>
        <time>2012-05-02T10:06:55Z</time>
      </trkpt>
      <trkpt lat="47.333878" lon="13.220304">
        <ele>730.40</ele>
        <time>2012-05-02T10:06:56Z</time>
      </trkpt>
      <trkpt lat="47.333862" lon="13.220323">
        <ele>730.80</ele>
        <time>2012-05-02T10:06:57Z</time>
      </trkpt>
      <trkpt lat="47.333836" lon="13.220370">
        <ele>730.80</ele>
        <time>2012-05-02T10:06:59Z</time>
      </trkpt>
      <trkpt lat="47.333759" lon="13.220507">
        <ele>731.20</ele>
        <time>2012-05-02T10:07:04Z</time>
      </trkpt>
      <trkpt lat="47.333744" lon="13.220533">
        <ele>731.60</ele>
        <time>2012-05-02T10:07:05Z</time>
      </trkpt>
      <trkpt lat="47.333733" lon="13.220561">
        <ele>732.00</ele>
        <time>2012-05-02T10:07:06Z</time>
      </trkpt>
      <trkpt lat="47.333725" lon="13.220592">
        <ele>732.40</ele>
        <time>2012-05-02T10:07:07Z</time>
      </trkpt>
      <trkpt lat="47.333717" lon="13.220620">
        <ele>732.80</ele>
        <time>2012-05-02T10:07:08Z</time>
      </trkpt>
      <trkpt lat="47.333675" lon="13.220808">
        <ele>732.80</ele>
        <time>2012-05-02T10:07:14Z</time>
      </trkpt>
      <trkpt lat="47.333656" lon="13.220874">
        <ele>733.20</ele>
        <time>2012-05-02T10:07:16Z</time>
      </trkpt>
      <trkpt lat="47.333652" lon="13.220907">
        <ele>733.60</ele>
        <time>2012-05-02T10:07:17Z</time>
      </trkpt>
      <trkpt lat="47.333641" lon="13.220943">
        <ele>734.00</ele>
        <time>2012-05-02T10:07:18Z</time>
      </trkpt>
      <trkpt lat="47.333633" lon="13.220979">
        <ele>734.40</ele>
        <time>2012-05-02T10:07:19Z</time>
      </trkpt>
      <trkpt lat="47.333622" lon="13.221013">
        <ele>734.80</ele>
        <time>2012-05-02T10:07:20Z</time>
      </trkpt>
      <trkpt lat="47.333542" lon="13.221243">
        <ele>734.80</ele>
        <time>2012-05-02T10:07:27Z</time>
      </trkpt>
      <trkpt lat="47.333469" lon="13.221383">
        <ele>735.80</ele>
        <time>2012-05-02T10:07:32Z</time>
      </trkpt>
      <trkpt lat="47.333454" lon="13.221419">
        <ele>736.20</ele>
        <time>2012-05-02T10:07:33Z</time>
      </trkpt>
      <trkpt lat="47.333443" lon="13.221457">
        <ele>736.60</ele>
        <time>2012-05-02T10:07:34Z</time>
      </trkpt>
      <trkpt lat="47.333427" lon="13.221495">
        <ele>737.00</ele>
        <time>2012-05-02T10:07:35Z</time>
      </trkpt>
      <trkpt lat="47.333370" lon="13.221640">
        <ele>737.00</ele>
        <time>2012-05-02T10:07:39Z</time>
      </trkpt>
      <trkpt lat="47.333347" lon="13.221890">
        <ele>737.00</ele>
        <time>2012-05-02T10:07:44Z</time>
      </trkpt>
      <trkpt lat="47.333359" lon="13.222071">
        <ele>737.00</ele>
        <time>2012-05-02T10:07:47Z</time>
      </trkpt>
      <trkpt lat="47.333363" lon="13.222217">
        <ele>737.00</ele>
        <time>2012-05-02T10:07:49Z</time>
      </trkpt>
      <trkpt lat="47.333366" lon="13.222724">
        <ele>737.00</ele>
        <time>2012-05-02T10:07:55Z</time>
      </trkpt>
      <trkpt lat="47.333332" lon="13.223424">
        <ele>737.00</ele>
        <time>2012-05-02T10:08:02Z</time>
      </trkpt>
      <trkpt lat="47.333290" lon="13.223629">
        <ele>737.00</ele>
        <time>2012-05-02T10:08:04Z</time>
      </trkpt>
      <trkpt lat="47.333221" lon="13.223813">
        <ele>737.00</ele>
        <time>2012-05-02T10:08:06Z</time>
      </trkpt>
      <trkpt lat="47.333164" lon="13.223907">
        <ele>737.00</ele>
        <time>2012-05-02T10:08:07Z</time>
      </trkpt>
      <trkpt lat="47.332966" lon="13.224309">
        <ele>736.60</ele>
        <time>2012-05-02T10:08:11Z</time>
      </trkpt>
      <trkpt lat="47.332924" lon="13.224408">
        <ele>736.20</ele>
        <time>2012-05-02T10:08:12Z</time>
      </trkpt>
      <trkpt lat="47.332886" lon="13.224505">
        <ele>735.80</ele>
        <time>2012-05-02T10:08:13Z</time>
      </trkpt>
      <trkpt lat="47.332848" lon="13.224606">
        <ele>735.40</ele>
        <time>2012-05-02T10:08:14Z</time>
      </trkpt>
      <trkpt lat="47.332806" lon="13.224708">
        <ele>735.00</ele>
        <time>2012-05-02T10:08:15Z</time>
      </trkpt>
      <trkpt lat="47.332642" lon="13.225108">
        <ele>735.00</ele>
        <time>2012-05-02T10:08:19Z</time>
      </trkpt>
      <trkpt lat="47.332432" lon="13.225712">
        <ele>734.60</ele>
        <time>2012-05-02T10:08:25Z</time>
      </trkpt>
      <trkpt lat="47.332409" lon="13.225814">
        <ele>734.00</ele>
        <time>2012-05-02T10:08:26Z</time>
      </trkpt>
      <trkpt lat="47.332386" lon="13.225910">
        <ele>733.60</ele>
        <time>2012-05-02T10:08:27Z</time>
      </trkpt>
      <trkpt lat="47.332363" lon="13.226006">
        <ele>733.20</ele>
        <time>2012-05-02T10:08:28Z</time>
      </trkpt>
      <trkpt lat="47.332336" lon="13.226098">
        <ele>732.80</ele>
        <time>2012-05-02T10:08:29Z</time>
      </trkpt>
      <trkpt lat="47.332222" lon="13.226475">
        <ele>732.80</ele>
        <time>2012-05-02T10:08:33Z</time>
      </trkpt>
      <trkpt lat="47.332050" lon="13.226728">
        <ele>732.80</ele>
        <time>2012-05-02T10:08:37Z</time>
      </trkpt>
      <trkpt lat="47.331841" lon="13.227095">
        <ele>732.80</ele>
        <time>2012-05-02T10:08:43Z</time>
      </trkpt>
      <trkpt lat="47.331673" lon="13.227585">
        <ele>732.80</ele>
        <time>2012-05-02T10:08:50Z</time>
      </trkpt>
      <trkpt lat="47.331535" lon="13.228170">
        <ele>732.80</ele>
        <time>2012-05-02T10:08:57Z</time>
      </trkpt>
      <trkpt lat="47.331505" lon="13.228251">
        <ele>732.80</ele>
        <time>2012-05-02T10:08:58Z</time>
      </trkpt>
      <trkpt lat="47.331375" lon="13.228491">
        <ele>732.80</ele>
        <time>2012-05-02T10:09:01Z</time>
      </trkpt>
      <trkpt lat="47.331238" lon="13.228755">
        <ele>732.80</ele>
        <time>2012-05-02T10:09:04Z</time>
      </trkpt>
      <trkpt lat="47.331173" lon="13.228971">
        <ele>732.80</ele>
        <time>2012-05-02T10:09:06Z</time>
      </trkpt>
      <trkpt lat="47.331089" lon="13.229365">
        <ele>732.40</ele>
        <time>2012-05-02T10:09:09Z</time>
      </trkpt>
      <trkpt lat="47.331070" lon="13.229500">
        <ele>732.00</ele>
        <time>2012-05-02T10:09:10Z</time>
      </trkpt>
      <trkpt lat="47.331051" lon="13.229636">
        <ele>731.60</ele>
        <time>2012-05-02T10:09:11Z</time>
      </trkpt>
      <trkpt lat="47.331036" lon="13.229774">
        <ele>730.80</ele>
        <time>2012-05-02T10:09:12Z</time>
      </trkpt>
      <trkpt lat="47.330982" lon="13.230320">
        <ele>730.20</ele>
        <time>2012-05-02T10:09:16Z</time>
      </trkpt>
      <trkpt lat="47.330971" lon="13.230459">
        <ele>729.80</ele>
        <time>2012-05-02T10:09:17Z</time>
      </trkpt>
      <trkpt lat="47.330959" lon="13.230606">
        <ele>729.40</ele>
        <time>2012-05-02T10:09:18Z</time>
      </trkpt>
      <trkpt lat="47.330952" lon="13.230748">
        <ele>729.00</ele>
        <time>2012-05-02T10:09:19Z</time>
      </trkpt>
      <trkpt lat="47.330944" lon="13.230889">
        <ele>728.60</ele>
        <time>2012-05-02T10:09:20Z</time>
      </trkpt>
      <trkpt lat="47.330936" lon="13.231030">
        <ele>728.20</ele>
        <time>2012-05-02T10:09:21Z</time>
      </trkpt>
      <trkpt lat="47.330929" lon="13.231167">
        <ele>727.60</ele>
        <time>2012-05-02T10:09:22Z</time>
      </trkpt>
      <trkpt lat="47.330910" lon="13.231298">
        <ele>727.20</ele>
        <time>2012-05-02T10:09:23Z</time>
      </trkpt>
      <trkpt lat="47.330883" lon="13.231422">
        <ele>726.80</ele>
        <time>2012-05-02T10:09:24Z</time>
      </trkpt>
      <trkpt lat="47.330849" lon="13.231558">
        <ele>726.40</ele>
        <time>2012-05-02T10:09:25Z</time>
      </trkpt>
      <trkpt lat="47.330746" lon="13.232103">
        <ele>726.40</ele>
        <time>2012-05-02T10:09:29Z</time>
      </trkpt>
      <trkpt lat="47.330730" lon="13.232244">
        <ele>726.00</ele>
        <time>2012-05-02T10:09:30Z</time>
      </trkpt>
      <trkpt lat="47.330715" lon="13.232383">
        <ele>725.40</ele>
        <time>2012-05-02T10:09:31Z</time>
      </trkpt>
      <trkpt lat="47.330704" lon="13.232516">
        <ele>725.00</ele>
        <time>2012-05-02T10:09:32Z</time>
      </trkpt>
      <trkpt lat="47.330692" lon="13.232654">
        <ele>724.60</ele>
        <time>2012-05-02T10:09:33Z</time>
      </trkpt>
      <trkpt lat="47.330673" lon="13.232780">
        <ele>724.20</ele>
        <time>2012-05-02T10:09:34Z</time>
      </trkpt>
      <trkpt lat="47.330627" lon="13.233020">
        <ele>724.20</ele>
        <time>2012-05-02T10:09:36Z</time>
      </trkpt>
      <trkpt lat="47.330486" lon="13.233663">
        <ele>723.80</ele>
        <time>2012-05-02T10:09:41Z</time>
      </trkpt>
      <trkpt lat="47.330460" lon="13.233803">
        <ele>723.40</ele>
        <time>2012-05-02T10:09:42Z</time>
      </trkpt>
      <trkpt lat="47.330444" lon="13.233946">
        <ele>723.00</ele>
        <time>2012-05-02T10:09:43Z</time>
      </trkpt>
      <trkpt lat="47.330437" lon="13.234090">
        <ele>722.60</ele>
        <time>2012-05-02T10:09:44Z</time>
      </trkpt>
      <trkpt lat="47.330437" lon="13.234234">
        <ele>722.20</ele>
        <time>2012-05-02T10:09:45Z</time>
      </trkpt>
      <trkpt lat="47.330437" lon="13.234378">
        <ele>721.80</ele>
        <time>2012-05-02T10:09:46Z</time>
      </trkpt>
      <trkpt lat="47.330433" lon="13.234522">
        <ele>721.40</ele>
        <time>2012-05-02T10:09:47Z</time>
      </trkpt>
      <trkpt lat="47.330441" lon="13.234676">
        <ele>721.00</ele>
        <time>2012-05-02T10:09:48Z</time>
      </trkpt>
      <trkpt lat="47.330448" lon="13.234823">
        <ele>720.60</ele>
        <time>2012-05-02T10:09:49Z</time>
      </trkpt>
      <trkpt lat="47.330460" lon="13.234969">
        <ele>720.20</ele>
        <time>2012-05-02T10:09:50Z</time>
      </trkpt>
      <trkpt lat="47.330482" lon="13.235269">
        <ele>719.80</ele>
        <time>2012-05-02T10:09:52Z</time>
      </trkpt>
      <trkpt lat="47.330494" lon="13.235413">
        <ele>719.40</ele>
        <time>2012-05-02T10:09:53Z</time>
      </trkpt>
      <trkpt lat="47.330509" lon="13.235558">
        <ele>718.80</ele>
        <time>2012-05-02T10:09:54Z</time>
      </trkpt>
      <trkpt lat="47.330528" lon="13.235707">
        <ele>718.40</ele>
        <time>2012-05-02T10:09:55Z</time>
      </trkpt>
      <trkpt lat="47.330551" lon="13.235856">
        <ele>718.00</ele>
        <time>2012-05-02T10:09:56Z</time>
      </trkpt>
      <trkpt lat="47.330654" lon="13.236124">
        <ele>717.60</ele>
        <time>2012-05-02T10:09:58Z</time>
      </trkpt>
      <trkpt lat="47.330730" lon="13.236244">
        <ele>717.20</ele>
        <time>2012-05-02T10:09:59Z</time>
      </trkpt>
      <trkpt lat="47.330822" lon="13.236354">
        <ele>716.80</ele>
        <time>2012-05-02T10:10:00Z</time>
      </trkpt>
      <trkpt lat="47.330906" lon="13.236469">
        <ele>715.80</ele>
        <time>2012-05-02T10:10:01Z</time>
      </trkpt>
      <trkpt lat="47.330994" lon="13.236582">
        <ele>715.80</ele>
        <time>2012-05-02T10:10:02Z</time>
      </trkpt>
      <trkpt lat="47.331078" lon="13.236710">
        <ele>715.40</ele>
        <time>2012-05-02T10:10:03Z</time>
      </trkpt>
      <trkpt lat="47.331154" lon="13.236836">
        <ele>714.80</ele>
        <time>2012-05-02T10:10:04Z</time>
      </trkpt>
      <trkpt lat="47.331226" lon="13.236966">
        <ele>714.40</ele>
        <time>2012-05-02T10:10:05Z</time>
      </trkpt>
      <trkpt lat="47.331295" lon="13.237102">
        <ele>713.80</ele>
        <time>2012-05-02T10:10:06Z</time>
      </trkpt>
      <trkpt lat="47.331367" lon="13.237236">
        <ele>713.40</ele>
        <time>2012-05-02T10:10:07Z</time>
      </trkpt>
      <trkpt lat="47.331429" lon="13.237384">
        <ele>712.80</ele>
        <time>2012-05-02T10:10:08Z</time>
      </trkpt>
      <trkpt lat="47.331486" lon="13.237536">
        <ele>712.20</ele>
        <time>2012-05-02T10:10:09Z</time>
      </trkpt>
      <trkpt lat="47.331547" lon="13.237692">
        <ele>711.60</ele>
        <time>2012-05-02T10:10:10Z</time>
      </trkpt>
      <trkpt lat="47.331604" lon="13.237839">
        <ele>711.00</ele>
        <time>2012-05-02T10:10:11Z</time>
      </trkpt>
      <trkpt lat="47.331650" lon="13.237986">
        <ele>710.60</ele>
        <time>2012-05-02T10:10:12Z</time>
      </trkpt>
      <trkpt lat="47.331699" lon="13.238127">
        <ele>710.20</ele>
        <time>2012-05-02T10:10:13Z</time>
      </trkpt>
      <trkpt lat="47.331726" lon="13.238282">
        <ele>709.60</ele>
        <time>2012-05-02T10:10:14Z</time>
      </trkpt>
      <trkpt lat="47.331741" lon="13.238437">
        <ele>709.20</ele>
        <time>2012-05-02T10:10:15Z</time>
      </trkpt>
      <trkpt lat="47.331745" lon="13.238595">
        <ele>708.80</ele>
        <time>2012-05-02T10:10:16Z</time>
      </trkpt>
      <trkpt lat="47.331749" lon="13.238749">
        <ele>708.80</ele>
        <time>2012-05-02T10:10:17Z</time>
      </trkpt>
      <trkpt lat="47.331776" lon="13.239050">
        <ele>708.80</ele>
        <time>2012-05-02T10:10:19Z</time>
      </trkpt>
      <trkpt lat="47.331795" lon="13.239185">
        <ele>708.40</ele>
        <time>2012-05-02T10:10:20Z</time>
      </trkpt>
      <trkpt lat="47.331829" lon="13.239310">
        <ele>708.00</ele>
        <time>2012-05-02T10:10:21Z</time>
      </trkpt>
      <trkpt lat="47.331867" lon="13.239427">
        <ele>707.60</ele>
        <time>2012-05-02T10:10:22Z</time>
      </trkpt>
      <trkpt lat="47.331917" lon="13.239533">
        <ele>707.20</ele>
        <time>2012-05-02T10:10:23Z</time>
      </trkpt>
      <trkpt lat="47.331966" lon="13.239632">
        <ele>706.80</ele>
        <time>2012-05-02T10:10:24Z</time>
      </trkpt>
      <trkpt lat="47.332081" lon="13.239822">
        <ele>706.80</ele>
        <time>2012-05-02T10:10:26Z</time>
      </trkpt>
      <trkpt lat="47.332138" lon="13.239901">
        <ele>706.80</ele>
        <time>2012-05-02T10:10:27Z</time>
      </trkpt>
      <trkpt lat="47.332420" lon="13.240205">
        <ele>706.80</ele>
        <time>2012-05-02T10:10:32Z</time>
      </trkpt>
      <trkpt lat="47.332649" lon="13.240534">
        <ele>706.80</ele>
        <time>2012-05-02T10:10:37Z</time>
      </trkpt>
      <trkpt lat="47.332680" lon="13.240608">
        <ele>706.80</ele>
        <time>2012-05-02T10:10:38Z</time>
      </trkpt>
      <trkpt lat="47.332706" lon="13.240679">
        <ele>707.20</ele>
        <time>2012-05-02T10:10:39Z</time>
      </trkpt>
      <trkpt lat="47.332733" lon="13.240747">
        <ele>707.60</ele>
        <time>2012-05-02T10:10:40Z</time>
      </trkpt>
      <trkpt lat="47.332756" lon="13.240817">
        <ele>708.00</ele>
        <time>2012-05-02T10:10:41Z</time>
      </trkpt>
      <trkpt lat="47.332767" lon="13.240891">
        <ele>708.40</ele>
        <time>2012-05-02T10:10:42Z</time>
      </trkpt>
      <trkpt lat="47.332787" lon="13.240964">
        <ele>708.80</ele>
        <time>2012-05-02T10:10:43Z</time>
      </trkpt>
      <trkpt lat="47.332897" lon="13.241426">
        <ele>708.80</ele>
        <time>2012-05-02T10:10:49Z</time>
      </trkpt>
      <trkpt lat="47.333057" lon="13.241876">
        <ele>708.80</ele>
        <time>2012-05-02T10:10:55Z</time>
      </trkpt>
      <trkpt lat="47.333118" lon="13.242011">
        <ele>709.20</ele>
        <time>2012-05-02T10:10:57Z</time>
      </trkpt>
      <trkpt lat="47.333149" lon="13.242074">
        <ele>709.60</ele>
        <time>2012-05-02T10:10:58Z</time>
      </trkpt>
      <trkpt lat="47.333176" lon="13.242143">
        <ele>710.00</ele>
        <time>2012-05-02T10:10:59Z</time>
      </trkpt>
      <trkpt lat="47.333206" lon="13.242219">
        <ele>710.40</ele>
        <time>2012-05-02T10:11:00Z</time>
      </trkpt>
      <trkpt lat="47.333229" lon="13.242308">
        <ele>710.80</ele>
        <time>2012-05-02T10:11:01Z</time>
      </trkpt>
      <trkpt lat="47.333248" lon="13.242398">
        <ele>710.80</ele>
        <time>2012-05-02T10:11:02Z</time>
      </trkpt>
      <trkpt lat="47.333279" lon="13.242573">
        <ele>710.80</ele>
        <time>2012-05-02T10:11:04Z</time>
      </trkpt>
      <trkpt lat="47.333302" lon="13.242822">
        <ele>710.80</ele>
        <time>2012-05-02T10:11:07Z</time>
      </trkpt>
      <trkpt lat="47.333321" lon="13.243502">
        <ele>710.80</ele>
        <time>2012-05-02T10:11:15Z</time>
      </trkpt>
      <trkpt lat="47.333321" lon="13.243664">
        <ele>711.20</ele>
        <time>2012-05-02T10:11:17Z</time>
      </trkpt>
      <trkpt lat="47.333317" lon="13.243744">
        <ele>711.60</ele>
        <time>2012-05-02T10:11:18Z</time>
      </trkpt>
      <trkpt lat="47.333317" lon="13.243822">
        <ele>712.00</ele>
        <time>2012-05-02T10:11:19Z</time>
      </trkpt>
      <trkpt lat="47.333317" lon="13.243894">
        <ele>712.40</ele>
        <time>2012-05-02T10:11:20Z</time>
      </trkpt>
      <trkpt lat="47.333321" lon="13.243966">
        <ele>712.80</ele>
        <time>2012-05-02T10:11:21Z</time>
      </trkpt>
      <trkpt lat="47.333328" lon="13.244108">
        <ele>712.80</ele>
        <time>2012-05-02T10:11:23Z</time>
      </trkpt>
      <trkpt lat="47.333366" lon="13.244455">
        <ele>713.20</ele>
        <time>2012-05-02T10:11:28Z</time>
      </trkpt>
      <trkpt lat="47.333317" lon="13.244557">
        <ele>713.60</ele>
        <time>2012-05-02T10:11:29Z</time>
      </trkpt>
      <trkpt lat="47.333313" lon="13.244629">
        <ele>714.00</ele>
        <time>2012-05-02T10:11:30Z</time>
      </trkpt>
      <trkpt lat="47.333317" lon="13.244701">
        <ele>714.40</ele>
        <time>2012-05-02T10:11:31Z</time>
      </trkpt>
      <trkpt lat="47.333317" lon="13.244770">
        <ele>714.80</ele>
        <time>2012-05-02T10:11:32Z</time>
      </trkpt>
      <trkpt lat="47.333336" lon="13.244917">
        <ele>714.80</ele>
        <time>2012-05-02T10:11:34Z</time>
      </trkpt>
      <trkpt lat="47.333351" lon="13.245051">
        <ele>714.80</ele>
        <time>2012-05-02T10:11:36Z</time>
      </trkpt>
      <trkpt lat="47.333366" lon="13.245177">
        <ele>715.40</ele>
        <time>2012-05-02T10:11:38Z</time>
      </trkpt>
      <trkpt lat="47.333385" lon="13.245236">
        <ele>715.80</ele>
        <time>2012-05-02T10:11:39Z</time>
      </trkpt>
      <trkpt lat="47.333393" lon="13.245297">
        <ele>716.20</ele>
        <time>2012-05-02T10:11:40Z</time>
      </trkpt>
      <trkpt lat="47.333408" lon="13.245358">
        <ele>716.60</ele>
        <time>2012-05-02T10:11:41Z</time>
      </trkpt>
      <trkpt lat="47.333420" lon="13.245419">
        <ele>717.00</ele>
        <time>2012-05-02T10:11:42Z</time>
      </trkpt>
      <trkpt lat="47.333508" lon="13.245841">
        <ele>717.40</ele>
        <time>2012-05-02T10:11:49Z</time>
      </trkpt>
      <trkpt lat="47.333519" lon="13.245900">
        <ele>717.80</ele>
        <time>2012-05-02T10:11:50Z</time>
      </trkpt>
      <trkpt lat="47.333527" lon="13.245957">
        <ele>718.40</ele>
        <time>2012-05-02T10:11:51Z</time>
      </trkpt>
      <trkpt lat="47.333538" lon="13.246017">
        <ele>718.80</ele>
        <time>2012-05-02T10:11:52Z</time>
      </trkpt>
      <trkpt lat="47.333549" lon="13.246075">
        <ele>719.20</ele>
        <time>2012-05-02T10:11:53Z</time>
      </trkpt>
      <trkpt lat="47.333599" lon="13.246300">
        <ele>719.20</ele>
        <time>2012-05-02T10:11:57Z</time>
      </trkpt>
      <trkpt lat="47.333614" lon="13.246461">
        <ele>719.60</ele>
        <time>2012-05-02T10:12:00Z</time>
      </trkpt>
      <trkpt lat="47.333614" lon="13.246519">
        <ele>720.20</ele>
        <time>2012-05-02T10:12:01Z</time>
      </trkpt>
      <trkpt lat="47.333618" lon="13.246572">
        <ele>720.60</ele>
        <time>2012-05-02T10:12:02Z</time>
      </trkpt>
      <trkpt lat="47.333622" lon="13.246629">
        <ele>721.20</ele>
        <time>2012-05-02T10:12:03Z</time>
      </trkpt>
      <trkpt lat="47.333626" lon="13.246692">
        <ele>721.60</ele>
        <time>2012-05-02T10:12:04Z</time>
      </trkpt>
      <trkpt lat="47.333630" lon="13.246908">
        <ele>721.60</ele>
        <time>2012-05-02T10:12:08Z</time>
      </trkpt>
      <trkpt lat="47.333626" lon="13.246958">
        <ele>722.00</ele>
        <time>2012-05-02T10:12:09Z</time>
      </trkpt>
      <trkpt lat="47.333626" lon="13.247003">
        <ele>722.40</ele>
        <time>2012-05-02T10:12:10Z</time>
      </trkpt>
      <trkpt lat="47.333626" lon="13.247047">
        <ele>722.80</ele>
        <time>2012-05-02T10:12:11Z</time>
      </trkpt>
      <trkpt lat="47.333622" lon="13.247099">
        <ele>723.20</ele>
        <time>2012-05-02T10:12:12Z</time>
      </trkpt>
      <trkpt lat="47.333618" lon="13.247145">
        <ele>723.60</ele>
        <time>2012-05-02T10:12:13Z</time>
      </trkpt>
      <trkpt lat="47.333611" lon="13.247190">
        <ele>723.60</ele>
        <time>2012-05-02T10:12:14Z</time>
      </trkpt>
      <trkpt lat="47.333542" lon="13.247429">
        <ele>723.60</ele>
        <time>2012-05-02T10:12:19Z</time>
      </trkpt>
      <trkpt lat="47.333515" lon="13.247512">
        <ele>724.00</ele>
        <time>2012-05-02T10:12:21Z</time>
      </trkpt>
      <trkpt lat="47.333500" lon="13.247554">
        <ele>724.40</ele>
        <time>2012-05-02T10:12:22Z</time>
      </trkpt>
      <trkpt lat="47.333477" lon="13.247596">
        <ele>725.20</ele>
        <time>2012-05-02T10:12:23Z</time>
      </trkpt>
      <trkpt lat="47.333454" lon="13.247633">
        <ele>725.60</ele>
        <time>2012-05-02T10:12:24Z</time>
      </trkpt>
      <trkpt lat="47.333382" lon="13.247744">
        <ele>725.60</ele>
        <time>2012-05-02T10:12:27Z</time>
      </trkpt>
      <trkpt lat="47.333199" lon="13.248003">
        <ele>725.60</ele>
        <time>2012-05-02T10:12:34Z</time>
      </trkpt>
      <trkpt lat="47.333092" lon="13.248221">
        <ele>725.60</ele>
        <time>2012-05-02T10:12:38Z</time>
      </trkpt>
      <trkpt lat="47.333035" lon="13.248415">
        <ele>725.60</ele>
        <time>2012-05-02T10:12:41Z</time>
      </trkpt>
      <trkpt lat="47.332996" lon="13.248919">
        <ele>725.60</ele>
        <time>2012-05-02T10:12:48Z</time>
      </trkpt>
      <trkpt lat="47.332996" lon="13.248994">
        <ele>725.60</ele>
        <time>2012-05-02T10:12:49Z</time>
      </trkpt>
      <trkpt lat="47.333012" lon="13.249205">
        <ele>725.60</ele>
        <time>2012-05-02T10:12:52Z</time>
      </trkpt>
      <trkpt lat="47.333073" lon="13.249396">
        <ele>725.60</ele>
        <time>2012-05-02T10:12:55Z</time>
      </trkpt>
      <trkpt lat="47.333099" lon="13.249455">
        <ele>725.60</ele>
        <time>2012-05-02T10:12:56Z</time>
      </trkpt>
      <trkpt lat="47.333347" lon="13.249961">
        <ele>725.60</ele>
        <time>2012-05-02T10:13:04Z</time>
      </trkpt>
      <trkpt lat="47.333427" lon="13.250155">
        <ele>726.20</ele>
        <time>2012-05-02T10:13:07Z</time>
      </trkpt>
      <trkpt lat="47.333450" lon="13.250219">
        <ele>726.60</ele>
        <time>2012-05-02T10:13:08Z</time>
      </trkpt>
      <trkpt lat="47.333473" lon="13.250279">
        <ele>727.00</ele>
        <time>2012-05-02T10:13:09Z</time>
      </trkpt>
      <trkpt lat="47.333488" lon="13.250339">
        <ele>727.40</ele>
        <time>2012-05-02T10:13:10Z</time>
      </trkpt>
      <trkpt lat="47.333508" lon="13.250401">
        <ele>727.80</ele>
        <time>2012-05-02T10:13:11Z</time>
      </trkpt>
      <trkpt lat="47.333527" lon="13.250463">
        <ele>727.80</ele>
        <time>2012-05-02T10:13:12Z</time>
      </trkpt>
      <trkpt lat="47.333599" lon="13.250889">
        <ele>727.80</ele>
        <time>2012-05-02T10:13:19Z</time>
      </trkpt>
      <trkpt lat="47.333603" lon="13.250945">
        <ele>728.20</ele>
        <time>2012-05-02T10:13:20Z</time>
      </trkpt>
      <trkpt lat="47.333607" lon="13.251005">
        <ele>728.60</ele>
        <time>2012-05-02T10:13:21Z</time>
      </trkpt>
      <trkpt lat="47.333611" lon="13.251063">
        <ele>729.00</ele>
        <time>2012-05-02T10:13:22Z</time>
      </trkpt>
      <trkpt lat="47.333614" lon="13.251122">
        <ele>729.40</ele>
        <time>2012-05-02T10:13:23Z</time>
      </trkpt>
      <trkpt lat="47.333618" lon="13.251183">
        <ele>729.80</ele>
        <time>2012-05-02T10:13:24Z</time>
      </trkpt>
      <trkpt lat="47.333618" lon="13.251245">
        <ele>729.80</ele>
        <time>2012-05-02T10:13:25Z</time>
      </trkpt>
      <trkpt lat="47.333618" lon="13.251306">
        <ele>729.80</ele>
        <time>2012-05-02T10:13:26Z</time>
      </trkpt>
      <trkpt lat="47.333622" lon="13.251369">
        <ele>729.80</ele>
        <time>2012-05-02T10:13:27Z</time>
      </trkpt>
      <trkpt lat="47.333603" lon="13.251720">
        <ele>729.80</ele>
        <time>2012-05-02T10:13:33Z</time>
      </trkpt>
      <trkpt lat="47.333603" lon="13.251784">
        <ele>729.80</ele>
        <time>2012-05-02T10:13:34Z</time>
      </trkpt>
      <trkpt lat="47.333603" lon="13.251848">
        <ele>729.80</ele>
        <time>2012-05-02T10:13:35Z</time>
      </trkpt>
      <trkpt lat="47.333595" lon="13.252032">
        <ele>730.20</ele>
        <time>2012-05-02T10:13:38Z</time>
      </trkpt>
      <trkpt lat="47.333599" lon="13.252095">
        <ele>730.60</ele>
        <time>2012-05-02T10:13:39Z</time>
      </trkpt>
      <trkpt lat="47.333599" lon="13.252161">
        <ele>731.00</ele>
        <time>2012-05-02T10:13:40Z</time>
      </trkpt>
      <trkpt lat="47.333603" lon="13.252226">
        <ele>731.40</ele>
        <time>2012-05-02T10:13:41Z</time>
      </trkpt>
      <trkpt lat="47.333603" lon="13.252290">
        <ele>731.80</ele>
        <time>2012-05-02T10:13:42Z</time>
      </trkpt>
      <trkpt lat="47.333611" lon="13.252619">
        <ele>731.80</ele>
        <time>2012-05-02T10:13:47Z</time>
      </trkpt>
      <trkpt lat="47.333694" lon="13.253188">
        <ele>731.80</ele>
        <time>2012-05-02T10:13:55Z</time>
      </trkpt>
      <trkpt lat="47.333771" lon="13.253695">
        <ele>731.80</ele>
        <time>2012-05-02T10:14:02Z</time>
      </trkpt>
      <trkpt lat="47.333824" lon="13.254299">
        <ele>731.80</ele>
        <time>2012-05-02T10:14:10Z</time>
      </trkpt>
      <trkpt lat="47.333858" lon="13.254794">
        <ele>731.80</ele>
        <time>2012-05-02T10:14:17Z</time>
      </trkpt>
      <trkpt lat="47.333870" lon="13.254859">
        <ele>732.20</ele>
        <time>2012-05-02T10:14:18Z</time>
      </trkpt>
      <trkpt lat="47.333881" lon="13.254925">
        <ele>732.60</ele>
        <time>2012-05-02T10:14:19Z</time>
      </trkpt>
      <trkpt lat="47.333889" lon="13.254991">
        <ele>733.00</ele>
        <time>2012-05-02T10:14:20Z</time>
      </trkpt>
      <trkpt lat="47.333893" lon="13.255058">
        <ele>733.60</ele>
        <time>2012-05-02T10:14:21Z</time>
      </trkpt>
      <trkpt lat="47.333900" lon="13.255124">
        <ele>734.00</ele>
        <time>2012-05-02T10:14:22Z</time>
      </trkpt>
      <trkpt lat="47.333916" lon="13.255258">
        <ele>734.00</ele>
        <time>2012-05-02T10:14:24Z</time>
      </trkpt>
      <trkpt lat="47.333992" lon="13.255699">
        <ele>734.40</ele>
        <time>2012-05-02T10:14:31Z</time>
      </trkpt>
      <trkpt lat="47.334007" lon="13.255757">
        <ele>734.80</ele>
        <time>2012-05-02T10:14:32Z</time>
      </trkpt>
      <trkpt lat="47.334023" lon="13.255811">
        <ele>735.20</ele>
        <time>2012-05-02T10:14:33Z</time>
      </trkpt>
      <trkpt lat="47.334030" lon="13.255877">
        <ele>735.60</ele>
        <time>2012-05-02T10:14:34Z</time>
      </trkpt>
      <trkpt lat="47.334038" lon="13.255939">
        <ele>736.00</ele>
        <time>2012-05-02T10:14:35Z</time>
      </trkpt>
      <trkpt lat="47.334122" lon="13.256225">
        <ele>736.00</ele>
        <time>2012-05-02T10:14:40Z</time>
      </trkpt>
      <trkpt lat="47.334171" lon="13.256588">
        <ele>736.40</ele>
        <time>2012-05-02T10:14:46Z</time>
      </trkpt>
      <trkpt lat="47.334175" lon="13.256649">
        <ele>736.80</ele>
        <time>2012-05-02T10:14:47Z</time>
      </trkpt>
      <trkpt lat="47.334152" lon="13.256721">
        <ele>737.20</ele>
        <time>2012-05-02T10:14:48Z</time>
      </trkpt>
      <trkpt lat="47.334148" lon="13.256786">
        <ele>737.60</ele>
        <time>2012-05-02T10:14:49Z</time>
      </trkpt>
      <trkpt lat="47.334145" lon="13.256849">
        <ele>738.00</ele>
        <time>2012-05-02T10:14:50Z</time>
      </trkpt>
      <trkpt lat="47.334137" lon="13.256975">
        <ele>738.00</ele>
        <time>2012-05-02T10:14:52Z</time>
      </trkpt>
      <trkpt lat="47.334106" lon="13.257339">
        <ele>738.00</ele>
        <time>2012-05-02T10:14:58Z</time>
      </trkpt>
      <trkpt lat="47.334103" lon="13.257401">
        <ele>738.00</ele>
        <time>2012-05-02T10:14:59Z</time>
      </trkpt>
      <trkpt lat="47.334099" lon="13.257463">
        <ele>738.40</ele>
        <time>2012-05-02T10:15:00Z</time>
      </trkpt>
      <trkpt lat="47.334099" lon="13.257527">
        <ele>738.80</ele>
        <time>2012-05-02T10:15:01Z</time>
      </trkpt>
      <trkpt lat="47.334103" lon="13.257591">
        <ele>739.40</ele>
        <time>2012-05-02T10:15:02Z</time>
      </trkpt>
      <trkpt lat="47.334106" lon="13.257657">
        <ele>739.80</ele>
        <time>2012-05-02T10:15:03Z</time>
      </trkpt>
      <trkpt lat="47.334110" lon="13.257727">
        <ele>740.20</ele>
        <time>2012-05-02T10:15:04Z</time>
      </trkpt>
      <trkpt lat="47.334118" lon="13.257792">
        <ele>740.20</ele>
        <time>2012-05-02T10:15:05Z</time>
      </trkpt>
      <trkpt lat="47.334160" lon="13.258025">
        <ele>740.20</ele>
        <time>2012-05-02T10:15:09Z</time>
      </trkpt>
      <trkpt lat="47.334194" lon="13.258132">
        <ele>740.20</ele>
        <time>2012-05-02T10:15:11Z</time>
      </trkpt>
      <trkpt lat="47.334305" lon="13.258420">
        <ele>741.00</ele>
        <time>2012-05-02T10:15:16Z</time>
      </trkpt>
      <trkpt lat="47.334324" lon="13.258475">
        <ele>741.40</ele>
        <time>2012-05-02T10:15:17Z</time>
      </trkpt>
      <trkpt lat="47.334347" lon="13.258530">
        <ele>741.80</ele>
        <time>2012-05-02T10:15:18Z</time>
      </trkpt>
      <trkpt lat="47.334366" lon="13.258586">
        <ele>742.20</ele>
        <time>2012-05-02T10:15:19Z</time>
      </trkpt>
      <trkpt lat="47.334522" lon="13.259042">
        <ele>742.20</ele>
        <time>2012-05-02T10:15:27Z</time>
      </trkpt>
      <trkpt lat="47.334564" lon="13.259201">
        <ele>742.60</ele>
        <time>2012-05-02T10:15:30Z</time>
      </trkpt>
      <trkpt lat="47.334576" lon="13.259256">
        <ele>743.00</ele>
        <time>2012-05-02T10:15:31Z</time>
      </trkpt>
      <trkpt lat="47.334587" lon="13.259311">
        <ele>743.40</ele>
        <time>2012-05-02T10:15:32Z</time>
      </trkpt>
      <trkpt lat="47.334595" lon="13.259368">
        <ele>743.80</ele>
        <time>2012-05-02T10:15:33Z</time>
      </trkpt>
      <trkpt lat="47.334595" lon="13.259425">
        <ele>744.20</ele>
        <time>2012-05-02T10:15:34Z</time>
      </trkpt>
      <trkpt lat="47.334583" lon="13.259803">
        <ele>744.20</ele>
        <time>2012-05-02T10:15:41Z</time>
      </trkpt>
      <trkpt lat="47.334560" lon="13.259909">
        <ele>744.60</ele>
        <time>2012-05-02T10:15:43Z</time>
      </trkpt>
      <trkpt lat="47.334549" lon="13.259964">
        <ele>745.00</ele>
        <time>2012-05-02T10:15:44Z</time>
      </trkpt>
      <trkpt lat="47.334541" lon="13.260016">
        <ele>745.60</ele>
        <time>2012-05-02T10:15:45Z</time>
      </trkpt>
      <trkpt lat="47.334530" lon="13.260070">
        <ele>746.00</ele>
        <time>2012-05-02T10:15:46Z</time>
      </trkpt>
      <trkpt lat="47.334518" lon="13.260119">
        <ele>746.40</ele>
        <time>2012-05-02T10:15:47Z</time>
      </trkpt>
      <trkpt lat="47.334492" lon="13.260216">
        <ele>746.40</ele>
        <time>2012-05-02T10:15:49Z</time>
      </trkpt>
      <trkpt lat="47.334435" lon="13.260446">
        <ele>746.80</ele>
        <time>2012-05-02T10:15:54Z</time>
      </trkpt>
      <trkpt lat="47.334419" lon="13.260496">
        <ele>747.20</ele>
        <time>2012-05-02T10:15:55Z</time>
      </trkpt>
      <trkpt lat="47.334408" lon="13.260548">
        <ele>747.60</ele>
        <time>2012-05-02T10:15:56Z</time>
      </trkpt>
      <trkpt lat="47.334396" lon="13.260603">
        <ele>748.00</ele>
        <time>2012-05-02T10:15:57Z</time>
      </trkpt>
      <trkpt lat="47.334389" lon="13.260655">
        <ele>748.40</ele>
        <time>2012-05-02T10:15:58Z</time>
      </trkpt>
      <trkpt lat="47.334373" lon="13.260904">
        <ele>748.40</ele>
        <time>2012-05-02T10:16:03Z</time>
      </trkpt>
      <trkpt lat="47.334370" lon="13.261052">
        <ele>749.00</ele>
        <time>2012-05-02T10:16:06Z</time>
      </trkpt>
      <trkpt lat="47.334366" lon="13.261105">
        <ele>749.40</ele>
        <time>2012-05-02T10:16:07Z</time>
      </trkpt>
      <trkpt lat="47.334362" lon="13.261162">
        <ele>749.80</ele>
        <time>2012-05-02T10:16:08Z</time>
      </trkpt>
      <trkpt lat="47.334366" lon="13.261220">
        <ele>750.20</ele>
        <time>2012-05-02T10:16:09Z</time>
      </trkpt>
      <trkpt lat="47.334370" lon="13.261274">
        <ele>750.60</ele>
        <time>2012-05-02T10:16:10Z</time>
      </trkpt>
      <trkpt lat="47.334389" lon="13.261661">
        <ele>750.60</ele>
        <time>2012-05-02T10:16:17Z</time>
      </trkpt>
      <trkpt lat="47.334423" lon="13.262227">
        <ele>750.60</ele>
        <time>2012-05-02T10:16:26Z</time>
      </trkpt>
      <trkpt lat="47.334408" lon="13.262650">
        <ele>751.00</ele>
        <time>2012-05-02T10:16:32Z</time>
      </trkpt>
      <trkpt lat="47.334408" lon="13.262718">
        <ele>751.40</ele>
        <time>2012-05-02T10:16:33Z</time>
      </trkpt>
      <trkpt lat="47.334415" lon="13.262794">
        <ele>751.80</ele>
        <time>2012-05-02T10:16:34Z</time>
      </trkpt>
      <trkpt lat="47.334419" lon="13.262856">
        <ele>752.20</ele>
        <time>2012-05-02T10:16:35Z</time>
      </trkpt>
      <trkpt lat="47.334427" lon="13.262918">
        <ele>752.60</ele>
        <time>2012-05-02T10:16:36Z</time>
      </trkpt>
      <trkpt lat="47.334450" lon="13.263043">
        <ele>752.60</ele>
        <time>2012-05-02T10:16:38Z</time>
      </trkpt>
      <trkpt lat="47.334576" lon="13.263371">
        <ele>752.60</ele>
        <time>2012-05-02T10:16:44Z</time>
      </trkpt>
      <trkpt lat="47.334721" lon="13.263538">
        <ele>753.00</ele>
        <time>2012-05-02T10:16:49Z</time>
      </trkpt>
      <trkpt lat="47.334759" lon="13.263567">
        <ele>753.40</ele>
        <time>2012-05-02T10:16:50Z</time>
      </trkpt>
      <trkpt lat="47.334793" lon="13.263597">
        <ele>753.80</ele>
        <time>2012-05-02T10:16:51Z</time>
      </trkpt>
      <trkpt lat="47.334824" lon="13.263627">
        <ele>754.20</ele>
        <time>2012-05-02T10:16:52Z</time>
      </trkpt>
      <trkpt lat="47.334862" lon="13.263660">
        <ele>754.60</ele>
        <time>2012-05-02T10:16:53Z</time>
      </trkpt>
      <trkpt lat="47.335011" lon="13.263818">
        <ele>754.60</ele>
        <time>2012-05-02T10:16:58Z</time>
      </trkpt>
      <trkpt lat="47.335037" lon="13.263847">
        <ele>755.00</ele>
        <time>2012-05-02T10:16:59Z</time>
      </trkpt>
      <trkpt lat="47.335068" lon="13.263879">
        <ele>755.40</ele>
        <time>2012-05-02T10:17:00Z</time>
      </trkpt>
      <trkpt lat="47.335091" lon="13.263913">
        <ele>756.00</ele>
        <time>2012-05-02T10:17:01Z</time>
      </trkpt>
      <trkpt lat="47.335117" lon="13.263947">
        <ele>756.40</ele>
        <time>2012-05-02T10:17:02Z</time>
      </trkpt>
      <trkpt lat="47.335144" lon="13.263982">
        <ele>756.80</ele>
        <time>2012-05-02T10:17:03Z</time>
      </trkpt>
      <trkpt lat="47.335220" lon="13.264064">
        <ele>756.80</ele>
        <time>2012-05-02T10:17:06Z</time>
      </trkpt>
      <trkpt lat="47.335289" lon="13.264147">
        <ele>757.20</ele>
        <time>2012-05-02T10:17:09Z</time>
      </trkpt>
      <trkpt lat="47.335308" lon="13.264174">
        <ele>757.60</ele>
        <time>2012-05-02T10:17:10Z</time>
      </trkpt>
      <trkpt lat="47.335327" lon="13.264209">
        <ele>758.00</ele>
        <time>2012-05-02T10:17:11Z</time>
      </trkpt>
      <trkpt lat="47.335342" lon="13.264250">
        <ele>758.40</ele>
        <time>2012-05-02T10:17:12Z</time>
      </trkpt>
      <trkpt lat="47.335365" lon="13.264297">
        <ele>758.80</ele>
        <time>2012-05-02T10:17:13Z</time>
      </trkpt>
      <trkpt lat="47.335464" lon="13.264477">
        <ele>758.80</ele>
        <time>2012-05-02T10:17:18Z</time>
      </trkpt>
      <trkpt lat="47.335506" lon="13.264562">
        <ele>759.20</ele>
        <time>2012-05-02T10:17:20Z</time>
      </trkpt>
      <trkpt lat="47.335526" lon="13.264606">
        <ele>759.60</ele>
        <time>2012-05-02T10:17:21Z</time>
      </trkpt>
      <trkpt lat="47.335545" lon="13.264652">
        <ele>760.20</ele>
        <time>2012-05-02T10:17:22Z</time>
      </trkpt>
      <trkpt lat="47.335564" lon="13.264696">
        <ele>760.60</ele>
        <time>2012-05-02T10:17:23Z</time>
      </trkpt>
      <trkpt lat="47.335587" lon="13.264739">
        <ele>761.00</ele>
        <time>2012-05-02T10:17:24Z</time>
      </trkpt>
      <trkpt lat="47.335606" lon="13.264783">
        <ele>761.00</ele>
        <time>2012-05-02T10:17:25Z</time>
      </trkpt>
      <trkpt lat="47.335705" lon="13.265121">
        <ele>761.00</ele>
        <time>2012-05-02T10:17:32Z</time>
      </trkpt>
      <trkpt lat="47.335732" lon="13.265235">
        <ele>761.00</ele>
        <time>2012-05-02T10:17:34Z</time>
      </trkpt>
      <trkpt lat="47.335777" lon="13.265533">
        <ele>761.00</ele>
        <time>2012-05-02T10:17:39Z</time>
      </trkpt>
      <trkpt lat="47.335789" lon="13.265655">
        <ele>761.40</ele>
        <time>2012-05-02T10:17:41Z</time>
      </trkpt>
      <trkpt lat="47.335793" lon="13.265715">
        <ele>761.80</ele>
        <time>2012-05-02T10:17:42Z</time>
      </trkpt>
      <trkpt lat="47.335800" lon="13.265780">
        <ele>762.20</ele>
        <time>2012-05-02T10:17:43Z</time>
      </trkpt>
      <trkpt lat="47.335804" lon="13.265844">
        <ele>763.00</ele>
        <time>2012-05-02T10:17:44Z</time>
      </trkpt>
      <trkpt lat="47.335804" lon="13.265907">
        <ele>763.00</ele>
        <time>2012-05-02T10:17:45Z</time>
      </trkpt>
      <trkpt lat="47.335823" lon="13.266158">
        <ele>763.00</ele>
        <time>2012-05-02T10:17:49Z</time>
      </trkpt>
      <trkpt lat="47.335835" lon="13.266224">
        <ele>763.00</ele>
        <time>2012-05-02T10:17:50Z</time>
      </trkpt>
      <trkpt lat="47.335972" lon="13.266671">
        <ele>763.00</ele>
        <time>2012-05-02T10:17:57Z</time>
      </trkpt>
      <trkpt lat="47.336105" lon="13.267151">
        <ele>763.00</ele>
        <time>2012-05-02T10:18:04Z</time>
      </trkpt>
      <trkpt lat="47.336136" lon="13.267593">
        <ele>763.00</ele>
        <time>2012-05-02T10:18:10Z</time>
      </trkpt>
      <trkpt lat="47.336071" lon="13.268036">
        <ele>763.00</ele>
        <time>2012-05-02T10:18:17Z</time>
      </trkpt>
      <trkpt lat="47.336052" lon="13.268148">
        <ele>763.40</ele>
        <time>2012-05-02T10:18:19Z</time>
      </trkpt>
      <trkpt lat="47.336037" lon="13.268205">
        <ele>763.80</ele>
        <time>2012-05-02T10:18:20Z</time>
      </trkpt>
      <trkpt lat="47.336018" lon="13.268256">
        <ele>764.20</ele>
        <time>2012-05-02T10:18:21Z</time>
      </trkpt>
      <trkpt lat="47.335995" lon="13.268307">
        <ele>764.60</ele>
        <time>2012-05-02T10:18:22Z</time>
      </trkpt>
      <trkpt lat="47.335976" lon="13.268358">
        <ele>765.20</ele>
        <time>2012-05-02T10:18:23Z</time>
      </trkpt>
      <trkpt lat="47.335880" lon="13.268730">
        <ele>765.20</ele>
        <time>2012-05-02T10:18:30Z</time>
      </trkpt>
      <trkpt lat="47.335842" lon="13.268936">
        <ele>766.00</ele>
        <time>2012-05-02T10:18:34Z</time>
      </trkpt>
      <trkpt lat="47.335838" lon="13.268989">
        <ele>766.40</ele>
        <time>2012-05-02T10:18:35Z</time>
      </trkpt>
      <trkpt lat="47.335831" lon="13.269045">
        <ele>766.80</ele>
        <time>2012-05-02T10:18:36Z</time>
      </trkpt>
      <trkpt lat="47.335823" lon="13.269101">
        <ele>767.20</ele>
        <time>2012-05-02T10:18:37Z</time>
      </trkpt>
      <trkpt lat="47.335789" lon="13.269469">
        <ele>767.20</ele>
        <time>2012-05-02T10:18:44Z</time>
      </trkpt>
      <trkpt lat="47.335758" lon="13.269730">
        <ele>767.60</ele>
        <time>2012-05-02T10:18:49Z</time>
      </trkpt>
      <trkpt lat="47.335754" lon="13.269778">
        <ele>768.00</ele>
        <time>2012-05-02T10:18:50Z</time>
      </trkpt>
      <trkpt lat="47.335747" lon="13.269827">
        <ele>768.40</ele>
        <time>2012-05-02T10:18:51Z</time>
      </trkpt>
      <trkpt lat="47.335739" lon="13.269878">
        <ele>768.80</ele>
        <time>2012-05-02T10:18:52Z</time>
      </trkpt>
      <trkpt lat="47.335728" lon="13.269928">
        <ele>769.20</ele>
        <time>2012-05-02T10:18:53Z</time>
      </trkpt>
      <trkpt lat="47.335674" lon="13.270151">
        <ele>770.20</ele>
        <time>2012-05-02T10:18:58Z</time>
      </trkpt>
      <trkpt lat="47.335667" lon="13.270194">
        <ele>770.60</ele>
        <time>2012-05-02T10:18:59Z</time>
      </trkpt>
      <trkpt lat="47.335655" lon="13.270238">
        <ele>771.00</ele>
        <time>2012-05-02T10:19:00Z</time>
      </trkpt>
      <trkpt lat="47.335651" lon="13.270278">
        <ele>771.40</ele>
        <time>2012-05-02T10:19:01Z</time>
      </trkpt>
      <trkpt lat="47.335651" lon="13.270318">
        <ele>771.40</ele>
        <time>2012-05-02T10:19:02Z</time>
      </trkpt>
      <trkpt lat="47.335629" lon="13.270481">
        <ele>771.80</ele>
        <time>2012-05-02T10:19:06Z</time>
      </trkpt>
      <trkpt lat="47.335617" lon="13.270524">
        <ele>772.20</ele>
        <time>2012-05-02T10:19:07Z</time>
      </trkpt>
      <trkpt lat="47.335609" lon="13.270565">
        <ele>772.60</ele>
        <time>2012-05-02T10:19:08Z</time>
      </trkpt>
      <trkpt lat="47.335606" lon="13.270604">
        <ele>773.00</ele>
        <time>2012-05-02T10:19:09Z</time>
      </trkpt>
      <trkpt lat="47.335602" lon="13.270642">
        <ele>773.40</ele>
        <time>2012-05-02T10:19:10Z</time>
      </trkpt>
      <trkpt lat="47.335594" lon="13.270806">
        <ele>773.80</ele>
        <time>2012-05-02T10:19:14Z</time>
      </trkpt>
      <trkpt lat="47.335594" lon="13.270844">
        <ele>774.20</ele>
        <time>2012-05-02T10:19:15Z</time>
      </trkpt>
      <trkpt lat="47.335602" lon="13.270883">
        <ele>774.80</ele>
        <time>2012-05-02T10:19:16Z</time>
      </trkpt>
      <trkpt lat="47.335606" lon="13.270921">
        <ele>775.20</ele>
        <time>2012-05-02T10:19:17Z</time>
      </trkpt>
      <trkpt lat="47.335613" lon="13.270957">
        <ele>775.60</ele>
        <time>2012-05-02T10:19:18Z</time>
      </trkpt>
      <trkpt lat="47.335640" lon="13.271152">
        <ele>775.60</ele>
        <time>2012-05-02T10:19:23Z</time>
      </trkpt>
      <trkpt lat="47.335720" lon="13.271405">
        <ele>775.60</ele>
        <time>2012-05-02T10:19:29Z</time>
      </trkpt>
      <trkpt lat="47.335735" lon="13.271450">
        <ele>776.00</ele>
        <time>2012-05-02T10:19:30Z</time>
      </trkpt>
      <trkpt lat="47.335747" lon="13.271495">
        <ele>776.40</ele>
        <time>2012-05-02T10:19:31Z</time>
      </trkpt>
      <trkpt lat="47.335762" lon="13.271540">
        <ele>776.80</ele>
        <time>2012-05-02T10:19:32Z</time>
      </trkpt>
      <trkpt lat="47.335777" lon="13.271585">
        <ele>777.20</ele>
        <time>2012-05-02T10:19:33Z</time>
      </trkpt>
      <trkpt lat="47.335789" lon="13.271629">
        <ele>777.60</ele>
        <time>2012-05-02T10:19:34Z</time>
      </trkpt>
      <trkpt lat="47.335812" lon="13.271716">
        <ele>777.60</ele>
        <time>2012-05-02T10:19:36Z</time>
      </trkpt>
      <trkpt lat="47.335865" lon="13.272033">
        <ele>777.60</ele>
        <time>2012-05-02T10:19:43Z</time>
      </trkpt>
      <trkpt lat="47.335922" lon="13.272346">
        <ele>778.00</ele>
        <time>2012-05-02T10:19:50Z</time>
      </trkpt>
      <trkpt lat="47.335922" lon="13.272392">
        <ele>778.40</ele>
        <time>2012-05-02T10:19:51Z</time>
      </trkpt>
      <trkpt lat="47.335922" lon="13.272441">
        <ele>778.80</ele>
        <time>2012-05-02T10:19:52Z</time>
      </trkpt>
      <trkpt lat="47.335926" lon="13.272492">
        <ele>779.20</ele>
        <time>2012-05-02T10:19:53Z</time>
      </trkpt>
      <trkpt lat="47.335930" lon="13.272543">
        <ele>779.60</ele>
        <time>2012-05-02T10:19:54Z</time>
      </trkpt>
      <trkpt lat="47.335934" lon="13.272685">
        <ele>779.60</ele>
        <time>2012-05-02T10:19:57Z</time>
      </trkpt>
      <trkpt lat="47.335949" lon="13.273067">
        <ele>780.00</ele>
        <time>2012-05-02T10:20:05Z</time>
      </trkpt>
      <trkpt lat="47.335953" lon="13.273113">
        <ele>780.40</ele>
        <time>2012-05-02T10:20:06Z</time>
      </trkpt>
      <trkpt lat="47.335957" lon="13.273163">
        <ele>781.00</ele>
        <time>2012-05-02T10:20:07Z</time>
      </trkpt>
      <trkpt lat="47.335960" lon="13.273211">
        <ele>781.40</ele>
        <time>2012-05-02T10:20:08Z</time>
      </trkpt>
      <trkpt lat="47.335964" lon="13.273260">
        <ele>781.80</ele>
        <time>2012-05-02T10:20:09Z</time>
      </trkpt>
      <trkpt lat="47.335972" lon="13.273453">
        <ele>781.80</ele>
        <time>2012-05-02T10:20:13Z</time>
      </trkpt>
      <trkpt lat="47.335999" lon="13.273873">
        <ele>781.80</ele>
        <time>2012-05-02T10:20:21Z</time>
      </trkpt>
      <trkpt lat="47.336010" lon="13.274322">
        <ele>781.80</ele>
        <time>2012-05-02T10:20:29Z</time>
      </trkpt>
      <trkpt lat="47.336002" lon="13.274493">
        <ele>782.20</ele>
        <time>2012-05-02T10:20:32Z</time>
      </trkpt>
      <trkpt lat="47.335999" lon="13.274550">
        <ele>782.60</ele>
        <time>2012-05-02T10:20:33Z</time>
      </trkpt>
      <trkpt lat="47.335991" lon="13.274608">
        <ele>783.00</ele>
        <time>2012-05-02T10:20:34Z</time>
      </trkpt>
      <trkpt lat="47.335987" lon="13.274667">
        <ele>783.40</ele>
        <time>2012-05-02T10:20:35Z</time>
      </trkpt>
      <trkpt lat="47.335983" lon="13.274725">
        <ele>783.80</ele>
        <time>2012-05-02T10:20:36Z</time>
      </trkpt>
      <trkpt lat="47.335945" lon="13.275252">
        <ele>783.80</ele>
        <time>2012-05-02T10:20:45Z</time>
      </trkpt>
      <trkpt lat="47.335907" lon="13.275666">
        <ele>783.80</ele>
        <time>2012-05-02T10:20:52Z</time>
      </trkpt>
      <trkpt lat="47.335899" lon="13.275726">
        <ele>783.80</ele>
        <time>2012-05-02T10:20:53Z</time>
      </trkpt>
      <trkpt lat="47.335880" lon="13.275898">
        <ele>784.20</ele>
        <time>2012-05-02T10:20:56Z</time>
      </trkpt>
      <trkpt lat="47.335876" lon="13.275958">
        <ele>784.60</ele>
        <time>2012-05-02T10:20:57Z</time>
      </trkpt>
      <trkpt lat="47.335873" lon="13.276016">
        <ele>785.00</ele>
        <time>2012-05-02T10:20:58Z</time>
      </trkpt>
      <trkpt lat="47.335869" lon="13.276078">
        <ele>785.40</ele>
        <time>2012-05-02T10:20:59Z</time>
      </trkpt>
      <trkpt lat="47.335865" lon="13.276141">
        <ele>785.80</ele>
        <time>2012-05-02T10:21:00Z</time>
      </trkpt>
      <trkpt lat="47.335869" lon="13.276502">
        <ele>785.80</ele>
        <time>2012-05-02T10:21:06Z</time>
      </trkpt>
      <trkpt lat="47.335911" lon="13.276945">
        <ele>785.80</ele>
        <time>2012-05-02T10:21:13Z</time>
      </trkpt>
      <trkpt lat="47.335941" lon="13.277199">
        <ele>785.80</ele>
        <time>2012-05-02T10:21:17Z</time>
      </trkpt>
      <trkpt lat="47.335953" lon="13.277398">
        <ele>785.80</ele>
        <time>2012-05-02T10:21:20Z</time>
      </trkpt>
      <trkpt lat="47.335968" lon="13.277855">
        <ele>786.20</ele>
        <time>2012-05-02T10:21:27Z</time>
      </trkpt>
      <trkpt lat="47.335964" lon="13.277917">
        <ele>786.80</ele>
        <time>2012-05-02T10:21:28Z</time>
      </trkpt>
      <trkpt lat="47.335957" lon="13.277981">
        <ele>787.20</ele>
        <time>2012-05-02T10:21:29Z</time>
      </trkpt>
      <trkpt lat="47.335949" lon="13.278043">
        <ele>787.60</ele>
        <time>2012-05-02T10:21:30Z</time>
      </trkpt>
      <trkpt lat="47.335938" lon="13.278106">
        <ele>788.00</ele>
        <time>2012-05-02T10:21:31Z</time>
      </trkpt>
      <trkpt lat="47.335915" lon="13.278221">
        <ele>788.00</ele>
        <time>2012-05-02T10:21:33Z</time>
      </trkpt>
      <trkpt lat="47.335869" lon="13.278549">
        <ele>788.00</ele>
        <time>2012-05-02T10:21:39Z</time>
      </trkpt>
      <trkpt lat="47.335854" lon="13.278650">
        <ele>788.40</ele>
        <time>2012-05-02T10:21:41Z</time>
      </trkpt>
      <trkpt lat="47.335846" lon="13.278702">
        <ele>789.00</ele>
        <time>2012-05-02T10:21:42Z</time>
      </trkpt>
      <trkpt lat="47.335842" lon="13.278753">
        <ele>789.40</ele>
        <time>2012-05-02T10:21:43Z</time>
      </trkpt>
      <trkpt lat="47.335835" lon="13.278805">
        <ele>789.80</ele>
        <time>2012-05-02T10:21:44Z</time>
      </trkpt>
      <trkpt lat="47.335823" lon="13.278857">
        <ele>790.20</ele>
        <time>2012-05-02T10:21:45Z</time>
      </trkpt>
      <trkpt lat="47.335815" lon="13.278912">
        <ele>790.20</ele>
        <time>2012-05-02T10:21:46Z</time>
      </trkpt>
      <trkpt lat="47.335789" lon="13.279106">
        <ele>790.60</ele>
        <time>2012-05-02T10:21:50Z</time>
      </trkpt>
      <trkpt lat="47.335777" lon="13.279153">
        <ele>791.40</ele>
        <time>2012-05-02T10:21:51Z</time>
      </trkpt>
      <trkpt lat="47.335773" lon="13.279198">
        <ele>791.80</ele>
        <time>2012-05-02T10:21:52Z</time>
      </trkpt>
      <trkpt lat="47.335773" lon="13.279243">
        <ele>792.20</ele>
        <time>2012-05-02T10:21:53Z</time>
      </trkpt>
      <trkpt lat="47.335770" lon="13.279415">
        <ele>792.20</ele>
        <time>2012-05-02T10:21:57Z</time>
      </trkpt>
      <trkpt lat="47.335785" lon="13.279784">
        <ele>792.60</ele>
        <time>2012-05-02T10:22:05Z</time>
      </trkpt>
      <trkpt lat="47.335785" lon="13.279828">
        <ele>793.20</ele>
        <time>2012-05-02T10:22:06Z</time>
      </trkpt>
      <trkpt lat="47.335785" lon="13.279874">
        <ele>793.60</ele>
        <time>2012-05-02T10:22:07Z</time>
      </trkpt>
      <trkpt lat="47.335789" lon="13.279920">
        <ele>794.00</ele>
        <time>2012-05-02T10:22:08Z</time>
      </trkpt>
      <trkpt lat="47.335793" lon="13.279968">
        <ele>794.40</ele>
        <time>2012-05-02T10:22:09Z</time>
      </trkpt>
      <trkpt lat="47.335804" lon="13.280105">
        <ele>794.40</ele>
        <time>2012-05-02T10:22:12Z</time>
      </trkpt>
      <trkpt lat="47.335835" lon="13.280330">
        <ele>794.80</ele>
        <time>2012-05-02T10:22:17Z</time>
      </trkpt>
      <trkpt lat="47.335838" lon="13.280376">
        <ele>795.20</ele>
        <time>2012-05-02T10:22:18Z</time>
      </trkpt>
      <trkpt lat="47.335846" lon="13.280425">
        <ele>795.60</ele>
        <time>2012-05-02T10:22:19Z</time>
      </trkpt>
      <trkpt lat="47.335854" lon="13.280477">
        <ele>796.00</ele>
        <time>2012-05-02T10:22:20Z</time>
      </trkpt>
      <trkpt lat="47.335857" lon="13.280524">
        <ele>796.40</ele>
        <time>2012-05-02T10:22:21Z</time>
      </trkpt>
      <trkpt lat="47.335888" lon="13.280779">
        <ele>796.40</ele>
        <time>2012-05-02T10:22:26Z</time>
      </trkpt>
      <trkpt lat="47.335938" lon="13.281239">
        <ele>796.40</ele>
        <time>2012-05-02T10:22:34Z</time>
      </trkpt>
      <trkpt lat="47.335957" lon="13.281362">
        <ele>796.40</ele>
        <time>2012-05-02T10:22:36Z</time>
      </trkpt>
      <trkpt lat="47.335991" lon="13.281613">
        <ele>796.40</ele>
        <time>2012-05-02T10:22:40Z</time>
      </trkpt>
      <trkpt lat="47.335999" lon="13.281675">
        <ele>796.40</ele>
        <time>2012-05-02T10:22:41Z</time>
      </trkpt>
      <trkpt lat="47.336002" lon="13.281739">
        <ele>796.80</ele>
        <time>2012-05-02T10:22:42Z</time>
      </trkpt>
      <trkpt lat="47.336006" lon="13.281803">
        <ele>797.20</ele>
        <time>2012-05-02T10:22:43Z</time>
      </trkpt>
      <trkpt lat="47.336010" lon="13.281868">
        <ele>797.60</ele>
        <time>2012-05-02T10:22:44Z</time>
      </trkpt>
      <trkpt lat="47.336018" lon="13.281932">
        <ele>798.00</ele>
        <time>2012-05-02T10:22:45Z</time>
      </trkpt>
      <trkpt lat="47.336021" lon="13.281993">
        <ele>798.60</ele>
        <time>2012-05-02T10:22:46Z</time>
      </trkpt>
      <trkpt lat="47.336029" lon="13.282115">
        <ele>798.60</ele>
        <time>2012-05-02T10:22:48Z</time>
      </trkpt>
      <trkpt lat="47.336025" lon="13.282428">
        <ele>798.60</ele>
        <time>2012-05-02T10:22:54Z</time>
      </trkpt>
      <trkpt lat="47.335995" lon="13.282676">
        <ele>799.00</ele>
        <time>2012-05-02T10:22:59Z</time>
      </trkpt>
      <trkpt lat="47.335983" lon="13.282715">
        <ele>799.60</ele>
        <time>2012-05-02T10:23:00Z</time>
      </trkpt>
      <trkpt lat="47.335972" lon="13.282753">
        <ele>800.00</ele>
        <time>2012-05-02T10:23:01Z</time>
      </trkpt>
      <trkpt lat="47.335957" lon="13.282787">
        <ele>800.40</ele>
        <time>2012-05-02T10:23:02Z</time>
      </trkpt>
      <trkpt lat="47.335941" lon="13.282824">
        <ele>801.00</ele>
        <time>2012-05-02T10:23:03Z</time>
      </trkpt>
      <trkpt lat="47.335835" lon="13.283023">
        <ele>801.00</ele>
        <time>2012-05-02T10:23:08Z</time>
      </trkpt>
      <trkpt lat="47.335709" lon="13.283311">
        <ele>801.00</ele>
        <time>2012-05-02T10:23:14Z</time>
      </trkpt>
      <trkpt lat="47.335667" lon="13.283499">
        <ele>801.00</ele>
        <time>2012-05-02T10:23:18Z</time>
      </trkpt>
      <trkpt lat="47.335621" lon="13.283718">
        <ele>801.60</ele>
        <time>2012-05-02T10:23:22Z</time>
      </trkpt>
      <trkpt lat="47.335609" lon="13.283771">
        <ele>802.00</ele>
        <time>2012-05-02T10:23:23Z</time>
      </trkpt>
      <trkpt lat="47.335602" lon="13.283821">
        <ele>802.60</ele>
        <time>2012-05-02T10:23:24Z</time>
      </trkpt>
      <trkpt lat="47.335594" lon="13.283870">
        <ele>803.20</ele>
        <time>2012-05-02T10:23:25Z</time>
      </trkpt>
      <trkpt lat="47.335594" lon="13.283922">
        <ele>803.60</ele>
        <time>2012-05-02T10:23:26Z</time>
      </trkpt>
      <trkpt lat="47.335606" lon="13.284180">
        <ele>803.60</ele>
        <time>2012-05-02T10:23:31Z</time>
      </trkpt>
      <trkpt lat="47.335644" lon="13.284467">
        <ele>803.60</ele>
        <time>2012-05-02T10:23:37Z</time>
      </trkpt>
      <trkpt lat="47.335701" lon="13.284865">
        <ele>803.60</ele>
        <time>2012-05-02T10:23:45Z</time>
      </trkpt>
      <trkpt lat="47.335686" lon="13.285135">
        <ele>803.60</ele>
        <time>2012-05-02T10:23:51Z</time>
      </trkpt>
      <trkpt lat="47.335670" lon="13.285278">
        <ele>804.00</ele>
        <time>2012-05-02T10:23:54Z</time>
      </trkpt>
      <trkpt lat="47.335659" lon="13.285330">
        <ele>804.40</ele>
        <time>2012-05-02T10:23:55Z</time>
      </trkpt>
      <trkpt lat="47.335655" lon="13.285376">
        <ele>805.00</ele>
        <time>2012-05-02T10:23:56Z</time>
      </trkpt>
      <trkpt lat="47.335644" lon="13.285424">
        <ele>805.40</ele>
        <time>2012-05-02T10:23:57Z</time>
      </trkpt>
      <trkpt lat="47.335636" lon="13.285473">
        <ele>805.80</ele>
        <time>2012-05-02T10:23:58Z</time>
      </trkpt>
      <trkpt lat="47.335533" lon="13.285894">
        <ele>805.80</ele>
        <time>2012-05-02T10:24:07Z</time>
      </trkpt>
      <trkpt lat="47.335388" lon="13.286215">
        <ele>806.20</ele>
        <time>2012-05-02T10:24:15Z</time>
      </trkpt>
      <trkpt lat="47.335373" lon="13.286254">
        <ele>806.60</ele>
        <time>2012-05-02T10:24:16Z</time>
      </trkpt>
      <trkpt lat="47.335354" lon="13.286294">
        <ele>807.00</ele>
        <time>2012-05-02T10:24:17Z</time>
      </trkpt>
      <trkpt lat="47.335335" lon="13.286334">
        <ele>807.40</ele>
        <time>2012-05-02T10:24:18Z</time>
      </trkpt>
      <trkpt lat="47.335316" lon="13.286372">
        <ele>807.80</ele>
        <time>2012-05-02T10:24:19Z</time>
      </trkpt>
      <trkpt lat="47.335243" lon="13.286537">
        <ele>807.80</ele>
        <time>2012-05-02T10:24:23Z</time>
      </trkpt>
      <trkpt lat="47.335136" lon="13.286845">
        <ele>807.80</ele>
        <time>2012-05-02T10:24:30Z</time>
      </trkpt>
      <trkpt lat="47.335121" lon="13.286890">
        <ele>808.20</ele>
        <time>2012-05-02T10:24:31Z</time>
      </trkpt>
      <trkpt lat="47.335106" lon="13.286939">
        <ele>808.60</ele>
        <time>2012-05-02T10:24:32Z</time>
      </trkpt>
      <trkpt lat="47.335087" lon="13.286984">
        <ele>809.00</ele>
        <time>2012-05-02T10:24:33Z</time>
      </trkpt>
      <trkpt lat="47.335068" lon="13.287031">
        <ele>809.40</ele>
        <time>2012-05-02T10:24:34Z</time>
      </trkpt>
      <trkpt lat="47.335045" lon="13.287078">
        <ele>809.80</ele>
        <time>2012-05-02T10:24:35Z</time>
      </trkpt>
      <trkpt lat="47.335018" lon="13.287164">
        <ele>809.80</ele>
        <time>2012-05-02T10:24:37Z</time>
      </trkpt>
      <trkpt lat="47.334908" lon="13.287498">
        <ele>809.80</ele>
        <time>2012-05-02T10:24:44Z</time>
      </trkpt>
      <trkpt lat="47.334793" lon="13.287807">
        <ele>809.80</ele>
        <time>2012-05-02T10:24:50Z</time>
      </trkpt>
      <trkpt lat="47.334774" lon="13.287858">
        <ele>810.40</ele>
        <time>2012-05-02T10:24:51Z</time>
      </trkpt>
      <trkpt lat="47.334751" lon="13.287910">
        <ele>810.80</ele>
        <time>2012-05-02T10:24:52Z</time>
      </trkpt>
      <trkpt lat="47.334732" lon="13.287965">
        <ele>811.20</ele>
        <time>2012-05-02T10:24:53Z</time>
      </trkpt>
      <trkpt lat="47.334717" lon="13.288019">
        <ele>811.60</ele>
        <time>2012-05-02T10:24:54Z</time>
      </trkpt>
      <trkpt lat="47.334702" lon="13.288079">
        <ele>812.00</ele>
        <time>2012-05-02T10:24:55Z</time>
      </trkpt>
      <trkpt lat="47.334648" lon="13.288268">
        <ele>812.00</ele>
        <time>2012-05-02T10:24:58Z</time>
      </trkpt>
      <trkpt lat="47.334606" lon="13.288500">
        <ele>812.40</ele>
        <time>2012-05-02T10:25:02Z</time>
      </trkpt>
      <trkpt lat="47.334599" lon="13.288552">
        <ele>812.80</ele>
        <time>2012-05-02T10:25:03Z</time>
      </trkpt>
      <trkpt lat="47.334599" lon="13.288607">
        <ele>813.20</ele>
        <time>2012-05-02T10:25:04Z</time>
      </trkpt>
      <trkpt lat="47.334591" lon="13.288663">
        <ele>813.60</ele>
        <time>2012-05-02T10:25:05Z</time>
      </trkpt>
      <trkpt lat="47.334587" lon="13.288717">
        <ele>814.20</ele>
        <time>2012-05-02T10:25:06Z</time>
      </trkpt>
      <trkpt lat="47.334576" lon="13.288776">
        <ele>813.60</ele>
        <time>2012-05-02T10:25:07Z</time>
      </trkpt>
      <trkpt lat="47.334572" lon="13.288835">
        <ele>813.00</ele>
        <time>2012-05-02T10:25:08Z</time>
      </trkpt>
      <trkpt lat="47.334568" lon="13.288890">
        <ele>811.80</ele>
        <time>2012-05-02T10:25:09Z</time>
      </trkpt>
      <trkpt lat="47.334572" lon="13.288940">
        <ele>811.40</ele>
        <time>2012-05-02T10:25:10Z</time>
      </trkpt>
      <trkpt lat="47.334576" lon="13.289045">
        <ele>811.40</ele>
        <time>2012-05-02T10:25:12Z</time>
      </trkpt>
      <trkpt lat="47.334610" lon="13.289481">
        <ele>811.40</ele>
        <time>2012-05-02T10:25:21Z</time>
      </trkpt>
      <trkpt lat="47.334694" lon="13.289825">
        <ele>811.40</ele>
        <time>2012-05-02T10:25:29Z</time>
      </trkpt>
      <trkpt lat="47.334743" lon="13.289994">
        <ele>811.00</ele>
        <time>2012-05-02T10:25:33Z</time>
      </trkpt>
      <trkpt lat="47.334759" lon="13.290035">
        <ele>810.00</ele>
        <time>2012-05-02T10:25:34Z</time>
      </trkpt>
      <trkpt lat="47.334778" lon="13.290080">
        <ele>809.60</ele>
        <time>2012-05-02T10:25:35Z</time>
      </trkpt>
      <trkpt lat="47.334797" lon="13.290123">
        <ele>809.20</ele>
        <time>2012-05-02T10:25:36Z</time>
      </trkpt>
      <trkpt lat="47.334824" lon="13.290210">
        <ele>809.20</ele>
        <time>2012-05-02T10:25:38Z</time>
      </trkpt>
      <trkpt lat="47.334911" lon="13.290468">
        <ele>809.20</ele>
        <time>2012-05-02T10:25:44Z</time>
      </trkpt>
      <trkpt lat="47.334995" lon="13.290733">
        <ele>809.20</ele>
        <time>2012-05-02T10:25:50Z</time>
      </trkpt>
      <trkpt lat="47.335110" lon="13.291068">
        <ele>809.20</ele>
        <time>2012-05-02T10:25:58Z</time>
      </trkpt>
      <trkpt lat="47.335194" lon="13.291387">
        <ele>809.20</ele>
        <time>2012-05-02T10:26:05Z</time>
      </trkpt>
      <trkpt lat="47.335197" lon="13.291480">
        <ele>809.60</ele>
        <time>2012-05-02T10:26:07Z</time>
      </trkpt>
      <trkpt lat="47.335197" lon="13.291528">
        <ele>810.00</ele>
        <time>2012-05-02T10:26:08Z</time>
      </trkpt>
      <trkpt lat="47.335190" lon="13.291575">
        <ele>810.40</ele>
        <time>2012-05-02T10:26:09Z</time>
      </trkpt>
      <trkpt lat="47.335186" lon="13.291621">
        <ele>810.80</ele>
        <time>2012-05-02T10:26:10Z</time>
      </trkpt>
      <trkpt lat="47.335178" lon="13.291670">
        <ele>811.20</ele>
        <time>2012-05-02T10:26:11Z</time>
      </trkpt>
      <trkpt lat="47.335171" lon="13.291727">
        <ele>811.20</ele>
        <time>2012-05-02T10:26:12Z</time>
      </trkpt>
      <trkpt lat="47.335094" lon="13.291999">
        <ele>811.20</ele>
        <time>2012-05-02T10:26:18Z</time>
      </trkpt>
      <trkpt lat="47.334927" lon="13.292189">
        <ele>811.60</ele>
        <time>2012-05-02T10:26:24Z</time>
      </trkpt>
      <trkpt lat="47.334896" lon="13.292211">
        <ele>812.00</ele>
        <time>2012-05-02T10:26:25Z</time>
      </trkpt>
      <trkpt lat="47.334862" lon="13.292225">
        <ele>812.40</ele>
        <time>2012-05-02T10:26:26Z</time>
      </trkpt>
      <trkpt lat="47.334827" lon="13.292239">
        <ele>812.80</ele>
        <time>2012-05-02T10:26:27Z</time>
      </trkpt>
      <trkpt lat="47.334789" lon="13.292254">
        <ele>813.20</ele>
        <time>2012-05-02T10:26:28Z</time>
      </trkpt>
      <trkpt lat="47.334724" lon="13.292276">
        <ele>813.20</ele>
        <time>2012-05-02T10:26:30Z</time>
      </trkpt>
      <trkpt lat="47.334522" lon="13.292315">
        <ele>813.60</ele>
        <time>2012-05-02T10:26:36Z</time>
      </trkpt>
      <trkpt lat="47.334492" lon="13.292315">
        <ele>814.00</ele>
        <time>2012-05-02T10:26:37Z</time>
      </trkpt>
      <trkpt lat="47.334461" lon="13.292318">
        <ele>814.40</ele>
        <time>2012-05-02T10:26:38Z</time>
      </trkpt>
      <trkpt lat="47.334427" lon="13.292321">
        <ele>814.80</ele>
        <time>2012-05-02T10:26:39Z</time>
      </trkpt>
      <trkpt lat="47.334396" lon="13.292333">
        <ele>815.20</ele>
        <time>2012-05-02T10:26:40Z</time>
      </trkpt>
      <trkpt lat="47.334278" lon="13.292363">
        <ele>815.20</ele>
        <time>2012-05-02T10:26:44Z</time>
      </trkpt>
      <trkpt lat="47.334137" lon="13.292386">
        <ele>815.60</ele>
        <time>2012-05-02T10:26:49Z</time>
      </trkpt>
      <trkpt lat="47.334103" lon="13.292392">
        <ele>816.00</ele>
        <time>2012-05-02T10:26:50Z</time>
      </trkpt>
      <trkpt lat="47.334072" lon="13.292396">
        <ele>816.40</ele>
        <time>2012-05-02T10:26:51Z</time>
      </trkpt>
      <trkpt lat="47.334038" lon="13.292408">
        <ele>816.80</ele>
        <time>2012-05-02T10:26:52Z</time>
      </trkpt>
      <trkpt lat="47.334011" lon="13.292431">
        <ele>817.20</ele>
        <time>2012-05-02T10:26:53Z</time>
      </trkpt>
      <trkpt lat="47.333939" lon="13.292521">
        <ele>817.20</ele>
        <time>2012-05-02T10:26:56Z</time>
      </trkpt>
      <trkpt lat="47.333870" lon="13.292732">
        <ele>817.20</ele>
        <time>2012-05-02T10:27:01Z</time>
      </trkpt>
      <trkpt lat="47.333855" lon="13.293032">
        <ele>817.20</ele>
        <time>2012-05-02T10:27:07Z</time>
      </trkpt>
      <trkpt lat="47.333874" lon="13.293200">
        <ele>817.20</ele>
        <time>2012-05-02T10:27:10Z</time>
      </trkpt>
      <trkpt lat="47.333897" lon="13.293319">
        <ele>817.20</ele>
        <time>2012-05-02T10:27:12Z</time>
      </trkpt>
      <trkpt lat="47.333931" lon="13.293509">
        <ele>817.20</ele>
        <time>2012-05-02T10:27:15Z</time>
      </trkpt>
      <trkpt lat="47.333977" lon="13.293704">
        <ele>817.20</ele>
        <time>2012-05-02T10:27:18Z</time>
      </trkpt>
      <trkpt lat="47.334011" lon="13.293965">
        <ele>817.20</ele>
        <time>2012-05-02T10:27:22Z</time>
      </trkpt>
      <trkpt lat="47.334007" lon="13.294168">
        <ele>817.20</ele>
        <time>2012-05-02T10:27:25Z</time>
      </trkpt>
      <trkpt lat="47.333992" lon="13.294618">
        <ele>817.20</ele>
        <time>2012-05-02T10:27:32Z</time>
      </trkpt>
      <trkpt lat="47.333973" lon="13.294729">
        <ele>817.20</ele>
        <time>2012-05-02T10:27:34Z</time>
      </trkpt>
      <trkpt lat="47.333939" lon="13.294897">
        <ele>817.20</ele>
        <time>2012-05-02T10:27:37Z</time>
      </trkpt>
      <trkpt lat="47.333881" lon="13.295109">
        <ele>817.20</ele>
        <time>2012-05-02T10:27:41Z</time>
      </trkpt>
      <trkpt lat="47.333843" lon="13.295266">
        <ele>817.60</ele>
        <time>2012-05-02T10:27:44Z</time>
      </trkpt>
      <trkpt lat="47.333832" lon="13.295318">
        <ele>818.00</ele>
        <time>2012-05-02T10:27:45Z</time>
      </trkpt>
      <trkpt lat="47.333817" lon="13.295368">
        <ele>818.40</ele>
        <time>2012-05-02T10:27:46Z</time>
      </trkpt>
      <trkpt lat="47.333801" lon="13.295415">
        <ele>818.80</ele>
        <time>2012-05-02T10:27:47Z</time>
      </trkpt>
      <trkpt lat="47.333786" lon="13.295458">
        <ele>819.20</ele>
        <time>2012-05-02T10:27:48Z</time>
      </trkpt>
      <trkpt lat="47.333683" lon="13.295742">
        <ele>819.20</ele>
        <time>2012-05-02T10:27:54Z</time>
      </trkpt>
      <trkpt lat="47.333622" lon="13.296005">
        <ele>819.80</ele>
        <time>2012-05-02T10:27:59Z</time>
      </trkpt>
      <trkpt lat="47.333614" lon="13.296054">
        <ele>820.20</ele>
        <time>2012-05-02T10:28:00Z</time>
      </trkpt>
      <trkpt lat="47.333607" lon="13.296103">
        <ele>820.60</ele>
        <time>2012-05-02T10:28:01Z</time>
      </trkpt>
      <trkpt lat="47.333595" lon="13.296154">
        <ele>821.40</ele>
        <time>2012-05-02T10:28:02Z</time>
      </trkpt>
      <trkpt lat="47.333576" lon="13.296333">
        <ele>821.80</ele>
        <time>2012-05-02T10:28:06Z</time>
      </trkpt>
      <trkpt lat="47.333580" lon="13.296378">
        <ele>822.20</ele>
        <time>2012-05-02T10:28:07Z</time>
      </trkpt>
      <trkpt lat="47.333591" lon="13.296418">
        <ele>822.60</ele>
        <time>2012-05-02T10:28:08Z</time>
      </trkpt>
      <trkpt lat="47.333611" lon="13.296456">
        <ele>823.00</ele>
        <time>2012-05-02T10:28:09Z</time>
      </trkpt>
      <trkpt lat="47.333622" lon="13.296497">
        <ele>823.40</ele>
        <time>2012-05-02T10:28:10Z</time>
      </trkpt>
      <trkpt lat="47.333641" lon="13.296536">
        <ele>823.40</ele>
        <time>2012-05-02T10:28:11Z</time>
      </trkpt>
      <trkpt lat="47.333847" lon="13.296744">
        <ele>823.40</ele>
        <time>2012-05-02T10:28:17Z</time>
      </trkpt>
      <trkpt lat="47.334122" lon="13.296880">
        <ele>823.40</ele>
        <time>2012-05-02T10:28:23Z</time>
      </trkpt>
      <trkpt lat="47.334167" lon="13.296912">
        <ele>823.40</ele>
        <time>2012-05-02T10:28:24Z</time>
      </trkpt>
      <trkpt lat="47.334362" lon="13.297155">
        <ele>823.40</ele>
        <time>2012-05-02T10:28:32Z</time>
      </trkpt>
      <trkpt lat="47.334396" lon="13.297222">
        <ele>823.40</ele>
        <time>2012-05-02T10:28:34Z</time>
      </trkpt>
      <trkpt lat="47.334496" lon="13.297421">
        <ele>823.80</ele>
        <time>2012-05-02T10:28:39Z</time>
      </trkpt>
      <trkpt lat="47.334515" lon="13.297461">
        <ele>824.20</ele>
        <time>2012-05-02T10:28:40Z</time>
      </trkpt>
      <trkpt lat="47.334534" lon="13.297502">
        <ele>824.60</ele>
        <time>2012-05-02T10:28:41Z</time>
      </trkpt>
      <trkpt lat="47.334553" lon="13.297540">
        <ele>825.00</ele>
        <time>2012-05-02T10:28:42Z</time>
      </trkpt>
      <trkpt lat="47.334572" lon="13.297580">
        <ele>825.40</ele>
        <time>2012-05-02T10:28:43Z</time>
      </trkpt>
      <trkpt lat="47.334682" lon="13.297783">
        <ele>825.40</ele>
        <time>2012-05-02T10:28:48Z</time>
      </trkpt>
      <trkpt lat="47.334778" lon="13.298041">
        <ele>825.40</ele>
        <time>2012-05-02T10:28:54Z</time>
      </trkpt>
      <trkpt lat="47.334873" lon="13.298398">
        <ele>825.80</ele>
        <time>2012-05-02T10:29:02Z</time>
      </trkpt>
      <trkpt lat="47.334877" lon="13.298440">
        <ele>826.20</ele>
        <time>2012-05-02T10:29:03Z</time>
      </trkpt>
      <trkpt lat="47.334885" lon="13.298485">
        <ele>826.60</ele>
        <time>2012-05-02T10:29:04Z</time>
      </trkpt>
      <trkpt lat="47.334888" lon="13.298529">
        <ele>827.00</ele>
        <time>2012-05-02T10:29:05Z</time>
      </trkpt>
      <trkpt lat="47.334900" lon="13.298573">
        <ele>827.40</ele>
        <time>2012-05-02T10:29:06Z</time>
      </trkpt>
      <trkpt lat="47.334934" lon="13.298701">
        <ele>827.40</ele>
        <time>2012-05-02T10:29:09Z</time>
      </trkpt>
      <trkpt lat="47.335045" lon="13.299087">
        <ele>827.40</ele>
        <time>2012-05-02T10:29:18Z</time>
      </trkpt>
      <trkpt lat="47.335060" lon="13.299125">
        <ele>827.80</ele>
        <time>2012-05-02T10:29:19Z</time>
      </trkpt>
      <trkpt lat="47.335075" lon="13.299169">
        <ele>828.20</ele>
        <time>2012-05-02T10:29:20Z</time>
      </trkpt>
      <trkpt lat="47.335087" lon="13.299210">
        <ele>828.60</ele>
        <time>2012-05-02T10:29:21Z</time>
      </trkpt>
      <trkpt lat="47.335098" lon="13.299251">
        <ele>829.00</ele>
        <time>2012-05-02T10:29:22Z</time>
      </trkpt>
      <trkpt lat="47.335110" lon="13.299288">
        <ele>829.40</ele>
        <time>2012-05-02T10:29:23Z</time>
      </trkpt>
      <trkpt lat="47.335167" lon="13.299439">
        <ele>829.40</ele>
        <time>2012-05-02T10:29:27Z</time>
      </trkpt>
      <trkpt lat="47.335258" lon="13.299691">
        <ele>829.40</ele>
        <time>2012-05-02T10:29:33Z</time>
      </trkpt>
      <trkpt lat="47.335308" lon="13.299805">
        <ele>829.80</ele>
        <time>2012-05-02T10:29:36Z</time>
      </trkpt>
      <trkpt lat="47.335323" lon="13.299845">
        <ele>830.20</ele>
        <time>2012-05-02T10:29:37Z</time>
      </trkpt>
      <trkpt lat="47.335335" lon="13.299881">
        <ele>830.80</ele>
        <time>2012-05-02T10:29:38Z</time>
      </trkpt>
      <trkpt lat="47.335346" lon="13.299922">
        <ele>831.20</ele>
        <time>2012-05-02T10:29:39Z</time>
      </trkpt>
      <trkpt lat="47.335361" lon="13.299962">
        <ele>831.60</ele>
        <time>2012-05-02T10:29:40Z</time>
      </trkpt>
      <trkpt lat="47.335373" lon="13.300001">
        <ele>831.60</ele>
        <time>2012-05-02T10:29:41Z</time>
      </trkpt>
      <trkpt lat="47.335484" lon="13.300363">
        <ele>831.60</ele>
        <time>2012-05-02T10:29:50Z</time>
      </trkpt>
      <trkpt lat="47.335548" lon="13.300561">
        <ele>832.00</ele>
        <time>2012-05-02T10:29:55Z</time>
      </trkpt>
      <trkpt lat="47.335556" lon="13.300599">
        <ele>832.40</ele>
        <time>2012-05-02T10:29:56Z</time>
      </trkpt>
      <trkpt lat="47.335567" lon="13.300640">
        <ele>832.80</ele>
        <time>2012-05-02T10:29:57Z</time>
      </trkpt>
      <trkpt lat="47.335579" lon="13.300678">
        <ele>833.20</ele>
        <time>2012-05-02T10:29:58Z</time>
      </trkpt>
      <trkpt lat="47.335587" lon="13.300714">
        <ele>833.60</ele>
        <time>2012-05-02T10:29:59Z</time>
      </trkpt>
      <trkpt lat="47.335648" lon="13.300955">
        <ele>833.60</ele>
        <time>2012-05-02T10:30:05Z</time>
      </trkpt>
      <trkpt lat="47.335663" lon="13.300992">
        <ele>833.60</ele>
        <time>2012-05-02T10:30:06Z</time>
      </trkpt>
      <trkpt lat="47.335743" lon="13.301219">
        <ele>834.00</ele>
        <time>2012-05-02T10:30:12Z</time>
      </trkpt>
      <trkpt lat="47.335758" lon="13.301256">
        <ele>834.40</ele>
        <time>2012-05-02T10:30:13Z</time>
      </trkpt>
      <trkpt lat="47.335773" lon="13.301297">
        <ele>835.00</ele>
        <time>2012-05-02T10:30:14Z</time>
      </trkpt>
      <trkpt lat="47.335789" lon="13.301336">
        <ele>835.40</ele>
        <time>2012-05-02T10:30:15Z</time>
      </trkpt>
      <trkpt lat="47.335800" lon="13.301374">
        <ele>835.80</ele>
        <time>2012-05-02T10:30:16Z</time>
      </trkpt>
      <trkpt lat="47.335941" lon="13.301669">
        <ele>835.80</ele>
        <time>2012-05-02T10:30:24Z</time>
      </trkpt>
      <trkpt lat="47.336037" lon="13.301864">
        <ele>836.20</ele>
        <time>2012-05-02T10:30:29Z</time>
      </trkpt>
      <trkpt lat="47.336060" lon="13.301905">
        <ele>836.60</ele>
        <time>2012-05-02T10:30:30Z</time>
      </trkpt>
      <trkpt lat="47.336082" lon="13.301944">
        <ele>837.00</ele>
        <time>2012-05-02T10:30:31Z</time>
      </trkpt>
      <trkpt lat="47.336105" lon="13.301978">
        <ele>837.40</ele>
        <time>2012-05-02T10:30:32Z</time>
      </trkpt>
      <trkpt lat="47.336132" lon="13.302015">
        <ele>837.80</ele>
        <time>2012-05-02T10:30:33Z</time>
      </trkpt>
      <trkpt lat="47.336338" lon="13.302369">
        <ele>837.80</ele>
        <time>2012-05-02T10:30:42Z</time>
      </trkpt>
      <trkpt lat="47.336472" lon="13.302529">
        <ele>838.20</ele>
        <time>2012-05-02T10:30:47Z</time>
      </trkpt>
      <trkpt lat="47.336494" lon="13.302564">
        <ele>838.60</ele>
        <time>2012-05-02T10:30:48Z</time>
      </trkpt>
      <trkpt lat="47.336521" lon="13.302595">
        <ele>839.40</ele>
        <time>2012-05-02T10:30:49Z</time>
      </trkpt>
      <trkpt lat="47.336548" lon="13.302627">
        <ele>839.80</ele>
        <time>2012-05-02T10:30:50Z</time>
      </trkpt>
      <trkpt lat="47.336700" lon="13.302804">
        <ele>839.80</ele>
        <time>2012-05-02T10:30:56Z</time>
      </trkpt>
      <trkpt lat="47.336899" lon="13.303034">
        <ele>839.80</ele>
        <time>2012-05-02T10:31:04Z</time>
      </trkpt>
      <trkpt lat="47.336945" lon="13.303090">
        <ele>840.20</ele>
        <time>2012-05-02T10:31:06Z</time>
      </trkpt>
      <trkpt lat="47.336971" lon="13.303114">
        <ele>840.60</ele>
        <time>2012-05-02T10:31:07Z</time>
      </trkpt>
      <trkpt lat="47.336998" lon="13.303139">
        <ele>841.00</ele>
        <time>2012-05-02T10:31:08Z</time>
      </trkpt>
      <trkpt lat="47.337025" lon="13.303164">
        <ele>841.40</ele>
        <time>2012-05-02T10:31:09Z</time>
      </trkpt>
      <trkpt lat="47.337051" lon="13.303187">
        <ele>841.80</ele>
        <time>2012-05-02T10:31:10Z</time>
      </trkpt>
      <trkpt lat="47.337074" lon="13.303215">
        <ele>841.80</ele>
        <time>2012-05-02T10:31:11Z</time>
      </trkpt>
      <trkpt lat="47.337097" lon="13.303238">
        <ele>841.80</ele>
        <time>2012-05-02T10:31:12Z</time>
      </trkpt>
      <trkpt lat="47.337223" lon="13.303379">
        <ele>841.80</ele>
        <time>2012-05-02T10:31:18Z</time>
      </trkpt>
      <trkpt lat="47.337265" lon="13.303428">
        <ele>842.20</ele>
        <time>2012-05-02T10:31:20Z</time>
      </trkpt>
      <trkpt lat="47.337284" lon="13.303452">
        <ele>842.60</ele>
        <time>2012-05-02T10:31:21Z</time>
      </trkpt>
      <trkpt lat="47.337307" lon="13.303473">
        <ele>843.00</ele>
        <time>2012-05-02T10:31:22Z</time>
      </trkpt>
      <trkpt lat="47.337330" lon="13.303497">
        <ele>843.40</ele>
        <time>2012-05-02T10:31:23Z</time>
      </trkpt>
      <trkpt lat="47.337353" lon="13.303521">
        <ele>843.80</ele>
        <time>2012-05-02T10:31:24Z</time>
      </trkpt>
      <trkpt lat="47.337395" lon="13.303577">
        <ele>843.80</ele>
        <time>2012-05-02T10:31:26Z</time>
      </trkpt>
      <trkpt lat="47.337536" lon="13.303759">
        <ele>844.40</ele>
        <time>2012-05-02T10:31:33Z</time>
      </trkpt>
      <trkpt lat="47.337559" lon="13.303782">
        <ele>844.80</ele>
        <time>2012-05-02T10:31:34Z</time>
      </trkpt>
      <trkpt lat="47.337582" lon="13.303804">
        <ele>845.20</ele>
        <time>2012-05-02T10:31:35Z</time>
      </trkpt>
      <trkpt lat="47.337601" lon="13.303820">
        <ele>845.60</ele>
        <time>2012-05-02T10:31:36Z</time>
      </trkpt>
      <trkpt lat="47.337620" lon="13.303838">
        <ele>846.00</ele>
        <time>2012-05-02T10:31:37Z</time>
      </trkpt>
      <trkpt lat="47.337791" lon="13.303917">
        <ele>846.00</ele>
        <time>2012-05-02T10:31:44Z</time>
      </trkpt>
      <trkpt lat="47.337811" lon="13.303934">
        <ele>846.60</ele>
        <time>2012-05-02T10:31:45Z</time>
      </trkpt>
      <trkpt lat="47.337837" lon="13.303946">
        <ele>847.00</ele>
        <time>2012-05-02T10:31:46Z</time>
      </trkpt>
      <trkpt lat="47.337860" lon="13.303959">
        <ele>847.40</ele>
        <time>2012-05-02T10:31:47Z</time>
      </trkpt>
      <trkpt lat="47.337883" lon="13.303970">
        <ele>847.80</ele>
        <time>2012-05-02T10:31:48Z</time>
      </trkpt>
      <trkpt lat="47.337910" lon="13.303984">
        <ele>848.20</ele>
        <time>2012-05-02T10:31:49Z</time>
      </trkpt>
      <trkpt lat="47.338017" lon="13.304050">
        <ele>848.20</ele>
        <time>2012-05-02T10:31:54Z</time>
      </trkpt>
      <trkpt lat="47.338085" lon="13.304082">
        <ele>848.60</ele>
        <time>2012-05-02T10:31:57Z</time>
      </trkpt>
      <trkpt lat="47.338108" lon="13.304093">
        <ele>849.00</ele>
        <time>2012-05-02T10:31:58Z</time>
      </trkpt>
      <trkpt lat="47.338131" lon="13.304101">
        <ele>849.40</ele>
        <time>2012-05-02T10:31:59Z</time>
      </trkpt>
      <trkpt lat="47.338158" lon="13.304107">
        <ele>849.80</ele>
        <time>2012-05-02T10:32:00Z</time>
      </trkpt>
      <trkpt lat="47.338181" lon="13.304115">
        <ele>850.20</ele>
        <time>2012-05-02T10:32:01Z</time>
      </trkpt>
      <trkpt lat="47.338253" lon="13.304137">
        <ele>850.20</ele>
        <time>2012-05-02T10:32:04Z</time>
      </trkpt>
      <trkpt lat="47.338398" lon="13.304153">
        <ele>850.60</ele>
        <time>2012-05-02T10:32:10Z</time>
      </trkpt>
      <trkpt lat="47.338421" lon="13.304158">
        <ele>851.00</ele>
        <time>2012-05-02T10:32:11Z</time>
      </trkpt>
      <trkpt lat="47.338444" lon="13.304160">
        <ele>851.40</ele>
        <time>2012-05-02T10:32:12Z</time>
      </trkpt>
      <trkpt lat="47.338467" lon="13.304161">
        <ele>851.80</ele>
        <time>2012-05-02T10:32:13Z</time>
      </trkpt>
      <trkpt lat="47.338490" lon="13.304161">
        <ele>852.40</ele>
        <time>2012-05-02T10:32:14Z</time>
      </trkpt>
      <trkpt lat="47.338699" lon="13.304184">
        <ele>852.80</ele>
        <time>2012-05-02T10:32:23Z</time>
      </trkpt>
      <trkpt lat="47.338722" lon="13.304187">
        <ele>853.20</ele>
        <time>2012-05-02T10:32:24Z</time>
      </trkpt>
      <trkpt lat="47.338745" lon="13.304189">
        <ele>853.60</ele>
        <time>2012-05-02T10:32:25Z</time>
      </trkpt>
      <trkpt lat="47.338768" lon="13.304192">
        <ele>854.00</ele>
        <time>2012-05-02T10:32:26Z</time>
      </trkpt>
      <trkpt lat="47.338791" lon="13.304193">
        <ele>854.40</ele>
        <time>2012-05-02T10:32:27Z</time>
      </trkpt>
      <trkpt lat="47.338959" lon="13.304223">
        <ele>854.40</ele>
        <time>2012-05-02T10:32:34Z</time>
      </trkpt>
      <trkpt lat="47.339043" lon="13.304241">
        <ele>854.80</ele>
        <time>2012-05-02T10:32:37Z</time>
      </trkpt>
      <trkpt lat="47.339069" lon="13.304243">
        <ele>855.20</ele>
        <time>2012-05-02T10:32:38Z</time>
      </trkpt>
      <trkpt lat="47.339092" lon="13.304246">
        <ele>855.60</ele>
        <time>2012-05-02T10:32:39Z</time>
      </trkpt>
      <trkpt lat="47.339119" lon="13.304252">
        <ele>856.20</ele>
        <time>2012-05-02T10:32:40Z</time>
      </trkpt>
      <trkpt lat="47.339146" lon="13.304254">
        <ele>856.60</ele>
        <time>2012-05-02T10:32:41Z</time>
      </trkpt>
      <trkpt lat="47.339172" lon="13.304255">
        <ele>856.60</ele>
        <time>2012-05-02T10:32:42Z</time>
      </trkpt>
      <trkpt lat="47.339371" lon="13.304289">
        <ele>856.60</ele>
        <time>2012-05-02T10:32:50Z</time>
      </trkpt>
      <trkpt lat="47.339394" lon="13.304292">
        <ele>857.00</ele>
        <time>2012-05-02T10:32:51Z</time>
      </trkpt>
      <trkpt lat="47.339420" lon="13.304295">
        <ele>857.40</ele>
        <time>2012-05-02T10:32:52Z</time>
      </trkpt>
      <trkpt lat="47.339443" lon="13.304296">
        <ele>858.20</ele>
        <time>2012-05-02T10:32:53Z</time>
      </trkpt>
      <trkpt lat="47.339470" lon="13.304296">
        <ele>858.60</ele>
        <time>2012-05-02T10:32:54Z</time>
      </trkpt>
      <trkpt lat="47.339600" lon="13.304306">
        <ele>858.60</ele>
        <time>2012-05-02T10:32:59Z</time>
      </trkpt>
      <trkpt lat="47.339783" lon="13.304349">
        <ele>858.60</ele>
        <time>2012-05-02T10:33:06Z</time>
      </trkpt>
      <trkpt lat="47.339909" lon="13.304364">
        <ele>859.20</ele>
        <time>2012-05-02T10:33:11Z</time>
      </trkpt>
      <trkpt lat="47.339931" lon="13.304375">
        <ele>859.60</ele>
        <time>2012-05-02T10:33:12Z</time>
      </trkpt>
      <trkpt lat="47.339951" lon="13.304379">
        <ele>860.00</ele>
        <time>2012-05-02T10:33:13Z</time>
      </trkpt>
      <trkpt lat="47.339973" lon="13.304386">
        <ele>860.40</ele>
        <time>2012-05-02T10:33:14Z</time>
      </trkpt>
      <trkpt lat="47.339996" lon="13.304392">
        <ele>860.80</ele>
        <time>2012-05-02T10:33:15Z</time>
      </trkpt>
      <trkpt lat="47.340176" lon="13.304442">
        <ele>860.80</ele>
        <time>2012-05-02T10:33:22Z</time>
      </trkpt>
      <trkpt lat="47.340202" lon="13.304448">
        <ele>861.20</ele>
        <time>2012-05-02T10:33:23Z</time>
      </trkpt>
      <trkpt lat="47.340229" lon="13.304457">
        <ele>861.60</ele>
        <time>2012-05-02T10:33:24Z</time>
      </trkpt>
      <trkpt lat="47.340252" lon="13.304463">
        <ele>862.00</ele>
        <time>2012-05-02T10:33:25Z</time>
      </trkpt>
      <trkpt lat="47.340279" lon="13.304467">
        <ele>862.40</ele>
        <time>2012-05-02T10:33:26Z</time>
      </trkpt>
      <trkpt lat="47.340302" lon="13.304469">
        <ele>862.80</ele>
        <time>2012-05-02T10:33:27Z</time>
      </trkpt>
      <trkpt lat="47.340401" lon="13.304490">
        <ele>862.80</ele>
        <time>2012-05-02T10:33:31Z</time>
      </trkpt>
      <trkpt lat="47.340500" lon="13.304523">
        <ele>863.20</ele>
        <time>2012-05-02T10:33:35Z</time>
      </trkpt>
      <trkpt lat="47.340527" lon="13.304535">
        <ele>863.60</ele>
        <time>2012-05-02T10:33:36Z</time>
      </trkpt>
      <trkpt lat="47.340553" lon="13.304544">
        <ele>864.00</ele>
        <time>2012-05-02T10:33:37Z</time>
      </trkpt>
      <trkpt lat="47.340576" lon="13.304552">
        <ele>864.40</ele>
        <time>2012-05-02T10:33:38Z</time>
      </trkpt>
      <trkpt lat="47.340599" lon="13.304560">
        <ele>864.80</ele>
        <time>2012-05-02T10:33:39Z</time>
      </trkpt>
      <trkpt lat="47.340622" lon="13.304566">
        <ele>864.80</ele>
        <time>2012-05-02T10:33:40Z</time>
      </trkpt>
      <trkpt lat="47.340797" lon="13.304650">
        <ele>864.80</ele>
        <time>2012-05-02T10:33:47Z</time>
      </trkpt>
      <trkpt lat="47.340843" lon="13.304673">
        <ele>865.20</ele>
        <time>2012-05-02T10:33:49Z</time>
      </trkpt>
      <trkpt lat="47.340866" lon="13.304687">
        <ele>865.80</ele>
        <time>2012-05-02T10:33:50Z</time>
      </trkpt>
      <trkpt lat="47.340889" lon="13.304695">
        <ele>866.20</ele>
        <time>2012-05-02T10:33:51Z</time>
      </trkpt>
      <trkpt lat="47.340912" lon="13.304708">
        <ele>866.60</ele>
        <time>2012-05-02T10:33:52Z</time>
      </trkpt>
      <trkpt lat="47.340935" lon="13.304720">
        <ele>867.00</ele>
        <time>2012-05-02T10:33:53Z</time>
      </trkpt>
      <trkpt lat="47.341007" lon="13.304768">
        <ele>867.00</ele>
        <time>2012-05-02T10:33:56Z</time>
      </trkpt>
      <trkpt lat="47.341156" lon="13.304856">
        <ele>867.40</ele>
        <time>2012-05-02T10:34:02Z</time>
      </trkpt>
      <trkpt lat="47.341179" lon="13.304873">
        <ele>867.80</ele>
        <time>2012-05-02T10:34:03Z</time>
      </trkpt>
      <trkpt lat="47.341202" lon="13.304882">
        <ele>868.20</ele>
        <time>2012-05-02T10:34:04Z</time>
      </trkpt>
      <trkpt lat="47.341225" lon="13.304894">
        <ele>868.60</ele>
        <time>2012-05-02T10:34:05Z</time>
      </trkpt>
      <trkpt lat="47.341251" lon="13.304904">
        <ele>869.00</ele>
        <time>2012-05-02T10:34:06Z</time>
      </trkpt>
      <trkpt lat="47.341373" lon="13.304953">
        <ele>869.00</ele>
        <time>2012-05-02T10:34:11Z</time>
      </trkpt>
      <trkpt lat="47.341442" lon="13.304988">
        <ele>869.60</ele>
        <time>2012-05-02T10:34:14Z</time>
      </trkpt>
      <trkpt lat="47.341465" lon="13.304999">
        <ele>870.00</ele>
        <time>2012-05-02T10:34:15Z</time>
      </trkpt>
      <trkpt lat="47.341492" lon="13.305011">
        <ele>870.40</ele>
        <time>2012-05-02T10:34:16Z</time>
      </trkpt>
      <trkpt lat="47.341511" lon="13.305023">
        <ele>870.80</ele>
        <time>2012-05-02T10:34:17Z</time>
      </trkpt>
      <trkpt lat="47.341537" lon="13.305034">
        <ele>871.40</ele>
        <time>2012-05-02T10:34:18Z</time>
      </trkpt>
      <trkpt lat="47.341583" lon="13.305057">
        <ele>871.40</ele>
        <time>2012-05-02T10:34:20Z</time>
      </trkpt>
      <trkpt lat="47.341743" lon="13.305145">
        <ele>871.80</ele>
        <time>2012-05-02T10:34:27Z</time>
      </trkpt>
      <trkpt lat="47.341763" lon="13.305149">
        <ele>872.20</ele>
        <time>2012-05-02T10:34:28Z</time>
      </trkpt>
      <trkpt lat="47.341789" lon="13.305157">
        <ele>872.60</ele>
        <time>2012-05-02T10:34:29Z</time>
      </trkpt>
      <trkpt lat="47.341812" lon="13.305170">
        <ele>873.00</ele>
        <time>2012-05-02T10:34:30Z</time>
      </trkpt>
      <trkpt lat="47.341835" lon="13.305187">
        <ele>873.40</ele>
        <time>2012-05-02T10:34:31Z</time>
      </trkpt>
      <trkpt lat="47.341881" lon="13.305216">
        <ele>873.40</ele>
        <time>2012-05-02T10:34:33Z</time>
      </trkpt>
      <trkpt lat="47.342083" lon="13.305334">
        <ele>873.40</ele>
        <time>2012-05-02T10:34:42Z</time>
      </trkpt>
      <trkpt lat="47.342129" lon="13.305367">
        <ele>873.80</ele>
        <time>2012-05-02T10:34:44Z</time>
      </trkpt>
      <trkpt lat="47.342152" lon="13.305381">
        <ele>874.20</ele>
        <time>2012-05-02T10:34:45Z</time>
      </trkpt>
      <trkpt lat="47.342175" lon="13.305394">
        <ele>874.60</ele>
        <time>2012-05-02T10:34:46Z</time>
      </trkpt>
      <trkpt lat="47.342197" lon="13.305409">
        <ele>875.00</ele>
        <time>2012-05-02T10:34:47Z</time>
      </trkpt>
      <trkpt lat="47.342216" lon="13.305425">
        <ele>875.60</ele>
        <time>2012-05-02T10:34:48Z</time>
      </trkpt>
      <trkpt lat="47.342255" lon="13.305462">
        <ele>875.60</ele>
        <time>2012-05-02T10:34:50Z</time>
      </trkpt>
      <trkpt lat="47.342438" lon="13.305620">
        <ele>876.00</ele>
        <time>2012-05-02T10:34:59Z</time>
      </trkpt>
      <trkpt lat="47.342461" lon="13.305635">
        <ele>876.40</ele>
        <time>2012-05-02T10:35:00Z</time>
      </trkpt>
      <trkpt lat="47.342480" lon="13.305652">
        <ele>876.80</ele>
        <time>2012-05-02T10:35:01Z</time>
      </trkpt>
      <trkpt lat="47.342499" lon="13.305670">
        <ele>877.20</ele>
        <time>2012-05-02T10:35:02Z</time>
      </trkpt>
      <trkpt lat="47.342518" lon="13.305690">
        <ele>877.60</ele>
        <time>2012-05-02T10:35:03Z</time>
      </trkpt>
      <trkpt lat="47.342621" lon="13.305769">
        <ele>877.60</ele>
        <time>2012-05-02T10:35:08Z</time>
      </trkpt>
      <trkpt lat="47.342655" lon="13.305809">
        <ele>878.00</ele>
        <time>2012-05-02T10:35:10Z</time>
      </trkpt>
      <trkpt lat="47.342674" lon="13.305829">
        <ele>878.40</ele>
        <time>2012-05-02T10:35:11Z</time>
      </trkpt>
      <trkpt lat="47.342693" lon="13.305848">
        <ele>878.80</ele>
        <time>2012-05-02T10:35:12Z</time>
      </trkpt>
      <trkpt lat="47.342712" lon="13.305870">
        <ele>879.20</ele>
        <time>2012-05-02T10:35:13Z</time>
      </trkpt>
      <trkpt lat="47.342731" lon="13.305889">
        <ele>879.60</ele>
        <time>2012-05-02T10:35:14Z</time>
      </trkpt>
      <trkpt lat="47.342751" lon="13.305909">
        <ele>879.60</ele>
        <time>2012-05-02T10:35:15Z</time>
      </trkpt>
      <trkpt lat="47.342850" lon="13.305996">
        <ele>880.00</ele>
        <time>2012-05-02T10:35:20Z</time>
      </trkpt>
      <trkpt lat="47.342865" lon="13.306014">
        <ele>880.80</ele>
        <time>2012-05-02T10:35:21Z</time>
      </trkpt>
      <trkpt lat="47.342884" lon="13.306031">
        <ele>881.20</ele>
        <time>2012-05-02T10:35:22Z</time>
      </trkpt>
      <trkpt lat="47.342899" lon="13.306051">
        <ele>881.80</ele>
        <time>2012-05-02T10:35:23Z</time>
      </trkpt>
      <trkpt lat="47.343071" lon="13.306224">
        <ele>882.20</ele>
        <time>2012-05-02T10:35:32Z</time>
      </trkpt>
      <trkpt lat="47.343090" lon="13.306238">
        <ele>882.60</ele>
        <time>2012-05-02T10:35:33Z</time>
      </trkpt>
      <trkpt lat="47.343113" lon="13.306251">
        <ele>883.00</ele>
        <time>2012-05-02T10:35:34Z</time>
      </trkpt>
      <trkpt lat="47.343128" lon="13.306271">
        <ele>883.40</ele>
        <time>2012-05-02T10:35:35Z</time>
      </trkpt>
      <trkpt lat="47.343147" lon="13.306290">
        <ele>883.80</ele>
        <time>2012-05-02T10:35:36Z</time>
      </trkpt>
      <trkpt lat="47.343212" lon="13.306370">
        <ele>883.80</ele>
        <time>2012-05-02T10:35:40Z</time>
      </trkpt>
      <trkpt lat="47.343288" lon="13.306443">
        <ele>884.20</ele>
        <time>2012-05-02T10:35:44Z</time>
      </trkpt>
      <trkpt lat="47.343307" lon="13.306467">
        <ele>884.60</ele>
        <time>2012-05-02T10:35:45Z</time>
      </trkpt>
      <trkpt lat="47.343327" lon="13.306488">
        <ele>885.40</ele>
        <time>2012-05-02T10:35:46Z</time>
      </trkpt>
      <trkpt lat="47.343342" lon="13.306511">
        <ele>885.80</ele>
        <time>2012-05-02T10:35:47Z</time>
      </trkpt>
      <trkpt lat="47.343384" lon="13.306551">
        <ele>885.80</ele>
        <time>2012-05-02T10:35:49Z</time>
      </trkpt>
      <trkpt lat="47.343540" lon="13.306681">
        <ele>885.80</ele>
        <time>2012-05-02T10:35:56Z</time>
      </trkpt>
      <trkpt lat="47.343559" lon="13.306704">
        <ele>886.20</ele>
        <time>2012-05-02T10:35:57Z</time>
      </trkpt>
      <trkpt lat="47.343578" lon="13.306723">
        <ele>886.60</ele>
        <time>2012-05-02T10:35:58Z</time>
      </trkpt>
      <trkpt lat="47.343597" lon="13.306742">
        <ele>887.00</ele>
        <time>2012-05-02T10:35:59Z</time>
      </trkpt>
      <trkpt lat="47.343616" lon="13.306766">
        <ele>887.40</ele>
        <time>2012-05-02T10:36:00Z</time>
      </trkpt>
      <trkpt lat="47.343639" lon="13.306784">
        <ele>887.80</ele>
        <time>2012-05-02T10:36:01Z</time>
      </trkpt>
      <trkpt lat="47.343708" lon="13.306844">
        <ele>887.80</ele>
        <time>2012-05-02T10:36:04Z</time>
      </trkpt>
      <trkpt lat="47.343880" lon="13.307002">
        <ele>888.20</ele>
        <time>2012-05-02T10:36:12Z</time>
      </trkpt>
      <trkpt lat="47.343903" lon="13.307014">
        <ele>888.60</ele>
        <time>2012-05-02T10:36:13Z</time>
      </trkpt>
      <trkpt lat="47.343922" lon="13.307034">
        <ele>889.00</ele>
        <time>2012-05-02T10:36:14Z</time>
      </trkpt>
      <trkpt lat="47.343941" lon="13.307052">
        <ele>889.60</ele>
        <time>2012-05-02T10:36:15Z</time>
      </trkpt>
      <trkpt lat="47.343964" lon="13.307069">
        <ele>890.00</ele>
        <time>2012-05-02T10:36:16Z</time>
      </trkpt>
      <trkpt lat="47.344059" lon="13.307137">
        <ele>890.00</ele>
        <time>2012-05-02T10:36:20Z</time>
      </trkpt>
      <trkpt lat="47.344261" lon="13.307247">
        <ele>890.00</ele>
        <time>2012-05-02T10:36:28Z</time>
      </trkpt>
      <trkpt lat="47.344429" lon="13.307315">
        <ele>890.40</ele>
        <time>2012-05-02T10:36:34Z</time>
      </trkpt>
      <trkpt lat="47.344456" lon="13.307323">
        <ele>890.80</ele>
        <time>2012-05-02T10:36:35Z</time>
      </trkpt>
      <trkpt lat="47.344482" lon="13.307332">
        <ele>891.60</ele>
        <time>2012-05-02T10:36:36Z</time>
      </trkpt>
      <trkpt lat="47.344513" lon="13.307338">
        <ele>892.00</ele>
        <time>2012-05-02T10:36:37Z</time>
      </trkpt>
      <trkpt lat="47.344704" lon="13.307366">
        <ele>892.00</ele>
        <time>2012-05-02T10:36:44Z</time>
      </trkpt>
      <trkpt lat="47.344894" lon="13.307363">
        <ele>892.00</ele>
        <time>2012-05-02T10:36:51Z</time>
      </trkpt>
      <trkpt lat="47.344978" lon="13.307348">
        <ele>892.40</ele>
        <time>2012-05-02T10:36:54Z</time>
      </trkpt>
      <trkpt lat="47.345009" lon="13.307343">
        <ele>892.80</ele>
        <time>2012-05-02T10:36:55Z</time>
      </trkpt>
      <trkpt lat="47.345036" lon="13.307337">
        <ele>893.20</ele>
        <time>2012-05-02T10:36:56Z</time>
      </trkpt>
      <trkpt lat="47.345062" lon="13.307331">
        <ele>893.60</ele>
        <time>2012-05-02T10:36:57Z</time>
      </trkpt>
      <trkpt lat="47.345085" lon="13.307327">
        <ele>894.00</ele>
        <time>2012-05-02T10:36:58Z</time>
      </trkpt>
      <trkpt lat="47.345112" lon="13.307320">
        <ele>894.00</ele>
        <time>2012-05-02T10:36:59Z</time>
      </trkpt>
      <trkpt lat="47.345364" lon="13.307268">
        <ele>894.40</ele>
        <time>2012-05-02T10:37:09Z</time>
      </trkpt>
      <trkpt lat="47.345387" lon="13.307258">
        <ele>894.80</ele>
        <time>2012-05-02T10:37:10Z</time>
      </trkpt>
      <trkpt lat="47.345409" lon="13.307254">
        <ele>895.40</ele>
        <time>2012-05-02T10:37:11Z</time>
      </trkpt>
      <trkpt lat="47.345432" lon="13.307249">
        <ele>895.80</ele>
        <time>2012-05-02T10:37:12Z</time>
      </trkpt>
      <trkpt lat="47.345455" lon="13.307245">
        <ele>896.20</ele>
        <time>2012-05-02T10:37:13Z</time>
      </trkpt>
      <trkpt lat="47.345524" lon="13.307227">
        <ele>896.20</ele>
        <time>2012-05-02T10:37:16Z</time>
      </trkpt>
      <trkpt lat="47.345623" lon="13.307207">
        <ele>896.60</ele>
        <time>2012-05-02T10:37:20Z</time>
      </trkpt>
      <trkpt lat="47.345642" lon="13.307205">
        <ele>897.00</ele>
        <time>2012-05-02T10:37:21Z</time>
      </trkpt>
      <trkpt lat="47.345665" lon="13.307202">
        <ele>897.40</ele>
        <time>2012-05-02T10:37:22Z</time>
      </trkpt>
      <trkpt lat="47.345692" lon="13.307199">
        <ele>897.80</ele>
        <time>2012-05-02T10:37:23Z</time>
      </trkpt>
      <trkpt lat="47.345715" lon="13.307196">
        <ele>898.20</ele>
        <time>2012-05-02T10:37:24Z</time>
      </trkpt>
      <trkpt lat="47.345833" lon="13.307177">
        <ele>898.20</ele>
        <time>2012-05-02T10:37:29Z</time>
      </trkpt>
      <trkpt lat="47.345852" lon="13.307177">
        <ele>898.60</ele>
        <time>2012-05-02T10:37:30Z</time>
      </trkpt>
      <trkpt lat="47.345879" lon="13.307168">
        <ele>899.00</ele>
        <time>2012-05-02T10:37:31Z</time>
      </trkpt>
      <trkpt lat="47.345901" lon="13.307162">
        <ele>899.40</ele>
        <time>2012-05-02T10:37:32Z</time>
      </trkpt>
      <trkpt lat="47.345924" lon="13.307156">
        <ele>899.80</ele>
        <time>2012-05-02T10:37:33Z</time>
      </trkpt>
      <trkpt lat="47.345947" lon="13.307153">
        <ele>900.20</ele>
        <time>2012-05-02T10:37:34Z</time>
      </trkpt>
      <trkpt lat="47.345997" lon="13.307153">
        <ele>900.20</ele>
        <time>2012-05-02T10:37:36Z</time>
      </trkpt>
      <trkpt lat="47.346092" lon="13.307167">
        <ele>900.60</ele>
        <time>2012-05-02T10:37:40Z</time>
      </trkpt>
      <trkpt lat="47.346119" lon="13.307173">
        <ele>901.00</ele>
        <time>2012-05-02T10:37:41Z</time>
      </trkpt>
      <trkpt lat="47.346142" lon="13.307180">
        <ele>901.40</ele>
        <time>2012-05-02T10:37:42Z</time>
      </trkpt>
      <trkpt lat="47.346169" lon="13.307187">
        <ele>901.80</ele>
        <time>2012-05-02T10:37:43Z</time>
      </trkpt>
      <trkpt lat="47.346191" lon="13.307196">
        <ele>902.20</ele>
        <time>2012-05-02T10:37:44Z</time>
      </trkpt>
      <trkpt lat="47.346313" lon="13.307244">
        <ele>902.60</ele>
        <time>2012-05-02T10:37:49Z</time>
      </trkpt>
      <trkpt lat="47.346344" lon="13.307261">
        <ele>903.40</ele>
        <time>2012-05-02T10:37:50Z</time>
      </trkpt>
      <trkpt lat="47.346371" lon="13.307271">
        <ele>903.80</ele>
        <time>2012-05-02T10:37:51Z</time>
      </trkpt>
      <trkpt lat="47.346394" lon="13.307280">
        <ele>904.40</ele>
        <time>2012-05-02T10:37:52Z</time>
      </trkpt>
      <trkpt lat="47.346512" lon="13.307372">
        <ele>904.40</ele>
        <time>2012-05-02T10:37:57Z</time>
      </trkpt>
      <trkpt lat="47.346573" lon="13.307432">
        <ele>904.80</ele>
        <time>2012-05-02T10:38:00Z</time>
      </trkpt>
      <trkpt lat="47.346596" lon="13.307451">
        <ele>905.20</ele>
        <time>2012-05-02T10:38:01Z</time>
      </trkpt>
      <trkpt lat="47.346619" lon="13.307471">
        <ele>905.60</ele>
        <time>2012-05-02T10:38:02Z</time>
      </trkpt>
      <trkpt lat="47.346642" lon="13.307489">
        <ele>906.00</ele>
        <time>2012-05-02T10:38:03Z</time>
      </trkpt>
      <trkpt lat="47.346664" lon="13.307507">
        <ele>906.40</ele>
        <time>2012-05-02T10:38:04Z</time>
      </trkpt>
      <trkpt lat="47.346821" lon="13.307720">
        <ele>906.40</ele>
        <time>2012-05-02T10:38:12Z</time>
      </trkpt>
      <trkpt lat="47.346928" lon="13.307850">
        <ele>906.80</ele>
        <time>2012-05-02T10:38:17Z</time>
      </trkpt>
      <trkpt lat="47.346947" lon="13.307875">
        <ele>907.20</ele>
        <time>2012-05-02T10:38:18Z</time>
      </trkpt>
      <trkpt lat="47.346966" lon="13.307901">
        <ele>907.60</ele>
        <time>2012-05-02T10:38:19Z</time>
      </trkpt>
      <trkpt lat="47.346985" lon="13.307927">
        <ele>908.00</ele>
        <time>2012-05-02T10:38:20Z</time>
      </trkpt>
      <trkpt lat="47.347004" lon="13.307952">
        <ele>908.40</ele>
        <time>2012-05-02T10:38:21Z</time>
      </trkpt>
      <trkpt lat="47.347115" lon="13.308100">
        <ele>908.40</ele>
        <time>2012-05-02T10:38:27Z</time>
      </trkpt>
      <trkpt lat="47.347137" lon="13.308119">
        <ele>908.40</ele>
        <time>2012-05-02T10:38:31Z</time>
      </trkpt>
      <trkpt lat="47.347157" lon="13.308143">
        <ele>908.40</ele>
        <time>2012-05-02T10:40:13Z</time>
      </trkpt>
      <trkpt lat="47.347206" lon="13.308210">
        <ele>908.40</ele>
        <time>2012-05-02T10:40:16Z</time>
      </trkpt>
      <trkpt lat="47.347305" lon="13.308383">
        <ele>908.40</ele>
        <time>2012-05-02T10:40:22Z</time>
      </trkpt>
      <trkpt lat="47.347469" lon="13.308657">
        <ele>908.40</ele>
        <time>2012-05-02T10:40:29Z</time>
      </trkpt>
      <trkpt lat="47.347527" lon="13.308726">
        <ele>908.80</ele>
        <time>2012-05-02T10:40:31Z</time>
      </trkpt>
      <trkpt lat="47.347549" lon="13.308767">
        <ele>909.20</ele>
        <time>2012-05-02T10:40:32Z</time>
      </trkpt>
      <trkpt lat="47.347572" lon="13.308817">
        <ele>909.60</ele>
        <time>2012-05-02T10:40:33Z</time>
      </trkpt>
      <trkpt lat="47.347603" lon="13.308863">
        <ele>910.00</ele>
        <time>2012-05-02T10:40:34Z</time>
      </trkpt>
      <trkpt lat="47.347633" lon="13.308904">
        <ele>910.40</ele>
        <time>2012-05-02T10:40:35Z</time>
      </trkpt>
      <trkpt lat="47.347847" lon="13.309277">
        <ele>910.40</ele>
        <time>2012-05-02T10:40:43Z</time>
      </trkpt>
      <trkpt lat="47.348103" lon="13.309685">
        <ele>910.40</ele>
        <time>2012-05-02T10:40:52Z</time>
      </trkpt>
      <trkpt lat="47.348389" lon="13.310081">
        <ele>910.40</ele>
        <time>2012-05-02T10:41:01Z</time>
      </trkpt>
      <trkpt lat="47.348618" lon="13.310356">
        <ele>910.40</ele>
        <time>2012-05-02T10:41:08Z</time>
      </trkpt>
      <trkpt lat="47.348892" lon="13.310677">
        <ele>910.40</ele>
        <time>2012-05-02T10:41:17Z</time>
      </trkpt>
      <trkpt lat="47.348957" lon="13.310749">
        <ele>911.00</ele>
        <time>2012-05-02T10:41:19Z</time>
      </trkpt>
      <trkpt lat="47.348988" lon="13.310784">
        <ele>911.40</ele>
        <time>2012-05-02T10:41:20Z</time>
      </trkpt>
      <trkpt lat="47.349018" lon="13.310822">
        <ele>911.80</ele>
        <time>2012-05-02T10:41:21Z</time>
      </trkpt>
      <trkpt lat="47.349049" lon="13.310860">
        <ele>912.20</ele>
        <time>2012-05-02T10:41:22Z</time>
      </trkpt>
      <trkpt lat="47.349079" lon="13.310897">
        <ele>912.60</ele>
        <time>2012-05-02T10:41:23Z</time>
      </trkpt>
      <trkpt lat="47.349171" lon="13.311004">
        <ele>912.60</ele>
        <time>2012-05-02T10:41:26Z</time>
      </trkpt>
      <trkpt lat="47.349392" lon="13.311290">
        <ele>913.00</ele>
        <time>2012-05-02T10:41:34Z</time>
      </trkpt>
      <trkpt lat="47.349415" lon="13.311325">
        <ele>913.40</ele>
        <time>2012-05-02T10:41:35Z</time>
      </trkpt>
      <trkpt lat="47.349442" lon="13.311358">
        <ele>913.80</ele>
        <time>2012-05-02T10:41:36Z</time>
      </trkpt>
      <trkpt lat="47.349468" lon="13.311401">
        <ele>914.20</ele>
        <time>2012-05-02T10:41:37Z</time>
      </trkpt>
      <trkpt lat="47.349491" lon="13.311440">
        <ele>914.60</ele>
        <time>2012-05-02T10:41:38Z</time>
      </trkpt>
      <trkpt lat="47.349586" lon="13.311594">
        <ele>914.60</ele>
        <time>2012-05-02T10:41:42Z</time>
      </trkpt>
      <trkpt lat="47.349735" lon="13.311858">
        <ele>915.00</ele>
        <time>2012-05-02T10:41:49Z</time>
      </trkpt>
      <trkpt lat="47.349751" lon="13.311895">
        <ele>915.40</ele>
        <time>2012-05-02T10:41:50Z</time>
      </trkpt>
      <trkpt lat="47.349770" lon="13.311931">
        <ele>915.80</ele>
        <time>2012-05-02T10:41:51Z</time>
      </trkpt>
      <trkpt lat="47.349789" lon="13.311973">
        <ele>916.40</ele>
        <time>2012-05-02T10:41:52Z</time>
      </trkpt>
      <trkpt lat="47.349808" lon="13.312008">
        <ele>916.80</ele>
        <time>2012-05-02T10:41:53Z</time>
      </trkpt>
      <trkpt lat="47.349895" lon="13.312189">
        <ele>916.80</ele>
        <time>2012-05-02T10:41:58Z</time>
      </trkpt>
      <trkpt lat="47.349922" lon="13.312266">
        <ele>917.20</ele>
        <time>2012-05-02T10:42:00Z</time>
      </trkpt>
      <trkpt lat="47.349941" lon="13.312301">
        <ele>917.60</ele>
        <time>2012-05-02T10:42:01Z</time>
      </trkpt>
      <trkpt lat="47.349957" lon="13.312334">
        <ele>918.00</ele>
        <time>2012-05-02T10:42:02Z</time>
      </trkpt>
      <trkpt lat="47.349976" lon="13.312365">
        <ele>918.40</ele>
        <time>2012-05-02T10:42:03Z</time>
      </trkpt>
      <trkpt lat="47.349991" lon="13.312402">
        <ele>918.80</ele>
        <time>2012-05-02T10:42:04Z</time>
      </trkpt>
      <trkpt lat="47.350010" lon="13.312436">
        <ele>918.80</ele>
        <time>2012-05-02T10:42:05Z</time>
      </trkpt>
      <trkpt lat="47.350147" lon="13.312683">
        <ele>919.20</ele>
        <time>2012-05-02T10:42:13Z</time>
      </trkpt>
      <trkpt lat="47.350163" lon="13.312716">
        <ele>919.60</ele>
        <time>2012-05-02T10:42:14Z</time>
      </trkpt>
      <trkpt lat="47.350182" lon="13.312745">
        <ele>920.00</ele>
        <time>2012-05-02T10:42:15Z</time>
      </trkpt>
      <trkpt lat="47.350197" lon="13.312775">
        <ele>920.60</ele>
        <time>2012-05-02T10:42:16Z</time>
      </trkpt>
      <trkpt lat="47.350212" lon="13.312804">
        <ele>921.00</ele>
        <time>2012-05-02T10:42:17Z</time>
      </trkpt>
      <trkpt lat="47.350307" lon="13.312951">
        <ele>921.00</ele>
        <time>2012-05-02T10:42:22Z</time>
      </trkpt>
      <trkpt lat="47.350372" lon="13.313042">
        <ele>921.40</ele>
        <time>2012-05-02T10:42:25Z</time>
      </trkpt>
      <trkpt lat="47.350391" lon="13.313068">
        <ele>921.80</ele>
        <time>2012-05-02T10:42:26Z</time>
      </trkpt>
      <trkpt lat="47.350410" lon="13.313095">
        <ele>922.20</ele>
        <time>2012-05-02T10:42:27Z</time>
      </trkpt>
      <trkpt lat="47.350426" lon="13.313122">
        <ele>922.60</ele>
        <time>2012-05-02T10:42:28Z</time>
      </trkpt>
      <trkpt lat="47.350445" lon="13.313151">
        <ele>923.00</ele>
        <time>2012-05-02T10:42:29Z</time>
      </trkpt>
      <trkpt lat="47.350639" lon="13.313387">
        <ele>923.00</ele>
        <time>2012-05-02T10:42:38Z</time>
      </trkpt>
      <trkpt lat="47.350658" lon="13.313413">
        <ele>923.40</ele>
        <time>2012-05-02T10:42:39Z</time>
      </trkpt>
      <trkpt lat="47.350677" lon="13.313438">
        <ele>923.80</ele>
        <time>2012-05-02T10:42:40Z</time>
      </trkpt>
      <trkpt lat="47.350700" lon="13.313460">
        <ele>924.20</ele>
        <time>2012-05-02T10:42:41Z</time>
      </trkpt>
      <trkpt lat="47.350723" lon="13.313487">
        <ele>924.60</ele>
        <time>2012-05-02T10:42:42Z</time>
      </trkpt>
      <trkpt lat="47.350750" lon="13.313516">
        <ele>925.00</ele>
        <time>2012-05-02T10:42:43Z</time>
      </trkpt>
      <trkpt lat="47.350822" lon="13.313593">
        <ele>925.00</ele>
        <time>2012-05-02T10:42:46Z</time>
      </trkpt>
      <trkpt lat="47.350983" lon="13.313759">
        <ele>925.40</ele>
        <time>2012-05-02T10:42:53Z</time>
      </trkpt>
      <trkpt lat="47.351002" lon="13.313783">
        <ele>925.80</ele>
        <time>2012-05-02T10:42:54Z</time>
      </trkpt>
      <trkpt lat="47.351021" lon="13.313807">
        <ele>926.20</ele>
        <time>2012-05-02T10:42:55Z</time>
      </trkpt>
      <trkpt lat="47.351044" lon="13.313830">
        <ele>926.60</ele>
        <time>2012-05-02T10:42:56Z</time>
      </trkpt>
      <trkpt lat="47.351070" lon="13.313854">
        <ele>927.00</ele>
        <time>2012-05-02T10:42:57Z</time>
      </trkpt>
      <trkpt lat="47.351200" lon="13.314052">
        <ele>927.00</ele>
        <time>2012-05-02T10:43:04Z</time>
      </trkpt>
      <trkpt lat="47.351273" lon="13.314162">
        <ele>927.40</ele>
        <time>2012-05-02T10:43:08Z</time>
      </trkpt>
      <trkpt lat="47.351292" lon="13.314194">
        <ele>927.80</ele>
        <time>2012-05-02T10:43:09Z</time>
      </trkpt>
      <trkpt lat="47.351311" lon="13.314226">
        <ele>928.40</ele>
        <time>2012-05-02T10:43:10Z</time>
      </trkpt>
      <trkpt lat="47.351337" lon="13.314256">
        <ele>929.20</ele>
        <time>2012-05-02T10:43:11Z</time>
      </trkpt>
      <trkpt lat="47.351379" lon="13.314321">
        <ele>929.20</ele>
        <time>2012-05-02T10:43:13Z</time>
      </trkpt>
      <trkpt lat="47.351517" lon="13.314588">
        <ele>929.20</ele>
        <time>2012-05-02T10:43:21Z</time>
      </trkpt>
      <trkpt lat="47.351532" lon="13.314623">
        <ele>929.60</ele>
        <time>2012-05-02T10:43:22Z</time>
      </trkpt>
      <trkpt lat="47.351547" lon="13.314658">
        <ele>930.00</ele>
        <time>2012-05-02T10:43:23Z</time>
      </trkpt>
      <trkpt lat="47.351559" lon="13.314692">
        <ele>930.40</ele>
        <time>2012-05-02T10:43:24Z</time>
      </trkpt>
      <trkpt lat="47.351574" lon="13.314726">
        <ele>930.80</ele>
        <time>2012-05-02T10:43:25Z</time>
      </trkpt>
      <trkpt lat="47.351593" lon="13.314763">
        <ele>931.20</ele>
        <time>2012-05-02T10:43:26Z</time>
      </trkpt>
      <trkpt lat="47.351650" lon="13.314919">
        <ele>931.20</ele>
        <time>2012-05-02T10:43:30Z</time>
      </trkpt>
      <trkpt lat="47.351746" lon="13.315194">
        <ele>931.60</ele>
        <time>2012-05-02T10:43:37Z</time>
      </trkpt>
      <trkpt lat="47.351761" lon="13.315237">
        <ele>932.00</ele>
        <time>2012-05-02T10:43:38Z</time>
      </trkpt>
      <trkpt lat="47.351772" lon="13.315284">
        <ele>932.40</ele>
        <time>2012-05-02T10:43:39Z</time>
      </trkpt>
      <trkpt lat="47.351788" lon="13.315329">
        <ele>932.80</ele>
        <time>2012-05-02T10:43:40Z</time>
      </trkpt>
      <trkpt lat="47.351799" lon="13.315377">
        <ele>933.20</ele>
        <time>2012-05-02T10:43:41Z</time>
      </trkpt>
      <trkpt lat="47.351883" lon="13.315754">
        <ele>933.20</ele>
        <time>2012-05-02T10:43:49Z</time>
      </trkpt>
      <trkpt lat="47.351944" lon="13.316164">
        <ele>933.20</ele>
        <time>2012-05-02T10:43:57Z</time>
      </trkpt>
      <trkpt lat="47.351952" lon="13.316276">
        <ele>933.60</ele>
        <time>2012-05-02T10:43:59Z</time>
      </trkpt>
      <trkpt lat="47.351959" lon="13.316329">
        <ele>934.00</ele>
        <time>2012-05-02T10:44:00Z</time>
      </trkpt>
      <trkpt lat="47.351963" lon="13.316386">
        <ele>934.80</ele>
        <time>2012-05-02T10:44:01Z</time>
      </trkpt>
      <trkpt lat="47.351967" lon="13.316443">
        <ele>935.20</ele>
        <time>2012-05-02T10:44:02Z</time>
      </trkpt>
      <trkpt lat="47.351978" lon="13.316676">
        <ele>935.20</ele>
        <time>2012-05-02T10:44:06Z</time>
      </trkpt>
      <trkpt lat="47.352005" lon="13.317162">
        <ele>935.20</ele>
        <time>2012-05-02T10:44:14Z</time>
      </trkpt>
      <trkpt lat="47.352039" lon="13.317372">
        <ele>935.20</ele>
        <time>2012-05-02T10:44:17Z</time>
      </trkpt>
      <trkpt lat="47.352074" lon="13.317594">
        <ele>935.20</ele>
        <time>2012-05-02T10:44:20Z</time>
      </trkpt>
      <trkpt lat="47.352123" lon="13.317817">
        <ele>935.20</ele>
        <time>2012-05-02T10:44:23Z</time>
      </trkpt>
      <trkpt lat="47.352192" lon="13.318063">
        <ele>935.20</ele>
        <time>2012-05-02T10:44:26Z</time>
      </trkpt>
      <trkpt lat="47.352444" lon="13.318640">
        <ele>935.20</ele>
        <time>2012-05-02T10:44:33Z</time>
      </trkpt>
      <trkpt lat="47.352768" lon="13.319270">
        <ele>935.20</ele>
        <time>2012-05-02T10:44:40Z</time>
      </trkpt>
      <trkpt lat="47.352848" lon="13.319471">
        <ele>934.80</ele>
        <time>2012-05-02T10:44:42Z</time>
      </trkpt>
      <trkpt lat="47.352886" lon="13.319573">
        <ele>934.40</ele>
        <time>2012-05-02T10:44:43Z</time>
      </trkpt>
      <trkpt lat="47.352924" lon="13.319675">
        <ele>934.00</ele>
        <time>2012-05-02T10:44:44Z</time>
      </trkpt>
      <trkpt lat="47.352962" lon="13.319779">
        <ele>933.40</ele>
        <time>2012-05-02T10:44:45Z</time>
      </trkpt>
      <trkpt lat="47.352997" lon="13.319880">
        <ele>933.00</ele>
        <time>2012-05-02T10:44:46Z</time>
      </trkpt>
      <trkpt lat="47.353035" lon="13.319990">
        <ele>933.00</ele>
        <time>2012-05-02T10:44:47Z</time>
      </trkpt>
      <trkpt lat="47.353130" lon="13.320297">
        <ele>933.00</ele>
        <time>2012-05-02T10:44:50Z</time>
      </trkpt>
      <trkpt lat="47.353256" lon="13.320712">
        <ele>933.00</ele>
        <time>2012-05-02T10:44:54Z</time>
      </trkpt>
      <trkpt lat="47.353474" lon="13.321400">
        <ele>933.00</ele>
        <time>2012-05-02T10:45:01Z</time>
      </trkpt>
      <trkpt lat="47.353676" lon="13.322035">
        <ele>933.00</ele>
        <time>2012-05-02T10:45:08Z</time>
      </trkpt>
      <trkpt lat="47.353840" lon="13.322619">
        <ele>933.00</ele>
        <time>2012-05-02T10:45:15Z</time>
      </trkpt>
      <trkpt lat="47.353992" lon="13.323137">
        <ele>933.00</ele>
        <time>2012-05-02T10:45:22Z</time>
      </trkpt>
      <trkpt lat="47.354034" lon="13.323268">
        <ele>933.40</ele>
        <time>2012-05-02T10:45:24Z</time>
      </trkpt>
      <trkpt lat="47.354057" lon="13.323334">
        <ele>933.80</ele>
        <time>2012-05-02T10:45:25Z</time>
      </trkpt>
      <trkpt lat="47.354073" lon="13.323394">
        <ele>934.40</ele>
        <time>2012-05-02T10:45:26Z</time>
      </trkpt>
      <trkpt lat="47.354092" lon="13.323451">
        <ele>934.80</ele>
        <time>2012-05-02T10:45:27Z</time>
      </trkpt>
      <trkpt lat="47.354111" lon="13.323506">
        <ele>935.20</ele>
        <time>2012-05-02T10:45:28Z</time>
      </trkpt>
      <trkpt lat="47.354149" lon="13.323623">
        <ele>935.20</ele>
        <time>2012-05-02T10:45:30Z</time>
      </trkpt>
      <trkpt lat="47.354187" lon="13.323735">
        <ele>935.60</ele>
        <time>2012-05-02T10:45:32Z</time>
      </trkpt>
      <trkpt lat="47.354206" lon="13.323792">
        <ele>936.00</ele>
        <time>2012-05-02T10:45:33Z</time>
      </trkpt>
      <trkpt lat="47.354225" lon="13.323843">
        <ele>936.40</ele>
        <time>2012-05-02T10:45:34Z</time>
      </trkpt>
      <trkpt lat="47.354240" lon="13.323895">
        <ele>936.80</ele>
        <time>2012-05-02T10:45:35Z</time>
      </trkpt>
      <trkpt lat="47.354252" lon="13.323942">
        <ele>937.20</ele>
        <time>2012-05-02T10:45:36Z</time>
      </trkpt>
      <trkpt lat="47.354271" lon="13.323991">
        <ele>937.20</ele>
        <time>2012-05-02T10:45:37Z</time>
      </trkpt>
      <trkpt lat="47.354340" lon="13.324183">
        <ele>937.60</ele>
        <time>2012-05-02T10:45:41Z</time>
      </trkpt>
      <trkpt lat="47.354359" lon="13.324231">
        <ele>938.00</ele>
        <time>2012-05-02T10:45:42Z</time>
      </trkpt>
      <trkpt lat="47.354370" lon="13.324276">
        <ele>938.60</ele>
        <time>2012-05-02T10:45:43Z</time>
      </trkpt>
      <trkpt lat="47.354385" lon="13.324323">
        <ele>939.00</ele>
        <time>2012-05-02T10:45:44Z</time>
      </trkpt>
      <trkpt lat="47.354401" lon="13.324368">
        <ele>939.40</ele>
        <time>2012-05-02T10:45:45Z</time>
      </trkpt>
      <trkpt lat="47.354473" lon="13.324582">
        <ele>939.80</ele>
        <time>2012-05-02T10:45:50Z</time>
      </trkpt>
      <trkpt lat="47.354488" lon="13.324631">
        <ele>940.40</ele>
        <time>2012-05-02T10:45:51Z</time>
      </trkpt>
      <trkpt lat="47.354504" lon="13.324683">
        <ele>940.80</ele>
        <time>2012-05-02T10:45:52Z</time>
      </trkpt>
      <trkpt lat="47.354519" lon="13.324731">
        <ele>941.20</ele>
        <time>2012-05-02T10:45:53Z</time>
      </trkpt>
      <trkpt lat="47.354530" lon="13.324776">
        <ele>941.60</ele>
        <time>2012-05-02T10:45:54Z</time>
      </trkpt>
      <trkpt lat="47.354576" lon="13.324992">
        <ele>941.60</ele>
        <time>2012-05-02T10:45:58Z</time>
      </trkpt>
      <trkpt lat="47.354664" lon="13.325446">
        <ele>941.60</ele>
        <time>2012-05-02T10:46:05Z</time>
      </trkpt>
      <trkpt lat="47.354786" lon="13.326025">
        <ele>941.60</ele>
        <time>2012-05-02T10:46:12Z</time>
      </trkpt>
      <trkpt lat="47.354881" lon="13.326516">
        <ele>941.60</ele>
        <time>2012-05-02T10:46:17Z</time>
      </trkpt>
      <trkpt lat="47.354900" lon="13.326625">
        <ele>941.60</ele>
        <time>2012-05-02T10:46:18Z</time>
      </trkpt>
      <trkpt lat="47.354961" lon="13.326941">
        <ele>941.20</ele>
        <time>2012-05-02T10:46:21Z</time>
      </trkpt>
      <trkpt lat="47.354984" lon="13.327050">
        <ele>940.80</ele>
        <time>2012-05-02T10:46:22Z</time>
      </trkpt>
      <trkpt lat="47.355007" lon="13.327165">
        <ele>940.40</ele>
        <time>2012-05-02T10:46:23Z</time>
      </trkpt>
      <trkpt lat="47.355030" lon="13.327281">
        <ele>940.00</ele>
        <time>2012-05-02T10:46:24Z</time>
      </trkpt>
      <trkpt lat="47.355053" lon="13.327398">
        <ele>939.60</ele>
        <time>2012-05-02T10:46:25Z</time>
      </trkpt>
      <trkpt lat="47.355240" lon="13.328254">
        <ele>939.20</ele>
        <time>2012-05-02T10:46:32Z</time>
      </trkpt>
      <trkpt lat="47.355267" lon="13.328375">
        <ele>938.80</ele>
        <time>2012-05-02T10:46:33Z</time>
      </trkpt>
      <trkpt lat="47.355297" lon="13.328508">
        <ele>938.40</ele>
        <time>2012-05-02T10:46:34Z</time>
      </trkpt>
      <trkpt lat="47.355324" lon="13.328634">
        <ele>938.00</ele>
        <time>2012-05-02T10:46:35Z</time>
      </trkpt>
      <trkpt lat="47.355354" lon="13.328761">
        <ele>937.60</ele>
        <time>2012-05-02T10:46:36Z</time>
      </trkpt>
      <trkpt lat="47.355419" lon="13.329022">
        <ele>937.00</ele>
        <time>2012-05-02T10:46:38Z</time>
      </trkpt>
      <trkpt lat="47.355453" lon="13.329155">
        <ele>936.60</ele>
        <time>2012-05-02T10:46:39Z</time>
      </trkpt>
      <trkpt lat="47.355488" lon="13.329285">
        <ele>936.00</ele>
        <time>2012-05-02T10:46:40Z</time>
      </trkpt>
      <trkpt lat="47.355526" lon="13.329423">
        <ele>935.60</ele>
        <time>2012-05-02T10:46:41Z</time>
      </trkpt>
      <trkpt lat="47.355556" lon="13.329562">
        <ele>935.00</ele>
        <time>2012-05-02T10:46:42Z</time>
      </trkpt>
      <trkpt lat="47.355724" lon="13.330263">
        <ele>934.60</ele>
        <time>2012-05-02T10:46:47Z</time>
      </trkpt>
      <trkpt lat="47.355759" lon="13.330412">
        <ele>934.20</ele>
        <time>2012-05-02T10:46:48Z</time>
      </trkpt>
      <trkpt lat="47.355797" lon="13.330564">
        <ele>933.80</ele>
        <time>2012-05-02T10:46:49Z</time>
      </trkpt>
      <trkpt lat="47.355831" lon="13.330710">
        <ele>933.40</ele>
        <time>2012-05-02T10:46:50Z</time>
      </trkpt>
      <trkpt lat="47.355865" lon="13.330861">
        <ele>932.80</ele>
        <time>2012-05-02T10:46:51Z</time>
      </trkpt>
      <trkpt lat="47.355976" lon="13.331311">
        <ele>932.40</ele>
        <time>2012-05-02T10:46:54Z</time>
      </trkpt>
      <trkpt lat="47.356010" lon="13.331469">
        <ele>932.00</ele>
        <time>2012-05-02T10:46:55Z</time>
      </trkpt>
      <trkpt lat="47.356049" lon="13.331629">
        <ele>931.60</ele>
        <time>2012-05-02T10:46:56Z</time>
      </trkpt>
      <trkpt lat="47.356079" lon="13.331784">
        <ele>931.00</ele>
        <time>2012-05-02T10:46:57Z</time>
      </trkpt>
      <trkpt lat="47.356110" lon="13.331944">
        <ele>930.60</ele>
        <time>2012-05-02T10:46:58Z</time>
      </trkpt>
      <trkpt lat="47.356167" lon="13.332272">
        <ele>930.20</ele>
        <time>2012-05-02T10:47:00Z</time>
      </trkpt>
      <trkpt lat="47.356197" lon="13.332441">
        <ele>929.60</ele>
        <time>2012-05-02T10:47:01Z</time>
      </trkpt>
      <trkpt lat="47.356228" lon="13.332610">
        <ele>929.20</ele>
        <time>2012-05-02T10:47:02Z</time>
      </trkpt>
      <trkpt lat="47.356251" lon="13.332785">
        <ele>928.60</ele>
        <time>2012-05-02T10:47:03Z</time>
      </trkpt>
      <trkpt lat="47.356274" lon="13.332961">
        <ele>928.20</ele>
        <time>2012-05-02T10:47:04Z</time>
      </trkpt>
      <trkpt lat="47.356350" lon="13.333691">
        <ele>927.80</ele>
        <time>2012-05-02T10:47:08Z</time>
      </trkpt>
      <trkpt lat="47.356365" lon="13.333874">
        <ele>927.40</ele>
        <time>2012-05-02T10:47:09Z</time>
      </trkpt>
      <trkpt lat="47.356380" lon="13.334055">
        <ele>927.00</ele>
        <time>2012-05-02T10:47:10Z</time>
      </trkpt>
      <trkpt lat="47.356396" lon="13.334234">
        <ele>926.40</ele>
        <time>2012-05-02T10:47:11Z</time>
      </trkpt>
      <trkpt lat="47.356411" lon="13.334424">
        <ele>926.00</ele>
        <time>2012-05-02T10:47:12Z</time>
      </trkpt>
      <trkpt lat="47.356464" lon="13.335120">
        <ele>925.60</ele>
        <time>2012-05-02T10:47:16Z</time>
      </trkpt>
      <trkpt lat="47.356480" lon="13.335292">
        <ele>925.00</ele>
        <time>2012-05-02T10:47:17Z</time>
      </trkpt>
      <trkpt lat="47.356491" lon="13.335464">
        <ele>924.00</ele>
        <time>2012-05-02T10:47:18Z</time>
      </trkpt>
      <trkpt lat="47.356506" lon="13.335633">
        <ele>923.60</ele>
        <time>2012-05-02T10:47:19Z</time>
      </trkpt>
      <trkpt lat="47.356586" lon="13.336468">
        <ele>923.60</ele>
        <time>2012-05-02T10:47:24Z</time>
      </trkpt>
      <trkpt lat="47.356598" lon="13.336630">
        <ele>923.00</ele>
        <time>2012-05-02T10:47:25Z</time>
      </trkpt>
      <trkpt lat="47.356613" lon="13.336792">
        <ele>922.40</ele>
        <time>2012-05-02T10:47:26Z</time>
      </trkpt>
      <trkpt lat="47.356628" lon="13.336966">
        <ele>922.00</ele>
        <time>2012-05-02T10:47:27Z</time>
      </trkpt>
      <trkpt lat="47.356644" lon="13.337124">
        <ele>921.40</ele>
        <time>2012-05-02T10:47:28Z</time>
      </trkpt>
      <trkpt lat="47.356659" lon="13.337285">
        <ele>921.00</ele>
        <time>2012-05-02T10:47:29Z</time>
      </trkpt>
      <trkpt lat="47.356785" lon="13.338049">
        <ele>921.00</ele>
        <time>2012-05-02T10:47:34Z</time>
      </trkpt>
      <trkpt lat="47.356976" lon="13.338707">
        <ele>921.00</ele>
        <time>2012-05-02T10:47:39Z</time>
      </trkpt>
      <trkpt lat="47.357239" lon="13.339356">
        <ele>921.00</ele>
        <time>2012-05-02T10:47:45Z</time>
      </trkpt>
      <trkpt lat="47.357502" lon="13.339888">
        <ele>921.00</ele>
        <time>2012-05-02T10:47:51Z</time>
      </trkpt>
      <trkpt lat="47.357769" lon="13.340398">
        <ele>921.00</ele>
        <time>2012-05-02T10:47:58Z</time>
      </trkpt>
      <trkpt lat="47.358017" lon="13.340867">
        <ele>921.40</ele>
        <time>2012-05-02T10:48:05Z</time>
      </trkpt>
      <trkpt lat="47.358051" lon="13.340939">
        <ele>921.80</ele>
        <time>2012-05-02T10:48:06Z</time>
      </trkpt>
      <trkpt lat="47.358082" lon="13.341008">
        <ele>922.20</ele>
        <time>2012-05-02T10:48:07Z</time>
      </trkpt>
      <trkpt lat="47.358112" lon="13.341073">
        <ele>923.00</ele>
        <time>2012-05-02T10:48:08Z</time>
      </trkpt>
      <trkpt lat="47.358269" lon="13.341430">
        <ele>923.00</ele>
        <time>2012-05-02T10:48:13Z</time>
      </trkpt>
      <trkpt lat="47.358486" lon="13.341921">
        <ele>923.00</ele>
        <time>2012-05-02T10:48:20Z</time>
      </trkpt>
      <trkpt lat="47.358746" lon="13.342590">
        <ele>923.00</ele>
        <time>2012-05-02T10:48:28Z</time>
      </trkpt>
      <trkpt lat="47.359016" lon="13.343368">
        <ele>923.00</ele>
        <time>2012-05-02T10:48:36Z</time>
      </trkpt>
      <trkpt lat="47.359051" lon="13.343472">
        <ele>923.00</ele>
        <time>2012-05-02T10:48:37Z</time>
      </trkpt>
      <trkpt lat="47.359264" lon="13.344177">
        <ele>923.00</ele>
        <time>2012-05-02T10:48:43Z</time>
      </trkpt>
      <trkpt lat="47.359364" lon="13.344556">
        <ele>922.60</ele>
        <time>2012-05-02T10:48:46Z</time>
      </trkpt>
      <trkpt lat="47.359394" lon="13.344683">
        <ele>922.20</ele>
        <time>2012-05-02T10:48:47Z</time>
      </trkpt>
      <trkpt lat="47.359425" lon="13.344810">
        <ele>921.60</ele>
        <time>2012-05-02T10:48:48Z</time>
      </trkpt>
      <trkpt lat="47.359459" lon="13.344943">
        <ele>921.20</ele>
        <time>2012-05-02T10:48:49Z</time>
      </trkpt>
      <trkpt lat="47.359489" lon="13.345073">
        <ele>920.80</ele>
        <time>2012-05-02T10:48:50Z</time>
      </trkpt>
      <trkpt lat="47.359550" lon="13.345342">
        <ele>920.20</ele>
        <time>2012-05-02T10:48:52Z</time>
      </trkpt>
      <trkpt lat="47.359577" lon="13.345480">
        <ele>919.80</ele>
        <time>2012-05-02T10:48:53Z</time>
      </trkpt>
      <trkpt lat="47.359604" lon="13.345627">
        <ele>919.20</ele>
        <time>2012-05-02T10:48:54Z</time>
      </trkpt>
      <trkpt lat="47.359634" lon="13.345774">
        <ele>918.60</ele>
        <time>2012-05-02T10:48:55Z</time>
      </trkpt>
      <trkpt lat="47.359661" lon="13.345926">
        <ele>918.00</ele>
        <time>2012-05-02T10:48:56Z</time>
      </trkpt>
      <trkpt lat="47.359684" lon="13.346077">
        <ele>916.80</ele>
        <time>2012-05-02T10:48:57Z</time>
      </trkpt>
      <trkpt lat="47.359711" lon="13.346231">
        <ele>916.20</ele>
        <time>2012-05-02T10:48:58Z</time>
      </trkpt>
      <trkpt lat="47.359737" lon="13.346388">
        <ele>916.20</ele>
        <time>2012-05-02T10:48:59Z</time>
      </trkpt>
      <trkpt lat="47.359787" lon="13.346704">
        <ele>915.80</ele>
        <time>2012-05-02T10:49:01Z</time>
      </trkpt>
      <trkpt lat="47.359810" lon="13.346857">
        <ele>915.40</ele>
        <time>2012-05-02T10:49:02Z</time>
      </trkpt>
      <trkpt lat="47.359829" lon="13.347023">
        <ele>915.00</ele>
        <time>2012-05-02T10:49:03Z</time>
      </trkpt>
      <trkpt lat="47.359848" lon="13.347183">
        <ele>914.60</ele>
        <time>2012-05-02T10:49:04Z</time>
      </trkpt>
      <trkpt lat="47.359863" lon="13.347341">
        <ele>914.20</ele>
        <time>2012-05-02T10:49:05Z</time>
      </trkpt>
      <trkpt lat="47.359890" lon="13.347663">
        <ele>914.20</ele>
        <time>2012-05-02T10:49:07Z</time>
      </trkpt>
      <trkpt lat="47.359901" lon="13.347816">
        <ele>913.80</ele>
        <time>2012-05-02T10:49:08Z</time>
      </trkpt>
      <trkpt lat="47.359913" lon="13.347974">
        <ele>913.40</ele>
        <time>2012-05-02T10:49:09Z</time>
      </trkpt>
      <trkpt lat="47.359913" lon="13.348131">
        <ele>913.00</ele>
        <time>2012-05-02T10:49:10Z</time>
      </trkpt>
      <trkpt lat="47.359913" lon="13.348287">
        <ele>912.60</ele>
        <time>2012-05-02T10:49:11Z</time>
      </trkpt>
      <trkpt lat="47.359917" lon="13.348434">
        <ele>912.00</ele>
        <time>2012-05-02T10:49:12Z</time>
      </trkpt>
      <trkpt lat="47.359917" lon="13.348575">
        <ele>912.00</ele>
        <time>2012-05-02T10:49:13Z</time>
      </trkpt>
      <trkpt lat="47.359909" lon="13.349053">
        <ele>912.00</ele>
        <time>2012-05-02T10:49:17Z</time>
      </trkpt>
      <trkpt lat="47.359909" lon="13.349098">
        <ele>911.60</ele>
        <time>2012-05-02T10:49:18Z</time>
      </trkpt>
      <trkpt lat="47.359909" lon="13.349150">
        <ele>911.20</ele>
        <time>2012-05-02T10:49:19Z</time>
      </trkpt>
      <trkpt lat="47.359905" lon="13.349199">
        <ele>910.80</ele>
        <time>2012-05-02T10:49:20Z</time>
      </trkpt>
      <trkpt lat="47.359905" lon="13.349252">
        <ele>910.20</ele>
        <time>2012-05-02T10:49:21Z</time>
      </trkpt>
      <trkpt lat="47.359905" lon="13.349307">
        <ele>909.80</ele>
        <time>2012-05-02T10:49:22Z</time>
      </trkpt>
      <trkpt lat="47.359905" lon="13.349495">
        <ele>909.80</ele>
        <time>2012-05-02T10:49:25Z</time>
      </trkpt>
      <trkpt lat="47.359890" lon="13.349644">
        <ele>909.80</ele>
        <time>2012-05-02T10:49:27Z</time>
      </trkpt>
      <trkpt lat="47.359867" lon="13.349884">
        <ele>909.80</ele>
        <time>2012-05-02T10:49:30Z</time>
      </trkpt>
      <trkpt lat="47.359829" lon="13.350187">
        <ele>909.80</ele>
        <time>2012-05-02T10:49:35Z</time>
      </trkpt>
      <trkpt lat="47.359798" lon="13.350368">
        <ele>909.80</ele>
        <time>2012-05-02T10:49:40Z</time>
      </trkpt>
      <trkpt lat="47.359798" lon="13.350434">
        <ele>909.80</ele>
        <time>2012-05-02T10:49:42Z</time>
      </trkpt>
      <trkpt lat="47.359814" lon="13.350523">
        <ele>909.80</ele>
        <time>2012-05-02T10:49:45Z</time>
      </trkpt>
      <trkpt lat="47.359814" lon="13.350669">
        <ele>909.80</ele>
        <time>2012-05-02T10:49:48Z</time>
      </trkpt>
      <trkpt lat="47.359806" lon="13.350729">
        <ele>909.80</ele>
        <time>2012-05-02T10:49:49Z</time>
      </trkpt>
      <trkpt lat="47.359764" lon="13.350987">
        <ele>909.80</ele>
        <time>2012-05-02T10:49:54Z</time>
      </trkpt>
      <trkpt lat="47.359760" lon="13.351043">
        <ele>910.20</ele>
        <time>2012-05-02T10:49:55Z</time>
      </trkpt>
      <trkpt lat="47.359753" lon="13.351103">
        <ele>910.60</ele>
        <time>2012-05-02T10:49:56Z</time>
      </trkpt>
      <trkpt lat="47.359745" lon="13.351158">
        <ele>911.00</ele>
        <time>2012-05-02T10:49:57Z</time>
      </trkpt>
      <trkpt lat="47.359734" lon="13.351209">
        <ele>911.40</ele>
        <time>2012-05-02T10:49:58Z</time>
      </trkpt>
      <trkpt lat="47.359726" lon="13.351255">
        <ele>911.80</ele>
        <time>2012-05-02T10:49:59Z</time>
      </trkpt>
      <trkpt lat="47.359722" lon="13.351300">
        <ele>911.80</ele>
        <time>2012-05-02T10:50:00Z</time>
      </trkpt>
      <trkpt lat="47.359676" lon="13.351485">
        <ele>911.80</ele>
        <time>2012-05-02T10:50:05Z</time>
      </trkpt>
      <trkpt lat="47.359646" lon="13.351571">
        <ele>911.80</ele>
        <time>2012-05-02T10:50:08Z</time>
      </trkpt>
      <trkpt lat="47.359638" lon="13.351579">
        <ele>911.80</ele>
        <time>2012-05-02T10:50:09Z</time>
      </trkpt>
      <trkpt lat="47.359634" lon="13.351578">
        <ele>911.80</ele>
        <time>2012-05-02T10:50:10Z</time>
      </trkpt>
      <trkpt lat="47.359642" lon="13.351508">
        <ele>911.80</ele>
        <time>2012-05-02T10:50:21Z</time>
      </trkpt>
      <trkpt lat="47.359661" lon="13.351501">
        <ele>911.80</ele>
        <time>2012-05-02T10:50:23Z</time>
      </trkpt>
      <trkpt lat="47.359661" lon="13.351522">
        <ele>911.80</ele>
        <time>2012-05-02T10:50:25Z</time>
      </trkpt>
      <trkpt lat="47.359684" lon="13.351500">
        <ele>911.80</ele>
        <time>2012-05-02T10:50:30Z</time>
      </trkpt>
      <trkpt lat="47.359695" lon="13.351479">
        <ele>911.80</ele>
        <time>2012-05-02T10:50:31Z</time>
      </trkpt>
      <trkpt lat="47.359711" lon="13.351289">
        <ele>911.80</ele>
        <time>2012-05-02T10:50:36Z</time>
      </trkpt>
      <trkpt lat="47.359699" lon="13.351236">
        <ele>911.80</ele>
        <time>2012-05-02T10:50:38Z</time>
      </trkpt>
      <trkpt lat="47.359688" lon="13.351217">
        <ele>911.80</ele>
        <time>2012-05-02T10:50:40Z</time>
      </trkpt>
      <trkpt lat="47.359646" lon="13.351116">
        <ele>911.80</ele>
        <time>2012-05-02T10:50:57Z</time>
      </trkpt>
      <trkpt lat="47.359600" lon="13.351206">
        <ele>911.80</ele>
        <time>2012-05-02T10:51:02Z</time>
      </trkpt>
      <trkpt lat="47.359585" lon="13.351268">
        <ele>911.80</ele>
        <time>2012-05-02T10:51:05Z</time>
      </trkpt>
      <trkpt lat="47.359577" lon="13.351289">
        <ele>911.80</ele>
        <time>2012-05-02T10:51:07Z</time>
      </trkpt>
      <trkpt lat="47.359573" lon="13.351309">
        <ele>911.80</ele>
        <time>2012-05-02T10:51:14Z</time>
      </trkpt>
      <trkpt lat="47.359535" lon="13.351494">
        <ele>911.80</ele>
        <time>2012-05-02T10:51:19Z</time>
      </trkpt>
      <trkpt lat="47.359474" lon="13.351811">
        <ele>911.80</ele>
        <time>2012-05-02T10:51:25Z</time>
      </trkpt>
      <trkpt lat="47.359467" lon="13.351881">
        <ele>911.80</ele>
        <time>2012-05-02T10:51:26Z</time>
      </trkpt>
      <trkpt lat="47.359421" lon="13.352160">
        <ele>911.80</ele>
        <time>2012-05-02T10:51:30Z</time>
      </trkpt>
      <trkpt lat="47.359371" lon="13.352667">
        <ele>911.80</ele>
        <time>2012-05-02T10:51:36Z</time>
      </trkpt>
      <trkpt lat="47.359352" lon="13.353284">
        <ele>911.80</ele>
        <time>2012-05-02T10:51:43Z</time>
      </trkpt>
      <trkpt lat="47.359364" lon="13.353492">
        <ele>911.80</ele>
        <time>2012-05-02T10:51:47Z</time>
      </trkpt>
      <trkpt lat="47.359394" lon="13.353718">
        <ele>911.40</ele>
        <time>2012-05-02T10:51:51Z</time>
      </trkpt>
      <trkpt lat="47.359402" lon="13.353762">
        <ele>911.00</ele>
        <time>2012-05-02T10:51:52Z</time>
      </trkpt>
      <trkpt lat="47.359409" lon="13.353805">
        <ele>910.60</ele>
        <time>2012-05-02T10:51:53Z</time>
      </trkpt>
      <trkpt lat="47.359421" lon="13.353851">
        <ele>910.20</ele>
        <time>2012-05-02T10:51:54Z</time>
      </trkpt>
      <trkpt lat="47.359432" lon="13.353906">
        <ele>909.80</ele>
        <time>2012-05-02T10:51:55Z</time>
      </trkpt>
      <trkpt lat="47.359455" lon="13.354101">
        <ele>909.80</ele>
        <time>2012-05-02T10:51:58Z</time>
      </trkpt>
      <trkpt lat="47.359463" lon="13.354174">
        <ele>909.40</ele>
        <time>2012-05-02T10:51:59Z</time>
      </trkpt>
      <trkpt lat="47.359470" lon="13.354246">
        <ele>909.00</ele>
        <time>2012-05-02T10:52:00Z</time>
      </trkpt>
      <trkpt lat="47.359474" lon="13.354315">
        <ele>908.60</ele>
        <time>2012-05-02T10:52:01Z</time>
      </trkpt>
      <trkpt lat="47.359482" lon="13.354380">
        <ele>908.20</ele>
        <time>2012-05-02T10:52:02Z</time>
      </trkpt>
      <trkpt lat="47.359489" lon="13.354440">
        <ele>907.60</ele>
        <time>2012-05-02T10:52:03Z</time>
      </trkpt>
      <trkpt lat="47.359512" lon="13.354564">
        <ele>907.60</ele>
        <time>2012-05-02T10:52:05Z</time>
      </trkpt>
      <trkpt lat="47.359566" lon="13.354767">
        <ele>907.20</ele>
        <time>2012-05-02T10:52:08Z</time>
      </trkpt>
      <trkpt lat="47.359585" lon="13.354827">
        <ele>906.80</ele>
        <time>2012-05-02T10:52:09Z</time>
      </trkpt>
      <trkpt lat="47.359600" lon="13.354883">
        <ele>906.40</ele>
        <time>2012-05-02T10:52:10Z</time>
      </trkpt>
      <trkpt lat="47.359619" lon="13.354938">
        <ele>906.00</ele>
        <time>2012-05-02T10:52:11Z</time>
      </trkpt>
      <trkpt lat="47.359634" lon="13.354991">
        <ele>905.60</ele>
        <time>2012-05-02T10:52:12Z</time>
      </trkpt>
      <trkpt lat="47.359680" lon="13.355150">
        <ele>905.20</ele>
        <time>2012-05-02T10:52:15Z</time>
      </trkpt>
      <trkpt lat="47.359692" lon="13.355205">
        <ele>904.60</ele>
        <time>2012-05-02T10:52:16Z</time>
      </trkpt>
      <trkpt lat="47.359703" lon="13.355261">
        <ele>904.20</ele>
        <time>2012-05-02T10:52:17Z</time>
      </trkpt>
      <trkpt lat="47.359718" lon="13.355312">
        <ele>903.80</ele>
        <time>2012-05-02T10:52:18Z</time>
      </trkpt>
      <trkpt lat="47.359734" lon="13.355358">
        <ele>903.40</ele>
        <time>2012-05-02T10:52:19Z</time>
      </trkpt>
      <trkpt lat="47.359776" lon="13.355476">
        <ele>903.40</ele>
        <time>2012-05-02T10:52:22Z</time>
      </trkpt>
      <trkpt lat="47.359802" lon="13.355572">
        <ele>903.00</ele>
        <time>2012-05-02T10:52:24Z</time>
      </trkpt>
      <trkpt lat="47.359814" lon="13.355616">
        <ele>902.60</ele>
        <time>2012-05-02T10:52:25Z</time>
      </trkpt>
      <trkpt lat="47.359825" lon="13.355657">
        <ele>902.20</ele>
        <time>2012-05-02T10:52:26Z</time>
      </trkpt>
      <trkpt lat="47.359840" lon="13.355695">
        <ele>901.80</ele>
        <time>2012-05-02T10:52:27Z</time>
      </trkpt>
      <trkpt lat="47.359856" lon="13.355732">
        <ele>901.40</ele>
        <time>2012-05-02T10:52:28Z</time>
      </trkpt>
      <trkpt lat="47.359962" lon="13.355998">
        <ele>901.40</ele>
        <time>2012-05-02T10:52:35Z</time>
      </trkpt>
      <trkpt lat="47.359982" lon="13.356049">
        <ele>901.40</ele>
        <time>2012-05-02T10:52:36Z</time>
      </trkpt>
      <trkpt lat="47.360043" lon="13.356240">
        <ele>901.40</ele>
        <time>2012-05-02T10:52:39Z</time>
      </trkpt>
      <trkpt lat="47.360146" lon="13.356648">
        <ele>901.40</ele>
        <time>2012-05-02T10:52:44Z</time>
      </trkpt>
      <trkpt lat="47.360184" lon="13.356830">
        <ele>900.80</ele>
        <time>2012-05-02T10:52:46Z</time>
      </trkpt>
      <trkpt lat="47.360199" lon="13.356925">
        <ele>900.40</ele>
        <time>2012-05-02T10:52:47Z</time>
      </trkpt>
      <trkpt lat="47.360207" lon="13.357024">
        <ele>899.80</ele>
        <time>2012-05-02T10:52:48Z</time>
      </trkpt>
      <trkpt lat="47.360214" lon="13.357126">
        <ele>899.40</ele>
        <time>2012-05-02T10:52:49Z</time>
      </trkpt>
      <trkpt lat="47.360218" lon="13.357229">
        <ele>898.80</ele>
        <time>2012-05-02T10:52:50Z</time>
      </trkpt>
      <trkpt lat="47.360260" lon="13.357791">
        <ele>898.80</ele>
        <time>2012-05-02T10:52:55Z</time>
      </trkpt>
      <trkpt lat="47.360264" lon="13.357905">
        <ele>898.40</ele>
        <time>2012-05-02T10:52:56Z</time>
      </trkpt>
      <trkpt lat="47.360264" lon="13.358015">
        <ele>898.00</ele>
        <time>2012-05-02T10:52:57Z</time>
      </trkpt>
      <trkpt lat="47.360264" lon="13.358122">
        <ele>897.60</ele>
        <time>2012-05-02T10:52:58Z</time>
      </trkpt>
      <trkpt lat="47.360264" lon="13.358232">
        <ele>897.20</ele>
        <time>2012-05-02T10:52:59Z</time>
      </trkpt>
      <trkpt lat="47.360260" lon="13.358337">
        <ele>896.80</ele>
        <time>2012-05-02T10:53:00Z</time>
      </trkpt>
      <trkpt lat="47.360256" lon="13.358445">
        <ele>896.80</ele>
        <time>2012-05-02T10:53:01Z</time>
      </trkpt>
      <trkpt lat="47.360222" lon="13.358767">
        <ele>896.80</ele>
        <time>2012-05-02T10:53:04Z</time>
      </trkpt>
      <trkpt lat="47.360172" lon="13.359091">
        <ele>896.80</ele>
        <time>2012-05-02T10:53:07Z</time>
      </trkpt>
      <trkpt lat="47.359982" lon="13.359946">
        <ele>896.80</ele>
        <time>2012-05-02T10:53:15Z</time>
      </trkpt>
      <trkpt lat="47.359859" lon="13.360588">
        <ele>896.80</ele>
        <time>2012-05-02T10:53:21Z</time>
      </trkpt>
      <trkpt lat="47.359795" lon="13.361397">
        <ele>896.80</ele>
        <time>2012-05-02T10:53:28Z</time>
      </trkpt>
      <trkpt lat="47.359814" lon="13.362221">
        <ele>896.80</ele>
        <time>2012-05-02T10:53:35Z</time>
      </trkpt>
      <trkpt lat="47.359818" lon="13.362338">
        <ele>896.80</ele>
        <time>2012-05-02T10:53:36Z</time>
      </trkpt>
      <trkpt lat="47.359802" lon="13.363154">
        <ele>896.80</ele>
        <time>2012-05-02T10:53:43Z</time>
      </trkpt>
      <trkpt lat="47.359715" lon="13.363982">
        <ele>896.80</ele>
        <time>2012-05-02T10:53:50Z</time>
      </trkpt>
      <trkpt lat="47.359703" lon="13.364100">
        <ele>896.40</ele>
        <time>2012-05-02T10:53:51Z</time>
      </trkpt>
      <trkpt lat="47.359692" lon="13.364223">
        <ele>896.00</ele>
        <time>2012-05-02T10:53:52Z</time>
      </trkpt>
      <trkpt lat="47.359680" lon="13.364341">
        <ele>895.60</ele>
        <time>2012-05-02T10:53:53Z</time>
      </trkpt>
      <trkpt lat="47.359669" lon="13.364458">
        <ele>894.80</ele>
        <time>2012-05-02T10:53:54Z</time>
      </trkpt>
      <trkpt lat="47.359608" lon="13.365176">
        <ele>894.80</ele>
        <time>2012-05-02T10:54:00Z</time>
      </trkpt>
      <trkpt lat="47.359528" lon="13.366014">
        <ele>894.80</ele>
        <time>2012-05-02T10:54:07Z</time>
      </trkpt>
      <trkpt lat="47.359489" lon="13.366485">
        <ele>894.80</ele>
        <time>2012-05-02T10:54:11Z</time>
      </trkpt>
      <trkpt lat="47.359470" lon="13.366728">
        <ele>894.80</ele>
        <time>2012-05-02T10:54:13Z</time>
      </trkpt>
      <trkpt lat="47.359459" lon="13.367121">
        <ele>894.20</ele>
        <time>2012-05-02T10:54:16Z</time>
      </trkpt>
      <trkpt lat="47.359459" lon="13.367253">
        <ele>893.80</ele>
        <time>2012-05-02T10:54:17Z</time>
      </trkpt>
      <trkpt lat="47.359463" lon="13.367387">
        <ele>893.00</ele>
        <time>2012-05-02T10:54:18Z</time>
      </trkpt>
      <trkpt lat="47.359467" lon="13.367519">
        <ele>892.60</ele>
        <time>2012-05-02T10:54:19Z</time>
      </trkpt>
      <trkpt lat="47.359535" lon="13.368064">
        <ele>892.60</ele>
        <time>2012-05-02T10:54:23Z</time>
      </trkpt>
      <trkpt lat="47.359623" lon="13.368487">
        <ele>892.20</ele>
        <time>2012-05-02T10:54:26Z</time>
      </trkpt>
      <trkpt lat="47.359657" lon="13.368628">
        <ele>891.80</ele>
        <time>2012-05-02T10:54:27Z</time>
      </trkpt>
      <trkpt lat="47.359699" lon="13.368770">
        <ele>891.40</ele>
        <time>2012-05-02T10:54:28Z</time>
      </trkpt>
      <trkpt lat="47.359737" lon="13.368914">
        <ele>891.00</ele>
        <time>2012-05-02T10:54:29Z</time>
      </trkpt>
      <trkpt lat="47.359779" lon="13.369060">
        <ele>890.40</ele>
        <time>2012-05-02T10:54:30Z</time>
      </trkpt>
      <trkpt lat="47.359901" lon="13.369520">
        <ele>890.00</ele>
        <time>2012-05-02T10:54:33Z</time>
      </trkpt>
      <trkpt lat="47.359943" lon="13.369675">
        <ele>889.60</ele>
        <time>2012-05-02T10:54:34Z</time>
      </trkpt>
      <trkpt lat="47.359985" lon="13.369828">
        <ele>889.00</ele>
        <time>2012-05-02T10:54:35Z</time>
      </trkpt>
      <trkpt lat="47.360027" lon="13.369987">
        <ele>888.60</ele>
        <time>2012-05-02T10:54:36Z</time>
      </trkpt>
      <trkpt lat="47.360069" lon="13.370151">
        <ele>888.20</ele>
        <time>2012-05-02T10:54:37Z</time>
      </trkpt>
      <trkpt lat="47.360199" lon="13.370625">
        <ele>887.80</ele>
        <time>2012-05-02T10:54:40Z</time>
      </trkpt>
      <trkpt lat="47.360241" lon="13.370784">
        <ele>887.40</ele>
        <time>2012-05-02T10:54:41Z</time>
      </trkpt>
      <trkpt lat="47.360287" lon="13.370944">
        <ele>887.00</ele>
        <time>2012-05-02T10:54:42Z</time>
      </trkpt>
      <trkpt lat="47.360332" lon="13.371104">
        <ele>886.00</ele>
        <time>2012-05-02T10:54:43Z</time>
      </trkpt>
      <trkpt lat="47.360374" lon="13.371267">
        <ele>885.40</ele>
        <time>2012-05-02T10:54:44Z</time>
      </trkpt>
      <trkpt lat="47.360413" lon="13.371430">
        <ele>885.00</ele>
        <time>2012-05-02T10:54:45Z</time>
      </trkpt>
      <trkpt lat="47.360451" lon="13.371603">
        <ele>884.40</ele>
        <time>2012-05-02T10:54:46Z</time>
      </trkpt>
      <trkpt lat="47.360485" lon="13.371765">
        <ele>883.80</ele>
        <time>2012-05-02T10:54:47Z</time>
      </trkpt>
      <trkpt lat="47.360573" lon="13.372269">
        <ele>883.40</ele>
        <time>2012-05-02T10:54:50Z</time>
      </trkpt>
      <trkpt lat="47.360596" lon="13.372437">
        <ele>883.00</ele>
        <time>2012-05-02T10:54:51Z</time>
      </trkpt>
      <trkpt lat="47.360615" lon="13.372608">
        <ele>882.40</ele>
        <time>2012-05-02T10:54:52Z</time>
      </trkpt>
      <trkpt lat="47.360638" lon="13.372774">
        <ele>882.00</ele>
        <time>2012-05-02T10:54:53Z</time>
      </trkpt>
      <trkpt lat="47.360657" lon="13.372937">
        <ele>881.60</ele>
        <time>2012-05-02T10:54:54Z</time>
      </trkpt>
      <trkpt lat="47.360710" lon="13.373421">
        <ele>881.20</ele>
        <time>2012-05-02T10:54:57Z</time>
      </trkpt>
      <trkpt lat="47.360725" lon="13.373582">
        <ele>880.80</ele>
        <time>2012-05-02T10:54:58Z</time>
      </trkpt>
      <trkpt lat="47.360744" lon="13.373737">
        <ele>880.20</ele>
        <time>2012-05-02T10:54:59Z</time>
      </trkpt>
      <trkpt lat="47.360764" lon="13.373892">
        <ele>879.80</ele>
        <time>2012-05-02T10:55:00Z</time>
      </trkpt>
      <trkpt lat="47.360783" lon="13.374055">
        <ele>879.40</ele>
        <time>2012-05-02T10:55:01Z</time>
      </trkpt>
      <trkpt lat="47.360859" lon="13.374640">
        <ele>879.40</ele>
        <time>2012-05-02T10:55:05Z</time>
      </trkpt>
      <trkpt lat="47.360882" lon="13.374781">
        <ele>879.00</ele>
        <time>2012-05-02T10:55:06Z</time>
      </trkpt>
      <trkpt lat="47.360905" lon="13.374918">
        <ele>878.60</ele>
        <time>2012-05-02T10:55:07Z</time>
      </trkpt>
      <trkpt lat="47.360931" lon="13.375057">
        <ele>877.60</ele>
        <time>2012-05-02T10:55:08Z</time>
      </trkpt>
      <trkpt lat="47.360958" lon="13.375200">
        <ele>877.20</ele>
        <time>2012-05-02T10:55:09Z</time>
      </trkpt>
      <trkpt lat="47.361080" lon="13.375733">
        <ele>877.20</ele>
        <time>2012-05-02T10:55:13Z</time>
      </trkpt>
      <trkpt lat="47.361214" lon="13.376245">
        <ele>876.80</ele>
        <time>2012-05-02T10:55:17Z</time>
      </trkpt>
      <trkpt lat="47.361248" lon="13.376370">
        <ele>876.40</ele>
        <time>2012-05-02T10:55:18Z</time>
      </trkpt>
      <trkpt lat="47.361286" lon="13.376495">
        <ele>875.80</ele>
        <time>2012-05-02T10:55:19Z</time>
      </trkpt>
      <trkpt lat="47.361324" lon="13.376615">
        <ele>875.40</ele>
        <time>2012-05-02T10:55:20Z</time>
      </trkpt>
      <trkpt lat="47.361359" lon="13.376735">
        <ele>875.00</ele>
        <time>2012-05-02T10:55:21Z</time>
      </trkpt>
      <trkpt lat="47.361397" lon="13.376856">
        <ele>875.00</ele>
        <time>2012-05-02T10:55:22Z</time>
      </trkpt>
      <trkpt lat="47.361656" lon="13.377679">
        <ele>875.00</ele>
        <time>2012-05-02T10:55:29Z</time>
      </trkpt>
      <trkpt lat="47.361862" lon="13.378503">
        <ele>875.00</ele>
        <time>2012-05-02T10:55:36Z</time>
      </trkpt>
      <trkpt lat="47.361977" lon="13.379237">
        <ele>874.60</ele>
        <time>2012-05-02T10:55:42Z</time>
      </trkpt>
      <trkpt lat="47.361988" lon="13.379361">
        <ele>874.20</ele>
        <time>2012-05-02T10:55:43Z</time>
      </trkpt>
      <trkpt lat="47.362000" lon="13.379491">
        <ele>873.80</ele>
        <time>2012-05-02T10:55:44Z</time>
      </trkpt>
      <trkpt lat="47.362015" lon="13.379618">
        <ele>873.20</ele>
        <time>2012-05-02T10:55:45Z</time>
      </trkpt>
      <trkpt lat="47.362030" lon="13.379751">
        <ele>872.80</ele>
        <time>2012-05-02T10:55:46Z</time>
      </trkpt>
      <trkpt lat="47.362053" lon="13.380129">
        <ele>872.80</ele>
        <time>2012-05-02T10:55:49Z</time>
      </trkpt>
      <trkpt lat="47.362076" lon="13.381021">
        <ele>872.80</ele>
        <time>2012-05-02T10:55:56Z</time>
      </trkpt>
      <trkpt lat="47.362076" lon="13.381141">
        <ele>872.40</ele>
        <time>2012-05-02T10:55:57Z</time>
      </trkpt>
      <trkpt lat="47.362076" lon="13.381257">
        <ele>872.00</ele>
        <time>2012-05-02T10:55:58Z</time>
      </trkpt>
      <trkpt lat="47.362072" lon="13.381371">
        <ele>871.60</ele>
        <time>2012-05-02T10:55:59Z</time>
      </trkpt>
      <trkpt lat="47.362068" lon="13.381482">
        <ele>871.00</ele>
        <time>2012-05-02T10:56:00Z</time>
      </trkpt>
      <trkpt lat="47.362064" lon="13.381593">
        <ele>870.60</ele>
        <time>2012-05-02T10:56:01Z</time>
      </trkpt>
      <trkpt lat="47.362041" lon="13.381784">
        <ele>870.60</ele>
        <time>2012-05-02T10:56:03Z</time>
      </trkpt>
      <trkpt lat="47.361969" lon="13.381992">
        <ele>870.60</ele>
        <time>2012-05-02T10:56:06Z</time>
      </trkpt>
      <trkpt lat="47.361938" lon="13.382089">
        <ele>870.20</ele>
        <time>2012-05-02T10:56:08Z</time>
      </trkpt>
      <trkpt lat="47.361935" lon="13.382144">
        <ele>869.80</ele>
        <time>2012-05-02T10:56:09Z</time>
      </trkpt>
      <trkpt lat="47.361938" lon="13.382210">
        <ele>869.40</ele>
        <time>2012-05-02T10:56:10Z</time>
      </trkpt>
      <trkpt lat="47.361954" lon="13.382271">
        <ele>869.00</ele>
        <time>2012-05-02T10:56:11Z</time>
      </trkpt>
      <trkpt lat="47.361977" lon="13.382323">
        <ele>868.60</ele>
        <time>2012-05-02T10:56:12Z</time>
      </trkpt>
      <trkpt lat="47.362045" lon="13.382398">
        <ele>868.60</ele>
        <time>2012-05-02T10:56:14Z</time>
      </trkpt>
      <trkpt lat="47.362194" lon="13.382350">
        <ele>868.60</ele>
        <time>2012-05-02T10:56:17Z</time>
      </trkpt>
      <trkpt lat="47.362396" lon="13.382196">
        <ele>868.60</ele>
        <time>2012-05-02T10:56:21Z</time>
      </trkpt>
      <trkpt lat="47.362583" lon="13.382214">
        <ele>868.60</ele>
        <time>2012-05-02T10:56:24Z</time>
      </trkpt>
      <trkpt lat="47.362793" lon="13.382379">
        <ele>868.60</ele>
        <time>2012-05-02T10:56:27Z</time>
      </trkpt>
      <trkpt lat="47.362865" lon="13.382459">
        <ele>868.60</ele>
        <time>2012-05-02T10:56:28Z</time>
      </trkpt>
      <trkpt lat="47.363014" lon="13.382618">
        <ele>868.00</ele>
        <time>2012-05-02T10:56:30Z</time>
      </trkpt>
      <trkpt lat="47.363091" lon="13.382695">
        <ele>867.60</ele>
        <time>2012-05-02T10:56:31Z</time>
      </trkpt>
      <trkpt lat="47.363171" lon="13.382774">
        <ele>867.20</ele>
        <time>2012-05-02T10:56:32Z</time>
      </trkpt>
      <trkpt lat="47.363243" lon="13.382848">
        <ele>866.60</ele>
        <time>2012-05-02T10:56:33Z</time>
      </trkpt>
      <trkpt lat="47.363319" lon="13.382918">
        <ele>866.20</ele>
        <time>2012-05-02T10:56:34Z</time>
      </trkpt>
      <trkpt lat="47.363796" lon="13.383306">
        <ele>866.20</ele>
        <time>2012-05-02T10:56:40Z</time>
      </trkpt>
      <trkpt lat="47.364201" lon="13.383598">
        <ele>865.80</ele>
        <time>2012-05-02T10:56:45Z</time>
      </trkpt>
      <trkpt lat="47.364281" lon="13.383659">
        <ele>865.00</ele>
        <time>2012-05-02T10:56:46Z</time>
      </trkpt>
      <trkpt lat="47.364368" lon="13.383722">
        <ele>864.60</ele>
        <time>2012-05-02T10:56:47Z</time>
      </trkpt>
      <trkpt lat="47.364449" lon="13.383778">
        <ele>864.20</ele>
        <time>2012-05-02T10:56:48Z</time>
      </trkpt>
      <trkpt lat="47.364925" lon="13.384133">
        <ele>864.20</ele>
        <time>2012-05-02T10:56:54Z</time>
      </trkpt>
      <trkpt lat="47.365410" lon="13.384476">
        <ele>864.20</ele>
        <time>2012-05-02T10:57:00Z</time>
      </trkpt>
      <trkpt lat="47.365494" lon="13.384533">
        <ele>864.20</ele>
        <time>2012-05-02T10:57:01Z</time>
      </trkpt>
      <trkpt lat="47.365990" lon="13.384869">
        <ele>864.20</ele>
        <time>2012-05-02T10:57:07Z</time>
      </trkpt>
      <trkpt lat="47.366154" lon="13.384976">
        <ele>864.20</ele>
        <time>2012-05-02T10:57:09Z</time>
      </trkpt>
      <trkpt lat="47.366646" lon="13.385296">
        <ele>864.20</ele>
        <time>2012-05-02T10:57:15Z</time>
      </trkpt>
      <trkpt lat="47.366810" lon="13.385395">
        <ele>864.20</ele>
        <time>2012-05-02T10:57:17Z</time>
      </trkpt>
      <trkpt lat="47.367374" lon="13.385752">
        <ele>864.20</ele>
        <time>2012-05-02T10:57:24Z</time>
      </trkpt>
      <trkpt lat="47.367924" lon="13.386078">
        <ele>864.20</ele>
        <time>2012-05-02T10:57:31Z</time>
      </trkpt>
      <trkpt lat="47.368004" lon="13.386127">
        <ele>864.20</ele>
        <time>2012-05-02T10:57:32Z</time>
      </trkpt>
      <trkpt lat="47.368088" lon="13.386182">
        <ele>863.80</ele>
        <time>2012-05-02T10:57:33Z</time>
      </trkpt>
      <trkpt lat="47.368168" lon="13.386232">
        <ele>863.20</ele>
        <time>2012-05-02T10:57:34Z</time>
      </trkpt>
      <trkpt lat="47.368248" lon="13.386282">
        <ele>862.80</ele>
        <time>2012-05-02T10:57:35Z</time>
      </trkpt>
      <trkpt lat="47.368328" lon="13.386331">
        <ele>861.80</ele>
        <time>2012-05-02T10:57:36Z</time>
      </trkpt>
      <trkpt lat="47.368488" lon="13.386436">
        <ele>861.80</ele>
        <time>2012-05-02T10:57:38Z</time>
      </trkpt>
      <trkpt lat="47.368652" lon="13.386537">
        <ele>861.80</ele>
        <time>2012-05-02T10:57:40Z</time>
      </trkpt>
      <trkpt lat="47.369225" lon="13.386842">
        <ele>861.80</ele>
        <time>2012-05-02T10:57:47Z</time>
      </trkpt>
      <trkpt lat="47.369816" lon="13.387090">
        <ele>861.80</ele>
        <time>2012-05-02T10:57:54Z</time>
      </trkpt>
      <trkpt lat="47.369991" lon="13.387143">
        <ele>861.80</ele>
        <time>2012-05-02T10:57:56Z</time>
      </trkpt>
      <trkpt lat="47.370483" lon="13.387269">
        <ele>861.80</ele>
        <time>2012-05-02T10:58:02Z</time>
      </trkpt>
      <trkpt lat="47.371021" lon="13.387385">
        <ele>861.80</ele>
        <time>2012-05-02T10:58:09Z</time>
      </trkpt>
      <trkpt lat="47.371468" lon="13.387570">
        <ele>861.80</ele>
        <time>2012-05-02T10:58:15Z</time>
      </trkpt>
      <trkpt lat="47.371822" lon="13.387854">
        <ele>861.80</ele>
        <time>2012-05-02T10:58:20Z</time>
      </trkpt>
      <trkpt lat="47.372204" lon="13.388313">
        <ele>861.80</ele>
        <time>2012-05-02T10:58:26Z</time>
      </trkpt>
      <trkpt lat="47.372524" lon="13.388867">
        <ele>861.80</ele>
        <time>2012-05-02T10:58:32Z</time>
      </trkpt>
      <trkpt lat="47.372570" lon="13.388981">
        <ele>861.80</ele>
        <time>2012-05-02T10:58:33Z</time>
      </trkpt>
      <trkpt lat="47.372646" lon="13.389199">
        <ele>861.40</ele>
        <time>2012-05-02T10:58:35Z</time>
      </trkpt>
      <trkpt lat="47.372700" lon="13.389296">
        <ele>860.80</ele>
        <time>2012-05-02T10:58:36Z</time>
      </trkpt>
      <trkpt lat="47.372761" lon="13.389380">
        <ele>860.40</ele>
        <time>2012-05-02T10:58:37Z</time>
      </trkpt>
      <trkpt lat="47.372826" lon="13.389453">
        <ele>860.00</ele>
        <time>2012-05-02T10:58:38Z</time>
      </trkpt>
      <trkpt lat="47.372902" lon="13.389513">
        <ele>859.60</ele>
        <time>2012-05-02T10:58:39Z</time>
      </trkpt>
      <trkpt lat="47.372978" lon="13.389569">
        <ele>859.60</ele>
        <time>2012-05-02T10:58:40Z</time>
      </trkpt>
      <trkpt lat="47.373341" lon="13.389940">
        <ele>859.60</ele>
        <time>2012-05-02T10:58:45Z</time>
      </trkpt>
      <trkpt lat="47.373543" lon="13.390224">
        <ele>859.00</ele>
        <time>2012-05-02T10:58:48Z</time>
      </trkpt>
      <trkpt lat="47.373600" lon="13.390325">
        <ele>858.20</ele>
        <time>2012-05-02T10:58:49Z</time>
      </trkpt>
      <trkpt lat="47.373661" lon="13.390427">
        <ele>857.80</ele>
        <time>2012-05-02T10:58:50Z</time>
      </trkpt>
      <trkpt lat="47.373722" lon="13.390531">
        <ele>857.40</ele>
        <time>2012-05-02T10:58:51Z</time>
      </trkpt>
      <trkpt lat="47.374084" lon="13.391159">
        <ele>857.00</ele>
        <time>2012-05-02T10:58:57Z</time>
      </trkpt>
      <trkpt lat="47.374149" lon="13.391264">
        <ele>856.40</ele>
        <time>2012-05-02T10:58:58Z</time>
      </trkpt>
      <trkpt lat="47.374210" lon="13.391370">
        <ele>856.00</ele>
        <time>2012-05-02T10:58:59Z</time>
      </trkpt>
      <trkpt lat="47.374275" lon="13.391477">
        <ele>855.60</ele>
        <time>2012-05-02T10:59:00Z</time>
      </trkpt>
      <trkpt lat="47.374340" lon="13.391582">
        <ele>855.20</ele>
        <time>2012-05-02T10:59:01Z</time>
      </trkpt>
      <trkpt lat="47.374592" lon="13.391996">
        <ele>855.20</ele>
        <time>2012-05-02T10:59:05Z</time>
      </trkpt>
      <trkpt lat="47.375034" lon="13.392653">
        <ele>855.20</ele>
        <time>2012-05-02T10:59:12Z</time>
      </trkpt>
      <trkpt lat="47.375237" lon="13.392898">
        <ele>854.80</ele>
        <time>2012-05-02T10:59:15Z</time>
      </trkpt>
      <trkpt lat="47.375301" lon="13.392976">
        <ele>854.40</ele>
        <time>2012-05-02T10:59:16Z</time>
      </trkpt>
      <trkpt lat="47.375374" lon="13.393049">
        <ele>854.00</ele>
        <time>2012-05-02T10:59:17Z</time>
      </trkpt>
      <trkpt lat="47.375450" lon="13.393125">
        <ele>853.60</ele>
        <time>2012-05-02T10:59:18Z</time>
      </trkpt>
      <trkpt lat="47.375526" lon="13.393191">
        <ele>853.20</ele>
        <time>2012-05-02T10:59:19Z</time>
      </trkpt>
      <trkpt lat="47.376011" lon="13.393618">
        <ele>852.60</ele>
        <time>2012-05-02T10:59:25Z</time>
      </trkpt>
      <trkpt lat="47.376091" lon="13.393703">
        <ele>852.20</ele>
        <time>2012-05-02T10:59:26Z</time>
      </trkpt>
      <trkpt lat="47.376171" lon="13.393798">
        <ele>851.60</ele>
        <time>2012-05-02T10:59:27Z</time>
      </trkpt>
      <trkpt lat="47.376244" lon="13.393891">
        <ele>851.20</ele>
        <time>2012-05-02T10:59:28Z</time>
      </trkpt>
      <trkpt lat="47.376316" lon="13.393988">
        <ele>850.80</ele>
        <time>2012-05-02T10:59:29Z</time>
      </trkpt>
      <trkpt lat="47.376514" lon="13.394292">
        <ele>850.80</ele>
        <time>2012-05-02T10:59:32Z</time>
      </trkpt>
      <trkpt lat="47.376842" lon="13.394947">
        <ele>850.80</ele>
        <time>2012-05-02T10:59:38Z</time>
      </trkpt>
      <trkpt lat="47.376991" lon="13.395276">
        <ele>850.20</ele>
        <time>2012-05-02T10:59:41Z</time>
      </trkpt>
      <trkpt lat="47.377048" lon="13.395384">
        <ele>849.80</ele>
        <time>2012-05-02T10:59:42Z</time>
      </trkpt>
      <trkpt lat="47.377098" lon="13.395489">
        <ele>849.40</ele>
        <time>2012-05-02T10:59:43Z</time>
      </trkpt>
      <trkpt lat="47.377151" lon="13.395596">
        <ele>848.80</ele>
        <time>2012-05-02T10:59:44Z</time>
      </trkpt>
      <trkpt lat="47.377201" lon="13.395699">
        <ele>848.40</ele>
        <time>2012-05-02T10:59:45Z</time>
      </trkpt>
      <trkpt lat="47.377583" lon="13.396406">
        <ele>848.40</ele>
        <time>2012-05-02T10:59:52Z</time>
      </trkpt>
      <trkpt lat="47.378025" lon="13.397062">
        <ele>848.40</ele>
        <time>2012-05-02T10:59:59Z</time>
      </trkpt>
      <trkpt lat="47.378502" lon="13.397644">
        <ele>848.40</ele>
        <time>2012-05-02T11:00:06Z</time>
      </trkpt>
      <trkpt lat="47.378574" lon="13.397725">
        <ele>848.00</ele>
        <time>2012-05-02T11:00:07Z</time>
      </trkpt>
      <trkpt lat="47.378643" lon="13.397806">
        <ele>847.60</ele>
        <time>2012-05-02T11:00:08Z</time>
      </trkpt>
      <trkpt lat="47.378712" lon="13.397890">
        <ele>847.20</ele>
        <time>2012-05-02T11:00:09Z</time>
      </trkpt>
      <trkpt lat="47.378784" lon="13.397973">
        <ele>846.80</ele>
        <time>2012-05-02T11:00:10Z</time>
      </trkpt>
      <trkpt lat="47.378853" lon="13.398061">
        <ele>846.40</ele>
        <time>2012-05-02T11:00:11Z</time>
      </trkpt>
      <trkpt lat="47.379059" lon="13.398336">
        <ele>846.40</ele>
        <time>2012-05-02T11:00:14Z</time>
      </trkpt>
      <trkpt lat="47.379448" lon="13.398906">
        <ele>846.40</ele>
        <time>2012-05-02T11:00:20Z</time>
      </trkpt>
      <trkpt lat="47.379627" lon="13.399191">
        <ele>846.40</ele>
        <time>2012-05-02T11:00:23Z</time>
      </trkpt>
      <trkpt lat="47.380005" lon="13.399773">
        <ele>846.00</ele>
        <time>2012-05-02T11:00:29Z</time>
      </trkpt>
      <trkpt lat="47.380062" lon="13.399869">
        <ele>845.60</ele>
        <time>2012-05-02T11:00:30Z</time>
      </trkpt>
      <trkpt lat="47.380123" lon="13.399961">
        <ele>845.20</ele>
        <time>2012-05-02T11:00:31Z</time>
      </trkpt>
      <trkpt lat="47.380184" lon="13.400058">
        <ele>844.60</ele>
        <time>2012-05-02T11:00:32Z</time>
      </trkpt>
      <trkpt lat="47.380245" lon="13.400152">
        <ele>844.20</ele>
        <time>2012-05-02T11:00:33Z</time>
      </trkpt>
      <trkpt lat="47.380486" lon="13.400544">
        <ele>844.20</ele>
        <time>2012-05-02T11:00:37Z</time>
      </trkpt>
      <trkpt lat="47.380844" lon="13.401115">
        <ele>843.80</ele>
        <time>2012-05-02T11:00:43Z</time>
      </trkpt>
      <trkpt lat="47.380901" lon="13.401212">
        <ele>843.40</ele>
        <time>2012-05-02T11:00:44Z</time>
      </trkpt>
      <trkpt lat="47.380962" lon="13.401308">
        <ele>843.00</ele>
        <time>2012-05-02T11:00:45Z</time>
      </trkpt>
      <trkpt lat="47.381016" lon="13.401406">
        <ele>842.60</ele>
        <time>2012-05-02T11:00:46Z</time>
      </trkpt>
      <trkpt lat="47.381073" lon="13.401511">
        <ele>842.20</ele>
        <time>2012-05-02T11:00:47Z</time>
      </trkpt>
      <trkpt lat="47.381283" lon="13.401958">
        <ele>842.20</ele>
        <time>2012-05-02T11:00:51Z</time>
      </trkpt>
      <trkpt lat="47.381462" lon="13.402583">
        <ele>842.20</ele>
        <time>2012-05-02T11:00:56Z</time>
      </trkpt>
      <trkpt lat="47.381573" lon="13.403234">
        <ele>842.20</ele>
        <time>2012-05-02T11:01:01Z</time>
      </trkpt>
      <trkpt lat="47.381615" lon="13.404045">
        <ele>842.20</ele>
        <time>2012-05-02T11:01:07Z</time>
      </trkpt>
      <trkpt lat="47.381634" lon="13.404417">
        <ele>841.80</ele>
        <time>2012-05-02T11:01:10Z</time>
      </trkpt>
      <trkpt lat="47.381641" lon="13.404545">
        <ele>841.40</ele>
        <time>2012-05-02T11:01:11Z</time>
      </trkpt>
      <trkpt lat="47.381649" lon="13.404671">
        <ele>841.00</ele>
        <time>2012-05-02T11:01:12Z</time>
      </trkpt>
      <trkpt lat="47.381653" lon="13.404802">
        <ele>840.60</ele>
        <time>2012-05-02T11:01:13Z</time>
      </trkpt>
      <trkpt lat="47.381653" lon="13.404927">
        <ele>840.20</ele>
        <time>2012-05-02T11:01:14Z</time>
      </trkpt>
      <trkpt lat="47.381649" lon="13.405051">
        <ele>840.20</ele>
        <time>2012-05-02T11:01:15Z</time>
      </trkpt>
      <trkpt lat="47.381626" lon="13.405418">
        <ele>840.20</ele>
        <time>2012-05-02T11:01:18Z</time>
      </trkpt>
      <trkpt lat="47.381584" lon="13.405664">
        <ele>840.20</ele>
        <time>2012-05-02T11:01:20Z</time>
      </trkpt>
      <trkpt lat="47.381416" lon="13.406259">
        <ele>840.20</ele>
        <time>2012-05-02T11:01:25Z</time>
      </trkpt>
      <trkpt lat="47.381107" lon="13.406874">
        <ele>840.20</ele>
        <time>2012-05-02T11:01:31Z</time>
      </trkpt>
      <trkpt lat="47.380703" lon="13.407536">
        <ele>839.80</ele>
        <time>2012-05-02T11:01:38Z</time>
      </trkpt>
      <trkpt lat="47.380657" lon="13.407637">
        <ele>839.40</ele>
        <time>2012-05-02T11:01:39Z</time>
      </trkpt>
      <trkpt lat="47.380615" lon="13.407741">
        <ele>839.00</ele>
        <time>2012-05-02T11:01:40Z</time>
      </trkpt>
      <trkpt lat="47.380573" lon="13.407846">
        <ele>838.60</ele>
        <time>2012-05-02T11:01:41Z</time>
      </trkpt>
      <trkpt lat="47.380539" lon="13.407957">
        <ele>839.20</ele>
        <time>2012-05-02T11:01:42Z</time>
      </trkpt>
      <trkpt lat="47.380508" lon="13.408070">
        <ele>839.60</ele>
        <time>2012-05-02T11:01:43Z</time>
      </trkpt>
      <trkpt lat="47.380482" lon="13.408192">
        <ele>840.00</ele>
        <time>2012-05-02T11:01:44Z</time>
      </trkpt>
      <trkpt lat="47.380459" lon="13.408310">
        <ele>840.20</ele>
        <time>2012-05-02T11:01:45Z</time>
      </trkpt>
      <trkpt lat="47.380409" lon="13.408669">
        <ele>839.80</ele>
        <time>2012-05-02T11:01:48Z</time>
      </trkpt>
      <trkpt lat="47.380398" lon="13.408793">
        <ele>839.20</ele>
        <time>2012-05-02T11:01:49Z</time>
      </trkpt>
      <trkpt lat="47.380394" lon="13.408912">
        <ele>838.80</ele>
        <time>2012-05-02T11:01:50Z</time>
      </trkpt>
      <trkpt lat="47.380386" lon="13.409034">
        <ele>838.20</ele>
        <time>2012-05-02T11:01:51Z</time>
      </trkpt>
      <trkpt lat="47.380383" lon="13.409155">
        <ele>837.80</ele>
        <time>2012-05-02T11:01:52Z</time>
      </trkpt>
      <trkpt lat="47.380367" lon="13.409633">
        <ele>837.80</ele>
        <time>2012-05-02T11:01:56Z</time>
      </trkpt>
      <trkpt lat="47.380398" lon="13.410368">
        <ele>837.80</ele>
        <time>2012-05-02T11:02:02Z</time>
      </trkpt>
      <trkpt lat="47.380447" lon="13.410740">
        <ele>837.40</ele>
        <time>2012-05-02T11:02:05Z</time>
      </trkpt>
      <trkpt lat="47.380466" lon="13.410865">
        <ele>837.00</ele>
        <time>2012-05-02T11:02:06Z</time>
      </trkpt>
      <trkpt lat="47.380493" lon="13.410987">
        <ele>836.20</ele>
        <time>2012-05-02T11:02:07Z</time>
      </trkpt>
      <trkpt lat="47.380520" lon="13.411108">
        <ele>835.80</ele>
        <time>2012-05-02T11:02:08Z</time>
      </trkpt>
      <trkpt lat="47.380722" lon="13.411825">
        <ele>835.80</ele>
        <time>2012-05-02T11:02:14Z</time>
      </trkpt>
      <trkpt lat="47.381023" lon="13.412622">
        <ele>835.80</ele>
        <time>2012-05-02T11:02:21Z</time>
      </trkpt>
      <trkpt lat="47.381062" lon="13.412737">
        <ele>835.40</ele>
        <time>2012-05-02T11:02:22Z</time>
      </trkpt>
      <trkpt lat="47.381100" lon="13.412854">
        <ele>835.00</ele>
        <time>2012-05-02T11:02:23Z</time>
      </trkpt>
      <trkpt lat="47.381134" lon="13.412976">
        <ele>834.60</ele>
        <time>2012-05-02T11:02:24Z</time>
      </trkpt>
      <trkpt lat="47.381165" lon="13.413094">
        <ele>834.20</ele>
        <time>2012-05-02T11:02:25Z</time>
      </trkpt>
      <trkpt lat="47.381191" lon="13.413212">
        <ele>833.80</ele>
        <time>2012-05-02T11:02:26Z</time>
      </trkpt>
      <trkpt lat="47.381294" lon="13.413692">
        <ele>833.80</ele>
        <time>2012-05-02T11:02:30Z</time>
      </trkpt>
      <trkpt lat="47.381397" lon="13.414554">
        <ele>833.80</ele>
        <time>2012-05-02T11:02:37Z</time>
      </trkpt>
      <trkpt lat="47.381416" lon="13.415124">
        <ele>833.80</ele>
        <time>2012-05-02T11:02:42Z</time>
      </trkpt>
      <trkpt lat="47.381424" lon="13.415334">
        <ele>833.40</ele>
        <time>2012-05-02T11:02:44Z</time>
      </trkpt>
      <trkpt lat="47.381432" lon="13.415436">
        <ele>833.00</ele>
        <time>2012-05-02T11:02:45Z</time>
      </trkpt>
      <trkpt lat="47.381432" lon="13.415525">
        <ele>832.60</ele>
        <time>2012-05-02T11:02:46Z</time>
      </trkpt>
      <trkpt lat="47.381432" lon="13.415602">
        <ele>832.20</ele>
        <time>2012-05-02T11:02:47Z</time>
      </trkpt>
      <trkpt lat="47.381432" lon="13.415670">
        <ele>831.60</ele>
        <time>2012-05-02T11:02:48Z</time>
      </trkpt>
      <trkpt lat="47.381413" lon="13.416067">
        <ele>831.60</ele>
        <time>2012-05-02T11:02:53Z</time>
      </trkpt>
      <trkpt lat="47.381348" lon="13.416567">
        <ele>831.60</ele>
        <time>2012-05-02T11:02:58Z</time>
      </trkpt>
      <trkpt lat="47.381237" lon="13.417021">
        <ele>831.60</ele>
        <time>2012-05-02T11:03:03Z</time>
      </trkpt>
      <trkpt lat="47.381222" lon="13.417076">
        <ele>831.20</ele>
        <time>2012-05-02T11:03:04Z</time>
      </trkpt>
      <trkpt lat="47.381207" lon="13.417130">
        <ele>830.80</ele>
        <time>2012-05-02T11:03:05Z</time>
      </trkpt>
      <trkpt lat="47.381199" lon="13.417186">
        <ele>830.40</ele>
        <time>2012-05-02T11:03:06Z</time>
      </trkpt>
      <trkpt lat="47.381191" lon="13.417241">
        <ele>830.00</ele>
        <time>2012-05-02T11:03:07Z</time>
      </trkpt>
      <trkpt lat="47.381195" lon="13.417297">
        <ele>829.40</ele>
        <time>2012-05-02T11:03:08Z</time>
      </trkpt>
      <trkpt lat="47.381226" lon="13.417375">
        <ele>829.40</ele>
        <time>2012-05-02T11:03:10Z</time>
      </trkpt>
      <trkpt lat="47.381363" lon="13.417412">
        <ele>829.40</ele>
        <time>2012-05-02T11:03:13Z</time>
      </trkpt>
      <trkpt lat="47.381413" lon="13.417430">
        <ele>829.40</ele>
        <time>2012-05-02T11:03:14Z</time>
      </trkpt>
      <trkpt lat="47.381466" lon="13.417441">
        <ele>829.40</ele>
        <time>2012-05-02T11:03:15Z</time>
      </trkpt>
      <trkpt lat="47.381573" lon="13.417423">
        <ele>829.40</ele>
        <time>2012-05-02T11:03:17Z</time>
      </trkpt>
      <trkpt lat="47.381672" lon="13.417390">
        <ele>829.40</ele>
        <time>2012-05-02T11:03:19Z</time>
      </trkpt>
      <trkpt lat="47.381779" lon="13.417316">
        <ele>829.40</ele>
        <time>2012-05-02T11:03:21Z</time>
      </trkpt>
      <trkpt lat="47.382088" lon="13.417010">
        <ele>829.40</ele>
        <time>2012-05-02T11:03:27Z</time>
      </trkpt>
      <trkpt lat="47.382259" lon="13.416742">
        <ele>829.40</ele>
        <time>2012-05-02T11:03:31Z</time>
      </trkpt>
      <trkpt lat="47.382378" lon="13.416516">
        <ele>829.40</ele>
        <time>2012-05-02T11:03:34Z</time>
      </trkpt>
      <trkpt lat="47.382664" lon="13.415918">
        <ele>829.40</ele>
        <time>2012-05-02T11:03:42Z</time>
      </trkpt>
      <trkpt lat="47.382889" lon="13.415628">
        <ele>829.40</ele>
        <time>2012-05-02T11:03:47Z</time>
      </trkpt>
      <trkpt lat="47.383228" lon="13.415362">
        <ele>829.40</ele>
        <time>2012-05-02T11:03:53Z</time>
      </trkpt>
      <trkpt lat="47.383476" lon="13.415066">
        <ele>829.40</ele>
        <time>2012-05-02T11:03:58Z</time>
      </trkpt>
      <trkpt lat="47.383518" lon="13.414997">
        <ele>829.40</ele>
        <time>2012-05-02T11:03:59Z</time>
      </trkpt>
      <trkpt lat="47.383720" lon="13.414651">
        <ele>829.40</ele>
        <time>2012-05-02T11:04:04Z</time>
      </trkpt>
      <trkpt lat="47.384029" lon="13.414216">
        <ele>829.40</ele>
        <time>2012-05-02T11:04:11Z</time>
      </trkpt>
      <trkpt lat="47.384251" lon="13.414047">
        <ele>829.40</ele>
        <time>2012-05-02T11:04:15Z</time>
      </trkpt>
      <trkpt lat="47.384315" lon="13.414028">
        <ele>829.40</ele>
        <time>2012-05-02T11:04:16Z</time>
      </trkpt>
      <trkpt lat="47.384502" lon="13.414047">
        <ele>829.80</ele>
        <time>2012-05-02T11:04:19Z</time>
      </trkpt>
      <trkpt lat="47.384563" lon="13.414066">
        <ele>830.20</ele>
        <time>2012-05-02T11:04:20Z</time>
      </trkpt>
      <trkpt lat="47.384624" lon="13.414094">
        <ele>830.60</ele>
        <time>2012-05-02T11:04:21Z</time>
      </trkpt>
      <trkpt lat="47.384686" lon="13.414120">
        <ele>831.00</ele>
        <time>2012-05-02T11:04:22Z</time>
      </trkpt>
      <trkpt lat="47.384747" lon="13.414142">
        <ele>831.40</ele>
        <time>2012-05-02T11:04:23Z</time>
      </trkpt>
      <trkpt lat="47.384857" lon="13.414165">
        <ele>831.40</ele>
        <time>2012-05-02T11:04:25Z</time>
      </trkpt>
      <trkpt lat="47.385075" lon="13.414065">
        <ele>831.40</ele>
        <time>2012-05-02T11:04:29Z</time>
      </trkpt>
      <trkpt lat="47.385120" lon="13.414024">
        <ele>831.40</ele>
        <time>2012-05-02T11:04:30Z</time>
      </trkpt>
      <trkpt lat="47.385414" lon="13.413829">
        <ele>831.40</ele>
        <time>2012-05-02T11:04:36Z</time>
      </trkpt>
      <trkpt lat="47.385670" lon="13.413686">
        <ele>831.40</ele>
        <time>2012-05-02T11:04:41Z</time>
      </trkpt>
      <trkpt lat="47.385727" lon="13.413671">
        <ele>831.40</ele>
        <time>2012-05-02T11:04:42Z</time>
      </trkpt>
      <trkpt lat="47.385956" lon="13.413713">
        <ele>831.40</ele>
        <time>2012-05-02T11:04:46Z</time>
      </trkpt>
      <trkpt lat="47.386143" lon="13.413792">
        <ele>832.00</ele>
        <time>2012-05-02T11:04:50Z</time>
      </trkpt>
      <trkpt lat="47.386185" lon="13.413805">
        <ele>832.40</ele>
        <time>2012-05-02T11:04:51Z</time>
      </trkpt>
      <trkpt lat="47.386230" lon="13.413816">
        <ele>832.80</ele>
        <time>2012-05-02T11:04:52Z</time>
      </trkpt>
      <trkpt lat="47.386269" lon="13.413825">
        <ele>833.20</ele>
        <time>2012-05-02T11:04:53Z</time>
      </trkpt>
      <trkpt lat="47.386307" lon="13.413836">
        <ele>833.60</ele>
        <time>2012-05-02T11:04:54Z</time>
      </trkpt>
      <trkpt lat="47.386429" lon="13.413872">
        <ele>833.60</ele>
        <time>2012-05-02T11:04:57Z</time>
      </trkpt>
      <trkpt lat="47.386475" lon="13.413871">
        <ele>833.60</ele>
        <time>2012-05-02T11:04:58Z</time>
      </trkpt>
      <trkpt lat="47.386673" lon="13.413781">
        <ele>833.60</ele>
        <time>2012-05-02T11:05:02Z</time>
      </trkpt>
      <trkpt lat="47.386864" lon="13.413557">
        <ele>833.60</ele>
        <time>2012-05-02T11:05:06Z</time>
      </trkpt>
      <trkpt lat="47.386906" lon="13.413493">
        <ele>833.60</ele>
        <time>2012-05-02T11:05:07Z</time>
      </trkpt>
      <trkpt lat="47.387211" lon="13.413108">
        <ele>833.60</ele>
        <time>2012-05-02T11:05:14Z</time>
      </trkpt>
      <trkpt lat="47.387306" lon="13.413045">
        <ele>833.60</ele>
        <time>2012-05-02T11:05:16Z</time>
      </trkpt>
      <trkpt lat="47.387405" lon="13.413013">
        <ele>833.60</ele>
        <time>2012-05-02T11:05:18Z</time>
      </trkpt>
      <trkpt lat="47.387455" lon="13.413006">
        <ele>833.60</ele>
        <time>2012-05-02T11:05:19Z</time>
      </trkpt>
      <trkpt lat="47.387653" lon="13.413005">
        <ele>833.60</ele>
        <time>2012-05-02T11:05:23Z</time>
      </trkpt>
      <trkpt lat="47.387695" lon="13.413004">
        <ele>834.00</ele>
        <time>2012-05-02T11:05:24Z</time>
      </trkpt>
      <trkpt lat="47.387737" lon="13.413004">
        <ele>835.00</ele>
        <time>2012-05-02T11:05:25Z</time>
      </trkpt>
      <trkpt lat="47.387775" lon="13.413002">
        <ele>835.40</ele>
        <time>2012-05-02T11:05:26Z</time>
      </trkpt>
      <trkpt lat="47.387817" lon="13.412997">
        <ele>835.80</ele>
        <time>2012-05-02T11:05:27Z</time>
      </trkpt>
      <trkpt lat="47.387859" lon="13.412984">
        <ele>835.80</ele>
        <time>2012-05-02T11:05:28Z</time>
      </trkpt>
      <trkpt lat="47.387897" lon="13.412966">
        <ele>835.80</ele>
        <time>2012-05-02T11:05:29Z</time>
      </trkpt>
      <trkpt lat="47.387970" lon="13.412921">
        <ele>836.40</ele>
        <time>2012-05-02T11:05:31Z</time>
      </trkpt>
      <trkpt lat="47.388000" lon="13.412893">
        <ele>836.80</ele>
        <time>2012-05-02T11:05:32Z</time>
      </trkpt>
      <trkpt lat="47.388027" lon="13.412866">
        <ele>837.20</ele>
        <time>2012-05-02T11:05:33Z</time>
      </trkpt>
      <trkpt lat="47.388050" lon="13.412835">
        <ele>837.60</ele>
        <time>2012-05-02T11:05:34Z</time>
      </trkpt>
      <trkpt lat="47.388073" lon="13.412800">
        <ele>838.20</ele>
        <time>2012-05-02T11:05:35Z</time>
      </trkpt>
      <trkpt lat="47.388138" lon="13.412685">
        <ele>838.60</ele>
        <time>2012-05-02T11:05:38Z</time>
      </trkpt>
      <trkpt lat="47.388165" lon="13.412647">
        <ele>839.00</ele>
        <time>2012-05-02T11:05:39Z</time>
      </trkpt>
      <trkpt lat="47.388187" lon="13.412608">
        <ele>839.40</ele>
        <time>2012-05-02T11:05:40Z</time>
      </trkpt>
      <trkpt lat="47.388210" lon="13.412570">
        <ele>839.80</ele>
        <time>2012-05-02T11:05:41Z</time>
      </trkpt>
      <trkpt lat="47.388233" lon="13.412534">
        <ele>840.20</ele>
        <time>2012-05-02T11:05:42Z</time>
      </trkpt>
      <trkpt lat="47.388302" lon="13.412424">
        <ele>840.60</ele>
        <time>2012-05-02T11:05:45Z</time>
      </trkpt>
      <trkpt lat="47.388325" lon="13.412395">
        <ele>841.00</ele>
        <time>2012-05-02T11:05:46Z</time>
      </trkpt>
      <trkpt lat="47.388348" lon="13.412365">
        <ele>841.40</ele>
        <time>2012-05-02T11:05:47Z</time>
      </trkpt>
      <trkpt lat="47.388371" lon="13.412339">
        <ele>842.00</ele>
        <time>2012-05-02T11:05:48Z</time>
      </trkpt>
      <trkpt lat="47.388390" lon="13.412307">
        <ele>842.40</ele>
        <time>2012-05-02T11:05:49Z</time>
      </trkpt>
      <trkpt lat="47.388489" lon="13.412161">
        <ele>842.80</ele>
        <time>2012-05-02T11:05:53Z</time>
      </trkpt>
      <trkpt lat="47.388515" lon="13.412119">
        <ele>843.20</ele>
        <time>2012-05-02T11:05:54Z</time>
      </trkpt>
      <trkpt lat="47.388535" lon="13.412084">
        <ele>843.60</ele>
        <time>2012-05-02T11:05:55Z</time>
      </trkpt>
      <trkpt lat="47.388557" lon="13.412050">
        <ele>844.00</ele>
        <time>2012-05-02T11:05:56Z</time>
      </trkpt>
      <trkpt lat="47.388584" lon="13.412014">
        <ele>844.40</ele>
        <time>2012-05-02T11:05:57Z</time>
      </trkpt>
      <trkpt lat="47.388733" lon="13.411790">
        <ele>844.40</ele>
        <time>2012-05-02T11:06:03Z</time>
      </trkpt>
      <trkpt lat="47.388794" lon="13.411728">
        <ele>844.80</ele>
        <time>2012-05-02T11:06:05Z</time>
      </trkpt>
      <trkpt lat="47.388828" lon="13.411691">
        <ele>845.20</ele>
        <time>2012-05-02T11:06:06Z</time>
      </trkpt>
      <trkpt lat="47.388859" lon="13.411655">
        <ele>845.80</ele>
        <time>2012-05-02T11:06:07Z</time>
      </trkpt>
      <trkpt lat="47.388893" lon="13.411622">
        <ele>846.20</ele>
        <time>2012-05-02T11:06:08Z</time>
      </trkpt>
      <trkpt lat="47.388927" lon="13.411593">
        <ele>846.60</ele>
        <time>2012-05-02T11:06:09Z</time>
      </trkpt>
      <trkpt lat="47.388992" lon="13.411550">
        <ele>846.60</ele>
        <time>2012-05-02T11:06:11Z</time>
      </trkpt>
      <trkpt lat="47.389225" lon="13.411439">
        <ele>846.60</ele>
        <time>2012-05-02T11:06:17Z</time>
      </trkpt>
      <trkpt lat="47.389496" lon="13.411371">
        <ele>847.00</ele>
        <time>2012-05-02T11:06:23Z</time>
      </trkpt>
      <trkpt lat="47.389545" lon="13.411356">
        <ele>847.40</ele>
        <time>2012-05-02T11:06:24Z</time>
      </trkpt>
      <trkpt lat="47.389599" lon="13.411339">
        <ele>847.80</ele>
        <time>2012-05-02T11:06:25Z</time>
      </trkpt>
      <trkpt lat="47.389652" lon="13.411324">
        <ele>848.20</ele>
        <time>2012-05-02T11:06:26Z</time>
      </trkpt>
      <trkpt lat="47.389709" lon="13.411305">
        <ele>848.60</ele>
        <time>2012-05-02T11:06:27Z</time>
      </trkpt>
      <trkpt lat="47.389881" lon="13.411228">
        <ele>848.60</ele>
        <time>2012-05-02T11:06:30Z</time>
      </trkpt>
      <trkpt lat="47.389999" lon="13.411163">
        <ele>848.60</ele>
        <time>2012-05-02T11:06:32Z</time>
      </trkpt>
      <trkpt lat="47.390175" lon="13.411028">
        <ele>848.60</ele>
        <time>2012-05-02T11:06:35Z</time>
      </trkpt>
      <trkpt lat="47.390568" lon="13.410651">
        <ele>848.60</ele>
        <time>2012-05-02T11:06:42Z</time>
      </trkpt>
      <trkpt lat="47.390911" lon="13.410264">
        <ele>848.60</ele>
        <time>2012-05-02T11:06:49Z</time>
      </trkpt>
      <trkpt lat="47.391243" lon="13.409845">
        <ele>848.60</ele>
        <time>2012-05-02T11:06:56Z</time>
      </trkpt>
      <trkpt lat="47.391476" lon="13.409411">
        <ele>848.60</ele>
        <time>2012-05-02T11:07:01Z</time>
      </trkpt>
      <trkpt lat="47.391663" lon="13.408784">
        <ele>848.60</ele>
        <time>2012-05-02T11:07:06Z</time>
      </trkpt>
      <trkpt lat="47.391689" lon="13.408639">
        <ele>848.20</ele>
        <time>2012-05-02T11:07:07Z</time>
      </trkpt>
      <trkpt lat="47.391724" lon="13.408478">
        <ele>847.80</ele>
        <time>2012-05-02T11:07:08Z</time>
      </trkpt>
      <trkpt lat="47.391762" lon="13.408323">
        <ele>847.40</ele>
        <time>2012-05-02T11:07:09Z</time>
      </trkpt>
      <trkpt lat="47.391804" lon="13.408167">
        <ele>846.80</ele>
        <time>2012-05-02T11:07:10Z</time>
      </trkpt>
      <trkpt lat="47.391857" lon="13.408010">
        <ele>846.20</ele>
        <time>2012-05-02T11:07:11Z</time>
      </trkpt>
      <trkpt lat="47.391914" lon="13.407855">
        <ele>845.60</ele>
        <time>2012-05-02T11:07:12Z</time>
      </trkpt>
      <trkpt lat="47.391979" lon="13.407703">
        <ele>845.00</ele>
        <time>2012-05-02T11:07:13Z</time>
      </trkpt>
      <trkpt lat="47.392044" lon="13.407557">
        <ele>844.40</ele>
        <time>2012-05-02T11:07:14Z</time>
      </trkpt>
      <trkpt lat="47.392418" lon="13.406879">
        <ele>844.40</ele>
        <time>2012-05-02T11:07:19Z</time>
      </trkpt>
      <trkpt lat="47.392490" lon="13.406747">
        <ele>844.00</ele>
        <time>2012-05-02T11:07:20Z</time>
      </trkpt>
      <trkpt lat="47.392563" lon="13.406622">
        <ele>843.40</ele>
        <time>2012-05-02T11:07:21Z</time>
      </trkpt>
      <trkpt lat="47.392632" lon="13.406498">
        <ele>843.00</ele>
        <time>2012-05-02T11:07:22Z</time>
      </trkpt>
      <trkpt lat="47.392704" lon="13.406359">
        <ele>842.60</ele>
        <time>2012-05-02T11:07:23Z</time>
      </trkpt>
      <trkpt lat="47.392776" lon="13.406223">
        <ele>842.20</ele>
        <time>2012-05-02T11:07:24Z</time>
      </trkpt>
      <trkpt lat="47.392845" lon="13.406093">
        <ele>842.20</ele>
        <time>2012-05-02T11:07:25Z</time>
      </trkpt>
      <trkpt lat="47.393055" lon="13.405718">
        <ele>841.80</ele>
        <time>2012-05-02T11:07:28Z</time>
      </trkpt>
      <trkpt lat="47.393124" lon="13.405598">
        <ele>841.40</ele>
        <time>2012-05-02T11:07:29Z</time>
      </trkpt>
      <trkpt lat="47.393192" lon="13.405478">
        <ele>841.00</ele>
        <time>2012-05-02T11:07:30Z</time>
      </trkpt>
      <trkpt lat="47.393261" lon="13.405351">
        <ele>840.40</ele>
        <time>2012-05-02T11:07:31Z</time>
      </trkpt>
      <trkpt lat="47.393326" lon="13.405230">
        <ele>840.00</ele>
        <time>2012-05-02T11:07:32Z</time>
      </trkpt>
      <trkpt lat="47.393703" lon="13.404531">
        <ele>840.00</ele>
        <time>2012-05-02T11:07:38Z</time>
      </trkpt>
      <trkpt lat="47.393764" lon="13.404417">
        <ele>840.00</ele>
        <time>2012-05-02T11:07:39Z</time>
      </trkpt>
      <trkpt lat="47.394131" lon="13.403742">
        <ele>840.00</ele>
        <time>2012-05-02T11:07:45Z</time>
      </trkpt>
      <trkpt lat="47.394314" lon="13.403407">
        <ele>840.00</ele>
        <time>2012-05-02T11:07:48Z</time>
      </trkpt>
      <trkpt lat="47.394676" lon="13.402764">
        <ele>840.00</ele>
        <time>2012-05-02T11:07:54Z</time>
      </trkpt>
      <trkpt lat="47.394737" lon="13.402664">
        <ele>840.00</ele>
        <time>2012-05-02T11:07:55Z</time>
      </trkpt>
      <trkpt lat="47.395172" lon="13.402144">
        <ele>840.00</ele>
        <time>2012-05-02T11:08:01Z</time>
      </trkpt>
      <trkpt lat="47.395573" lon="13.401834">
        <ele>840.00</ele>
        <time>2012-05-02T11:08:06Z</time>
      </trkpt>
      <trkpt lat="47.396095" lon="13.401564">
        <ele>840.00</ele>
        <time>2012-05-02T11:08:12Z</time>
      </trkpt>
      <trkpt lat="47.396629" lon="13.401335">
        <ele>840.00</ele>
        <time>2012-05-02T11:08:18Z</time>
      </trkpt>
      <trkpt lat="47.396812" lon="13.401253">
        <ele>840.00</ele>
        <time>2012-05-02T11:08:20Z</time>
      </trkpt>
      <trkpt lat="47.397366" lon="13.401064">
        <ele>840.00</ele>
        <time>2012-05-02T11:08:26Z</time>
      </trkpt>
      <trkpt lat="47.397461" lon="13.401043">
        <ele>840.00</ele>
        <time>2012-05-02T11:08:27Z</time>
      </trkpt>
      <trkpt lat="47.398026" lon="13.400928">
        <ele>840.00</ele>
        <time>2012-05-02T11:08:33Z</time>
      </trkpt>
      <trkpt lat="47.398117" lon="13.400910">
        <ele>840.00</ele>
        <time>2012-05-02T11:08:34Z</time>
      </trkpt>
      <trkpt lat="47.398670" lon="13.400793">
        <ele>840.00</ele>
        <time>2012-05-02T11:08:40Z</time>
      </trkpt>
      <trkpt lat="47.398758" lon="13.400776">
        <ele>840.00</ele>
        <time>2012-05-02T11:08:41Z</time>
      </trkpt>
      <trkpt lat="47.399296" lon="13.400650">
        <ele>840.00</ele>
        <time>2012-05-02T11:08:47Z</time>
      </trkpt>
      <trkpt lat="47.399567" lon="13.400572">
        <ele>840.00</ele>
        <time>2012-05-02T11:08:50Z</time>
      </trkpt>
      <trkpt lat="47.400166" lon="13.400387">
        <ele>840.00</ele>
        <time>2012-05-02T11:08:57Z</time>
      </trkpt>
      <trkpt lat="47.400330" lon="13.400346">
        <ele>840.00</ele>
        <time>2012-05-02T11:08:59Z</time>
      </trkpt>
      <trkpt lat="47.400913" lon="13.400229">
        <ele>840.00</ele>
        <time>2012-05-02T11:09:06Z</time>
      </trkpt>
      <trkpt lat="47.401470" lon="13.400044">
        <ele>840.00</ele>
        <time>2012-05-02T11:09:13Z</time>
      </trkpt>
      <trkpt lat="47.401546" lon="13.400013">
        <ele>840.00</ele>
        <time>2012-05-02T11:09:14Z</time>
      </trkpt>
      <trkpt lat="47.401844" lon="13.399843">
        <ele>840.40</ele>
        <time>2012-05-02T11:09:18Z</time>
      </trkpt>
      <trkpt lat="47.401917" lon="13.399801">
        <ele>841.00</ele>
        <time>2012-05-02T11:09:19Z</time>
      </trkpt>
      <trkpt lat="47.401989" lon="13.399760">
        <ele>841.40</ele>
        <time>2012-05-02T11:09:20Z</time>
      </trkpt>
      <trkpt lat="47.402061" lon="13.399708">
        <ele>841.80</ele>
        <time>2012-05-02T11:09:21Z</time>
      </trkpt>
      <trkpt lat="47.402130" lon="13.399652">
        <ele>842.20</ele>
        <time>2012-05-02T11:09:22Z</time>
      </trkpt>
      <trkpt lat="47.402470" lon="13.399346">
        <ele>842.20</ele>
        <time>2012-05-02T11:09:27Z</time>
      </trkpt>
      <trkpt lat="47.402966" lon="13.398905">
        <ele>842.20</ele>
        <time>2012-05-02T11:09:34Z</time>
      </trkpt>
      <trkpt lat="47.403412" lon="13.398640">
        <ele>842.20</ele>
        <time>2012-05-02T11:09:40Z</time>
      </trkpt>
      <trkpt lat="47.403744" lon="13.398405">
        <ele>842.20</ele>
        <time>2012-05-02T11:09:45Z</time>
      </trkpt>
      <trkpt lat="47.403797" lon="13.398340">
        <ele>842.20</ele>
        <time>2012-05-02T11:09:46Z</time>
      </trkpt>
      <trkpt lat="47.403881" lon="13.398098">
        <ele>842.20</ele>
        <time>2012-05-02T11:09:49Z</time>
      </trkpt>
      <trkpt lat="47.403889" lon="13.398011">
        <ele>842.20</ele>
        <time>2012-05-02T11:09:50Z</time>
      </trkpt>
      <trkpt lat="47.403919" lon="13.397840">
        <ele>842.20</ele>
        <time>2012-05-02T11:09:52Z</time>
      </trkpt>
      <trkpt lat="47.403980" lon="13.397679">
        <ele>842.20</ele>
        <time>2012-05-02T11:09:54Z</time>
      </trkpt>
      <trkpt lat="47.404018" lon="13.397602">
        <ele>842.20</ele>
        <time>2012-05-02T11:09:55Z</time>
      </trkpt>
      <trkpt lat="47.404125" lon="13.397491">
        <ele>842.20</ele>
        <time>2012-05-02T11:09:57Z</time>
      </trkpt>
      <trkpt lat="47.404518" lon="13.397218">
        <ele>842.20</ele>
        <time>2012-05-02T11:10:03Z</time>
      </trkpt>
      <trkpt lat="47.405071" lon="13.396845">
        <ele>842.20</ele>
        <time>2012-05-02T11:10:11Z</time>
      </trkpt>
      <trkpt lat="47.405140" lon="13.396798">
        <ele>842.20</ele>
        <time>2012-05-02T11:10:12Z</time>
      </trkpt>
      <trkpt lat="47.405640" lon="13.396461">
        <ele>842.20</ele>
        <time>2012-05-02T11:10:19Z</time>
      </trkpt>
      <trkpt lat="47.405991" lon="13.396171">
        <ele>842.20</ele>
        <time>2012-05-02T11:10:24Z</time>
      </trkpt>
      <trkpt lat="47.406067" lon="13.396131">
        <ele>842.20</ele>
        <time>2012-05-02T11:10:25Z</time>
      </trkpt>
      <trkpt lat="47.406303" lon="13.396145">
        <ele>842.20</ele>
        <time>2012-05-02T11:10:28Z</time>
      </trkpt>
      <trkpt lat="47.406456" lon="13.396210">
        <ele>842.20</ele>
        <time>2012-05-02T11:10:30Z</time>
      </trkpt>
      <trkpt lat="47.406605" lon="13.396246">
        <ele>842.60</ele>
        <time>2012-05-02T11:10:32Z</time>
      </trkpt>
      <trkpt lat="47.406685" lon="13.396249">
        <ele>843.00</ele>
        <time>2012-05-02T11:10:33Z</time>
      </trkpt>
      <trkpt lat="47.406757" lon="13.396237">
        <ele>843.40</ele>
        <time>2012-05-02T11:10:34Z</time>
      </trkpt>
      <trkpt lat="47.406834" lon="13.396218">
        <ele>843.80</ele>
        <time>2012-05-02T11:10:35Z</time>
      </trkpt>
      <trkpt lat="47.406910" lon="13.396188">
        <ele>844.40</ele>
        <time>2012-05-02T11:10:36Z</time>
      </trkpt>
      <trkpt lat="47.406986" lon="13.396152">
        <ele>844.40</ele>
        <time>2012-05-02T11:10:37Z</time>
      </trkpt>
      <trkpt lat="47.407360" lon="13.395927">
        <ele>844.40</ele>
        <time>2012-05-02T11:10:42Z</time>
      </trkpt>
      <trkpt lat="47.407406" lon="13.395833">
        <ele>844.40</ele>
        <time>2012-05-02T11:10:43Z</time>
      </trkpt>
      <trkpt lat="47.407497" lon="13.395571">
        <ele>844.40</ele>
        <time>2012-05-02T11:10:46Z</time>
      </trkpt>
      <trkpt lat="47.407654" lon="13.395459">
        <ele>844.40</ele>
        <time>2012-05-02T11:10:49Z</time>
      </trkpt>
      <trkpt lat="47.407707" lon="13.395434">
        <ele>844.40</ele>
        <time>2012-05-02T11:10:50Z</time>
      </trkpt>
      <trkpt lat="47.408062" lon="13.395272">
        <ele>844.40</ele>
        <time>2012-05-02T11:10:56Z</time>
      </trkpt>
      <trkpt lat="47.408237" lon="13.395151">
        <ele>844.80</ele>
        <time>2012-05-02T11:10:59Z</time>
      </trkpt>
      <trkpt lat="47.408291" lon="13.395103">
        <ele>845.20</ele>
        <time>2012-05-02T11:11:00Z</time>
      </trkpt>
      <trkpt lat="47.408340" lon="13.395057">
        <ele>845.60</ele>
        <time>2012-05-02T11:11:01Z</time>
      </trkpt>
      <trkpt lat="47.408390" lon="13.395002">
        <ele>846.20</ele>
        <time>2012-05-02T11:11:02Z</time>
      </trkpt>
      <trkpt lat="47.408440" lon="13.394940">
        <ele>846.60</ele>
        <time>2012-05-02T11:11:04Z</time>
      </trkpt>
      <trkpt lat="47.408661" lon="13.394644">
        <ele>847.00</ele>
        <time>2012-05-02T11:11:09Z</time>
      </trkpt>
      <trkpt lat="47.408703" lon="13.394574">
        <ele>847.40</ele>
        <time>2012-05-02T11:11:10Z</time>
      </trkpt>
      <trkpt lat="47.408745" lon="13.394505">
        <ele>848.00</ele>
        <time>2012-05-02T11:11:11Z</time>
      </trkpt>
      <trkpt lat="47.408791" lon="13.394428">
        <ele>848.80</ele>
        <time>2012-05-02T11:11:12Z</time>
      </trkpt>
      <trkpt lat="47.408943" lon="13.394191">
        <ele>848.80</ele>
        <time>2012-05-02T11:11:16Z</time>
      </trkpt>
      <trkpt lat="47.409073" lon="13.394044">
        <ele>849.20</ele>
        <time>2012-05-02T11:11:19Z</time>
      </trkpt>
      <trkpt lat="47.409115" lon="13.393994">
        <ele>849.60</ele>
        <time>2012-05-02T11:11:20Z</time>
      </trkpt>
      <trkpt lat="47.409157" lon="13.393950">
        <ele>850.00</ele>
        <time>2012-05-02T11:11:21Z</time>
      </trkpt>
      <trkpt lat="47.409199" lon="13.393913">
        <ele>850.40</ele>
        <time>2012-05-02T11:11:22Z</time>
      </trkpt>
      <trkpt lat="47.409245" lon="13.393876">
        <ele>850.80</ele>
        <time>2012-05-02T11:11:23Z</time>
      </trkpt>
      <trkpt lat="47.409294" lon="13.393835">
        <ele>850.80</ele>
        <time>2012-05-02T11:11:24Z</time>
      </trkpt>
      <trkpt lat="47.409660" lon="13.393497">
        <ele>850.80</ele>
        <time>2012-05-02T11:11:31Z</time>
      </trkpt>
      <trkpt lat="47.409954" lon="13.393159">
        <ele>850.80</ele>
        <time>2012-05-02T11:11:36Z</time>
      </trkpt>
      <trkpt lat="47.410332" lon="13.392659">
        <ele>850.80</ele>
        <time>2012-05-02T11:11:42Z</time>
      </trkpt>
      <trkpt lat="47.410793" lon="13.392046">
        <ele>850.80</ele>
        <time>2012-05-02T11:11:49Z</time>
      </trkpt>
      <trkpt lat="47.410980" lon="13.391768">
        <ele>850.80</ele>
        <time>2012-05-02T11:11:52Z</time>
      </trkpt>
      <trkpt lat="47.411121" lon="13.391617">
        <ele>850.80</ele>
        <time>2012-05-02T11:11:54Z</time>
      </trkpt>
      <trkpt lat="47.411587" lon="13.391145">
        <ele>850.80</ele>
        <time>2012-05-02T11:12:01Z</time>
      </trkpt>
      <trkpt lat="47.412102" lon="13.390671">
        <ele>850.80</ele>
        <time>2012-05-02T11:12:09Z</time>
      </trkpt>
      <trkpt lat="47.412594" lon="13.390218">
        <ele>850.80</ele>
        <time>2012-05-02T11:12:17Z</time>
      </trkpt>
      <trkpt lat="47.412655" lon="13.390162">
        <ele>850.80</ele>
        <time>2012-05-02T11:12:18Z</time>
      </trkpt>
      <trkpt lat="47.413174" lon="13.389689">
        <ele>850.80</ele>
        <time>2012-05-02T11:12:26Z</time>
      </trkpt>
      <trkpt lat="47.413670" lon="13.389242">
        <ele>850.80</ele>
        <time>2012-05-02T11:12:33Z</time>
      </trkpt>
      <trkpt lat="47.413746" lon="13.389176">
        <ele>850.80</ele>
        <time>2012-05-02T11:12:34Z</time>
      </trkpt>
      <trkpt lat="47.413898" lon="13.389039">
        <ele>850.40</ele>
        <time>2012-05-02T11:12:36Z</time>
      </trkpt>
      <trkpt lat="47.413971" lon="13.388969">
        <ele>850.00</ele>
        <time>2012-05-02T11:12:37Z</time>
      </trkpt>
      <trkpt lat="47.414043" lon="13.388897">
        <ele>849.60</ele>
        <time>2012-05-02T11:12:38Z</time>
      </trkpt>
      <trkpt lat="47.414116" lon="13.388817">
        <ele>849.20</ele>
        <time>2012-05-02T11:12:39Z</time>
      </trkpt>
      <trkpt lat="47.414185" lon="13.388735">
        <ele>848.80</ele>
        <time>2012-05-02T11:12:40Z</time>
      </trkpt>
      <trkpt lat="47.414253" lon="13.388651">
        <ele>848.80</ele>
        <time>2012-05-02T11:12:41Z</time>
      </trkpt>
      <trkpt lat="47.414467" lon="13.388373">
        <ele>848.40</ele>
        <time>2012-05-02T11:12:44Z</time>
      </trkpt>
      <trkpt lat="47.414532" lon="13.388273">
        <ele>848.00</ele>
        <time>2012-05-02T11:12:45Z</time>
      </trkpt>
      <trkpt lat="47.414593" lon="13.388175">
        <ele>847.60</ele>
        <time>2012-05-02T11:12:46Z</time>
      </trkpt>
      <trkpt lat="47.414658" lon="13.388072">
        <ele>847.20</ele>
        <time>2012-05-02T11:12:47Z</time>
      </trkpt>
      <trkpt lat="47.414719" lon="13.387968">
        <ele>846.80</ele>
        <time>2012-05-02T11:12:48Z</time>
      </trkpt>
      <trkpt lat="47.414917" lon="13.387537">
        <ele>846.80</ele>
        <time>2012-05-02T11:12:52Z</time>
      </trkpt>
      <trkpt lat="47.414955" lon="13.387424">
        <ele>846.80</ele>
        <time>2012-05-02T11:12:53Z</time>
      </trkpt>
      <trkpt lat="47.415173" lon="13.386603">
        <ele>846.80</ele>
        <time>2012-05-02T11:13:00Z</time>
      </trkpt>
      <trkpt lat="47.415340" lon="13.385723">
        <ele>846.80</ele>
        <time>2012-05-02T11:13:07Z</time>
      </trkpt>
      <trkpt lat="47.415363" lon="13.385592">
        <ele>846.80</ele>
        <time>2012-05-02T11:13:08Z</time>
      </trkpt>
      <trkpt lat="47.415489" lon="13.384901">
        <ele>846.40</ele>
        <time>2012-05-02T11:13:13Z</time>
      </trkpt>
      <trkpt lat="47.415516" lon="13.384756">
        <ele>845.80</ele>
        <time>2012-05-02T11:13:14Z</time>
      </trkpt>
      <trkpt lat="47.415543" lon="13.384604">
        <ele>845.00</ele>
        <time>2012-05-02T11:13:15Z</time>
      </trkpt>
      <trkpt lat="47.415573" lon="13.384449">
        <ele>844.60</ele>
        <time>2012-05-02T11:13:16Z</time>
      </trkpt>
      <trkpt lat="47.415604" lon="13.384293">
        <ele>844.20</ele>
        <time>2012-05-02T11:13:17Z</time>
      </trkpt>
      <trkpt lat="47.415638" lon="13.384133">
        <ele>843.60</ele>
        <time>2012-05-02T11:13:18Z</time>
      </trkpt>
      <trkpt lat="47.415668" lon="13.383969">
        <ele>843.20</ele>
        <time>2012-05-02T11:13:19Z</time>
      </trkpt>
      <trkpt lat="47.415707" lon="13.383802">
        <ele>842.60</ele>
        <time>2012-05-02T11:13:20Z</time>
      </trkpt>
      <trkpt lat="47.415741" lon="13.383636">
        <ele>842.20</ele>
        <time>2012-05-02T11:13:21Z</time>
      </trkpt>
      <trkpt lat="47.415787" lon="13.383462">
        <ele>841.60</ele>
        <time>2012-05-02T11:13:22Z</time>
      </trkpt>
      <trkpt lat="47.415840" lon="13.383306">
        <ele>841.20</ele>
        <time>2012-05-02T11:13:23Z</time>
      </trkpt>
      <trkpt lat="47.415894" lon="13.383147">
        <ele>840.60</ele>
        <time>2012-05-02T11:13:24Z</time>
      </trkpt>
      <trkpt lat="47.415951" lon="13.382991">
        <ele>840.20</ele>
        <time>2012-05-02T11:13:25Z</time>
      </trkpt>
      <trkpt lat="47.416016" lon="13.382841">
        <ele>839.80</ele>
        <time>2012-05-02T11:13:26Z</time>
      </trkpt>
      <trkpt lat="47.416077" lon="13.382692">
        <ele>839.40</ele>
        <time>2012-05-02T11:13:27Z</time>
      </trkpt>
      <trkpt lat="47.416142" lon="13.382545">
        <ele>839.00</ele>
        <time>2012-05-02T11:13:28Z</time>
      </trkpt>
      <trkpt lat="47.416206" lon="13.382392">
        <ele>838.60</ele>
        <time>2012-05-02T11:13:29Z</time>
      </trkpt>
      <trkpt lat="47.416271" lon="13.382249">
        <ele>838.20</ele>
        <time>2012-05-02T11:13:30Z</time>
      </trkpt>
      <trkpt lat="47.416340" lon="13.382105">
        <ele>838.20</ele>
        <time>2012-05-02T11:13:31Z</time>
      </trkpt>
      <trkpt lat="47.416405" lon="13.381957">
        <ele>837.80</ele>
        <time>2012-05-02T11:13:32Z</time>
      </trkpt>
      <trkpt lat="47.416466" lon="13.381805">
        <ele>837.40</ele>
        <time>2012-05-02T11:13:33Z</time>
      </trkpt>
      <trkpt lat="47.416534" lon="13.381655">
        <ele>837.00</ele>
        <time>2012-05-02T11:13:34Z</time>
      </trkpt>
      <trkpt lat="47.416603" lon="13.381508">
        <ele>836.20</ele>
        <time>2012-05-02T11:13:35Z</time>
      </trkpt>
      <trkpt lat="47.416679" lon="13.381359">
        <ele>835.60</ele>
        <time>2012-05-02T11:13:36Z</time>
      </trkpt>
      <trkpt lat="47.416756" lon="13.381199">
        <ele>835.00</ele>
        <time>2012-05-02T11:13:37Z</time>
      </trkpt>
      <trkpt lat="47.416828" lon="13.381041">
        <ele>834.40</ele>
        <time>2012-05-02T11:13:38Z</time>
      </trkpt>
      <trkpt lat="47.416908" lon="13.380886">
        <ele>834.00</ele>
        <time>2012-05-02T11:13:39Z</time>
      </trkpt>
      <trkpt lat="47.416985" lon="13.380723">
        <ele>832.60</ele>
        <time>2012-05-02T11:13:40Z</time>
      </trkpt>
      <trkpt lat="47.417068" lon="13.380559">
        <ele>831.80</ele>
        <time>2012-05-02T11:13:41Z</time>
      </trkpt>
      <trkpt lat="47.417145" lon="13.380393">
        <ele>831.00</ele>
        <time>2012-05-02T11:13:42Z</time>
      </trkpt>
      <trkpt lat="47.417229" lon="13.380226">
        <ele>830.20</ele>
        <time>2012-05-02T11:13:43Z</time>
      </trkpt>
      <trkpt lat="47.417316" lon="13.380053">
        <ele>829.40</ele>
        <time>2012-05-02T11:13:44Z</time>
      </trkpt>
      <trkpt lat="47.417397" lon="13.379883">
        <ele>828.60</ele>
        <time>2012-05-02T11:13:45Z</time>
      </trkpt>
      <trkpt lat="47.417480" lon="13.379719">
        <ele>827.80</ele>
        <time>2012-05-02T11:13:46Z</time>
      </trkpt>
      <trkpt lat="47.417557" lon="13.379548">
        <ele>826.80</ele>
        <time>2012-05-02T11:13:47Z</time>
      </trkpt>
      <trkpt lat="47.417625" lon="13.379367">
        <ele>826.00</ele>
        <time>2012-05-02T11:13:48Z</time>
      </trkpt>
      <trkpt lat="47.417686" lon="13.379181">
        <ele>825.20</ele>
        <time>2012-05-02T11:13:49Z</time>
      </trkpt>
      <trkpt lat="47.417736" lon="13.378986">
        <ele>824.40</ele>
        <time>2012-05-02T11:13:50Z</time>
      </trkpt>
      <trkpt lat="47.417786" lon="13.378787">
        <ele>823.60</ele>
        <time>2012-05-02T11:13:51Z</time>
      </trkpt>
      <trkpt lat="47.417831" lon="13.378572">
        <ele>822.60</ele>
        <time>2012-05-02T11:13:52Z</time>
      </trkpt>
      <trkpt lat="47.417870" lon="13.378363">
        <ele>821.80</ele>
        <time>2012-05-02T11:13:53Z</time>
      </trkpt>
      <trkpt lat="47.417908" lon="13.378155">
        <ele>821.00</ele>
        <time>2012-05-02T11:13:54Z</time>
      </trkpt>
      <trkpt lat="47.417946" lon="13.377945">
        <ele>820.00</ele>
        <time>2012-05-02T11:13:55Z</time>
      </trkpt>
      <trkpt lat="47.417992" lon="13.377736">
        <ele>819.20</ele>
        <time>2012-05-02T11:13:56Z</time>
      </trkpt>
      <trkpt lat="47.418034" lon="13.377526">
        <ele>818.00</ele>
        <time>2012-05-02T11:13:57Z</time>
      </trkpt>
      <trkpt lat="47.418072" lon="13.377312">
        <ele>817.00</ele>
        <time>2012-05-02T11:13:58Z</time>
      </trkpt>
      <trkpt lat="47.418118" lon="13.377093">
        <ele>815.80</ele>
        <time>2012-05-02T11:13:59Z</time>
      </trkpt>
      <trkpt lat="47.418159" lon="13.376865">
        <ele>814.40</ele>
        <time>2012-05-02T11:14:00Z</time>
      </trkpt>
      <trkpt lat="47.418201" lon="13.376647">
        <ele>813.20</ele>
        <time>2012-05-02T11:14:01Z</time>
      </trkpt>
      <trkpt lat="47.418243" lon="13.376430">
        <ele>812.20</ele>
        <time>2012-05-02T11:14:02Z</time>
      </trkpt>
      <trkpt lat="47.418289" lon="13.376211">
        <ele>811.20</ele>
        <time>2012-05-02T11:14:03Z</time>
      </trkpt>
      <trkpt lat="47.418327" lon="13.375992">
        <ele>809.20</ele>
        <time>2012-05-02T11:14:04Z</time>
      </trkpt>
      <trkpt lat="47.418369" lon="13.375769">
        <ele>808.00</ele>
        <time>2012-05-02T11:14:05Z</time>
      </trkpt>
      <trkpt lat="47.418415" lon="13.375547">
        <ele>807.20</ele>
        <time>2012-05-02T11:14:06Z</time>
      </trkpt>
      <trkpt lat="47.418449" lon="13.375312">
        <ele>806.40</ele>
        <time>2012-05-02T11:14:07Z</time>
      </trkpt>
      <trkpt lat="47.418491" lon="13.375093">
        <ele>805.40</ele>
        <time>2012-05-02T11:14:08Z</time>
      </trkpt>
      <trkpt lat="47.418533" lon="13.374872">
        <ele>804.40</ele>
        <time>2012-05-02T11:14:09Z</time>
      </trkpt>
      <trkpt lat="47.418575" lon="13.374653">
        <ele>803.20</ele>
        <time>2012-05-02T11:14:10Z</time>
      </trkpt>
      <trkpt lat="47.418613" lon="13.374430">
        <ele>801.80</ele>
        <time>2012-05-02T11:14:11Z</time>
      </trkpt>
      <trkpt lat="47.418652" lon="13.374210">
        <ele>800.60</ele>
        <time>2012-05-02T11:14:12Z</time>
      </trkpt>
      <trkpt lat="47.418697" lon="13.373990">
        <ele>799.20</ele>
        <time>2012-05-02T11:14:13Z</time>
      </trkpt>
      <trkpt lat="47.418747" lon="13.373777">
        <ele>797.80</ele>
        <time>2012-05-02T11:14:14Z</time>
      </trkpt>
      <trkpt lat="47.418800" lon="13.373559">
        <ele>796.60</ele>
        <time>2012-05-02T11:14:15Z</time>
      </trkpt>
      <trkpt lat="47.418850" lon="13.373349">
        <ele>795.20</ele>
        <time>2012-05-02T11:14:16Z</time>
      </trkpt>
      <trkpt lat="47.418907" lon="13.373149">
        <ele>794.00</ele>
        <time>2012-05-02T11:14:17Z</time>
      </trkpt>
      <trkpt lat="47.418972" lon="13.372954">
        <ele>792.60</ele>
        <time>2012-05-02T11:14:18Z</time>
      </trkpt>
      <trkpt lat="47.419044" lon="13.372766">
        <ele>791.20</ele>
        <time>2012-05-02T11:14:19Z</time>
      </trkpt>
      <trkpt lat="47.419117" lon="13.372586">
        <ele>790.20</ele>
        <time>2012-05-02T11:14:20Z</time>
      </trkpt>
      <trkpt lat="47.419197" lon="13.372416">
        <ele>789.20</ele>
        <time>2012-05-02T11:14:21Z</time>
      </trkpt>
      <trkpt lat="47.419285" lon="13.372249">
        <ele>788.20</ele>
        <time>2012-05-02T11:14:22Z</time>
      </trkpt>
      <trkpt lat="47.419373" lon="13.372093">
        <ele>787.20</ele>
        <time>2012-05-02T11:14:23Z</time>
      </trkpt>
      <trkpt lat="47.419460" lon="13.371944">
        <ele>786.40</ele>
        <time>2012-05-02T11:14:24Z</time>
      </trkpt>
      <trkpt lat="47.419540" lon="13.371799">
        <ele>785.80</ele>
        <time>2012-05-02T11:14:25Z</time>
      </trkpt>
      <trkpt lat="47.419624" lon="13.371653">
        <ele>785.20</ele>
        <time>2012-05-02T11:14:26Z</time>
      </trkpt>
      <trkpt lat="47.419701" lon="13.371512">
        <ele>784.60</ele>
        <time>2012-05-02T11:14:27Z</time>
      </trkpt>
      <trkpt lat="47.419781" lon="13.371369">
        <ele>783.80</ele>
        <time>2012-05-02T11:14:28Z</time>
      </trkpt>
      <trkpt lat="47.419926" lon="13.371068">
        <ele>783.40</ele>
        <time>2012-05-02T11:14:30Z</time>
      </trkpt>
      <trkpt lat="47.419987" lon="13.370916">
        <ele>783.00</ele>
        <time>2012-05-02T11:14:31Z</time>
      </trkpt>
      <trkpt lat="47.420044" lon="13.370761">
        <ele>782.60</ele>
        <time>2012-05-02T11:14:32Z</time>
      </trkpt>
      <trkpt lat="47.420094" lon="13.370601">
        <ele>782.20</ele>
        <time>2012-05-02T11:14:33Z</time>
      </trkpt>
      <trkpt lat="47.420143" lon="13.370440">
        <ele>781.60</ele>
        <time>2012-05-02T11:14:34Z</time>
      </trkpt>
      <trkpt lat="47.420361" lon="13.369643">
        <ele>781.20</ele>
        <time>2012-05-02T11:14:39Z</time>
      </trkpt>
      <trkpt lat="47.420403" lon="13.369492">
        <ele>780.80</ele>
        <time>2012-05-02T11:14:40Z</time>
      </trkpt>
      <trkpt lat="47.420448" lon="13.369339">
        <ele>780.40</ele>
        <time>2012-05-02T11:14:41Z</time>
      </trkpt>
      <trkpt lat="47.420490" lon="13.369187">
        <ele>779.80</ele>
        <time>2012-05-02T11:14:42Z</time>
      </trkpt>
      <trkpt lat="47.420532" lon="13.369035">
        <ele>779.20</ele>
        <time>2012-05-02T11:14:43Z</time>
      </trkpt>
      <trkpt lat="47.420578" lon="13.368887">
        <ele>778.60</ele>
        <time>2012-05-02T11:14:44Z</time>
      </trkpt>
      <trkpt lat="47.420628" lon="13.368731">
        <ele>778.00</ele>
        <time>2012-05-02T11:14:45Z</time>
      </trkpt>
      <trkpt lat="47.420673" lon="13.368585">
        <ele>777.40</ele>
        <time>2012-05-02T11:14:46Z</time>
      </trkpt>
      <trkpt lat="47.420761" lon="13.368292">
        <ele>777.40</ele>
        <time>2012-05-02T11:14:48Z</time>
      </trkpt>
      <trkpt lat="47.420975" lon="13.367423">
        <ele>777.40</ele>
        <time>2012-05-02T11:14:54Z</time>
      </trkpt>
      <trkpt lat="47.421001" lon="13.367278">
        <ele>777.40</ele>
        <time>2012-05-02T11:14:55Z</time>
      </trkpt>
      <trkpt lat="47.421047" lon="13.366982">
        <ele>777.00</ele>
        <time>2012-05-02T11:14:57Z</time>
      </trkpt>
      <trkpt lat="47.421066" lon="13.366833">
        <ele>776.40</ele>
        <time>2012-05-02T11:14:58Z</time>
      </trkpt>
      <trkpt lat="47.421085" lon="13.366682">
        <ele>776.00</ele>
        <time>2012-05-02T11:14:59Z</time>
      </trkpt>
      <trkpt lat="47.421097" lon="13.366532">
        <ele>775.60</ele>
        <time>2012-05-02T11:15:00Z</time>
      </trkpt>
      <trkpt lat="47.421108" lon="13.366373">
        <ele>775.20</ele>
        <time>2012-05-02T11:15:01Z</time>
      </trkpt>
      <trkpt lat="47.421120" lon="13.365470">
        <ele>775.20</ele>
        <time>2012-05-02T11:15:07Z</time>
      </trkpt>
      <trkpt lat="47.421108" lon="13.364689">
        <ele>774.80</ele>
        <time>2012-05-02T11:15:12Z</time>
      </trkpt>
      <trkpt lat="47.421108" lon="13.364528">
        <ele>774.40</ele>
        <time>2012-05-02T11:15:13Z</time>
      </trkpt>
      <trkpt lat="47.421104" lon="13.364368">
        <ele>773.80</ele>
        <time>2012-05-02T11:15:14Z</time>
      </trkpt>
      <trkpt lat="47.421108" lon="13.364200">
        <ele>773.40</ele>
        <time>2012-05-02T11:15:15Z</time>
      </trkpt>
      <trkpt lat="47.421108" lon="13.364038">
        <ele>773.00</ele>
        <time>2012-05-02T11:15:16Z</time>
      </trkpt>
      <trkpt lat="47.421101" lon="13.363542">
        <ele>772.20</ele>
        <time>2012-05-02T11:15:19Z</time>
      </trkpt>
      <trkpt lat="47.421101" lon="13.363375">
        <ele>771.60</ele>
        <time>2012-05-02T11:15:20Z</time>
      </trkpt>
      <trkpt lat="47.421101" lon="13.363208">
        <ele>771.20</ele>
        <time>2012-05-02T11:15:21Z</time>
      </trkpt>
      <trkpt lat="47.421097" lon="13.363031">
        <ele>770.80</ele>
        <time>2012-05-02T11:15:22Z</time>
      </trkpt>
      <trkpt lat="47.421089" lon="13.362189">
        <ele>770.80</ele>
        <time>2012-05-02T11:15:27Z</time>
      </trkpt>
      <trkpt lat="47.421085" lon="13.361344">
        <ele>770.80</ele>
        <time>2012-05-02T11:15:32Z</time>
      </trkpt>
      <trkpt lat="47.421082" lon="13.360844">
        <ele>770.20</ele>
        <time>2012-05-02T11:15:35Z</time>
      </trkpt>
      <trkpt lat="47.421078" lon="13.360678">
        <ele>769.80</ele>
        <time>2012-05-02T11:15:36Z</time>
      </trkpt>
      <trkpt lat="47.421078" lon="13.360514">
        <ele>769.40</ele>
        <time>2012-05-02T11:15:37Z</time>
      </trkpt>
      <trkpt lat="47.421082" lon="13.360340">
        <ele>769.00</ele>
        <time>2012-05-02T11:15:38Z</time>
      </trkpt>
      <trkpt lat="47.421082" lon="13.360176">
        <ele>768.60</ele>
        <time>2012-05-02T11:15:39Z</time>
      </trkpt>
      <trkpt lat="47.421078" lon="13.360013">
        <ele>768.20</ele>
        <time>2012-05-02T11:15:40Z</time>
      </trkpt>
      <trkpt lat="47.421074" lon="13.359848">
        <ele>767.80</ele>
        <time>2012-05-02T11:15:41Z</time>
      </trkpt>
      <trkpt lat="47.421074" lon="13.359684">
        <ele>767.40</ele>
        <time>2012-05-02T11:15:42Z</time>
      </trkpt>
      <trkpt lat="47.421074" lon="13.359519">
        <ele>766.60</ele>
        <time>2012-05-02T11:15:43Z</time>
      </trkpt>
      <trkpt lat="47.421074" lon="13.359021">
        <ele>766.00</ele>
        <time>2012-05-02T11:15:46Z</time>
      </trkpt>
      <trkpt lat="47.421074" lon="13.358858">
        <ele>765.60</ele>
        <time>2012-05-02T11:15:47Z</time>
      </trkpt>
      <trkpt lat="47.421074" lon="13.358690">
        <ele>765.20</ele>
        <time>2012-05-02T11:15:48Z</time>
      </trkpt>
      <trkpt lat="47.421078" lon="13.358524">
        <ele>764.80</ele>
        <time>2012-05-02T11:15:49Z</time>
      </trkpt>
      <trkpt lat="47.421078" lon="13.358359">
        <ele>764.40</ele>
        <time>2012-05-02T11:15:50Z</time>
      </trkpt>
      <trkpt lat="47.421085" lon="13.357530">
        <ele>764.40</ele>
        <time>2012-05-02T11:15:55Z</time>
      </trkpt>
      <trkpt lat="47.421085" lon="13.357368">
        <ele>764.00</ele>
        <time>2012-05-02T11:15:56Z</time>
      </trkpt>
      <trkpt lat="47.421082" lon="13.357202">
        <ele>763.60</ele>
        <time>2012-05-02T11:15:57Z</time>
      </trkpt>
      <trkpt lat="47.421082" lon="13.357035">
        <ele>763.20</ele>
        <time>2012-05-02T11:15:58Z</time>
      </trkpt>
      <trkpt lat="47.421078" lon="13.356868">
        <ele>762.80</ele>
        <time>2012-05-02T11:15:59Z</time>
      </trkpt>
      <trkpt lat="47.421082" lon="13.356693">
        <ele>762.40</ele>
        <time>2012-05-02T11:16:00Z</time>
      </trkpt>
      <trkpt lat="47.421082" lon="13.356523">
        <ele>762.00</ele>
        <time>2012-05-02T11:16:01Z</time>
      </trkpt>
      <trkpt lat="47.421082" lon="13.356353">
        <ele>761.60</ele>
        <time>2012-05-02T11:16:02Z</time>
      </trkpt>
      <trkpt lat="47.421082" lon="13.356184">
        <ele>761.20</ele>
        <time>2012-05-02T11:16:03Z</time>
      </trkpt>
      <trkpt lat="47.421085" lon="13.356012">
        <ele>760.80</ele>
        <time>2012-05-02T11:16:04Z</time>
      </trkpt>
      <trkpt lat="47.421085" lon="13.355844">
        <ele>760.40</ele>
        <time>2012-05-02T11:16:05Z</time>
      </trkpt>
      <trkpt lat="47.421085" lon="13.355338">
        <ele>760.40</ele>
        <time>2012-05-02T11:16:08Z</time>
      </trkpt>
      <trkpt lat="47.421093" lon="13.354537">
        <ele>760.40</ele>
        <time>2012-05-02T11:16:13Z</time>
      </trkpt>
      <trkpt lat="47.421097" lon="13.354376">
        <ele>760.40</ele>
        <time>2012-05-02T11:16:14Z</time>
      </trkpt>
      <trkpt lat="47.421097" lon="13.354218">
        <ele>760.40</ele>
        <time>2012-05-02T11:16:15Z</time>
      </trkpt>
      <trkpt lat="47.421097" lon="13.353727">
        <ele>759.80</ele>
        <time>2012-05-02T11:16:18Z</time>
      </trkpt>
      <trkpt lat="47.421101" lon="13.353567">
        <ele>759.40</ele>
        <time>2012-05-02T11:16:19Z</time>
      </trkpt>
      <trkpt lat="47.421104" lon="13.353405">
        <ele>758.80</ele>
        <time>2012-05-02T11:16:20Z</time>
      </trkpt>
      <trkpt lat="47.421108" lon="13.353241">
        <ele>758.40</ele>
        <time>2012-05-02T11:16:21Z</time>
      </trkpt>
      <trkpt lat="47.421108" lon="13.353079">
        <ele>757.80</ele>
        <time>2012-05-02T11:16:22Z</time>
      </trkpt>
      <trkpt lat="47.421108" lon="13.352737">
        <ele>757.40</ele>
        <time>2012-05-02T11:16:24Z</time>
      </trkpt>
      <trkpt lat="47.421104" lon="13.352569">
        <ele>757.00</ele>
        <time>2012-05-02T11:16:25Z</time>
      </trkpt>
      <trkpt lat="47.421104" lon="13.352397">
        <ele>756.60</ele>
        <time>2012-05-02T11:16:26Z</time>
      </trkpt>
      <trkpt lat="47.421104" lon="13.352228">
        <ele>756.00</ele>
        <time>2012-05-02T11:16:27Z</time>
      </trkpt>
      <trkpt lat="47.421104" lon="13.352057">
        <ele>755.60</ele>
        <time>2012-05-02T11:16:28Z</time>
      </trkpt>
      <trkpt lat="47.421112" lon="13.351187">
        <ele>755.60</ele>
        <time>2012-05-02T11:16:33Z</time>
      </trkpt>
      <trkpt lat="47.421112" lon="13.351012">
        <ele>754.80</ele>
        <time>2012-05-02T11:16:34Z</time>
      </trkpt>
      <trkpt lat="47.421108" lon="13.350840">
        <ele>754.40</ele>
        <time>2012-05-02T11:16:35Z</time>
      </trkpt>
      <trkpt lat="47.421108" lon="13.350665">
        <ele>754.00</ele>
        <time>2012-05-02T11:16:36Z</time>
      </trkpt>
      <trkpt lat="47.421112" lon="13.350493">
        <ele>753.60</ele>
        <time>2012-05-02T11:16:37Z</time>
      </trkpt>
      <trkpt lat="47.421112" lon="13.350315">
        <ele>753.60</ele>
        <time>2012-05-02T11:16:38Z</time>
      </trkpt>
      <trkpt lat="47.421116" lon="13.349821">
        <ele>753.20</ele>
        <time>2012-05-02T11:16:41Z</time>
      </trkpt>
      <trkpt lat="47.421116" lon="13.349659">
        <ele>752.80</ele>
        <time>2012-05-02T11:16:42Z</time>
      </trkpt>
      <trkpt lat="47.421124" lon="13.349500">
        <ele>752.40</ele>
        <time>2012-05-02T11:16:43Z</time>
      </trkpt>
      <trkpt lat="47.421127" lon="13.349338">
        <ele>752.00</ele>
        <time>2012-05-02T11:16:44Z</time>
      </trkpt>
      <trkpt lat="47.421143" lon="13.349179">
        <ele>751.60</ele>
        <time>2012-05-02T11:16:45Z</time>
      </trkpt>
      <trkpt lat="47.421188" lon="13.348865">
        <ele>751.60</ele>
        <time>2012-05-02T11:16:47Z</time>
      </trkpt>
      <trkpt lat="47.421276" lon="13.348586">
        <ele>751.60</ele>
        <time>2012-05-02T11:16:49Z</time>
      </trkpt>
      <trkpt lat="47.421391" lon="13.348340">
        <ele>751.20</ele>
        <time>2012-05-02T11:16:51Z</time>
      </trkpt>
      <trkpt lat="47.421452" lon="13.348230">
        <ele>750.80</ele>
        <time>2012-05-02T11:16:52Z</time>
      </trkpt>
      <trkpt lat="47.421516" lon="13.348125">
        <ele>750.40</ele>
        <time>2012-05-02T11:16:53Z</time>
      </trkpt>
      <trkpt lat="47.421585" lon="13.348012">
        <ele>750.00</ele>
        <time>2012-05-02T11:16:54Z</time>
      </trkpt>
      <trkpt lat="47.421646" lon="13.347905">
        <ele>749.60</ele>
        <time>2012-05-02T11:16:55Z</time>
      </trkpt>
      <trkpt lat="47.421745" lon="13.347677">
        <ele>749.60</ele>
        <time>2012-05-02T11:16:57Z</time>
      </trkpt>
      <trkpt lat="47.421783" lon="13.347550">
        <ele>749.60</ele>
        <time>2012-05-02T11:16:58Z</time>
      </trkpt>
      <trkpt lat="47.421799" lon="13.347156">
        <ele>749.60</ele>
        <time>2012-05-02T11:17:01Z</time>
      </trkpt>
      <trkpt lat="47.421764" lon="13.346902">
        <ele>749.60</ele>
        <time>2012-05-02T11:17:03Z</time>
      </trkpt>
      <trkpt lat="47.421745" lon="13.346786">
        <ele>749.20</ele>
        <time>2012-05-02T11:17:04Z</time>
      </trkpt>
      <trkpt lat="47.421726" lon="13.346668">
        <ele>748.80</ele>
        <time>2012-05-02T11:17:05Z</time>
      </trkpt>
      <trkpt lat="47.421707" lon="13.346553">
        <ele>748.40</ele>
        <time>2012-05-02T11:17:06Z</time>
      </trkpt>
      <trkpt lat="47.421688" lon="13.346437">
        <ele>747.80</ele>
        <time>2012-05-02T11:17:07Z</time>
      </trkpt>
      <trkpt lat="47.421673" lon="13.346320">
        <ele>747.40</ele>
        <time>2012-05-02T11:17:08Z</time>
      </trkpt>
      <trkpt lat="47.421661" lon="13.346196">
        <ele>747.40</ele>
        <time>2012-05-02T11:17:09Z</time>
      </trkpt>
      <trkpt lat="47.421658" lon="13.345965">
        <ele>747.40</ele>
        <time>2012-05-02T11:17:11Z</time>
      </trkpt>
      <trkpt lat="47.421669" lon="13.345760">
        <ele>747.00</ele>
        <time>2012-05-02T11:17:13Z</time>
      </trkpt>
      <trkpt lat="47.421677" lon="13.345685">
        <ele>746.60</ele>
        <time>2012-05-02T11:17:14Z</time>
      </trkpt>
      <trkpt lat="47.421684" lon="13.345622">
        <ele>746.20</ele>
        <time>2012-05-02T11:17:15Z</time>
      </trkpt>
      <trkpt lat="47.421700" lon="13.345560">
        <ele>745.80</ele>
        <time>2012-05-02T11:17:16Z</time>
      </trkpt>
      <trkpt lat="47.421711" lon="13.345507">
        <ele>745.40</ele>
        <time>2012-05-02T11:17:17Z</time>
      </trkpt>
      <trkpt lat="47.421768" lon="13.345340">
        <ele>745.40</ele>
        <time>2012-05-02T11:17:21Z</time>
      </trkpt>
      <trkpt lat="47.421806" lon="13.345270">
        <ele>744.60</ele>
        <time>2012-05-02T11:17:23Z</time>
      </trkpt>
      <trkpt lat="47.421833" lon="13.345236">
        <ele>744.20</ele>
        <time>2012-05-02T11:17:24Z</time>
      </trkpt>
      <trkpt lat="47.421860" lon="13.345209">
        <ele>743.80</ele>
        <time>2012-05-02T11:17:25Z</time>
      </trkpt>
      <trkpt lat="47.421890" lon="13.345186">
        <ele>743.40</ele>
        <time>2012-05-02T11:17:26Z</time>
      </trkpt>
      <trkpt lat="47.421932" lon="13.345173">
        <ele>743.40</ele>
        <time>2012-05-02T11:17:27Z</time>
      </trkpt>
      <trkpt lat="47.422092" lon="13.345230">
        <ele>743.40</ele>
        <time>2012-05-02T11:17:31Z</time>
      </trkpt>
      <trkpt lat="47.422180" lon="13.345339">
        <ele>743.40</ele>
        <time>2012-05-02T11:17:35Z</time>
      </trkpt>
      <trkpt lat="47.422188" lon="13.345355">
        <ele>743.40</ele>
        <time>2012-05-02T11:17:37Z</time>
      </trkpt>
      <trkpt lat="47.422195" lon="13.345360">
        <ele>743.40</ele>
        <time>2012-05-02T11:17:42Z</time>
      </trkpt>
      <trkpt lat="47.422207" lon="13.345371">
        <ele>743.40</ele>
        <time>2012-05-02T11:17:43Z</time>
      </trkpt>
      <trkpt lat="47.422306" lon="13.345477">
        <ele>743.40</ele>
        <time>2012-05-02T11:17:49Z</time>
      </trkpt>
      <trkpt lat="47.422440" lon="13.345599">
        <ele>743.40</ele>
        <time>2012-05-02T11:17:55Z</time>
      </trkpt>
      <trkpt lat="47.422539" lon="13.345675">
        <ele>743.40</ele>
        <time>2012-05-02T11:18:00Z</time>
      </trkpt>
      <trkpt lat="47.422562" lon="13.345690">
        <ele>743.80</ele>
        <time>2012-05-02T11:18:01Z</time>
      </trkpt>
      <trkpt lat="47.422585" lon="13.345704">
        <ele>744.20</ele>
        <time>2012-05-02T11:18:02Z</time>
      </trkpt>
      <trkpt lat="47.422607" lon="13.345721">
        <ele>744.60</ele>
        <time>2012-05-02T11:18:03Z</time>
      </trkpt>
      <trkpt lat="47.422626" lon="13.345732">
        <ele>745.00</ele>
        <time>2012-05-02T11:18:04Z</time>
      </trkpt>
      <trkpt lat="47.422646" lon="13.345748">
        <ele>745.40</ele>
        <time>2012-05-02T11:18:05Z</time>
      </trkpt>
      <trkpt lat="47.422668" lon="13.345762">
        <ele>745.40</ele>
        <time>2012-05-02T11:18:06Z</time>
      </trkpt>
      <trkpt lat="47.422825" lon="13.345828">
        <ele>745.40</ele>
        <time>2012-05-02T11:18:12Z</time>
      </trkpt>
      <trkpt lat="47.422981" lon="13.345873">
        <ele>745.40</ele>
        <time>2012-05-02T11:18:18Z</time>
      </trkpt>
      <trkpt lat="47.423168" lon="13.345967">
        <ele>745.80</ele>
        <time>2012-05-02T11:18:24Z</time>
      </trkpt>
      <trkpt lat="47.423199" lon="13.345982">
        <ele>746.20</ele>
        <time>2012-05-02T11:18:25Z</time>
      </trkpt>
      <trkpt lat="47.423229" lon="13.345989">
        <ele>746.60</ele>
        <time>2012-05-02T11:18:26Z</time>
      </trkpt>
      <trkpt lat="47.423260" lon="13.345997">
        <ele>747.00</ele>
        <time>2012-05-02T11:18:27Z</time>
      </trkpt>
      <trkpt lat="47.423290" lon="13.346015">
        <ele>747.40</ele>
        <time>2012-05-02T11:18:28Z</time>
      </trkpt>
      <trkpt lat="47.423347" lon="13.346050">
        <ele>747.40</ele>
        <time>2012-05-02T11:18:30Z</time>
      </trkpt>
      <trkpt lat="47.423443" lon="13.346115">
        <ele>747.40</ele>
        <time>2012-05-02T11:18:36Z</time>
      </trkpt>
      <trkpt lat="47.423462" lon="13.346122">
        <ele>747.40</ele>
        <time>2012-05-02T11:18:39Z</time>
      </trkpt>
      <trkpt lat="47.423496" lon="13.346111">
        <ele>747.40</ele>
        <time>2012-05-02T11:21:05Z</time>
      </trkpt>
      <trkpt lat="47.423519" lon="13.346131">
        <ele>747.40</ele>
        <time>2012-05-02T11:21:06Z</time>
      </trkpt>
      <trkpt lat="47.423656" lon="13.346230">
        <ele>747.40</ele>
        <time>2012-05-02T11:21:12Z</time>
      </trkpt>
      <trkpt lat="47.423676" lon="13.346251">
        <ele>747.40</ele>
        <time>2012-05-02T11:21:13Z</time>
      </trkpt>
      <trkpt lat="47.423790" lon="13.346364">
        <ele>747.80</ele>
        <time>2012-05-02T11:21:18Z</time>
      </trkpt>
      <trkpt lat="47.423809" lon="13.346383">
        <ele>747.80</ele>
        <time>2012-05-02T11:21:19Z</time>
      </trkpt>
      <trkpt lat="47.423828" lon="13.346405">
        <ele>747.60</ele>
        <time>2012-05-02T11:21:20Z</time>
      </trkpt>
      <trkpt lat="47.423851" lon="13.346427">
        <ele>747.60</ele>
        <time>2012-05-02T11:21:21Z</time>
      </trkpt>
      <trkpt lat="47.423866" lon="13.346452">
        <ele>748.40</ele>
        <time>2012-05-02T11:21:22Z</time>
      </trkpt>
      <trkpt lat="47.423889" lon="13.346478">
        <ele>749.20</ele>
        <time>2012-05-02T11:21:23Z</time>
      </trkpt>
      <trkpt lat="47.423912" lon="13.346498">
        <ele>750.00</ele>
        <time>2012-05-02T11:21:24Z</time>
      </trkpt>
      <trkpt lat="47.423931" lon="13.346523">
        <ele>750.80</ele>
        <time>2012-05-02T11:21:25Z</time>
      </trkpt>
      <trkpt lat="47.423954" lon="13.346549">
        <ele>751.60</ele>
        <time>2012-05-02T11:21:26Z</time>
      </trkpt>
      <trkpt lat="47.424068" lon="13.346681">
        <ele>751.60</ele>
        <time>2012-05-02T11:21:31Z</time>
      </trkpt>
      <trkpt lat="47.424252" lon="13.346896">
        <ele>751.60</ele>
        <time>2012-05-02T11:21:39Z</time>
      </trkpt>
      <trkpt lat="47.424465" lon="13.347024">
        <ele>751.60</ele>
        <time>2012-05-02T11:21:45Z</time>
      </trkpt>
      <trkpt lat="47.424500" lon="13.347047">
        <ele>752.00</ele>
        <time>2012-05-02T11:21:46Z</time>
      </trkpt>
      <trkpt lat="47.424538" lon="13.347064">
        <ele>752.40</ele>
        <time>2012-05-02T11:21:47Z</time>
      </trkpt>
      <trkpt lat="47.424576" lon="13.347080">
        <ele>753.00</ele>
        <time>2012-05-02T11:21:48Z</time>
      </trkpt>
      <trkpt lat="47.424614" lon="13.347092">
        <ele>753.40</ele>
        <time>2012-05-02T11:21:49Z</time>
      </trkpt>
      <trkpt lat="47.424644" lon="13.347100">
        <ele>753.80</ele>
        <time>2012-05-02T11:21:50Z</time>
      </trkpt>
      <trkpt lat="47.424736" lon="13.347140">
        <ele>753.80</ele>
        <time>2012-05-02T11:21:53Z</time>
      </trkpt>
      <trkpt lat="47.425003" lon="13.347251">
        <ele>754.20</ele>
        <time>2012-05-02T11:22:02Z</time>
      </trkpt>
      <trkpt lat="47.425034" lon="13.347265">
        <ele>754.60</ele>
        <time>2012-05-02T11:22:03Z</time>
      </trkpt>
      <trkpt lat="47.425064" lon="13.347282">
        <ele>755.00</ele>
        <time>2012-05-02T11:22:04Z</time>
      </trkpt>
      <trkpt lat="47.425087" lon="13.347296">
        <ele>755.40</ele>
        <time>2012-05-02T11:22:05Z</time>
      </trkpt>
      <trkpt lat="47.425121" lon="13.347297">
        <ele>755.80</ele>
        <time>2012-05-02T11:22:06Z</time>
      </trkpt>
      <trkpt lat="47.425175" lon="13.347337">
        <ele>755.80</ele>
        <time>2012-05-02T11:22:08Z</time>
      </trkpt>
      <trkpt lat="47.425388" lon="13.347449">
        <ele>755.80</ele>
        <time>2012-05-02T11:22:15Z</time>
      </trkpt>
      <trkpt lat="47.425488" lon="13.347508">
        <ele>756.20</ele>
        <time>2012-05-02T11:22:18Z</time>
      </trkpt>
      <trkpt lat="47.425514" lon="13.347523">
        <ele>756.60</ele>
        <time>2012-05-02T11:22:19Z</time>
      </trkpt>
      <trkpt lat="47.425549" lon="13.347543">
        <ele>757.20</ele>
        <time>2012-05-02T11:22:20Z</time>
      </trkpt>
      <trkpt lat="47.425587" lon="13.347560">
        <ele>757.60</ele>
        <time>2012-05-02T11:22:21Z</time>
      </trkpt>
      <trkpt lat="47.425613" lon="13.347574">
        <ele>758.00</ele>
        <time>2012-05-02T11:22:22Z</time>
      </trkpt>
      <trkpt lat="47.425640" lon="13.347591">
        <ele>758.00</ele>
        <time>2012-05-02T11:22:23Z</time>
      </trkpt>
      <trkpt lat="47.425900" lon="13.347751">
        <ele>758.00</ele>
        <time>2012-05-02T11:22:32Z</time>
      </trkpt>
      <trkpt lat="47.425983" lon="13.347806">
        <ele>758.40</ele>
        <time>2012-05-02T11:22:35Z</time>
      </trkpt>
      <trkpt lat="47.426018" lon="13.347836">
        <ele>758.80</ele>
        <time>2012-05-02T11:22:36Z</time>
      </trkpt>
      <trkpt lat="47.426052" lon="13.347856">
        <ele>759.20</ele>
        <time>2012-05-02T11:22:37Z</time>
      </trkpt>
      <trkpt lat="47.426090" lon="13.347876">
        <ele>759.60</ele>
        <time>2012-05-02T11:22:38Z</time>
      </trkpt>
      <trkpt lat="47.426121" lon="13.347888">
        <ele>760.00</ele>
        <time>2012-05-02T11:22:39Z</time>
      </trkpt>
      <trkpt lat="47.426342" lon="13.348014">
        <ele>760.00</ele>
        <time>2012-05-02T11:22:45Z</time>
      </trkpt>
      <trkpt lat="47.426502" lon="13.348127">
        <ele>760.60</ele>
        <time>2012-05-02T11:22:50Z</time>
      </trkpt>
      <trkpt lat="47.426533" lon="13.348158">
        <ele>761.00</ele>
        <time>2012-05-02T11:22:51Z</time>
      </trkpt>
      <trkpt lat="47.426563" lon="13.348186">
        <ele>761.40</ele>
        <time>2012-05-02T11:22:52Z</time>
      </trkpt>
      <trkpt lat="47.426590" lon="13.348215">
        <ele>761.80</ele>
        <time>2012-05-02T11:22:53Z</time>
      </trkpt>
      <trkpt lat="47.426620" lon="13.348240">
        <ele>762.20</ele>
        <time>2012-05-02T11:22:54Z</time>
      </trkpt>
      <trkpt lat="47.426781" lon="13.348386">
        <ele>762.20</ele>
        <time>2012-05-02T11:22:59Z</time>
      </trkpt>
      <trkpt lat="47.427006" lon="13.348606">
        <ele>762.20</ele>
        <time>2012-05-02T11:23:06Z</time>
      </trkpt>
      <trkpt lat="47.427135" lon="13.348736">
        <ele>762.20</ele>
        <time>2012-05-02T11:23:10Z</time>
      </trkpt>
      <trkpt lat="47.427204" lon="13.348809">
        <ele>762.60</ele>
        <time>2012-05-02T11:23:12Z</time>
      </trkpt>
      <trkpt lat="47.427235" lon="13.348849">
        <ele>763.00</ele>
        <time>2012-05-02T11:23:13Z</time>
      </trkpt>
      <trkpt lat="47.427265" lon="13.348888">
        <ele>763.40</ele>
        <time>2012-05-02T11:23:14Z</time>
      </trkpt>
      <trkpt lat="47.427296" lon="13.348926">
        <ele>763.80</ele>
        <time>2012-05-02T11:23:15Z</time>
      </trkpt>
      <trkpt lat="47.427326" lon="13.348962">
        <ele>764.20</ele>
        <time>2012-05-02T11:23:16Z</time>
      </trkpt>
      <trkpt lat="47.427448" lon="13.349101">
        <ele>764.20</ele>
        <time>2012-05-02T11:23:20Z</time>
      </trkpt>
      <trkpt lat="47.427650" lon="13.349474">
        <ele>764.20</ele>
        <time>2012-05-02T11:23:28Z</time>
      </trkpt>
      <trkpt lat="47.427708" lon="13.349561">
        <ele>764.60</ele>
        <time>2012-05-02T11:23:30Z</time>
      </trkpt>
      <trkpt lat="47.427734" lon="13.349609">
        <ele>765.20</ele>
        <time>2012-05-02T11:23:31Z</time>
      </trkpt>
      <trkpt lat="47.427757" lon="13.349655">
        <ele>765.60</ele>
        <time>2012-05-02T11:23:32Z</time>
      </trkpt>
      <trkpt lat="47.427788" lon="13.349697">
        <ele>766.00</ele>
        <time>2012-05-02T11:23:33Z</time>
      </trkpt>
      <trkpt lat="47.427814" lon="13.349740">
        <ele>766.40</ele>
        <time>2012-05-02T11:23:34Z</time>
      </trkpt>
      <trkpt lat="47.427868" lon="13.349825">
        <ele>766.40</ele>
        <time>2012-05-02T11:23:36Z</time>
      </trkpt>
      <trkpt lat="47.428120" lon="13.350295">
        <ele>766.40</ele>
        <time>2012-05-02T11:23:46Z</time>
      </trkpt>
      <trkpt lat="47.428253" lon="13.350571">
        <ele>766.80</ele>
        <time>2012-05-02T11:23:52Z</time>
      </trkpt>
      <trkpt lat="47.428272" lon="13.350616">
        <ele>767.60</ele>
        <time>2012-05-02T11:23:53Z</time>
      </trkpt>
      <trkpt lat="47.428291" lon="13.350662">
        <ele>768.00</ele>
        <time>2012-05-02T11:23:54Z</time>
      </trkpt>
      <trkpt lat="47.428314" lon="13.350709">
        <ele>768.40</ele>
        <time>2012-05-02T11:23:55Z</time>
      </trkpt>
      <trkpt lat="47.428501" lon="13.351017">
        <ele>768.40</ele>
        <time>2012-05-02T11:24:02Z</time>
      </trkpt>
      <trkpt lat="47.428642" lon="13.351380">
        <ele>768.80</ele>
        <time>2012-05-02T11:24:09Z</time>
      </trkpt>
      <trkpt lat="47.428661" lon="13.351426">
        <ele>769.40</ele>
        <time>2012-05-02T11:24:10Z</time>
      </trkpt>
      <trkpt lat="47.428680" lon="13.351471">
        <ele>769.80</ele>
        <time>2012-05-02T11:24:11Z</time>
      </trkpt>
      <trkpt lat="47.428696" lon="13.351523">
        <ele>770.20</ele>
        <time>2012-05-02T11:24:12Z</time>
      </trkpt>
      <trkpt lat="47.428722" lon="13.351557">
        <ele>770.80</ele>
        <time>2012-05-02T11:24:13Z</time>
      </trkpt>
      <trkpt lat="47.428829" lon="13.351691">
        <ele>770.80</ele>
        <time>2012-05-02T11:24:17Z</time>
      </trkpt>
      <trkpt lat="47.428989" lon="13.351918">
        <ele>771.20</ele>
        <time>2012-05-02T11:24:23Z</time>
      </trkpt>
      <trkpt lat="47.429008" lon="13.351958">
        <ele>771.60</ele>
        <time>2012-05-02T11:24:24Z</time>
      </trkpt>
      <trkpt lat="47.429028" lon="13.351995">
        <ele>772.00</ele>
        <time>2012-05-02T11:24:25Z</time>
      </trkpt>
      <trkpt lat="47.429047" lon="13.352038">
        <ele>772.40</ele>
        <time>2012-05-02T11:24:26Z</time>
      </trkpt>
      <trkpt lat="47.429077" lon="13.352073">
        <ele>772.80</ele>
        <time>2012-05-02T11:24:27Z</time>
      </trkpt>
      <trkpt lat="47.429230" lon="13.352369">
        <ele>772.80</ele>
        <time>2012-05-02T11:24:34Z</time>
      </trkpt>
      <trkpt lat="47.429344" lon="13.352585">
        <ele>773.20</ele>
        <time>2012-05-02T11:24:39Z</time>
      </trkpt>
      <trkpt lat="47.429367" lon="13.352624">
        <ele>773.60</ele>
        <time>2012-05-02T11:24:40Z</time>
      </trkpt>
      <trkpt lat="47.429390" lon="13.352663">
        <ele>774.00</ele>
        <time>2012-05-02T11:24:41Z</time>
      </trkpt>
      <trkpt lat="47.429413" lon="13.352704">
        <ele>775.00</ele>
        <time>2012-05-02T11:24:42Z</time>
      </trkpt>
      <trkpt lat="47.429550" lon="13.352926">
        <ele>775.40</ele>
        <time>2012-05-02T11:24:48Z</time>
      </trkpt>
      <trkpt lat="47.429573" lon="13.352962">
        <ele>775.80</ele>
        <time>2012-05-02T11:24:49Z</time>
      </trkpt>
      <trkpt lat="47.429600" lon="13.352999">
        <ele>776.20</ele>
        <time>2012-05-02T11:24:50Z</time>
      </trkpt>
      <trkpt lat="47.429626" lon="13.353034">
        <ele>776.60</ele>
        <time>2012-05-02T11:24:51Z</time>
      </trkpt>
      <trkpt lat="47.429649" lon="13.353066">
        <ele>777.00</ele>
        <time>2012-05-02T11:24:52Z</time>
      </trkpt>
      <trkpt lat="47.429817" lon="13.353257">
        <ele>777.00</ele>
        <time>2012-05-02T11:24:58Z</time>
      </trkpt>
      <trkpt lat="47.429962" lon="13.353411">
        <ele>777.40</ele>
        <time>2012-05-02T11:25:03Z</time>
      </trkpt>
      <trkpt lat="47.429989" lon="13.353436">
        <ele>777.80</ele>
        <time>2012-05-02T11:25:04Z</time>
      </trkpt>
      <trkpt lat="47.430023" lon="13.353462">
        <ele>778.20</ele>
        <time>2012-05-02T11:25:05Z</time>
      </trkpt>
      <trkpt lat="47.430058" lon="13.353491">
        <ele>778.60</ele>
        <time>2012-05-02T11:25:06Z</time>
      </trkpt>
      <trkpt lat="47.430092" lon="13.353516">
        <ele>779.00</ele>
        <time>2012-05-02T11:25:07Z</time>
      </trkpt>
      <trkpt lat="47.430206" lon="13.353627">
        <ele>779.00</ele>
        <time>2012-05-02T11:25:11Z</time>
      </trkpt>
      <trkpt lat="47.430374" lon="13.353730">
        <ele>779.40</ele>
        <time>2012-05-02T11:25:16Z</time>
      </trkpt>
      <trkpt lat="47.430408" lon="13.353750">
        <ele>779.80</ele>
        <time>2012-05-02T11:25:17Z</time>
      </trkpt>
      <trkpt lat="47.430443" lon="13.353772">
        <ele>780.20</ele>
        <time>2012-05-02T11:25:18Z</time>
      </trkpt>
      <trkpt lat="47.430477" lon="13.353796">
        <ele>780.60</ele>
        <time>2012-05-02T11:25:19Z</time>
      </trkpt>
      <trkpt lat="47.430511" lon="13.353822">
        <ele>781.00</ele>
        <time>2012-05-02T11:25:20Z</time>
      </trkpt>
      <trkpt lat="47.430775" lon="13.354020">
        <ele>781.00</ele>
        <time>2012-05-02T11:25:28Z</time>
      </trkpt>
      <trkpt lat="47.430943" lon="13.354147">
        <ele>781.40</ele>
        <time>2012-05-02T11:25:33Z</time>
      </trkpt>
      <trkpt lat="47.430973" lon="13.354175">
        <ele>781.80</ele>
        <time>2012-05-02T11:25:34Z</time>
      </trkpt>
      <trkpt lat="47.431007" lon="13.354200">
        <ele>782.40</ele>
        <time>2012-05-02T11:25:35Z</time>
      </trkpt>
      <trkpt lat="47.431038" lon="13.354225">
        <ele>782.80</ele>
        <time>2012-05-02T11:25:36Z</time>
      </trkpt>
      <trkpt lat="47.431072" lon="13.354251">
        <ele>783.20</ele>
        <time>2012-05-02T11:25:37Z</time>
      </trkpt>
      <trkpt lat="47.431355" lon="13.354454">
        <ele>783.20</ele>
        <time>2012-05-02T11:25:45Z</time>
      </trkpt>
      <trkpt lat="47.431591" lon="13.354627">
        <ele>783.20</ele>
        <time>2012-05-02T11:25:52Z</time>
      </trkpt>
      <trkpt lat="47.431660" lon="13.354686">
        <ele>783.60</ele>
        <time>2012-05-02T11:25:54Z</time>
      </trkpt>
      <trkpt lat="47.431694" lon="13.354715">
        <ele>784.00</ele>
        <time>2012-05-02T11:25:55Z</time>
      </trkpt>
      <trkpt lat="47.431732" lon="13.354740">
        <ele>784.80</ele>
        <time>2012-05-02T11:25:56Z</time>
      </trkpt>
      <trkpt lat="47.431770" lon="13.354766">
        <ele>785.40</ele>
        <time>2012-05-02T11:25:57Z</time>
      </trkpt>
      <trkpt lat="47.431919" lon="13.354885">
        <ele>785.40</ele>
        <time>2012-05-02T11:26:01Z</time>
      </trkpt>
      <trkpt lat="47.432156" lon="13.355126">
        <ele>785.40</ele>
        <time>2012-05-02T11:26:08Z</time>
      </trkpt>
      <trkpt lat="47.432220" lon="13.355188">
        <ele>785.80</ele>
        <time>2012-05-02T11:26:10Z</time>
      </trkpt>
      <trkpt lat="47.432255" lon="13.355221">
        <ele>786.20</ele>
        <time>2012-05-02T11:26:11Z</time>
      </trkpt>
      <trkpt lat="47.432289" lon="13.355256">
        <ele>786.60</ele>
        <time>2012-05-02T11:26:12Z</time>
      </trkpt>
      <trkpt lat="47.432320" lon="13.355289">
        <ele>787.00</ele>
        <time>2012-05-02T11:26:13Z</time>
      </trkpt>
      <trkpt lat="47.432350" lon="13.355323">
        <ele>787.40</ele>
        <time>2012-05-02T11:26:14Z</time>
      </trkpt>
      <trkpt lat="47.432381" lon="13.355362">
        <ele>787.40</ele>
        <time>2012-05-02T11:26:15Z</time>
      </trkpt>
      <trkpt lat="47.432583" lon="13.355686">
        <ele>787.40</ele>
        <time>2012-05-02T11:26:23Z</time>
      </trkpt>
      <trkpt lat="47.432606" lon="13.355732">
        <ele>787.80</ele>
        <time>2012-05-02T11:26:24Z</time>
      </trkpt>
      <trkpt lat="47.432629" lon="13.355782">
        <ele>788.20</ele>
        <time>2012-05-02T11:26:25Z</time>
      </trkpt>
      <trkpt lat="47.432652" lon="13.355829">
        <ele>788.60</ele>
        <time>2012-05-02T11:26:26Z</time>
      </trkpt>
      <trkpt lat="47.432678" lon="13.355877">
        <ele>789.00</ele>
        <time>2012-05-02T11:26:27Z</time>
      </trkpt>
      <trkpt lat="47.432697" lon="13.355927">
        <ele>789.40</ele>
        <time>2012-05-02T11:26:28Z</time>
      </trkpt>
      <trkpt lat="47.432732" lon="13.356023">
        <ele>789.40</ele>
        <time>2012-05-02T11:26:30Z</time>
      </trkpt>
      <trkpt lat="47.432892" lon="13.356281">
        <ele>789.40</ele>
        <time>2012-05-02T11:26:36Z</time>
      </trkpt>
      <trkpt lat="47.432991" lon="13.356457">
        <ele>790.00</ele>
        <time>2012-05-02T11:26:40Z</time>
      </trkpt>
      <trkpt lat="47.433018" lon="13.356498">
        <ele>790.40</ele>
        <time>2012-05-02T11:26:41Z</time>
      </trkpt>
      <trkpt lat="47.433044" lon="13.356540">
        <ele>790.80</ele>
        <time>2012-05-02T11:26:42Z</time>
      </trkpt>
      <trkpt lat="47.433071" lon="13.356582">
        <ele>791.20</ele>
        <time>2012-05-02T11:26:43Z</time>
      </trkpt>
      <trkpt lat="47.433098" lon="13.356623">
        <ele>791.60</ele>
        <time>2012-05-02T11:26:44Z</time>
      </trkpt>
      <trkpt lat="47.433247" lon="13.356790">
        <ele>791.60</ele>
        <time>2012-05-02T11:26:49Z</time>
      </trkpt>
      <trkpt lat="47.433311" lon="13.356839">
        <ele>792.00</ele>
        <time>2012-05-02T11:26:51Z</time>
      </trkpt>
      <trkpt lat="47.433342" lon="13.356862">
        <ele>792.40</ele>
        <time>2012-05-02T11:26:52Z</time>
      </trkpt>
      <trkpt lat="47.433376" lon="13.356884">
        <ele>792.80</ele>
        <time>2012-05-02T11:26:53Z</time>
      </trkpt>
      <trkpt lat="47.433414" lon="13.356902">
        <ele>793.20</ele>
        <time>2012-05-02T11:26:54Z</time>
      </trkpt>
      <trkpt lat="47.433453" lon="13.356918">
        <ele>793.60</ele>
        <time>2012-05-02T11:26:55Z</time>
      </trkpt>
      <trkpt lat="47.433525" lon="13.356946">
        <ele>793.60</ele>
        <time>2012-05-02T11:26:57Z</time>
      </trkpt>
      <trkpt lat="47.433739" lon="13.356941">
        <ele>793.60</ele>
        <time>2012-05-02T11:27:03Z</time>
      </trkpt>
      <trkpt lat="47.433788" lon="13.356916">
        <ele>794.00</ele>
        <time>2012-05-02T11:27:04Z</time>
      </trkpt>
      <trkpt lat="47.433834" lon="13.356895">
        <ele>794.40</ele>
        <time>2012-05-02T11:27:05Z</time>
      </trkpt>
      <trkpt lat="47.433876" lon="13.356881">
        <ele>795.00</ele>
        <time>2012-05-02T11:27:06Z</time>
      </trkpt>
      <trkpt lat="47.433914" lon="13.356871">
        <ele>795.40</ele>
        <time>2012-05-02T11:27:07Z</time>
      </trkpt>
      <trkpt lat="47.433952" lon="13.356857">
        <ele>795.80</ele>
        <time>2012-05-02T11:27:08Z</time>
      </trkpt>
      <trkpt lat="47.434025" lon="13.356830">
        <ele>795.80</ele>
        <time>2012-05-02T11:27:10Z</time>
      </trkpt>
      <trkpt lat="47.434288" lon="13.356692">
        <ele>795.80</ele>
        <time>2012-05-02T11:27:18Z</time>
      </trkpt>
      <trkpt lat="47.434391" lon="13.356663">
        <ele>796.20</ele>
        <time>2012-05-02T11:27:21Z</time>
      </trkpt>
      <trkpt lat="47.434437" lon="13.356669">
        <ele>796.60</ele>
        <time>2012-05-02T11:27:22Z</time>
      </trkpt>
      <trkpt lat="47.434479" lon="13.356672">
        <ele>797.00</ele>
        <time>2012-05-02T11:27:23Z</time>
      </trkpt>
      <trkpt lat="47.434513" lon="13.356669">
        <ele>797.40</ele>
        <time>2012-05-02T11:27:24Z</time>
      </trkpt>
      <trkpt lat="47.434551" lon="13.356669">
        <ele>797.80</ele>
        <time>2012-05-02T11:27:25Z</time>
      </trkpt>
      <trkpt lat="47.434769" lon="13.356684">
        <ele>797.80</ele>
        <time>2012-05-02T11:27:31Z</time>
      </trkpt>
      <trkpt lat="47.434906" lon="13.356721">
        <ele>798.80</ele>
        <time>2012-05-02T11:27:35Z</time>
      </trkpt>
      <trkpt lat="47.434937" lon="13.356730">
        <ele>799.20</ele>
        <time>2012-05-02T11:27:36Z</time>
      </trkpt>
      <trkpt lat="47.434971" lon="13.356740">
        <ele>799.60</ele>
        <time>2012-05-02T11:27:37Z</time>
      </trkpt>
      <trkpt lat="47.435005" lon="13.356756">
        <ele>800.00</ele>
        <time>2012-05-02T11:27:38Z</time>
      </trkpt>
      <trkpt lat="47.435226" lon="13.356863">
        <ele>800.40</ele>
        <time>2012-05-02T11:27:45Z</time>
      </trkpt>
      <trkpt lat="47.435253" lon="13.356883">
        <ele>800.80</ele>
        <time>2012-05-02T11:27:46Z</time>
      </trkpt>
      <trkpt lat="47.435284" lon="13.356904">
        <ele>801.20</ele>
        <time>2012-05-02T11:27:47Z</time>
      </trkpt>
      <trkpt lat="47.435314" lon="13.356922">
        <ele>801.60</ele>
        <time>2012-05-02T11:27:48Z</time>
      </trkpt>
      <trkpt lat="47.435345" lon="13.356943">
        <ele>802.00</ele>
        <time>2012-05-02T11:27:49Z</time>
      </trkpt>
      <trkpt lat="47.435574" lon="13.357094">
        <ele>802.00</ele>
        <time>2012-05-02T11:27:56Z</time>
      </trkpt>
      <trkpt lat="47.435665" lon="13.357154">
        <ele>802.40</ele>
        <time>2012-05-02T11:27:59Z</time>
      </trkpt>
      <trkpt lat="47.435696" lon="13.357171">
        <ele>803.20</ele>
        <time>2012-05-02T11:28:00Z</time>
      </trkpt>
      <trkpt lat="47.435730" lon="13.357189">
        <ele>803.60</ele>
        <time>2012-05-02T11:28:01Z</time>
      </trkpt>
      <trkpt lat="47.435760" lon="13.357209">
        <ele>804.00</ele>
        <time>2012-05-02T11:28:02Z</time>
      </trkpt>
      <trkpt lat="47.435795" lon="13.357233">
        <ele>804.00</ele>
        <time>2012-05-02T11:28:03Z</time>
      </trkpt>
      <trkpt lat="47.435928" lon="13.357325">
        <ele>804.40</ele>
        <time>2012-05-02T11:28:07Z</time>
      </trkpt>
      <trkpt lat="47.435959" lon="13.357348">
        <ele>804.80</ele>
        <time>2012-05-02T11:28:08Z</time>
      </trkpt>
      <trkpt lat="47.435986" lon="13.357373">
        <ele>805.20</ele>
        <time>2012-05-02T11:28:09Z</time>
      </trkpt>
      <trkpt lat="47.436016" lon="13.357394">
        <ele>805.60</ele>
        <time>2012-05-02T11:28:10Z</time>
      </trkpt>
      <trkpt lat="47.436047" lon="13.357419">
        <ele>806.20</ele>
        <time>2012-05-02T11:28:11Z</time>
      </trkpt>
      <trkpt lat="47.436291" lon="13.357632">
        <ele>806.20</ele>
        <time>2012-05-02T11:28:19Z</time>
      </trkpt>
      <trkpt lat="47.436405" lon="13.357740">
        <ele>806.60</ele>
        <time>2012-05-02T11:28:23Z</time>
      </trkpt>
      <trkpt lat="47.436432" lon="13.357770">
        <ele>807.00</ele>
        <time>2012-05-02T11:28:24Z</time>
      </trkpt>
      <trkpt lat="47.436462" lon="13.357799">
        <ele>807.80</ele>
        <time>2012-05-02T11:28:25Z</time>
      </trkpt>
      <trkpt lat="47.436493" lon="13.357827">
        <ele>808.20</ele>
        <time>2012-05-02T11:28:26Z</time>
      </trkpt>
      <trkpt lat="47.436523" lon="13.357853">
        <ele>808.20</ele>
        <time>2012-05-02T11:28:27Z</time>
      </trkpt>
      <trkpt lat="47.436680" lon="13.358010">
        <ele>808.20</ele>
        <time>2012-05-02T11:28:33Z</time>
      </trkpt>
      <trkpt lat="47.436790" lon="13.358114">
        <ele>808.60</ele>
        <time>2012-05-02T11:28:37Z</time>
      </trkpt>
      <trkpt lat="47.436817" lon="13.358147">
        <ele>809.00</ele>
        <time>2012-05-02T11:28:38Z</time>
      </trkpt>
      <trkpt lat="47.436840" lon="13.358177">
        <ele>809.40</ele>
        <time>2012-05-02T11:28:39Z</time>
      </trkpt>
      <trkpt lat="47.436867" lon="13.358211">
        <ele>809.80</ele>
        <time>2012-05-02T11:28:40Z</time>
      </trkpt>
      <trkpt lat="47.436893" lon="13.358247">
        <ele>810.20</ele>
        <time>2012-05-02T11:28:41Z</time>
      </trkpt>
      <trkpt lat="47.437042" lon="13.358444">
        <ele>810.20</ele>
        <time>2012-05-02T11:28:46Z</time>
      </trkpt>
      <trkpt lat="47.437267" lon="13.358684">
        <ele>810.20</ele>
        <time>2012-05-02T11:28:53Z</time>
      </trkpt>
      <trkpt lat="47.437481" lon="13.358964">
        <ele>810.60</ele>
        <time>2012-05-02T11:29:00Z</time>
      </trkpt>
      <trkpt lat="47.437515" lon="13.359002">
        <ele>811.00</ele>
        <time>2012-05-02T11:29:01Z</time>
      </trkpt>
      <trkpt lat="47.437546" lon="13.359038">
        <ele>811.40</ele>
        <time>2012-05-02T11:29:02Z</time>
      </trkpt>
      <trkpt lat="47.437576" lon="13.359079">
        <ele>811.80</ele>
        <time>2012-05-02T11:29:03Z</time>
      </trkpt>
      <trkpt lat="47.437611" lon="13.359123">
        <ele>812.20</ele>
        <time>2012-05-02T11:29:04Z</time>
      </trkpt>
      <trkpt lat="47.437832" lon="13.359411">
        <ele>812.20</ele>
        <time>2012-05-02T11:29:11Z</time>
      </trkpt>
      <trkpt lat="47.437984" lon="13.359616">
        <ele>812.60</ele>
        <time>2012-05-02T11:29:16Z</time>
      </trkpt>
      <trkpt lat="47.438011" lon="13.359657">
        <ele>813.20</ele>
        <time>2012-05-02T11:29:17Z</time>
      </trkpt>
      <trkpt lat="47.438042" lon="13.359701">
        <ele>813.60</ele>
        <time>2012-05-02T11:29:18Z</time>
      </trkpt>
      <trkpt lat="47.438076" lon="13.359747">
        <ele>814.00</ele>
        <time>2012-05-02T11:29:19Z</time>
      </trkpt>
      <trkpt lat="47.438103" lon="13.359793">
        <ele>814.40</ele>
        <time>2012-05-02T11:29:20Z</time>
      </trkpt>
      <trkpt lat="47.438347" lon="13.360131">
        <ele>814.40</ele>
        <time>2012-05-02T11:29:28Z</time>
      </trkpt>
      <trkpt lat="47.438660" lon="13.360518">
        <ele>814.40</ele>
        <time>2012-05-02T11:29:37Z</time>
      </trkpt>
      <trkpt lat="47.438869" lon="13.360820">
        <ele>814.40</ele>
        <time>2012-05-02T11:29:44Z</time>
      </trkpt>
      <trkpt lat="47.438969" lon="13.360942">
        <ele>814.80</ele>
        <time>2012-05-02T11:29:47Z</time>
      </trkpt>
      <trkpt lat="47.438999" lon="13.360980">
        <ele>815.20</ele>
        <time>2012-05-02T11:29:48Z</time>
      </trkpt>
      <trkpt lat="47.439037" lon="13.361019">
        <ele>815.60</ele>
        <time>2012-05-02T11:29:49Z</time>
      </trkpt>
      <trkpt lat="47.439072" lon="13.361057">
        <ele>816.00</ele>
        <time>2012-05-02T11:29:50Z</time>
      </trkpt>
      <trkpt lat="47.439102" lon="13.361097">
        <ele>816.40</ele>
        <time>2012-05-02T11:29:51Z</time>
      </trkpt>
      <trkpt lat="47.439137" lon="13.361135">
        <ele>816.40</ele>
        <time>2012-05-02T11:29:52Z</time>
      </trkpt>
      <trkpt lat="47.439198" lon="13.361208">
        <ele>816.40</ele>
        <time>2012-05-02T11:29:54Z</time>
      </trkpt>
      <trkpt lat="47.439354" lon="13.361382">
        <ele>816.40</ele>
        <time>2012-05-02T11:29:59Z</time>
      </trkpt>
      <trkpt lat="47.439575" lon="13.361614">
        <ele>816.80</ele>
        <time>2012-05-02T11:30:06Z</time>
      </trkpt>
      <trkpt lat="47.439602" lon="13.361646">
        <ele>817.40</ele>
        <time>2012-05-02T11:30:07Z</time>
      </trkpt>
      <trkpt lat="47.439636" lon="13.361671">
        <ele>817.80</ele>
        <time>2012-05-02T11:30:08Z</time>
      </trkpt>
      <trkpt lat="47.439667" lon="13.361692">
        <ele>818.20</ele>
        <time>2012-05-02T11:30:09Z</time>
      </trkpt>
      <trkpt lat="47.439697" lon="13.361714">
        <ele>818.60</ele>
        <time>2012-05-02T11:30:10Z</time>
      </trkpt>
      <trkpt lat="47.439732" lon="13.361738">
        <ele>818.60</ele>
        <time>2012-05-02T11:30:11Z</time>
      </trkpt>
      <trkpt lat="47.439800" lon="13.361793">
        <ele>818.60</ele>
        <time>2012-05-02T11:30:13Z</time>
      </trkpt>
      <trkpt lat="47.440014" lon="13.361947">
        <ele>819.00</ele>
        <time>2012-05-02T11:30:20Z</time>
      </trkpt>
      <trkpt lat="47.440048" lon="13.361967">
        <ele>819.40</ele>
        <time>2012-05-02T11:30:21Z</time>
      </trkpt>
      <trkpt lat="47.440083" lon="13.361990">
        <ele>819.80</ele>
        <time>2012-05-02T11:30:22Z</time>
      </trkpt>
      <trkpt lat="47.440113" lon="13.362012">
        <ele>820.20</ele>
        <time>2012-05-02T11:30:23Z</time>
      </trkpt>
      <trkpt lat="47.440147" lon="13.362037">
        <ele>820.60</ele>
        <time>2012-05-02T11:30:24Z</time>
      </trkpt>
      <trkpt lat="47.440346" lon="13.362157">
        <ele>820.60</ele>
        <time>2012-05-02T11:30:30Z</time>
      </trkpt>
      <trkpt lat="47.440628" lon="13.362334">
        <ele>820.60</ele>
        <time>2012-05-02T11:30:38Z</time>
      </trkpt>
      <trkpt lat="47.440662" lon="13.362357">
        <ele>821.00</ele>
        <time>2012-05-02T11:30:39Z</time>
      </trkpt>
      <trkpt lat="47.440697" lon="13.362379">
        <ele>821.40</ele>
        <time>2012-05-02T11:30:40Z</time>
      </trkpt>
      <trkpt lat="47.440731" lon="13.362397">
        <ele>821.80</ele>
        <time>2012-05-02T11:30:41Z</time>
      </trkpt>
      <trkpt lat="47.440769" lon="13.362414">
        <ele>822.20</ele>
        <time>2012-05-02T11:30:42Z</time>
      </trkpt>
      <trkpt lat="47.440804" lon="13.362431">
        <ele>822.60</ele>
        <time>2012-05-02T11:30:43Z</time>
      </trkpt>
      <trkpt lat="47.440975" lon="13.362487">
        <ele>822.60</ele>
        <time>2012-05-02T11:30:47Z</time>
      </trkpt>
      <trkpt lat="47.441208" lon="13.362552">
        <ele>823.40</ele>
        <time>2012-05-02T11:30:53Z</time>
      </trkpt>
      <trkpt lat="47.441238" lon="13.362569">
        <ele>823.80</ele>
        <time>2012-05-02T11:30:54Z</time>
      </trkpt>
      <trkpt lat="47.441269" lon="13.362588">
        <ele>824.20</ele>
        <time>2012-05-02T11:30:55Z</time>
      </trkpt>
      <trkpt lat="47.441303" lon="13.362600">
        <ele>824.60</ele>
        <time>2012-05-02T11:30:56Z</time>
      </trkpt>
      <trkpt lat="47.441517" lon="13.362669">
        <ele>824.60</ele>
        <time>2012-05-02T11:31:02Z</time>
      </trkpt>
      <trkpt lat="47.441769" lon="13.362717">
        <ele>825.00</ele>
        <time>2012-05-02T11:31:09Z</time>
      </trkpt>
      <trkpt lat="47.441807" lon="13.362722">
        <ele>825.60</ele>
        <time>2012-05-02T11:31:10Z</time>
      </trkpt>
      <trkpt lat="47.441845" lon="13.362725">
        <ele>826.00</ele>
        <time>2012-05-02T11:31:11Z</time>
      </trkpt>
      <trkpt lat="47.441883" lon="13.362730">
        <ele>826.40</ele>
        <time>2012-05-02T11:31:12Z</time>
      </trkpt>
      <trkpt lat="47.441917" lon="13.362733">
        <ele>826.80</ele>
        <time>2012-05-02T11:31:13Z</time>
      </trkpt>
      <trkpt lat="47.442093" lon="13.362761">
        <ele>826.80</ele>
        <time>2012-05-02T11:31:18Z</time>
      </trkpt>
      <trkpt lat="47.442379" lon="13.362761">
        <ele>826.80</ele>
        <time>2012-05-02T11:31:26Z</time>
      </trkpt>
      <trkpt lat="47.442413" lon="13.362761">
        <ele>827.20</ele>
        <time>2012-05-02T11:31:27Z</time>
      </trkpt>
      <trkpt lat="47.442451" lon="13.362761">
        <ele>827.60</ele>
        <time>2012-05-02T11:31:28Z</time>
      </trkpt>
      <trkpt lat="47.442490" lon="13.362763">
        <ele>828.00</ele>
        <time>2012-05-02T11:31:29Z</time>
      </trkpt>
      <trkpt lat="47.442528" lon="13.362765">
        <ele>828.40</ele>
        <time>2012-05-02T11:31:30Z</time>
      </trkpt>
      <trkpt lat="47.442562" lon="13.362768">
        <ele>828.80</ele>
        <time>2012-05-02T11:31:31Z</time>
      </trkpt>
      <trkpt lat="47.442596" lon="13.362770">
        <ele>828.80</ele>
        <time>2012-05-02T11:31:32Z</time>
      </trkpt>
      <trkpt lat="47.442741" lon="13.362771">
        <ele>828.80</ele>
        <time>2012-05-02T11:31:36Z</time>
      </trkpt>
      <trkpt lat="47.442856" lon="13.362776">
        <ele>828.80</ele>
        <time>2012-05-02T11:31:39Z</time>
      </trkpt>
      <trkpt lat="47.443035" lon="13.362787">
        <ele>829.20</ele>
        <time>2012-05-02T11:31:44Z</time>
      </trkpt>
      <trkpt lat="47.443073" lon="13.362788">
        <ele>829.60</ele>
        <time>2012-05-02T11:31:45Z</time>
      </trkpt>
      <trkpt lat="47.443111" lon="13.362791">
        <ele>830.00</ele>
        <time>2012-05-02T11:31:46Z</time>
      </trkpt>
      <trkpt lat="47.443150" lon="13.362793">
        <ele>830.40</ele>
        <time>2012-05-02T11:31:47Z</time>
      </trkpt>
      <trkpt lat="47.443188" lon="13.362797">
        <ele>830.80</ele>
        <time>2012-05-02T11:31:48Z</time>
      </trkpt>
      <trkpt lat="47.443428" lon="13.362823">
        <ele>830.80</ele>
        <time>2012-05-02T11:31:54Z</time>
      </trkpt>
      <trkpt lat="47.443531" lon="13.362841">
        <ele>831.40</ele>
        <time>2012-05-02T11:31:57Z</time>
      </trkpt>
      <trkpt lat="47.443565" lon="13.362846">
        <ele>831.80</ele>
        <time>2012-05-02T11:31:58Z</time>
      </trkpt>
      <trkpt lat="47.443600" lon="13.362849">
        <ele>832.40</ele>
        <time>2012-05-02T11:31:59Z</time>
      </trkpt>
      <trkpt lat="47.443634" lon="13.362852">
        <ele>832.80</ele>
        <time>2012-05-02T11:32:00Z</time>
      </trkpt>
      <trkpt lat="47.443676" lon="13.362855">
        <ele>833.40</ele>
        <time>2012-05-02T11:32:01Z</time>
      </trkpt>
      <trkpt lat="47.443890" lon="13.362900">
        <ele>833.40</ele>
        <time>2012-05-02T11:32:07Z</time>
      </trkpt>
      <trkpt lat="47.444149" lon="13.362953">
        <ele>833.40</ele>
        <time>2012-05-02T11:32:14Z</time>
      </trkpt>
      <trkpt lat="47.444183" lon="13.362962">
        <ele>833.80</ele>
        <time>2012-05-02T11:32:15Z</time>
      </trkpt>
      <trkpt lat="47.444221" lon="13.362976">
        <ele>834.20</ele>
        <time>2012-05-02T11:32:16Z</time>
      </trkpt>
      <trkpt lat="47.444252" lon="13.362988">
        <ele>834.60</ele>
        <time>2012-05-02T11:32:17Z</time>
      </trkpt>
      <trkpt lat="47.444286" lon="13.362999">
        <ele>835.00</ele>
        <time>2012-05-02T11:32:18Z</time>
      </trkpt>
      <trkpt lat="47.444324" lon="13.363011">
        <ele>835.40</ele>
        <time>2012-05-02T11:32:19Z</time>
      </trkpt>
      <trkpt lat="47.444359" lon="13.363026">
        <ele>835.40</ele>
        <time>2012-05-02T11:32:20Z</time>
      </trkpt>
      <trkpt lat="47.444565" lon="13.363115">
        <ele>835.40</ele>
        <time>2012-05-02T11:32:26Z</time>
      </trkpt>
      <trkpt lat="47.444832" lon="13.363295">
        <ele>835.40</ele>
        <time>2012-05-02T11:32:33Z</time>
      </trkpt>
      <trkpt lat="47.444942" lon="13.363370">
        <ele>835.80</ele>
        <time>2012-05-02T11:32:36Z</time>
      </trkpt>
      <trkpt lat="47.444977" lon="13.363397">
        <ele>836.20</ele>
        <time>2012-05-02T11:32:37Z</time>
      </trkpt>
      <trkpt lat="47.445011" lon="13.363419">
        <ele>836.60</ele>
        <time>2012-05-02T11:32:38Z</time>
      </trkpt>
      <trkpt lat="47.445045" lon="13.363439">
        <ele>837.00</ele>
        <time>2012-05-02T11:32:39Z</time>
      </trkpt>
      <trkpt lat="47.445084" lon="13.363462">
        <ele>837.60</ele>
        <time>2012-05-02T11:32:40Z</time>
      </trkpt>
      <trkpt lat="47.445351" lon="13.363688">
        <ele>837.60</ele>
        <time>2012-05-02T11:32:48Z</time>
      </trkpt>
      <trkpt lat="47.445518" lon="13.363821">
        <ele>838.00</ele>
        <time>2012-05-02T11:32:53Z</time>
      </trkpt>
      <trkpt lat="47.445553" lon="13.363849">
        <ele>838.40</ele>
        <time>2012-05-02T11:32:54Z</time>
      </trkpt>
      <trkpt lat="47.445583" lon="13.363873">
        <ele>838.80</ele>
        <time>2012-05-02T11:32:55Z</time>
      </trkpt>
      <trkpt lat="47.445614" lon="13.363905">
        <ele>839.20</ele>
        <time>2012-05-02T11:32:56Z</time>
      </trkpt>
      <trkpt lat="47.445652" lon="13.363931">
        <ele>839.60</ele>
        <time>2012-05-02T11:32:57Z</time>
      </trkpt>
      <trkpt lat="47.445690" lon="13.363951">
        <ele>839.60</ele>
        <time>2012-05-02T11:32:58Z</time>
      </trkpt>
      <trkpt lat="47.445889" lon="13.364044">
        <ele>839.60</ele>
        <time>2012-05-02T11:33:03Z</time>
      </trkpt>
      <trkpt lat="47.446156" lon="13.364130">
        <ele>840.00</ele>
        <time>2012-05-02T11:33:10Z</time>
      </trkpt>
      <trkpt lat="47.446194" lon="13.364141">
        <ele>840.40</ele>
        <time>2012-05-02T11:33:11Z</time>
      </trkpt>
      <trkpt lat="47.446232" lon="13.364152">
        <ele>841.00</ele>
        <time>2012-05-02T11:33:12Z</time>
      </trkpt>
      <trkpt lat="47.446274" lon="13.364167">
        <ele>841.40</ele>
        <time>2012-05-02T11:33:13Z</time>
      </trkpt>
      <trkpt lat="47.446312" lon="13.364181">
        <ele>841.80</ele>
        <time>2012-05-02T11:33:14Z</time>
      </trkpt>
      <trkpt lat="47.446442" lon="13.364207">
        <ele>841.80</ele>
        <time>2012-05-02T11:33:17Z</time>
      </trkpt>
      <trkpt lat="47.446552" lon="13.364239">
        <ele>841.80</ele>
        <time>2012-05-02T11:33:20Z</time>
      </trkpt>
      <trkpt lat="47.446671" lon="13.364278">
        <ele>841.80</ele>
        <time>2012-05-02T11:33:23Z</time>
      </trkpt>
      <trkpt lat="47.446796" lon="13.364306">
        <ele>842.40</ele>
        <time>2012-05-02T11:33:26Z</time>
      </trkpt>
      <trkpt lat="47.446838" lon="13.364317">
        <ele>842.80</ele>
        <time>2012-05-02T11:33:27Z</time>
      </trkpt>
      <trkpt lat="47.446877" lon="13.364327">
        <ele>843.40</ele>
        <time>2012-05-02T11:33:28Z</time>
      </trkpt>
      <trkpt lat="47.446918" lon="13.364337">
        <ele>843.80</ele>
        <time>2012-05-02T11:33:29Z</time>
      </trkpt>
      <trkpt lat="47.446957" lon="13.364347">
        <ele>844.20</ele>
        <time>2012-05-02T11:33:30Z</time>
      </trkpt>
      <trkpt lat="47.446995" lon="13.364357">
        <ele>844.20</ele>
        <time>2012-05-02T11:33:31Z</time>
      </trkpt>
      <trkpt lat="47.447243" lon="13.364432">
        <ele>844.20</ele>
        <time>2012-05-02T11:33:38Z</time>
      </trkpt>
      <trkpt lat="47.447346" lon="13.364470">
        <ele>844.80</ele>
        <time>2012-05-02T11:33:41Z</time>
      </trkpt>
      <trkpt lat="47.447380" lon="13.364483">
        <ele>845.20</ele>
        <time>2012-05-02T11:33:42Z</time>
      </trkpt>
      <trkpt lat="47.447411" lon="13.364493">
        <ele>845.80</ele>
        <time>2012-05-02T11:33:43Z</time>
      </trkpt>
      <trkpt lat="47.447445" lon="13.364504">
        <ele>846.20</ele>
        <time>2012-05-02T11:33:44Z</time>
      </trkpt>
      <trkpt lat="47.447479" lon="13.364513">
        <ele>846.60</ele>
        <time>2012-05-02T11:33:45Z</time>
      </trkpt>
      <trkpt lat="47.447514" lon="13.364526">
        <ele>846.60</ele>
        <time>2012-05-02T11:33:46Z</time>
      </trkpt>
      <trkpt lat="47.447769" lon="13.364612">
        <ele>846.60</ele>
        <time>2012-05-02T11:33:53Z</time>
      </trkpt>
      <trkpt lat="47.448048" lon="13.364733">
        <ele>846.60</ele>
        <time>2012-05-02T11:34:01Z</time>
      </trkpt>
      <trkpt lat="47.448322" lon="13.364839">
        <ele>846.60</ele>
        <time>2012-05-02T11:34:09Z</time>
      </trkpt>
      <trkpt lat="47.448429" lon="13.364898">
        <ele>847.00</ele>
        <time>2012-05-02T11:34:12Z</time>
      </trkpt>
      <trkpt lat="47.448463" lon="13.364920">
        <ele>847.60</ele>
        <time>2012-05-02T11:34:13Z</time>
      </trkpt>
      <trkpt lat="47.448498" lon="13.364941">
        <ele>848.00</ele>
        <time>2012-05-02T11:34:14Z</time>
      </trkpt>
      <trkpt lat="47.448528" lon="13.364961">
        <ele>848.40</ele>
        <time>2012-05-02T11:34:15Z</time>
      </trkpt>
      <trkpt lat="47.448566" lon="13.364979">
        <ele>848.80</ele>
        <time>2012-05-02T11:34:16Z</time>
      </trkpt>
      <trkpt lat="47.448635" lon="13.365026">
        <ele>849.20</ele>
        <time>2012-05-02T11:34:18Z</time>
      </trkpt>
      <trkpt lat="47.448669" lon="13.365051">
        <ele>849.80</ele>
        <time>2012-05-02T11:34:19Z</time>
      </trkpt>
      <trkpt lat="47.448700" lon="13.365076">
        <ele>850.20</ele>
        <time>2012-05-02T11:34:20Z</time>
      </trkpt>
      <trkpt lat="47.448734" lon="13.365102">
        <ele>850.80</ele>
        <time>2012-05-02T11:34:21Z</time>
      </trkpt>
      <trkpt lat="47.448769" lon="13.365124">
        <ele>851.40</ele>
        <time>2012-05-02T11:34:22Z</time>
      </trkpt>
      <trkpt lat="47.448799" lon="13.365142">
        <ele>851.40</ele>
        <time>2012-05-02T11:34:23Z</time>
      </trkpt>
      <trkpt lat="47.449093" lon="13.365367">
        <ele>851.40</ele>
        <time>2012-05-02T11:34:32Z</time>
      </trkpt>
      <trkpt lat="47.449284" lon="13.365528">
        <ele>851.40</ele>
        <time>2012-05-02T11:34:38Z</time>
      </trkpt>
      <trkpt lat="47.449387" lon="13.365616">
        <ele>851.80</ele>
        <time>2012-05-02T11:34:41Z</time>
      </trkpt>
      <trkpt lat="47.449421" lon="13.365646">
        <ele>852.20</ele>
        <time>2012-05-02T11:34:42Z</time>
      </trkpt>
      <trkpt lat="47.449455" lon="13.365679">
        <ele>852.60</ele>
        <time>2012-05-02T11:34:43Z</time>
      </trkpt>
      <trkpt lat="47.449486" lon="13.365707">
        <ele>853.00</ele>
        <time>2012-05-02T11:34:44Z</time>
      </trkpt>
      <trkpt lat="47.449520" lon="13.365737">
        <ele>853.40</ele>
        <time>2012-05-02T11:34:45Z</time>
      </trkpt>
      <trkpt lat="47.449551" lon="13.365765">
        <ele>853.40</ele>
        <time>2012-05-02T11:34:46Z</time>
      </trkpt>
      <trkpt lat="47.449768" lon="13.365993">
        <ele>853.40</ele>
        <time>2012-05-02T11:34:53Z</time>
      </trkpt>
      <trkpt lat="47.449940" lon="13.366187">
        <ele>853.80</ele>
        <time>2012-05-02T11:34:59Z</time>
      </trkpt>
      <trkpt lat="47.449963" lon="13.366220">
        <ele>854.60</ele>
        <time>2012-05-02T11:35:00Z</time>
      </trkpt>
      <trkpt lat="47.449989" lon="13.366255">
        <ele>855.00</ele>
        <time>2012-05-02T11:35:01Z</time>
      </trkpt>
      <trkpt lat="47.450016" lon="13.366292">
        <ele>855.40</ele>
        <time>2012-05-02T11:35:02Z</time>
      </trkpt>
      <trkpt lat="47.450169" lon="13.366460">
        <ele>855.40</ele>
        <time>2012-05-02T11:35:07Z</time>
      </trkpt>
      <trkpt lat="47.450336" lon="13.366648">
        <ele>855.80</ele>
        <time>2012-05-02T11:35:13Z</time>
      </trkpt>
      <trkpt lat="47.450367" lon="13.366678">
        <ele>856.20</ele>
        <time>2012-05-02T11:35:14Z</time>
      </trkpt>
      <trkpt lat="47.450397" lon="13.366706">
        <ele>856.60</ele>
        <time>2012-05-02T11:35:15Z</time>
      </trkpt>
      <trkpt lat="47.450432" lon="13.366734">
        <ele>857.00</ele>
        <time>2012-05-02T11:35:16Z</time>
      </trkpt>
      <trkpt lat="47.450466" lon="13.366763">
        <ele>857.40</ele>
        <time>2012-05-02T11:35:17Z</time>
      </trkpt>
      <trkpt lat="47.450600" lon="13.366868">
        <ele>857.40</ele>
        <time>2012-05-02T11:35:21Z</time>
      </trkpt>
      <trkpt lat="47.450733" lon="13.366977">
        <ele>858.20</ele>
        <time>2012-05-02T11:35:25Z</time>
      </trkpt>
      <trkpt lat="47.450768" lon="13.367003">
        <ele>858.60</ele>
        <time>2012-05-02T11:35:26Z</time>
      </trkpt>
      <trkpt lat="47.450798" lon="13.367028">
        <ele>859.00</ele>
        <time>2012-05-02T11:35:27Z</time>
      </trkpt>
      <trkpt lat="47.450832" lon="13.367053">
        <ele>859.40</ele>
        <time>2012-05-02T11:35:28Z</time>
      </trkpt>
      <trkpt lat="47.451073" lon="13.367237">
        <ele>859.80</ele>
        <time>2012-05-02T11:35:36Z</time>
      </trkpt>
      <trkpt lat="47.451103" lon="13.367258">
        <ele>860.20</ele>
        <time>2012-05-02T11:35:37Z</time>
      </trkpt>
      <trkpt lat="47.451134" lon="13.367280">
        <ele>860.60</ele>
        <time>2012-05-02T11:35:38Z</time>
      </trkpt>
      <trkpt lat="47.451164" lon="13.367311">
        <ele>861.00</ele>
        <time>2012-05-02T11:35:39Z</time>
      </trkpt>
      <trkpt lat="47.451195" lon="13.367336">
        <ele>861.40</ele>
        <time>2012-05-02T11:35:40Z</time>
      </trkpt>
      <trkpt lat="47.451286" lon="13.367400">
        <ele>861.40</ele>
        <time>2012-05-02T11:35:43Z</time>
      </trkpt>
      <trkpt lat="47.451424" lon="13.367516">
        <ele>861.40</ele>
        <time>2012-05-02T11:35:48Z</time>
      </trkpt>
      <trkpt lat="47.451454" lon="13.367538">
        <ele>861.80</ele>
        <time>2012-05-02T11:35:49Z</time>
      </trkpt>
      <trkpt lat="47.451481" lon="13.367561">
        <ele>862.20</ele>
        <time>2012-05-02T11:35:50Z</time>
      </trkpt>
      <trkpt lat="47.451508" lon="13.367581">
        <ele>862.60</ele>
        <time>2012-05-02T11:35:51Z</time>
      </trkpt>
      <trkpt lat="47.451538" lon="13.367600">
        <ele>863.00</ele>
        <time>2012-05-02T11:35:52Z</time>
      </trkpt>
      <trkpt lat="47.451569" lon="13.367620">
        <ele>863.40</ele>
        <time>2012-05-02T11:35:53Z</time>
      </trkpt>
      <trkpt lat="47.451595" lon="13.367632">
        <ele>863.40</ele>
        <time>2012-05-02T11:35:54Z</time>
      </trkpt>
      <trkpt lat="47.451782" lon="13.367758">
        <ele>864.00</ele>
        <time>2012-05-02T11:36:01Z</time>
      </trkpt>
      <trkpt lat="47.451813" lon="13.367780">
        <ele>864.40</ele>
        <time>2012-05-02T11:36:02Z</time>
      </trkpt>
      <trkpt lat="47.451839" lon="13.367797">
        <ele>864.80</ele>
        <time>2012-05-02T11:36:03Z</time>
      </trkpt>
      <trkpt lat="47.451862" lon="13.367825">
        <ele>865.20</ele>
        <time>2012-05-02T11:36:04Z</time>
      </trkpt>
      <trkpt lat="47.451889" lon="13.367847">
        <ele>865.60</ele>
        <time>2012-05-02T11:36:05Z</time>
      </trkpt>
      <trkpt lat="47.451973" lon="13.367897">
        <ele>865.60</ele>
        <time>2012-05-02T11:36:08Z</time>
      </trkpt>
      <trkpt lat="47.452145" lon="13.368008">
        <ele>866.60</ele>
        <time>2012-05-02T11:36:14Z</time>
      </trkpt>
      <trkpt lat="47.452175" lon="13.368020">
        <ele>867.00</ele>
        <time>2012-05-02T11:36:15Z</time>
      </trkpt>
      <trkpt lat="47.452202" lon="13.368030">
        <ele>867.40</ele>
        <time>2012-05-02T11:36:16Z</time>
      </trkpt>
      <trkpt lat="47.452229" lon="13.368048">
        <ele>867.80</ele>
        <time>2012-05-02T11:36:17Z</time>
      </trkpt>
      <trkpt lat="47.452305" lon="13.368104">
        <ele>867.80</ele>
        <time>2012-05-02T11:36:20Z</time>
      </trkpt>
      <trkpt lat="47.452496" lon="13.368207">
        <ele>867.80</ele>
        <time>2012-05-02T11:36:26Z</time>
      </trkpt>
      <trkpt lat="47.452526" lon="13.368227">
        <ele>868.20</ele>
        <time>2012-05-02T11:36:27Z</time>
      </trkpt>
      <trkpt lat="47.452557" lon="13.368247">
        <ele>868.60</ele>
        <time>2012-05-02T11:36:28Z</time>
      </trkpt>
      <trkpt lat="47.452576" lon="13.368269">
        <ele>869.00</ele>
        <time>2012-05-02T11:36:29Z</time>
      </trkpt>
      <trkpt lat="47.452599" lon="13.368294">
        <ele>869.40</ele>
        <time>2012-05-02T11:36:30Z</time>
      </trkpt>
      <trkpt lat="47.452618" lon="13.368317">
        <ele>869.80</ele>
        <time>2012-05-02T11:36:31Z</time>
      </trkpt>
      <trkpt lat="47.452698" lon="13.368385">
        <ele>869.80</ele>
        <time>2012-05-02T11:36:34Z</time>
      </trkpt>
      <trkpt lat="47.452801" lon="13.368485">
        <ele>870.20</ele>
        <time>2012-05-02T11:36:38Z</time>
      </trkpt>
      <trkpt lat="47.452831" lon="13.368496">
        <ele>871.20</ele>
        <time>2012-05-02T11:36:39Z</time>
      </trkpt>
      <trkpt lat="47.452854" lon="13.368510">
        <ele>871.60</ele>
        <time>2012-05-02T11:36:40Z</time>
      </trkpt>
      <trkpt lat="47.452877" lon="13.368530">
        <ele>872.00</ele>
        <time>2012-05-02T11:36:41Z</time>
      </trkpt>
      <trkpt lat="47.453056" lon="13.368632">
        <ele>872.40</ele>
        <time>2012-05-02T11:36:48Z</time>
      </trkpt>
      <trkpt lat="47.453083" lon="13.368636">
        <ele>872.80</ele>
        <time>2012-05-02T11:36:49Z</time>
      </trkpt>
      <trkpt lat="47.453106" lon="13.368638">
        <ele>873.20</ele>
        <time>2012-05-02T11:36:50Z</time>
      </trkpt>
      <trkpt lat="47.453133" lon="13.368635">
        <ele>873.60</ele>
        <time>2012-05-02T11:36:51Z</time>
      </trkpt>
      <trkpt lat="47.453159" lon="13.368640">
        <ele>874.00</ele>
        <time>2012-05-02T11:36:52Z</time>
      </trkpt>
      <trkpt lat="47.453239" lon="13.368658">
        <ele>874.00</ele>
        <time>2012-05-02T11:36:55Z</time>
      </trkpt>
      <trkpt lat="47.453392" lon="13.368707">
        <ele>874.40</ele>
        <time>2012-05-02T11:37:00Z</time>
      </trkpt>
      <trkpt lat="47.453423" lon="13.368718">
        <ele>874.80</ele>
        <time>2012-05-02T11:37:01Z</time>
      </trkpt>
      <trkpt lat="47.453453" lon="13.368731">
        <ele>875.20</ele>
        <time>2012-05-02T11:37:02Z</time>
      </trkpt>
      <trkpt lat="47.453487" lon="13.368741">
        <ele>876.00</ele>
        <time>2012-05-02T11:37:03Z</time>
      </trkpt>
      <trkpt lat="47.453632" lon="13.368792">
        <ele>876.00</ele>
        <time>2012-05-02T11:37:08Z</time>
      </trkpt>
      <trkpt lat="47.453758" lon="13.368824">
        <ele>876.40</ele>
        <time>2012-05-02T11:37:12Z</time>
      </trkpt>
      <trkpt lat="47.453789" lon="13.368834">
        <ele>876.80</ele>
        <time>2012-05-02T11:37:13Z</time>
      </trkpt>
      <trkpt lat="47.453815" lon="13.368842">
        <ele>877.20</ele>
        <time>2012-05-02T11:37:14Z</time>
      </trkpt>
      <trkpt lat="47.453842" lon="13.368849">
        <ele>877.60</ele>
        <time>2012-05-02T11:37:15Z</time>
      </trkpt>
      <trkpt lat="47.453869" lon="13.368857">
        <ele>878.00</ele>
        <time>2012-05-02T11:37:16Z</time>
      </trkpt>
      <trkpt lat="47.454128" lon="13.368960">
        <ele>878.40</ele>
        <time>2012-05-02T11:37:25Z</time>
      </trkpt>
      <trkpt lat="47.454155" lon="13.368975">
        <ele>878.80</ele>
        <time>2012-05-02T11:37:26Z</time>
      </trkpt>
      <trkpt lat="47.454185" lon="13.368985">
        <ele>879.40</ele>
        <time>2012-05-02T11:37:27Z</time>
      </trkpt>
      <trkpt lat="47.454216" lon="13.368995">
        <ele>880.20</ele>
        <time>2012-05-02T11:37:28Z</time>
      </trkpt>
      <trkpt lat="47.454269" lon="13.369028">
        <ele>880.20</ele>
        <time>2012-05-02T11:37:30Z</time>
      </trkpt>
      <trkpt lat="47.454475" lon="13.369159">
        <ele>880.20</ele>
        <time>2012-05-02T11:37:38Z</time>
      </trkpt>
      <trkpt lat="47.454502" lon="13.369177">
        <ele>880.60</ele>
        <time>2012-05-02T11:37:39Z</time>
      </trkpt>
      <trkpt lat="47.454529" lon="13.369196">
        <ele>881.00</ele>
        <time>2012-05-02T11:37:40Z</time>
      </trkpt>
      <trkpt lat="47.454556" lon="13.369216">
        <ele>881.40</ele>
        <time>2012-05-02T11:37:41Z</time>
      </trkpt>
      <trkpt lat="47.454582" lon="13.369239">
        <ele>881.80</ele>
        <time>2012-05-02T11:37:42Z</time>
      </trkpt>
      <trkpt lat="47.454605" lon="13.369259">
        <ele>882.20</ele>
        <time>2012-05-02T11:37:43Z</time>
      </trkpt>
      <trkpt lat="47.454704" lon="13.369339">
        <ele>882.20</ele>
        <time>2012-05-02T11:37:47Z</time>
      </trkpt>
      <trkpt lat="47.454853" lon="13.369444">
        <ele>883.20</ele>
        <time>2012-05-02T11:37:53Z</time>
      </trkpt>
      <trkpt lat="47.454876" lon="13.369460">
        <ele>883.60</ele>
        <time>2012-05-02T11:37:54Z</time>
      </trkpt>
      <trkpt lat="47.454899" lon="13.369478">
        <ele>884.20</ele>
        <time>2012-05-02T11:37:55Z</time>
      </trkpt>
      <trkpt lat="47.454926" lon="13.369503">
        <ele>884.60</ele>
        <time>2012-05-02T11:37:56Z</time>
      </trkpt>
      <trkpt lat="47.455009" lon="13.369552">
        <ele>884.60</ele>
        <time>2012-05-02T11:37:59Z</time>
      </trkpt>
      <trkpt lat="47.455227" lon="13.369705">
        <ele>884.60</ele>
        <time>2012-05-02T11:38:07Z</time>
      </trkpt>
      <trkpt lat="47.455421" lon="13.369833">
        <ele>885.00</ele>
        <time>2012-05-02T11:38:14Z</time>
      </trkpt>
      <trkpt lat="47.455448" lon="13.369853">
        <ele>885.40</ele>
        <time>2012-05-02T11:38:15Z</time>
      </trkpt>
      <trkpt lat="47.455479" lon="13.369872">
        <ele>885.80</ele>
        <time>2012-05-02T11:38:16Z</time>
      </trkpt>
      <trkpt lat="47.455505" lon="13.369893">
        <ele>886.20</ele>
        <time>2012-05-02T11:38:17Z</time>
      </trkpt>
      <trkpt lat="47.455528" lon="13.369915">
        <ele>886.60</ele>
        <time>2012-05-02T11:38:18Z</time>
      </trkpt>
      <trkpt lat="47.455601" lon="13.369976">
        <ele>886.60</ele>
        <time>2012-05-02T11:38:21Z</time>
      </trkpt>
      <trkpt lat="47.455769" lon="13.370101">
        <ele>886.60</ele>
        <time>2012-05-02T11:38:28Z</time>
      </trkpt>
      <trkpt lat="47.455845" lon="13.370152">
        <ele>887.00</ele>
        <time>2012-05-02T11:38:31Z</time>
      </trkpt>
      <trkpt lat="47.455864" lon="13.370170">
        <ele>887.40</ele>
        <time>2012-05-02T11:38:32Z</time>
      </trkpt>
      <trkpt lat="47.455891" lon="13.370193">
        <ele>888.00</ele>
        <time>2012-05-02T11:38:33Z</time>
      </trkpt>
      <trkpt lat="47.455917" lon="13.370214">
        <ele>888.40</ele>
        <time>2012-05-02T11:38:34Z</time>
      </trkpt>
      <trkpt lat="47.455944" lon="13.370232">
        <ele>888.80</ele>
        <time>2012-05-02T11:38:35Z</time>
      </trkpt>
      <trkpt lat="47.455975" lon="13.370250">
        <ele>888.80</ele>
        <time>2012-05-02T11:38:36Z</time>
      </trkpt>
      <trkpt lat="47.456184" lon="13.370432">
        <ele>888.80</ele>
        <time>2012-05-02T11:38:44Z</time>
      </trkpt>
      <trkpt lat="47.456207" lon="13.370458">
        <ele>889.20</ele>
        <time>2012-05-02T11:38:45Z</time>
      </trkpt>
      <trkpt lat="47.456234" lon="13.370485">
        <ele>889.60</ele>
        <time>2012-05-02T11:38:46Z</time>
      </trkpt>
      <trkpt lat="47.456257" lon="13.370512">
        <ele>890.00</ele>
        <time>2012-05-02T11:38:47Z</time>
      </trkpt>
      <trkpt lat="47.456284" lon="13.370541">
        <ele>890.40</ele>
        <time>2012-05-02T11:38:48Z</time>
      </trkpt>
      <trkpt lat="47.456303" lon="13.370568">
        <ele>890.80</ele>
        <time>2012-05-02T11:38:49Z</time>
      </trkpt>
      <trkpt lat="47.456364" lon="13.370665">
        <ele>890.80</ele>
        <time>2012-05-02T11:38:52Z</time>
      </trkpt>
      <trkpt lat="47.456493" lon="13.370841">
        <ele>890.80</ele>
        <time>2012-05-02T11:38:58Z</time>
      </trkpt>
      <trkpt lat="47.456554" lon="13.370949">
        <ele>891.40</ele>
        <time>2012-05-02T11:39:01Z</time>
      </trkpt>
      <trkpt lat="47.456570" lon="13.370990">
        <ele>891.80</ele>
        <time>2012-05-02T11:39:02Z</time>
      </trkpt>
      <trkpt lat="47.456589" lon="13.371026">
        <ele>892.20</ele>
        <time>2012-05-02T11:39:03Z</time>
      </trkpt>
      <trkpt lat="47.456608" lon="13.371059">
        <ele>892.60</ele>
        <time>2012-05-02T11:39:04Z</time>
      </trkpt>
      <trkpt lat="47.456627" lon="13.371097">
        <ele>893.00</ele>
        <time>2012-05-02T11:39:05Z</time>
      </trkpt>
      <trkpt lat="47.456718" lon="13.371328">
        <ele>893.00</ele>
        <time>2012-05-02T11:39:11Z</time>
      </trkpt>
      <trkpt lat="47.456776" lon="13.371483">
        <ele>893.40</ele>
        <time>2012-05-02T11:39:15Z</time>
      </trkpt>
      <trkpt lat="47.456783" lon="13.371522">
        <ele>893.80</ele>
        <time>2012-05-02T11:39:16Z</time>
      </trkpt>
      <trkpt lat="47.456795" lon="13.371562">
        <ele>894.20</ele>
        <time>2012-05-02T11:39:17Z</time>
      </trkpt>
      <trkpt lat="47.456806" lon="13.371600">
        <ele>894.60</ele>
        <time>2012-05-02T11:39:18Z</time>
      </trkpt>
      <trkpt lat="47.456821" lon="13.371636">
        <ele>895.00</ele>
        <time>2012-05-02T11:39:19Z</time>
      </trkpt>
      <trkpt lat="47.456829" lon="13.371678">
        <ele>895.00</ele>
        <time>2012-05-02T11:39:20Z</time>
      </trkpt>
      <trkpt lat="47.456898" lon="13.372055">
        <ele>895.00</ele>
        <time>2012-05-02T11:39:29Z</time>
      </trkpt>
      <trkpt lat="47.456898" lon="13.372100">
        <ele>895.40</ele>
        <time>2012-05-02T11:39:30Z</time>
      </trkpt>
      <trkpt lat="47.456905" lon="13.372149">
        <ele>896.20</ele>
        <time>2012-05-02T11:39:31Z</time>
      </trkpt>
      <trkpt lat="47.456913" lon="13.372193">
        <ele>896.80</ele>
        <time>2012-05-02T11:39:32Z</time>
      </trkpt>
      <trkpt lat="47.456921" lon="13.372240">
        <ele>897.20</ele>
        <time>2012-05-02T11:39:33Z</time>
      </trkpt>
      <trkpt lat="47.456947" lon="13.372466">
        <ele>897.20</ele>
        <time>2012-05-02T11:39:38Z</time>
      </trkpt>
      <trkpt lat="47.456970" lon="13.372682">
        <ele>897.60</ele>
        <time>2012-05-02T11:39:43Z</time>
      </trkpt>
      <trkpt lat="47.456978" lon="13.372725">
        <ele>898.00</ele>
        <time>2012-05-02T11:39:44Z</time>
      </trkpt>
      <trkpt lat="47.456982" lon="13.372766">
        <ele>898.40</ele>
        <time>2012-05-02T11:39:45Z</time>
      </trkpt>
      <trkpt lat="47.456985" lon="13.372805">
        <ele>898.80</ele>
        <time>2012-05-02T11:39:46Z</time>
      </trkpt>
      <trkpt lat="47.456989" lon="13.372848">
        <ele>899.40</ele>
        <time>2012-05-02T11:39:47Z</time>
      </trkpt>
      <trkpt lat="47.457001" lon="13.373011">
        <ele>899.40</ele>
        <time>2012-05-02T11:39:51Z</time>
      </trkpt>
      <trkpt lat="47.457047" lon="13.373255">
        <ele>899.80</ele>
        <time>2012-05-02T11:39:57Z</time>
      </trkpt>
      <trkpt lat="47.457054" lon="13.373298">
        <ele>900.20</ele>
        <time>2012-05-02T11:39:58Z</time>
      </trkpt>
      <trkpt lat="47.457062" lon="13.373341">
        <ele>900.60</ele>
        <time>2012-05-02T11:39:59Z</time>
      </trkpt>
      <trkpt lat="47.457069" lon="13.373384">
        <ele>901.00</ele>
        <time>2012-05-02T11:40:00Z</time>
      </trkpt>
      <trkpt lat="47.457077" lon="13.373423">
        <ele>901.40</ele>
        <time>2012-05-02T11:40:01Z</time>
      </trkpt>
      <trkpt lat="47.457146" lon="13.373622">
        <ele>901.40</ele>
        <time>2012-05-02T11:40:06Z</time>
      </trkpt>
      <trkpt lat="47.457230" lon="13.373813">
        <ele>901.80</ele>
        <time>2012-05-02T11:40:11Z</time>
      </trkpt>
      <trkpt lat="47.457245" lon="13.373848">
        <ele>902.20</ele>
        <time>2012-05-02T11:40:12Z</time>
      </trkpt>
      <trkpt lat="47.457264" lon="13.373883">
        <ele>902.60</ele>
        <time>2012-05-02T11:40:13Z</time>
      </trkpt>
      <trkpt lat="47.457283" lon="13.373914">
        <ele>903.00</ele>
        <time>2012-05-02T11:40:14Z</time>
      </trkpt>
      <trkpt lat="47.457302" lon="13.373947">
        <ele>903.40</ele>
        <time>2012-05-02T11:40:15Z</time>
      </trkpt>
      <trkpt lat="47.457466" lon="13.374150">
        <ele>903.40</ele>
        <time>2012-05-02T11:40:22Z</time>
      </trkpt>
      <trkpt lat="47.457520" lon="13.374197">
        <ele>903.80</ele>
        <time>2012-05-02T11:40:24Z</time>
      </trkpt>
      <trkpt lat="47.457546" lon="13.374218">
        <ele>904.20</ele>
        <time>2012-05-02T11:40:25Z</time>
      </trkpt>
      <trkpt lat="47.457573" lon="13.374239">
        <ele>904.60</ele>
        <time>2012-05-02T11:40:26Z</time>
      </trkpt>
      <trkpt lat="47.457603" lon="13.374255">
        <ele>905.00</ele>
        <time>2012-05-02T11:40:27Z</time>
      </trkpt>
      <trkpt lat="47.457630" lon="13.374269">
        <ele>905.40</ele>
        <time>2012-05-02T11:40:28Z</time>
      </trkpt>
      <trkpt lat="47.457687" lon="13.374307">
        <ele>905.40</ele>
        <time>2012-05-02T11:40:30Z</time>
      </trkpt>
      <trkpt lat="47.457878" lon="13.374422">
        <ele>905.40</ele>
        <time>2012-05-02T11:40:37Z</time>
      </trkpt>
      <trkpt lat="47.457962" lon="13.374469">
        <ele>905.80</ele>
        <time>2012-05-02T11:40:40Z</time>
      </trkpt>
      <trkpt lat="47.457985" lon="13.374486">
        <ele>906.20</ele>
        <time>2012-05-02T11:40:41Z</time>
      </trkpt>
      <trkpt lat="47.458015" lon="13.374501">
        <ele>906.60</ele>
        <time>2012-05-02T11:40:42Z</time>
      </trkpt>
      <trkpt lat="47.458042" lon="13.374518">
        <ele>907.00</ele>
        <time>2012-05-02T11:40:43Z</time>
      </trkpt>
      <trkpt lat="47.458069" lon="13.374535">
        <ele>907.40</ele>
        <time>2012-05-02T11:40:44Z</time>
      </trkpt>
      <trkpt lat="47.458096" lon="13.374549">
        <ele>907.40</ele>
        <time>2012-05-02T11:40:45Z</time>
      </trkpt>
      <trkpt lat="47.458256" lon="13.374636">
        <ele>907.40</ele>
        <time>2012-05-02T11:40:51Z</time>
      </trkpt>
      <trkpt lat="47.458393" lon="13.374699">
        <ele>907.80</ele>
        <time>2012-05-02T11:40:56Z</time>
      </trkpt>
      <trkpt lat="47.458420" lon="13.374710">
        <ele>908.20</ele>
        <time>2012-05-02T11:40:57Z</time>
      </trkpt>
      <trkpt lat="47.458447" lon="13.374722">
        <ele>908.80</ele>
        <time>2012-05-02T11:40:58Z</time>
      </trkpt>
      <trkpt lat="47.458473" lon="13.374737">
        <ele>909.20</ele>
        <time>2012-05-02T11:40:59Z</time>
      </trkpt>
      <trkpt lat="47.458500" lon="13.374755">
        <ele>909.60</ele>
        <time>2012-05-02T11:41:00Z</time>
      </trkpt>
      <trkpt lat="47.458698" lon="13.374866">
        <ele>909.60</ele>
        <time>2012-05-02T11:41:07Z</time>
      </trkpt>
      <trkpt lat="47.458805" lon="13.374949">
        <ele>910.40</ele>
        <time>2012-05-02T11:41:11Z</time>
      </trkpt>
      <trkpt lat="47.458832" lon="13.374969">
        <ele>910.80</ele>
        <time>2012-05-02T11:41:12Z</time>
      </trkpt>
      <trkpt lat="47.458862" lon="13.374996">
        <ele>911.20</ele>
        <time>2012-05-02T11:41:13Z</time>
      </trkpt>
      <trkpt lat="47.458893" lon="13.375020">
        <ele>911.60</ele>
        <time>2012-05-02T11:41:14Z</time>
      </trkpt>
      <trkpt lat="47.459045" lon="13.375173">
        <ele>911.60</ele>
        <time>2012-05-02T11:41:20Z</time>
      </trkpt>
      <trkpt lat="47.459114" lon="13.375249">
        <ele>912.00</ele>
        <time>2012-05-02T11:41:23Z</time>
      </trkpt>
      <trkpt lat="47.459137" lon="13.375273">
        <ele>912.40</ele>
        <time>2012-05-02T11:41:24Z</time>
      </trkpt>
      <trkpt lat="47.459160" lon="13.375299">
        <ele>913.00</ele>
        <time>2012-05-02T11:41:25Z</time>
      </trkpt>
      <trkpt lat="47.459183" lon="13.375323">
        <ele>913.40</ele>
        <time>2012-05-02T11:41:26Z</time>
      </trkpt>
      <trkpt lat="47.459206" lon="13.375351">
        <ele>913.80</ele>
        <time>2012-05-02T11:41:27Z</time>
      </trkpt>
      <trkpt lat="47.459240" lon="13.375407">
        <ele>913.80</ele>
        <time>2012-05-02T11:41:29Z</time>
      </trkpt>
      <trkpt lat="47.459393" lon="13.375675">
        <ele>913.80</ele>
        <time>2012-05-02T11:41:37Z</time>
      </trkpt>
      <trkpt lat="47.459469" lon="13.375805">
        <ele>914.20</ele>
        <time>2012-05-02T11:41:41Z</time>
      </trkpt>
      <trkpt lat="47.459488" lon="13.375836">
        <ele>914.60</ele>
        <time>2012-05-02T11:41:42Z</time>
      </trkpt>
      <trkpt lat="47.459507" lon="13.375868">
        <ele>915.00</ele>
        <time>2012-05-02T11:41:43Z</time>
      </trkpt>
      <trkpt lat="47.459526" lon="13.375900">
        <ele>915.40</ele>
        <time>2012-05-02T11:41:44Z</time>
      </trkpt>
      <trkpt lat="47.459545" lon="13.375933">
        <ele>915.80</ele>
        <time>2012-05-02T11:41:45Z</time>
      </trkpt>
      <trkpt lat="47.459682" lon="13.376119">
        <ele>915.80</ele>
        <time>2012-05-02T11:41:51Z</time>
      </trkpt>
      <trkpt lat="47.459816" lon="13.376320">
        <ele>916.20</ele>
        <time>2012-05-02T11:41:57Z</time>
      </trkpt>
      <trkpt lat="47.459835" lon="13.376352">
        <ele>916.60</ele>
        <time>2012-05-02T11:41:58Z</time>
      </trkpt>
      <trkpt lat="47.459854" lon="13.376388">
        <ele>917.00</ele>
        <time>2012-05-02T11:41:59Z</time>
      </trkpt>
      <trkpt lat="47.459877" lon="13.376421">
        <ele>918.00</ele>
        <time>2012-05-02T11:42:00Z</time>
      </trkpt>
      <trkpt lat="47.459942" lon="13.376525">
        <ele>918.00</ele>
        <time>2012-05-02T11:42:03Z</time>
      </trkpt>
      <trkpt lat="47.460133" lon="13.376874">
        <ele>918.00</ele>
        <time>2012-05-02T11:42:13Z</time>
      </trkpt>
      <trkpt lat="47.460217" lon="13.377013">
        <ele>918.40</ele>
        <time>2012-05-02T11:42:17Z</time>
      </trkpt>
      <trkpt lat="47.460236" lon="13.377046">
        <ele>918.80</ele>
        <time>2012-05-02T11:42:18Z</time>
      </trkpt>
      <trkpt lat="47.460258" lon="13.377076">
        <ele>919.40</ele>
        <time>2012-05-02T11:42:19Z</time>
      </trkpt>
      <trkpt lat="47.460278" lon="13.377109">
        <ele>919.80</ele>
        <time>2012-05-02T11:42:20Z</time>
      </trkpt>
      <trkpt lat="47.460297" lon="13.377141">
        <ele>920.20</ele>
        <time>2012-05-02T11:42:21Z</time>
      </trkpt>
      <trkpt lat="47.460316" lon="13.377172">
        <ele>920.20</ele>
        <time>2012-05-02T11:42:22Z</time>
      </trkpt>
      <trkpt lat="47.460442" lon="13.377402">
        <ele>920.20</ele>
        <time>2012-05-02T11:42:29Z</time>
      </trkpt>
      <trkpt lat="47.460461" lon="13.377438">
        <ele>920.60</ele>
        <time>2012-05-02T11:42:30Z</time>
      </trkpt>
      <trkpt lat="47.460476" lon="13.377471">
        <ele>921.00</ele>
        <time>2012-05-02T11:42:31Z</time>
      </trkpt>
      <trkpt lat="47.460495" lon="13.377507">
        <ele>921.40</ele>
        <time>2012-05-02T11:42:32Z</time>
      </trkpt>
      <trkpt lat="47.460518" lon="13.377543">
        <ele>921.80</ele>
        <time>2012-05-02T11:42:33Z</time>
      </trkpt>
      <trkpt lat="47.460541" lon="13.377575">
        <ele>922.40</ele>
        <time>2012-05-02T11:42:34Z</time>
      </trkpt>
      <trkpt lat="47.460587" lon="13.377645">
        <ele>922.40</ele>
        <time>2012-05-02T11:42:36Z</time>
      </trkpt>
      <trkpt lat="47.460773" lon="13.377925">
        <ele>922.40</ele>
        <time>2012-05-02T11:42:44Z</time>
      </trkpt>
      <trkpt lat="47.461006" lon="13.378319">
        <ele>922.80</ele>
        <time>2012-05-02T11:42:54Z</time>
      </trkpt>
      <trkpt lat="47.461029" lon="13.378358">
        <ele>923.20</ele>
        <time>2012-05-02T11:42:55Z</time>
      </trkpt>
      <trkpt lat="47.461048" lon="13.378399">
        <ele>923.60</ele>
        <time>2012-05-02T11:42:56Z</time>
      </trkpt>
      <trkpt lat="47.461071" lon="13.378442">
        <ele>924.00</ele>
        <time>2012-05-02T11:42:57Z</time>
      </trkpt>
      <trkpt lat="47.461094" lon="13.378482">
        <ele>924.40</ele>
        <time>2012-05-02T11:42:58Z</time>
      </trkpt>
      <trkpt lat="47.461243" lon="13.378716">
        <ele>924.40</ele>
        <time>2012-05-02T11:43:04Z</time>
      </trkpt>
      <trkpt lat="47.461475" lon="13.379067">
        <ele>924.40</ele>
        <time>2012-05-02T11:43:13Z</time>
      </trkpt>
      <trkpt lat="47.461567" lon="13.379177">
        <ele>924.80</ele>
        <time>2012-05-02T11:43:16Z</time>
      </trkpt>
      <trkpt lat="47.461597" lon="13.379216">
        <ele>925.20</ele>
        <time>2012-05-02T11:43:17Z</time>
      </trkpt>
      <trkpt lat="47.461624" lon="13.379256">
        <ele>925.60</ele>
        <time>2012-05-02T11:43:18Z</time>
      </trkpt>
      <trkpt lat="47.461647" lon="13.379295">
        <ele>926.00</ele>
        <time>2012-05-02T11:43:19Z</time>
      </trkpt>
      <trkpt lat="47.461678" lon="13.379333">
        <ele>926.40</ele>
        <time>2012-05-02T11:43:20Z</time>
      </trkpt>
      <trkpt lat="47.461704" lon="13.379372">
        <ele>926.40</ele>
        <time>2012-05-02T11:43:21Z</time>
      </trkpt>
      <trkpt lat="47.462013" lon="13.379746">
        <ele>926.40</ele>
        <time>2012-05-02T11:43:31Z</time>
      </trkpt>
      <trkpt lat="47.462238" lon="13.379957">
        <ele>926.40</ele>
        <time>2012-05-02T11:43:38Z</time>
      </trkpt>
      <trkpt lat="47.462482" lon="13.380167">
        <ele>926.40</ele>
        <time>2012-05-02T11:43:45Z</time>
      </trkpt>
      <trkpt lat="47.462517" lon="13.380192">
        <ele>926.80</ele>
        <time>2012-05-02T11:43:46Z</time>
      </trkpt>
      <trkpt lat="47.462551" lon="13.380218">
        <ele>927.20</ele>
        <time>2012-05-02T11:43:47Z</time>
      </trkpt>
      <trkpt lat="47.462589" lon="13.380246">
        <ele>927.60</ele>
        <time>2012-05-02T11:43:48Z</time>
      </trkpt>
      <trkpt lat="47.462624" lon="13.380273">
        <ele>928.00</ele>
        <time>2012-05-02T11:43:49Z</time>
      </trkpt>
      <trkpt lat="47.462662" lon="13.380300">
        <ele>928.40</ele>
        <time>2012-05-02T11:43:50Z</time>
      </trkpt>
      <trkpt lat="47.462769" lon="13.380373">
        <ele>928.40</ele>
        <time>2012-05-02T11:43:53Z</time>
      </trkpt>
      <trkpt lat="47.463055" lon="13.380557">
        <ele>928.40</ele>
        <time>2012-05-02T11:44:01Z</time>
      </trkpt>
      <trkpt lat="47.463310" lon="13.380696">
        <ele>928.80</ele>
        <time>2012-05-02T11:44:08Z</time>
      </trkpt>
      <trkpt lat="47.463348" lon="13.380713">
        <ele>929.20</ele>
        <time>2012-05-02T11:44:09Z</time>
      </trkpt>
      <trkpt lat="47.463387" lon="13.380733">
        <ele>929.80</ele>
        <time>2012-05-02T11:44:10Z</time>
      </trkpt>
      <trkpt lat="47.463428" lon="13.380754">
        <ele>930.20</ele>
        <time>2012-05-02T11:44:11Z</time>
      </trkpt>
      <trkpt lat="47.463467" lon="13.380774">
        <ele>930.60</ele>
        <time>2012-05-02T11:44:12Z</time>
      </trkpt>
      <trkpt lat="47.463661" lon="13.380867">
        <ele>930.60</ele>
        <time>2012-05-02T11:44:17Z</time>
      </trkpt>
      <trkpt lat="47.464020" lon="13.380994">
        <ele>930.60</ele>
        <time>2012-05-02T11:44:26Z</time>
      </trkpt>
      <trkpt lat="47.464096" lon="13.381014">
        <ele>931.00</ele>
        <time>2012-05-02T11:44:28Z</time>
      </trkpt>
      <trkpt lat="47.464138" lon="13.381025">
        <ele>931.40</ele>
        <time>2012-05-02T11:44:29Z</time>
      </trkpt>
      <trkpt lat="47.464176" lon="13.381032">
        <ele>931.80</ele>
        <time>2012-05-02T11:44:30Z</time>
      </trkpt>
      <trkpt lat="47.464218" lon="13.381040">
        <ele>932.20</ele>
        <time>2012-05-02T11:44:31Z</time>
      </trkpt>
      <trkpt lat="47.464260" lon="13.381048">
        <ele>932.60</ele>
        <time>2012-05-02T11:44:32Z</time>
      </trkpt>
      <trkpt lat="47.464394" lon="13.381064">
        <ele>932.60</ele>
        <time>2012-05-02T11:44:35Z</time>
      </trkpt>
      <trkpt lat="47.464851" lon="13.381056">
        <ele>932.60</ele>
        <time>2012-05-02T11:44:45Z</time>
      </trkpt>
      <trkpt lat="47.465172" lon="13.381069">
        <ele>932.60</ele>
        <time>2012-05-02T11:44:52Z</time>
      </trkpt>
      <trkpt lat="47.465485" lon="13.381109">
        <ele>933.00</ele>
        <time>2012-05-02T11:44:59Z</time>
      </trkpt>
      <trkpt lat="47.465530" lon="13.381112">
        <ele>933.40</ele>
        <time>2012-05-02T11:45:00Z</time>
      </trkpt>
      <trkpt lat="47.465576" lon="13.381120">
        <ele>933.80</ele>
        <time>2012-05-02T11:45:01Z</time>
      </trkpt>
      <trkpt lat="47.465622" lon="13.381128">
        <ele>934.20</ele>
        <time>2012-05-02T11:45:02Z</time>
      </trkpt>
      <trkpt lat="47.465664" lon="13.381137">
        <ele>934.80</ele>
        <time>2012-05-02T11:45:03Z</time>
      </trkpt>
      <trkpt lat="47.465866" lon="13.381189">
        <ele>934.80</ele>
        <time>2012-05-02T11:45:08Z</time>
      </trkpt>
      <trkpt lat="47.466114" lon="13.381269">
        <ele>934.80</ele>
        <time>2012-05-02T11:45:14Z</time>
      </trkpt>
      <trkpt lat="47.466278" lon="13.381347">
        <ele>935.20</ele>
        <time>2012-05-02T11:45:18Z</time>
      </trkpt>
      <trkpt lat="47.466316" lon="13.381372">
        <ele>935.60</ele>
        <time>2012-05-02T11:45:19Z</time>
      </trkpt>
      <trkpt lat="47.466354" lon="13.381396">
        <ele>936.00</ele>
        <time>2012-05-02T11:45:20Z</time>
      </trkpt>
      <trkpt lat="47.466393" lon="13.381420">
        <ele>936.40</ele>
        <time>2012-05-02T11:45:21Z</time>
      </trkpt>
      <trkpt lat="47.466427" lon="13.381441">
        <ele>936.80</ele>
        <time>2012-05-02T11:45:22Z</time>
      </trkpt>
      <trkpt lat="47.466717" lon="13.381670">
        <ele>937.20</ele>
        <time>2012-05-02T11:45:30Z</time>
      </trkpt>
      <trkpt lat="47.466751" lon="13.381700">
        <ele>937.60</ele>
        <time>2012-05-02T11:45:31Z</time>
      </trkpt>
      <trkpt lat="47.466789" lon="13.381728">
        <ele>938.00</ele>
        <time>2012-05-02T11:45:32Z</time>
      </trkpt>
      <trkpt lat="47.466824" lon="13.381760">
        <ele>938.40</ele>
        <time>2012-05-02T11:45:33Z</time>
      </trkpt>
      <trkpt lat="47.466858" lon="13.381794">
        <ele>938.80</ele>
        <time>2012-05-02T11:45:34Z</time>
      </trkpt>
      <trkpt lat="47.467049" lon="13.381998">
        <ele>938.80</ele>
        <time>2012-05-02T11:45:40Z</time>
      </trkpt>
      <trkpt lat="47.467079" lon="13.382038">
        <ele>939.20</ele>
        <time>2012-05-02T11:45:41Z</time>
      </trkpt>
      <trkpt lat="47.467110" lon="13.382077">
        <ele>940.00</ele>
        <time>2012-05-02T11:45:42Z</time>
      </trkpt>
      <trkpt lat="47.467140" lon="13.382116">
        <ele>940.40</ele>
        <time>2012-05-02T11:45:43Z</time>
      </trkpt>
      <trkpt lat="47.467171" lon="13.382153">
        <ele>940.80</ele>
        <time>2012-05-02T11:45:44Z</time>
      </trkpt>
      <trkpt lat="47.467297" lon="13.382307">
        <ele>940.80</ele>
        <time>2012-05-02T11:45:48Z</time>
      </trkpt>
      <trkpt lat="47.467461" lon="13.382490">
        <ele>941.20</ele>
        <time>2012-05-02T11:45:53Z</time>
      </trkpt>
      <trkpt lat="47.467495" lon="13.382524">
        <ele>941.60</ele>
        <time>2012-05-02T11:45:54Z</time>
      </trkpt>
      <trkpt lat="47.467529" lon="13.382551">
        <ele>942.00</ele>
        <time>2012-05-02T11:45:55Z</time>
      </trkpt>
      <trkpt lat="47.467564" lon="13.382577">
        <ele>942.40</ele>
        <time>2012-05-02T11:45:56Z</time>
      </trkpt>
      <trkpt lat="47.467602" lon="13.382601">
        <ele>943.00</ele>
        <time>2012-05-02T11:45:57Z</time>
      </trkpt>
      <trkpt lat="47.467812" lon="13.382754">
        <ele>943.00</ele>
        <time>2012-05-02T11:46:03Z</time>
      </trkpt>
      <trkpt lat="47.467918" lon="13.382831">
        <ele>943.40</ele>
        <time>2012-05-02T11:46:07Z</time>
      </trkpt>
      <trkpt lat="47.467953" lon="13.382854">
        <ele>944.20</ele>
        <time>2012-05-02T11:46:08Z</time>
      </trkpt>
      <trkpt lat="47.467987" lon="13.382875">
        <ele>944.60</ele>
        <time>2012-05-02T11:46:09Z</time>
      </trkpt>
      <trkpt lat="47.468021" lon="13.382896">
        <ele>945.00</ele>
        <time>2012-05-02T11:46:10Z</time>
      </trkpt>
      <trkpt lat="47.468090" lon="13.382938">
        <ele>945.00</ele>
        <time>2012-05-02T11:46:12Z</time>
      </trkpt>
      <trkpt lat="47.468372" lon="13.383107">
        <ele>945.40</ele>
        <time>2012-05-02T11:46:20Z</time>
      </trkpt>
      <trkpt lat="47.468410" lon="13.383135">
        <ele>946.00</ele>
        <time>2012-05-02T11:46:21Z</time>
      </trkpt>
      <trkpt lat="47.468449" lon="13.383160">
        <ele>946.40</ele>
        <time>2012-05-02T11:46:22Z</time>
      </trkpt>
      <trkpt lat="47.468483" lon="13.383184">
        <ele>946.80</ele>
        <time>2012-05-02T11:46:23Z</time>
      </trkpt>
      <trkpt lat="47.468517" lon="13.383208">
        <ele>947.20</ele>
        <time>2012-05-02T11:46:24Z</time>
      </trkpt>
      <trkpt lat="47.468555" lon="13.383228">
        <ele>947.20</ele>
        <time>2012-05-02T11:46:25Z</time>
      </trkpt>
      <trkpt lat="47.468632" lon="13.383270">
        <ele>947.20</ele>
        <time>2012-05-02T11:46:27Z</time>
      </trkpt>
      <trkpt lat="47.468800" lon="13.383388">
        <ele>947.60</ele>
        <time>2012-05-02T11:46:32Z</time>
      </trkpt>
      <trkpt lat="47.468834" lon="13.383410">
        <ele>948.00</ele>
        <time>2012-05-02T11:46:33Z</time>
      </trkpt>
      <trkpt lat="47.468868" lon="13.383430">
        <ele>948.40</ele>
        <time>2012-05-02T11:46:34Z</time>
      </trkpt>
      <trkpt lat="47.468899" lon="13.383447">
        <ele>948.80</ele>
        <time>2012-05-02T11:46:35Z</time>
      </trkpt>
      <trkpt lat="47.468933" lon="13.383467">
        <ele>949.20</ele>
        <time>2012-05-02T11:46:36Z</time>
      </trkpt>
      <trkpt lat="47.469074" lon="13.383551">
        <ele>949.20</ele>
        <time>2012-05-02T11:46:40Z</time>
      </trkpt>
      <trkpt lat="47.469345" lon="13.383702">
        <ele>949.60</ele>
        <time>2012-05-02T11:46:47Z</time>
      </trkpt>
      <trkpt lat="47.469387" lon="13.383724">
        <ele>950.20</ele>
        <time>2012-05-02T11:46:48Z</time>
      </trkpt>
      <trkpt lat="47.469429" lon="13.383748">
        <ele>950.60</ele>
        <time>2012-05-02T11:46:49Z</time>
      </trkpt>
      <trkpt lat="47.469467" lon="13.383771">
        <ele>951.20</ele>
        <time>2012-05-02T11:46:50Z</time>
      </trkpt>
      <trkpt lat="47.469513" lon="13.383801">
        <ele>951.60</ele>
        <time>2012-05-02T11:46:51Z</time>
      </trkpt>
      <trkpt lat="47.469635" lon="13.383882">
        <ele>951.60</ele>
        <time>2012-05-02T11:46:54Z</time>
      </trkpt>
      <trkpt lat="47.469746" lon="13.383965">
        <ele>951.60</ele>
        <time>2012-05-02T11:46:59Z</time>
      </trkpt>
      <trkpt lat="47.469746" lon="13.383969">
        <ele>951.60</ele>
        <time>2012-05-02T11:47:00Z</time>
      </trkpt>
      <trkpt lat="47.469772" lon="13.383947">
        <ele>951.60</ele>
        <time>2012-05-02T11:47:08Z</time>
      </trkpt>
      <trkpt lat="47.469795" lon="13.383901">
        <ele>951.60</ele>
        <time>2012-05-02T11:47:10Z</time>
      </trkpt>
      <trkpt lat="47.469788" lon="13.383826">
        <ele>951.60</ele>
        <time>2012-05-02T11:47:14Z</time>
      </trkpt>
      <trkpt lat="47.469780" lon="13.383821">
        <ele>951.60</ele>
        <time>2012-05-02T11:47:15Z</time>
      </trkpt>
      <trkpt lat="47.469772" lon="13.383819">
        <ele>951.60</ele>
        <time>2012-05-02T11:47:16Z</time>
      </trkpt>
      <trkpt lat="47.469757" lon="13.383791">
        <ele>951.60</ele>
        <time>2012-05-02T11:51:01Z</time>
      </trkpt>
      <trkpt lat="47.469727" lon="13.383765">
        <ele>951.60</ele>
        <time>2012-05-02T11:51:03Z</time>
      </trkpt>
      <trkpt lat="47.469624" lon="13.383766">
        <ele>951.60</ele>
        <time>2012-05-02T11:51:08Z</time>
      </trkpt>
      <trkpt lat="47.469444" lon="13.383670">
        <ele>951.60</ele>
        <time>2012-05-02T11:51:14Z</time>
      </trkpt>
      <trkpt lat="47.469200" lon="13.383560">
        <ele>951.60</ele>
        <time>2012-05-02T11:51:20Z</time>
      </trkpt>
      <trkpt lat="47.468842" lon="13.383365">
        <ele>951.60</ele>
        <time>2012-05-02T11:51:27Z</time>
      </trkpt>
      <trkpt lat="47.468410" lon="13.383108">
        <ele>951.60</ele>
        <time>2012-05-02T11:51:34Z</time>
      </trkpt>
      <trkpt lat="47.467907" lon="13.382776">
        <ele>951.20</ele>
        <time>2012-05-02T11:51:41Z</time>
      </trkpt>
      <trkpt lat="47.467827" lon="13.382723">
        <ele>950.80</ele>
        <time>2012-05-02T11:51:42Z</time>
      </trkpt>
      <trkpt lat="47.467751" lon="13.382666">
        <ele>950.40</ele>
        <time>2012-05-02T11:51:43Z</time>
      </trkpt>
      <trkpt lat="47.467674" lon="13.382605">
        <ele>950.00</ele>
        <time>2012-05-02T11:51:44Z</time>
      </trkpt>
      <trkpt lat="47.467594" lon="13.382543">
        <ele>949.60</ele>
        <time>2012-05-02T11:51:45Z</time>
      </trkpt>
      <trkpt lat="47.467445" lon="13.382400">
        <ele>949.60</ele>
        <time>2012-05-02T11:51:47Z</time>
      </trkpt>
      <trkpt lat="47.467304" lon="13.382236">
        <ele>949.00</ele>
        <time>2012-05-02T11:51:49Z</time>
      </trkpt>
      <trkpt lat="47.467228" lon="13.382150">
        <ele>948.60</ele>
        <time>2012-05-02T11:51:50Z</time>
      </trkpt>
      <trkpt lat="47.467155" lon="13.382069">
        <ele>948.20</ele>
        <time>2012-05-02T11:51:51Z</time>
      </trkpt>
      <trkpt lat="47.467079" lon="13.381985">
        <ele>947.80</ele>
        <time>2012-05-02T11:51:52Z</time>
      </trkpt>
      <trkpt lat="47.467007" lon="13.381901">
        <ele>947.40</ele>
        <time>2012-05-02T11:51:53Z</time>
      </trkpt>
      <trkpt lat="47.466927" lon="13.381815">
        <ele>947.40</ele>
        <time>2012-05-02T11:51:54Z</time>
      </trkpt>
      <trkpt lat="47.466846" lon="13.381736">
        <ele>947.00</ele>
        <time>2012-05-02T11:51:55Z</time>
      </trkpt>
      <trkpt lat="47.466763" lon="13.381662">
        <ele>946.60</ele>
        <time>2012-05-02T11:51:56Z</time>
      </trkpt>
      <trkpt lat="47.466679" lon="13.381590">
        <ele>946.20</ele>
        <time>2012-05-02T11:51:57Z</time>
      </trkpt>
      <trkpt lat="47.466591" lon="13.381516">
        <ele>945.60</ele>
        <time>2012-05-02T11:51:58Z</time>
      </trkpt>
      <trkpt lat="47.466503" lon="13.381448">
        <ele>945.20</ele>
        <time>2012-05-02T11:51:59Z</time>
      </trkpt>
      <trkpt lat="47.466412" lon="13.381384">
        <ele>944.60</ele>
        <time>2012-05-02T11:52:00Z</time>
      </trkpt>
      <trkpt lat="47.466320" lon="13.381325">
        <ele>943.40</ele>
        <time>2012-05-02T11:52:01Z</time>
      </trkpt>
      <trkpt lat="47.466225" lon="13.381269">
        <ele>942.80</ele>
        <time>2012-05-02T11:52:02Z</time>
      </trkpt>
      <trkpt lat="47.466030" lon="13.381173">
        <ele>942.40</ele>
        <time>2012-05-02T11:52:04Z</time>
      </trkpt>
      <trkpt lat="47.465935" lon="13.381132">
        <ele>942.00</ele>
        <time>2012-05-02T11:52:05Z</time>
      </trkpt>
      <trkpt lat="47.465828" lon="13.381093">
        <ele>941.60</ele>
        <time>2012-05-02T11:52:06Z</time>
      </trkpt>
      <trkpt lat="47.465733" lon="13.381066">
        <ele>941.20</ele>
        <time>2012-05-02T11:52:07Z</time>
      </trkpt>
      <trkpt lat="47.465637" lon="13.381044">
        <ele>940.60</ele>
        <time>2012-05-02T11:52:08Z</time>
      </trkpt>
      <trkpt lat="47.465450" lon="13.381018">
        <ele>940.60</ele>
        <time>2012-05-02T11:52:10Z</time>
      </trkpt>
      <trkpt lat="47.464993" lon="13.380973">
        <ele>940.20</ele>
        <time>2012-05-02T11:52:15Z</time>
      </trkpt>
      <trkpt lat="47.464901" lon="13.380966">
        <ele>939.80</ele>
        <time>2012-05-02T11:52:16Z</time>
      </trkpt>
      <trkpt lat="47.464809" lon="13.380959">
        <ele>939.20</ele>
        <time>2012-05-02T11:52:17Z</time>
      </trkpt>
      <trkpt lat="47.464718" lon="13.380949">
        <ele>938.80</ele>
        <time>2012-05-02T11:52:18Z</time>
      </trkpt>
      <trkpt lat="47.464630" lon="13.380946">
        <ele>938.40</ele>
        <time>2012-05-02T11:52:19Z</time>
      </trkpt>
      <trkpt lat="47.464455" lon="13.380947">
        <ele>937.80</ele>
        <time>2012-05-02T11:52:21Z</time>
      </trkpt>
      <trkpt lat="47.464367" lon="13.380948">
        <ele>937.40</ele>
        <time>2012-05-02T11:52:22Z</time>
      </trkpt>
      <trkpt lat="47.464283" lon="13.380946">
        <ele>937.00</ele>
        <time>2012-05-02T11:52:23Z</time>
      </trkpt>
      <trkpt lat="47.464199" lon="13.380940">
        <ele>936.40</ele>
        <time>2012-05-02T11:52:24Z</time>
      </trkpt>
      <trkpt lat="47.464115" lon="13.380930">
        <ele>935.00</ele>
        <time>2012-05-02T11:52:25Z</time>
      </trkpt>
      <trkpt lat="47.464027" lon="13.380916">
        <ele>934.40</ele>
        <time>2012-05-02T11:52:26Z</time>
      </trkpt>
      <trkpt lat="47.463943" lon="13.380901">
        <ele>933.80</ele>
        <time>2012-05-02T11:52:27Z</time>
      </trkpt>
      <trkpt lat="47.463528" lon="13.380749">
        <ele>933.80</ele>
        <time>2012-05-02T11:52:32Z</time>
      </trkpt>
      <trkpt lat="47.462986" lon="13.380458">
        <ele>933.80</ele>
        <time>2012-05-02T11:52:39Z</time>
      </trkpt>
      <trkpt lat="47.462914" lon="13.380415">
        <ele>933.80</ele>
        <time>2012-05-02T11:52:40Z</time>
      </trkpt>
      <trkpt lat="47.462463" lon="13.380086">
        <ele>933.80</ele>
        <time>2012-05-02T11:52:46Z</time>
      </trkpt>
      <trkpt lat="47.462238" lon="13.379891">
        <ele>933.40</ele>
        <time>2012-05-02T11:52:49Z</time>
      </trkpt>
      <trkpt lat="47.462166" lon="13.379823">
        <ele>932.40</ele>
        <time>2012-05-02T11:52:50Z</time>
      </trkpt>
      <trkpt lat="47.462090" lon="13.379743">
        <ele>932.00</ele>
        <time>2012-05-02T11:52:51Z</time>
      </trkpt>
      <trkpt lat="47.462017" lon="13.379666">
        <ele>931.60</ele>
        <time>2012-05-02T11:52:52Z</time>
      </trkpt>
      <trkpt lat="47.461735" lon="13.379343">
        <ele>931.00</ele>
        <time>2012-05-02T11:52:56Z</time>
      </trkpt>
      <trkpt lat="47.461666" lon="13.379257">
        <ele>930.60</ele>
        <time>2012-05-02T11:52:57Z</time>
      </trkpt>
      <trkpt lat="47.461601" lon="13.379168">
        <ele>930.20</ele>
        <time>2012-05-02T11:52:58Z</time>
      </trkpt>
      <trkpt lat="47.461540" lon="13.379076">
        <ele>929.60</ele>
        <time>2012-05-02T11:52:59Z</time>
      </trkpt>
      <trkpt lat="47.461472" lon="13.378977">
        <ele>929.20</ele>
        <time>2012-05-02T11:53:00Z</time>
      </trkpt>
      <trkpt lat="47.461285" lon="13.378683">
        <ele>928.80</ele>
        <time>2012-05-02T11:53:03Z</time>
      </trkpt>
      <trkpt lat="47.461220" lon="13.378587">
        <ele>928.40</ele>
        <time>2012-05-02T11:53:04Z</time>
      </trkpt>
      <trkpt lat="47.461155" lon="13.378494">
        <ele>928.00</ele>
        <time>2012-05-02T11:53:05Z</time>
      </trkpt>
      <trkpt lat="47.461086" lon="13.378400">
        <ele>927.60</ele>
        <time>2012-05-02T11:53:06Z</time>
      </trkpt>
      <trkpt lat="47.461018" lon="13.378300">
        <ele>927.00</ele>
        <time>2012-05-02T11:53:07Z</time>
      </trkpt>
      <trkpt lat="47.460793" lon="13.377903">
        <ele>927.00</ele>
        <time>2012-05-02T11:53:11Z</time>
      </trkpt>
      <trkpt lat="47.460430" lon="13.377295">
        <ele>926.60</ele>
        <time>2012-05-02T11:53:17Z</time>
      </trkpt>
      <trkpt lat="47.460369" lon="13.377192">
        <ele>926.20</ele>
        <time>2012-05-02T11:53:18Z</time>
      </trkpt>
      <trkpt lat="47.460304" lon="13.377084">
        <ele>925.80</ele>
        <time>2012-05-02T11:53:19Z</time>
      </trkpt>
      <trkpt lat="47.460243" lon="13.376976">
        <ele>925.40</ele>
        <time>2012-05-02T11:53:20Z</time>
      </trkpt>
      <trkpt lat="47.460178" lon="13.376868">
        <ele>925.00</ele>
        <time>2012-05-02T11:53:21Z</time>
      </trkpt>
      <trkpt lat="47.459984" lon="13.376535">
        <ele>924.60</ele>
        <time>2012-05-02T11:53:24Z</time>
      </trkpt>
      <trkpt lat="47.459915" lon="13.376422">
        <ele>924.20</ele>
        <time>2012-05-02T11:53:25Z</time>
      </trkpt>
      <trkpt lat="47.459850" lon="13.376308">
        <ele>923.60</ele>
        <time>2012-05-02T11:53:26Z</time>
      </trkpt>
      <trkpt lat="47.459782" lon="13.376197">
        <ele>923.20</ele>
        <time>2012-05-02T11:53:27Z</time>
      </trkpt>
      <trkpt lat="47.459713" lon="13.376086">
        <ele>922.60</ele>
        <time>2012-05-02T11:53:28Z</time>
      </trkpt>
      <trkpt lat="47.459648" lon="13.375976">
        <ele>922.00</ele>
        <time>2012-05-02T11:53:29Z</time>
      </trkpt>
      <trkpt lat="47.459579" lon="13.375866">
        <ele>921.40</ele>
        <time>2012-05-02T11:53:30Z</time>
      </trkpt>
      <trkpt lat="47.459511" lon="13.375749">
        <ele>920.80</ele>
        <time>2012-05-02T11:53:31Z</time>
      </trkpt>
      <trkpt lat="47.459442" lon="13.375635">
        <ele>920.20</ele>
        <time>2012-05-02T11:53:32Z</time>
      </trkpt>
      <trkpt lat="47.459297" lon="13.375414">
        <ele>920.20</ele>
        <time>2012-05-02T11:53:34Z</time>
      </trkpt>
      <trkpt lat="47.459148" lon="13.375202">
        <ele>919.80</ele>
        <time>2012-05-02T11:53:36Z</time>
      </trkpt>
      <trkpt lat="47.459072" lon="13.375104">
        <ele>919.20</ele>
        <time>2012-05-02T11:53:37Z</time>
      </trkpt>
      <trkpt lat="47.458981" lon="13.375010">
        <ele>918.80</ele>
        <time>2012-05-02T11:53:38Z</time>
      </trkpt>
      <trkpt lat="47.458893" lon="13.374926">
        <ele>917.80</ele>
        <time>2012-05-02T11:53:39Z</time>
      </trkpt>
      <trkpt lat="47.458710" lon="13.374777">
        <ele>917.40</ele>
        <time>2012-05-02T11:53:41Z</time>
      </trkpt>
      <trkpt lat="47.458614" lon="13.374712">
        <ele>916.80</ele>
        <time>2012-05-02T11:53:42Z</time>
      </trkpt>
      <trkpt lat="47.458511" lon="13.374653">
        <ele>916.40</ele>
        <time>2012-05-02T11:53:43Z</time>
      </trkpt>
      <trkpt lat="47.458408" lon="13.374598">
        <ele>915.80</ele>
        <time>2012-05-02T11:53:44Z</time>
      </trkpt>
      <trkpt lat="47.458305" lon="13.374543">
        <ele>915.20</ele>
        <time>2012-05-02T11:53:45Z</time>
      </trkpt>
      <trkpt lat="47.458202" lon="13.374491">
        <ele>914.60</ele>
        <time>2012-05-02T11:53:46Z</time>
      </trkpt>
      <trkpt lat="47.458099" lon="13.374445">
        <ele>914.20</ele>
        <time>2012-05-02T11:53:47Z</time>
      </trkpt>
      <trkpt lat="47.457996" lon="13.374397">
        <ele>913.60</ele>
        <time>2012-05-02T11:53:48Z</time>
      </trkpt>
      <trkpt lat="47.457890" lon="13.374344">
        <ele>913.00</ele>
        <time>2012-05-02T11:53:49Z</time>
      </trkpt>
      <trkpt lat="47.457787" lon="13.374289">
        <ele>912.40</ele>
        <time>2012-05-02T11:53:50Z</time>
      </trkpt>
      <trkpt lat="47.457684" lon="13.374226">
        <ele>911.80</ele>
        <time>2012-05-02T11:53:51Z</time>
      </trkpt>
      <trkpt lat="47.457573" lon="13.374150">
        <ele>911.20</ele>
        <time>2012-05-02T11:53:52Z</time>
      </trkpt>
      <trkpt lat="47.457478" lon="13.374070">
        <ele>910.60</ele>
        <time>2012-05-02T11:53:53Z</time>
      </trkpt>
      <trkpt lat="47.457386" lon="13.373975">
        <ele>910.00</ele>
        <time>2012-05-02T11:53:54Z</time>
      </trkpt>
      <trkpt lat="47.457298" lon="13.373868">
        <ele>909.40</ele>
        <time>2012-05-02T11:53:55Z</time>
      </trkpt>
      <trkpt lat="47.457222" lon="13.373742">
        <ele>908.80</ele>
        <time>2012-05-02T11:53:56Z</time>
      </trkpt>
      <trkpt lat="47.457157" lon="13.373603">
        <ele>908.20</ele>
        <time>2012-05-02T11:53:57Z</time>
      </trkpt>
      <trkpt lat="47.457100" lon="13.373451">
        <ele>907.60</ele>
        <time>2012-05-02T11:53:58Z</time>
      </trkpt>
      <trkpt lat="47.457062" lon="13.373286">
        <ele>907.00</ele>
        <time>2012-05-02T11:53:59Z</time>
      </trkpt>
      <trkpt lat="47.457027" lon="13.373115">
        <ele>906.40</ele>
        <time>2012-05-02T11:54:00Z</time>
      </trkpt>
      <trkpt lat="47.457005" lon="13.372926">
        <ele>906.00</ele>
        <time>2012-05-02T11:54:01Z</time>
      </trkpt>
      <trkpt lat="47.456985" lon="13.372744">
        <ele>906.00</ele>
        <time>2012-05-02T11:54:02Z</time>
      </trkpt>
      <trkpt lat="47.456966" lon="13.372561">
        <ele>905.40</ele>
        <time>2012-05-02T11:54:03Z</time>
      </trkpt>
      <trkpt lat="47.456944" lon="13.372382">
        <ele>904.60</ele>
        <time>2012-05-02T11:54:04Z</time>
      </trkpt>
      <trkpt lat="47.456924" lon="13.372203">
        <ele>904.20</ele>
        <time>2012-05-02T11:54:05Z</time>
      </trkpt>
      <trkpt lat="47.456902" lon="13.372025">
        <ele>903.80</ele>
        <time>2012-05-02T11:54:06Z</time>
      </trkpt>
      <trkpt lat="47.456848" lon="13.371659">
        <ele>903.40</ele>
        <time>2012-05-02T11:54:08Z</time>
      </trkpt>
      <trkpt lat="47.456814" lon="13.371486">
        <ele>903.00</ele>
        <time>2012-05-02T11:54:09Z</time>
      </trkpt>
      <trkpt lat="47.456768" lon="13.371325">
        <ele>902.40</ele>
        <time>2012-05-02T11:54:10Z</time>
      </trkpt>
      <trkpt lat="47.456711" lon="13.371173">
        <ele>901.80</ele>
        <time>2012-05-02T11:54:11Z</time>
      </trkpt>
      <trkpt lat="47.456642" lon="13.371034">
        <ele>901.20</ele>
        <time>2012-05-02T11:54:12Z</time>
      </trkpt>
      <trkpt lat="47.456566" lon="13.370900">
        <ele>900.60</ele>
        <time>2012-05-02T11:54:13Z</time>
      </trkpt>
      <trkpt lat="47.456490" lon="13.370768">
        <ele>899.80</ele>
        <time>2012-05-02T11:54:14Z</time>
      </trkpt>
      <trkpt lat="47.456409" lon="13.370641">
        <ele>899.20</ele>
        <time>2012-05-02T11:54:15Z</time>
      </trkpt>
      <trkpt lat="47.456318" lon="13.370513">
        <ele>898.40</ele>
        <time>2012-05-02T11:54:16Z</time>
      </trkpt>
      <trkpt lat="47.456226" lon="13.370398">
        <ele>897.60</ele>
        <time>2012-05-02T11:54:17Z</time>
      </trkpt>
      <trkpt lat="47.456127" lon="13.370296">
        <ele>897.00</ele>
        <time>2012-05-02T11:54:18Z</time>
      </trkpt>
      <trkpt lat="47.456020" lon="13.370205">
        <ele>896.40</ele>
        <time>2012-05-02T11:54:19Z</time>
      </trkpt>
      <trkpt lat="47.455914" lon="13.370123">
        <ele>895.80</ele>
        <time>2012-05-02T11:54:20Z</time>
      </trkpt>
      <trkpt lat="47.455807" lon="13.370043">
        <ele>895.20</ele>
        <time>2012-05-02T11:54:21Z</time>
      </trkpt>
      <trkpt lat="47.455696" lon="13.369963">
        <ele>894.60</ele>
        <time>2012-05-02T11:54:22Z</time>
      </trkpt>
      <trkpt lat="47.455360" lon="13.369738">
        <ele>894.20</ele>
        <time>2012-05-02T11:54:25Z</time>
      </trkpt>
      <trkpt lat="47.455250" lon="13.369663">
        <ele>893.60</ele>
        <time>2012-05-02T11:54:26Z</time>
      </trkpt>
      <trkpt lat="47.455139" lon="13.369587">
        <ele>892.80</ele>
        <time>2012-05-02T11:54:27Z</time>
      </trkpt>
      <trkpt lat="47.455029" lon="13.369518">
        <ele>892.00</ele>
        <time>2012-05-02T11:54:28Z</time>
      </trkpt>
      <trkpt lat="47.454922" lon="13.369449">
        <ele>890.60</ele>
        <time>2012-05-02T11:54:29Z</time>
      </trkpt>
      <trkpt lat="47.454815" lon="13.369373">
        <ele>889.80</ele>
        <time>2012-05-02T11:54:30Z</time>
      </trkpt>
      <trkpt lat="47.454491" lon="13.369130">
        <ele>889.20</ele>
        <time>2012-05-02T11:54:33Z</time>
      </trkpt>
      <trkpt lat="47.454384" lon="13.369053">
        <ele>888.80</ele>
        <time>2012-05-02T11:54:34Z</time>
      </trkpt>
      <trkpt lat="47.454273" lon="13.368979">
        <ele>888.00</ele>
        <time>2012-05-02T11:54:35Z</time>
      </trkpt>
      <trkpt lat="47.454155" lon="13.368916">
        <ele>887.40</ele>
        <time>2012-05-02T11:54:36Z</time>
      </trkpt>
      <trkpt lat="47.454037" lon="13.368861">
        <ele>886.60</ele>
        <time>2012-05-02T11:54:37Z</time>
      </trkpt>
      <trkpt lat="47.453915" lon="13.368819">
        <ele>885.80</ele>
        <time>2012-05-02T11:54:38Z</time>
      </trkpt>
      <trkpt lat="47.453796" lon="13.368785">
        <ele>885.00</ele>
        <time>2012-05-02T11:54:39Z</time>
      </trkpt>
      <trkpt lat="47.453568" lon="13.368734">
        <ele>884.40</ele>
        <time>2012-05-02T11:54:41Z</time>
      </trkpt>
      <trkpt lat="47.453449" lon="13.368712">
        <ele>884.00</ele>
        <time>2012-05-02T11:54:42Z</time>
      </trkpt>
      <trkpt lat="47.453327" lon="13.368685">
        <ele>883.20</ele>
        <time>2012-05-02T11:54:43Z</time>
      </trkpt>
      <trkpt lat="47.453201" lon="13.368648">
        <ele>882.60</ele>
        <time>2012-05-02T11:54:44Z</time>
      </trkpt>
      <trkpt lat="47.453083" lon="13.368599">
        <ele>881.80</ele>
        <time>2012-05-02T11:54:45Z</time>
      </trkpt>
      <trkpt lat="47.452969" lon="13.368535">
        <ele>881.20</ele>
        <time>2012-05-02T11:54:46Z</time>
      </trkpt>
      <trkpt lat="47.452854" lon="13.368466">
        <ele>880.60</ele>
        <time>2012-05-02T11:54:47Z</time>
      </trkpt>
      <trkpt lat="47.452740" lon="13.368393">
        <ele>879.80</ele>
        <time>2012-05-02T11:54:48Z</time>
      </trkpt>
      <trkpt lat="47.452625" lon="13.368307">
        <ele>879.20</ele>
        <time>2012-05-02T11:54:49Z</time>
      </trkpt>
      <trkpt lat="47.452518" lon="13.368216">
        <ele>878.40</ele>
        <time>2012-05-02T11:54:50Z</time>
      </trkpt>
      <trkpt lat="47.452408" lon="13.368117">
        <ele>877.80</ele>
        <time>2012-05-02T11:54:51Z</time>
      </trkpt>
      <trkpt lat="47.452290" lon="13.368015">
        <ele>877.00</ele>
        <time>2012-05-02T11:54:52Z</time>
      </trkpt>
      <trkpt lat="47.452171" lon="13.367915">
        <ele>876.40</ele>
        <time>2012-05-02T11:54:53Z</time>
      </trkpt>
      <trkpt lat="47.452057" lon="13.367824">
        <ele>875.00</ele>
        <time>2012-05-02T11:54:54Z</time>
      </trkpt>
      <trkpt lat="47.451939" lon="13.367742">
        <ele>874.20</ele>
        <time>2012-05-02T11:54:55Z</time>
      </trkpt>
      <trkpt lat="47.451820" lon="13.367668">
        <ele>873.60</ele>
        <time>2012-05-02T11:54:56Z</time>
      </trkpt>
      <trkpt lat="47.451698" lon="13.367594">
        <ele>872.80</ele>
        <time>2012-05-02T11:54:57Z</time>
      </trkpt>
      <trkpt lat="47.451580" lon="13.367518">
        <ele>872.00</ele>
        <time>2012-05-02T11:54:58Z</time>
      </trkpt>
      <trkpt lat="47.451466" lon="13.367444">
        <ele>871.20</ele>
        <time>2012-05-02T11:54:59Z</time>
      </trkpt>
      <trkpt lat="47.451347" lon="13.367373">
        <ele>870.40</ele>
        <time>2012-05-02T11:55:00Z</time>
      </trkpt>
      <trkpt lat="47.451225" lon="13.367288">
        <ele>869.60</ele>
        <time>2012-05-02T11:55:01Z</time>
      </trkpt>
      <trkpt lat="47.451107" lon="13.367202">
        <ele>868.60</ele>
        <time>2012-05-02T11:55:02Z</time>
      </trkpt>
      <trkpt lat="47.450989" lon="13.367119">
        <ele>867.80</ele>
        <time>2012-05-02T11:55:03Z</time>
      </trkpt>
      <trkpt lat="47.450867" lon="13.367036">
        <ele>867.80</ele>
        <time>2012-05-02T11:55:04Z</time>
      </trkpt>
      <trkpt lat="47.450745" lon="13.366941">
        <ele>867.20</ele>
        <time>2012-05-02T11:55:05Z</time>
      </trkpt>
      <trkpt lat="47.450630" lon="13.366851">
        <ele>866.60</ele>
        <time>2012-05-02T11:55:06Z</time>
      </trkpt>
      <trkpt lat="47.450520" lon="13.366760">
        <ele>866.20</ele>
        <time>2012-05-02T11:55:07Z</time>
      </trkpt>
      <trkpt lat="47.450405" lon="13.366662">
        <ele>865.40</ele>
        <time>2012-05-02T11:55:08Z</time>
      </trkpt>
      <trkpt lat="47.450294" lon="13.366555">
        <ele>864.80</ele>
        <time>2012-05-02T11:55:09Z</time>
      </trkpt>
      <trkpt lat="47.450195" lon="13.366450">
        <ele>864.00</ele>
        <time>2012-05-02T11:55:10Z</time>
      </trkpt>
      <trkpt lat="47.450100" lon="13.366356">
        <ele>863.40</ele>
        <time>2012-05-02T11:55:11Z</time>
      </trkpt>
      <trkpt lat="47.450001" lon="13.366257">
        <ele>862.60</ele>
        <time>2012-05-02T11:55:12Z</time>
      </trkpt>
      <trkpt lat="47.449905" lon="13.366153">
        <ele>862.00</ele>
        <time>2012-05-02T11:55:13Z</time>
      </trkpt>
      <trkpt lat="47.449814" lon="13.366049">
        <ele>861.20</ele>
        <time>2012-05-02T11:55:14Z</time>
      </trkpt>
      <trkpt lat="47.449718" lon="13.365942">
        <ele>860.40</ele>
        <time>2012-05-02T11:55:15Z</time>
      </trkpt>
      <trkpt lat="47.449345" lon="13.365542">
        <ele>859.60</ele>
        <time>2012-05-02T11:55:19Z</time>
      </trkpt>
      <trkpt lat="47.449245" lon="13.365456">
        <ele>859.00</ele>
        <time>2012-05-02T11:55:20Z</time>
      </trkpt>
      <trkpt lat="47.449146" lon="13.365368">
        <ele>858.40</ele>
        <time>2012-05-02T11:55:21Z</time>
      </trkpt>
      <trkpt lat="47.449047" lon="13.365279">
        <ele>857.80</ele>
        <time>2012-05-02T11:55:22Z</time>
      </trkpt>
      <trkpt lat="47.448948" lon="13.365195">
        <ele>857.00</ele>
        <time>2012-05-02T11:55:23Z</time>
      </trkpt>
      <trkpt lat="47.448845" lon="13.365121">
        <ele>856.40</ele>
        <time>2012-05-02T11:55:24Z</time>
      </trkpt>
      <trkpt lat="47.448746" lon="13.365052">
        <ele>855.60</ele>
        <time>2012-05-02T11:55:25Z</time>
      </trkpt>
      <trkpt lat="47.448647" lon="13.364988">
        <ele>855.20</ele>
        <time>2012-05-02T11:55:26Z</time>
      </trkpt>
      <trkpt lat="47.448547" lon="13.364928">
        <ele>854.80</ele>
        <time>2012-05-02T11:55:27Z</time>
      </trkpt>
      <trkpt lat="47.448444" lon="13.364868">
        <ele>854.40</ele>
        <time>2012-05-02T11:55:28Z</time>
      </trkpt>
      <trkpt lat="47.448341" lon="13.364816">
        <ele>853.80</ele>
        <time>2012-05-02T11:55:29Z</time>
      </trkpt>
      <trkpt lat="47.448235" lon="13.364771">
        <ele>853.40</ele>
        <time>2012-05-02T11:55:30Z</time>
      </trkpt>
      <trkpt lat="47.448124" lon="13.364728">
        <ele>853.40</ele>
        <time>2012-05-02T11:55:31Z</time>
      </trkpt>
      <trkpt lat="47.447895" lon="13.364635">
        <ele>853.00</ele>
        <time>2012-05-02T11:55:33Z</time>
      </trkpt>
      <trkpt lat="47.447784" lon="13.364587">
        <ele>852.60</ele>
        <time>2012-05-02T11:55:34Z</time>
      </trkpt>
      <trkpt lat="47.447674" lon="13.364543">
        <ele>852.20</ele>
        <time>2012-05-02T11:55:35Z</time>
      </trkpt>
      <trkpt lat="47.447563" lon="13.364501">
        <ele>851.60</ele>
        <time>2012-05-02T11:55:36Z</time>
      </trkpt>
      <trkpt lat="47.447453" lon="13.364455">
        <ele>851.00</ele>
        <time>2012-05-02T11:55:37Z</time>
      </trkpt>
      <trkpt lat="47.447342" lon="13.364412">
        <ele>850.40</ele>
        <time>2012-05-02T11:55:38Z</time>
      </trkpt>
      <trkpt lat="47.447224" lon="13.364373">
        <ele>849.80</ele>
        <time>2012-05-02T11:55:39Z</time>
      </trkpt>
      <trkpt lat="47.447113" lon="13.364340">
        <ele>849.40</ele>
        <time>2012-05-02T11:55:40Z</time>
      </trkpt>
      <trkpt lat="47.447002" lon="13.364310">
        <ele>848.80</ele>
        <time>2012-05-02T11:55:41Z</time>
      </trkpt>
      <trkpt lat="47.446888" lon="13.364275">
        <ele>848.20</ele>
        <time>2012-05-02T11:55:42Z</time>
      </trkpt>
      <trkpt lat="47.446774" lon="13.364243">
        <ele>847.20</ele>
        <time>2012-05-02T11:55:43Z</time>
      </trkpt>
      <trkpt lat="47.446545" lon="13.364181">
        <ele>846.80</ele>
        <time>2012-05-02T11:55:45Z</time>
      </trkpt>
      <trkpt lat="47.446426" lon="13.364145">
        <ele>846.40</ele>
        <time>2012-05-02T11:55:46Z</time>
      </trkpt>
      <trkpt lat="47.446316" lon="13.364113">
        <ele>845.80</ele>
        <time>2012-05-02T11:55:47Z</time>
      </trkpt>
      <trkpt lat="47.446205" lon="13.364079">
        <ele>845.40</ele>
        <time>2012-05-02T11:55:48Z</time>
      </trkpt>
      <trkpt lat="47.446091" lon="13.364045">
        <ele>845.00</ele>
        <time>2012-05-02T11:55:49Z</time>
      </trkpt>
      <trkpt lat="47.445644" lon="13.363864">
        <ele>844.60</ele>
        <time>2012-05-02T11:55:53Z</time>
      </trkpt>
      <trkpt lat="47.445530" lon="13.363797">
        <ele>844.00</ele>
        <time>2012-05-02T11:55:54Z</time>
      </trkpt>
      <trkpt lat="47.445423" lon="13.363729">
        <ele>843.60</ele>
        <time>2012-05-02T11:55:55Z</time>
      </trkpt>
      <trkpt lat="47.445320" lon="13.363651">
        <ele>843.20</ele>
        <time>2012-05-02T11:55:56Z</time>
      </trkpt>
      <trkpt lat="47.445221" lon="13.363571">
        <ele>842.60</ele>
        <time>2012-05-02T11:55:57Z</time>
      </trkpt>
      <trkpt lat="47.444920" lon="13.363342">
        <ele>842.20</ele>
        <time>2012-05-02T11:56:00Z</time>
      </trkpt>
      <trkpt lat="47.444817" lon="13.363276">
        <ele>841.80</ele>
        <time>2012-05-02T11:56:01Z</time>
      </trkpt>
      <trkpt lat="47.444710" lon="13.363205">
        <ele>841.40</ele>
        <time>2012-05-02T11:56:02Z</time>
      </trkpt>
      <trkpt lat="47.444603" lon="13.363143">
        <ele>841.00</ele>
        <time>2012-05-02T11:56:03Z</time>
      </trkpt>
      <trkpt lat="47.444500" lon="13.363083">
        <ele>840.60</ele>
        <time>2012-05-02T11:56:04Z</time>
      </trkpt>
      <trkpt lat="47.444397" lon="13.363026">
        <ele>840.20</ele>
        <time>2012-05-02T11:56:05Z</time>
      </trkpt>
      <trkpt lat="47.444290" lon="13.362978">
        <ele>839.80</ele>
        <time>2012-05-02T11:56:06Z</time>
      </trkpt>
      <trkpt lat="47.444180" lon="13.362930">
        <ele>839.20</ele>
        <time>2012-05-02T11:56:07Z</time>
      </trkpt>
      <trkpt lat="47.444065" lon="13.362889">
        <ele>838.40</ele>
        <time>2012-05-02T11:56:08Z</time>
      </trkpt>
      <trkpt lat="47.443947" lon="13.362849">
        <ele>838.40</ele>
        <time>2012-05-02T11:56:09Z</time>
      </trkpt>
      <trkpt lat="47.443493" lon="13.362766">
        <ele>838.00</ele>
        <time>2012-05-02T11:56:13Z</time>
      </trkpt>
      <trkpt lat="47.443378" lon="13.362760">
        <ele>837.40</ele>
        <time>2012-05-02T11:56:14Z</time>
      </trkpt>
      <trkpt lat="47.443264" lon="13.362757">
        <ele>837.00</ele>
        <time>2012-05-02T11:56:15Z</time>
      </trkpt>
      <trkpt lat="47.443138" lon="13.362760">
        <ele>836.60</ele>
        <time>2012-05-02T11:56:16Z</time>
      </trkpt>
      <trkpt lat="47.443020" lon="13.362764">
        <ele>836.00</ele>
        <time>2012-05-02T11:56:17Z</time>
      </trkpt>
      <trkpt lat="47.442791" lon="13.362761">
        <ele>836.00</ele>
        <time>2012-05-02T11:56:19Z</time>
      </trkpt>
      <trkpt lat="47.442680" lon="13.362754">
        <ele>835.60</ele>
        <time>2012-05-02T11:56:20Z</time>
      </trkpt>
      <trkpt lat="47.442566" lon="13.362746">
        <ele>835.20</ele>
        <time>2012-05-02T11:56:21Z</time>
      </trkpt>
      <trkpt lat="47.442451" lon="13.362740">
        <ele>834.60</ele>
        <time>2012-05-02T11:56:22Z</time>
      </trkpt>
      <trkpt lat="47.442333" lon="13.362735">
        <ele>834.00</ele>
        <time>2012-05-02T11:56:23Z</time>
      </trkpt>
      <trkpt lat="47.442211" lon="13.362726">
        <ele>833.40</ele>
        <time>2012-05-02T11:56:24Z</time>
      </trkpt>
      <trkpt lat="47.442097" lon="13.362715">
        <ele>832.80</ele>
        <time>2012-05-02T11:56:25Z</time>
      </trkpt>
      <trkpt lat="47.441978" lon="13.362703">
        <ele>832.20</ele>
        <time>2012-05-02T11:56:26Z</time>
      </trkpt>
      <trkpt lat="47.441860" lon="13.362688">
        <ele>831.60</ele>
        <time>2012-05-02T11:56:27Z</time>
      </trkpt>
      <trkpt lat="47.441402" lon="13.362599">
        <ele>831.60</ele>
        <time>2012-05-02T11:56:31Z</time>
      </trkpt>
      <trkpt lat="47.441166" lon="13.362534">
        <ele>830.80</ele>
        <time>2012-05-02T11:56:33Z</time>
      </trkpt>
      <trkpt lat="47.441055" lon="13.362494">
        <ele>830.40</ele>
        <time>2012-05-02T11:56:34Z</time>
      </trkpt>
      <trkpt lat="47.440948" lon="13.362449">
        <ele>829.80</ele>
        <time>2012-05-02T11:56:35Z</time>
      </trkpt>
      <trkpt lat="47.440838" lon="13.362402">
        <ele>829.20</ele>
        <time>2012-05-02T11:56:36Z</time>
      </trkpt>
      <trkpt lat="47.440727" lon="13.362350">
        <ele>828.60</ele>
        <time>2012-05-02T11:56:37Z</time>
      </trkpt>
      <trkpt lat="47.440620" lon="13.362293">
        <ele>828.00</ele>
        <time>2012-05-02T11:56:38Z</time>
      </trkpt>
      <trkpt lat="47.440506" lon="13.362230">
        <ele>827.40</ele>
        <time>2012-05-02T11:56:39Z</time>
      </trkpt>
      <trkpt lat="47.440399" lon="13.362166">
        <ele>826.80</ele>
        <time>2012-05-02T11:56:40Z</time>
      </trkpt>
      <trkpt lat="47.440289" lon="13.362098">
        <ele>826.00</ele>
        <time>2012-05-02T11:56:41Z</time>
      </trkpt>
      <trkpt lat="47.440182" lon="13.362023">
        <ele>825.40</ele>
        <time>2012-05-02T11:56:42Z</time>
      </trkpt>
      <trkpt lat="47.440079" lon="13.361944">
        <ele>824.80</ele>
        <time>2012-05-02T11:56:43Z</time>
      </trkpt>
      <trkpt lat="47.439972" lon="13.361861">
        <ele>824.40</ele>
        <time>2012-05-02T11:56:44Z</time>
      </trkpt>
      <trkpt lat="47.439869" lon="13.361773">
        <ele>824.00</ele>
        <time>2012-05-02T11:56:45Z</time>
      </trkpt>
      <trkpt lat="47.439758" lon="13.361682">
        <ele>823.60</ele>
        <time>2012-05-02T11:56:46Z</time>
      </trkpt>
      <trkpt lat="47.439655" lon="13.361590">
        <ele>823.20</ele>
        <time>2012-05-02T11:56:47Z</time>
      </trkpt>
      <trkpt lat="47.439556" lon="13.361494">
        <ele>822.80</ele>
        <time>2012-05-02T11:56:48Z</time>
      </trkpt>
      <trkpt lat="47.439457" lon="13.361394">
        <ele>822.80</ele>
        <time>2012-05-02T11:56:49Z</time>
      </trkpt>
      <trkpt lat="47.439068" lon="13.360988">
        <ele>822.20</ele>
        <time>2012-05-02T11:56:53Z</time>
      </trkpt>
      <trkpt lat="47.438969" lon="13.360870">
        <ele>821.80</ele>
        <time>2012-05-02T11:56:54Z</time>
      </trkpt>
      <trkpt lat="47.438873" lon="13.360751">
        <ele>821.20</ele>
        <time>2012-05-02T11:56:55Z</time>
      </trkpt>
      <trkpt lat="47.438786" lon="13.360627">
        <ele>820.60</ele>
        <time>2012-05-02T11:56:56Z</time>
      </trkpt>
      <trkpt lat="47.438698" lon="13.360502">
        <ele>820.00</ele>
        <time>2012-05-02T11:56:57Z</time>
      </trkpt>
      <trkpt lat="47.438610" lon="13.360383">
        <ele>818.60</ele>
        <time>2012-05-02T11:56:58Z</time>
      </trkpt>
      <trkpt lat="47.438522" lon="13.360262">
        <ele>818.00</ele>
        <time>2012-05-02T11:56:59Z</time>
      </trkpt>
      <trkpt lat="47.438438" lon="13.360147">
        <ele>818.00</ele>
        <time>2012-05-02T11:57:00Z</time>
      </trkpt>
      <trkpt lat="47.438095" lon="13.359677">
        <ele>817.60</ele>
        <time>2012-05-02T11:57:04Z</time>
      </trkpt>
      <trkpt lat="47.438011" lon="13.359558">
        <ele>817.00</ele>
        <time>2012-05-02T11:57:05Z</time>
      </trkpt>
      <trkpt lat="47.437927" lon="13.359439">
        <ele>816.60</ele>
        <time>2012-05-02T11:57:06Z</time>
      </trkpt>
      <trkpt lat="47.437843" lon="13.359322">
        <ele>816.20</ele>
        <time>2012-05-02T11:57:07Z</time>
      </trkpt>
      <trkpt lat="47.437759" lon="13.359205">
        <ele>815.60</ele>
        <time>2012-05-02T11:57:08Z</time>
      </trkpt>
      <trkpt lat="47.437344" lon="13.358639">
        <ele>815.20</ele>
        <time>2012-05-02T11:57:13Z</time>
      </trkpt>
      <trkpt lat="47.437263" lon="13.358525">
        <ele>814.80</ele>
        <time>2012-05-02T11:57:14Z</time>
      </trkpt>
      <trkpt lat="47.437180" lon="13.358415">
        <ele>814.40</ele>
        <time>2012-05-02T11:57:15Z</time>
      </trkpt>
      <trkpt lat="47.437092" lon="13.358302">
        <ele>814.00</ele>
        <time>2012-05-02T11:57:16Z</time>
      </trkpt>
      <trkpt lat="47.437004" lon="13.358198">
        <ele>813.60</ele>
        <time>2012-05-02T11:57:17Z</time>
      </trkpt>
      <trkpt lat="47.436916" lon="13.358094">
        <ele>813.60</ele>
        <time>2012-05-02T11:57:18Z</time>
      </trkpt>
      <trkpt lat="47.436462" lon="13.357605">
        <ele>813.20</ele>
        <time>2012-05-02T11:57:23Z</time>
      </trkpt>
      <trkpt lat="47.436363" lon="13.357510">
        <ele>812.80</ele>
        <time>2012-05-02T11:57:24Z</time>
      </trkpt>
      <trkpt lat="47.436272" lon="13.357412">
        <ele>812.20</ele>
        <time>2012-05-02T11:57:25Z</time>
      </trkpt>
      <trkpt lat="47.436172" lon="13.357319">
        <ele>811.80</ele>
        <time>2012-05-02T11:57:26Z</time>
      </trkpt>
      <trkpt lat="47.436069" lon="13.357236">
        <ele>811.20</ele>
        <time>2012-05-02T11:57:27Z</time>
      </trkpt>
      <trkpt lat="47.435963" lon="13.357161">
        <ele>810.60</ele>
        <time>2012-05-02T11:57:28Z</time>
      </trkpt>
      <trkpt lat="47.435852" lon="13.357088">
        <ele>810.20</ele>
        <time>2012-05-02T11:57:29Z</time>
      </trkpt>
      <trkpt lat="47.435741" lon="13.357015">
        <ele>809.60</ele>
        <time>2012-05-02T11:57:30Z</time>
      </trkpt>
      <trkpt lat="47.435623" lon="13.356938">
        <ele>809.00</ele>
        <time>2012-05-02T11:57:31Z</time>
      </trkpt>
      <trkpt lat="47.435509" lon="13.356870">
        <ele>808.60</ele>
        <time>2012-05-02T11:57:32Z</time>
      </trkpt>
      <trkpt lat="47.435394" lon="13.356803">
        <ele>808.00</ele>
        <time>2012-05-02T11:57:33Z</time>
      </trkpt>
      <trkpt lat="47.435280" lon="13.356740">
        <ele>807.60</ele>
        <time>2012-05-02T11:57:34Z</time>
      </trkpt>
      <trkpt lat="47.435162" lon="13.356677">
        <ele>807.20</ele>
        <time>2012-05-02T11:57:35Z</time>
      </trkpt>
      <trkpt lat="47.435040" lon="13.356619">
        <ele>806.80</ele>
        <time>2012-05-02T11:57:36Z</time>
      </trkpt>
      <trkpt lat="47.434917" lon="13.356578">
        <ele>806.80</ele>
        <time>2012-05-02T11:57:37Z</time>
      </trkpt>
      <trkpt lat="47.434792" lon="13.356555">
        <ele>806.40</ele>
        <time>2012-05-02T11:57:38Z</time>
      </trkpt>
      <trkpt lat="47.434658" lon="13.356548">
        <ele>806.00</ele>
        <time>2012-05-02T11:57:39Z</time>
      </trkpt>
      <trkpt lat="47.434521" lon="13.356556">
        <ele>805.60</ele>
        <time>2012-05-02T11:57:40Z</time>
      </trkpt>
      <trkpt lat="47.434395" lon="13.356582">
        <ele>805.20</ele>
        <time>2012-05-02T11:57:41Z</time>
      </trkpt>
      <trkpt lat="47.434265" lon="13.356622">
        <ele>804.80</ele>
        <time>2012-05-02T11:57:42Z</time>
      </trkpt>
      <trkpt lat="47.434135" lon="13.356668">
        <ele>804.80</ele>
        <time>2012-05-02T11:57:43Z</time>
      </trkpt>
      <trkpt lat="47.434013" lon="13.356717">
        <ele>804.20</ele>
        <time>2012-05-02T11:57:44Z</time>
      </trkpt>
      <trkpt lat="47.433884" lon="13.356751">
        <ele>803.80</ele>
        <time>2012-05-02T11:57:45Z</time>
      </trkpt>
      <trkpt lat="47.433754" lon="13.356776">
        <ele>803.40</ele>
        <time>2012-05-02T11:57:46Z</time>
      </trkpt>
      <trkpt lat="47.433628" lon="13.356778">
        <ele>802.00</ele>
        <time>2012-05-02T11:57:47Z</time>
      </trkpt>
      <trkpt lat="47.433498" lon="13.356771">
        <ele>801.20</ele>
        <time>2012-05-02T11:57:48Z</time>
      </trkpt>
      <trkpt lat="47.433361" lon="13.356744">
        <ele>800.40</ele>
        <time>2012-05-02T11:57:49Z</time>
      </trkpt>
      <trkpt lat="47.433220" lon="13.356693">
        <ele>799.60</ele>
        <time>2012-05-02T11:57:50Z</time>
      </trkpt>
      <trkpt lat="47.433121" lon="13.356566">
        <ele>798.80</ele>
        <time>2012-05-02T11:57:51Z</time>
      </trkpt>
      <trkpt lat="47.433025" lon="13.356438">
        <ele>798.00</ele>
        <time>2012-05-02T11:57:52Z</time>
      </trkpt>
      <trkpt lat="47.432930" lon="13.356297">
        <ele>797.40</ele>
        <time>2012-05-02T11:57:53Z</time>
      </trkpt>
      <trkpt lat="47.432850" lon="13.356138">
        <ele>796.60</ele>
        <time>2012-05-02T11:57:54Z</time>
      </trkpt>
      <trkpt lat="47.432770" lon="13.355967">
        <ele>795.80</ele>
        <time>2012-05-02T11:57:55Z</time>
      </trkpt>
      <trkpt lat="47.432632" lon="13.355646">
        <ele>795.40</ele>
        <time>2012-05-02T11:57:57Z</time>
      </trkpt>
      <trkpt lat="47.432556" lon="13.355498">
        <ele>795.00</ele>
        <time>2012-05-02T11:57:58Z</time>
      </trkpt>
      <trkpt lat="47.432476" lon="13.355362">
        <ele>794.60</ele>
        <time>2012-05-02T11:57:59Z</time>
      </trkpt>
      <trkpt lat="47.432388" lon="13.355234">
        <ele>794.20</ele>
        <time>2012-05-02T11:58:00Z</time>
      </trkpt>
      <trkpt lat="47.432297" lon="13.355112">
        <ele>793.60</ele>
        <time>2012-05-02T11:58:01Z</time>
      </trkpt>
      <trkpt lat="47.432201" lon="13.355009">
        <ele>793.00</ele>
        <time>2012-05-02T11:58:02Z</time>
      </trkpt>
      <trkpt lat="47.432102" lon="13.354912">
        <ele>792.60</ele>
        <time>2012-05-02T11:58:03Z</time>
      </trkpt>
      <trkpt lat="47.432007" lon="13.354812">
        <ele>792.00</ele>
        <time>2012-05-02T11:58:04Z</time>
      </trkpt>
      <trkpt lat="47.431911" lon="13.354714">
        <ele>791.40</ele>
        <time>2012-05-02T11:58:05Z</time>
      </trkpt>
      <trkpt lat="47.431816" lon="13.354620">
        <ele>791.00</ele>
        <time>2012-05-02T11:58:06Z</time>
      </trkpt>
      <trkpt lat="47.431713" lon="13.354534">
        <ele>790.40</ele>
        <time>2012-05-02T11:58:07Z</time>
      </trkpt>
      <trkpt lat="47.431614" lon="13.354452">
        <ele>789.80</ele>
        <time>2012-05-02T11:58:08Z</time>
      </trkpt>
      <trkpt lat="47.431511" lon="13.354371">
        <ele>789.20</ele>
        <time>2012-05-02T11:58:09Z</time>
      </trkpt>
      <trkpt lat="47.431408" lon="13.354296">
        <ele>789.20</ele>
        <time>2012-05-02T11:58:10Z</time>
      </trkpt>
      <trkpt lat="47.431305" lon="13.354220">
        <ele>788.80</ele>
        <time>2012-05-02T11:58:11Z</time>
      </trkpt>
      <trkpt lat="47.431206" lon="13.354151">
        <ele>788.00</ele>
        <time>2012-05-02T11:58:12Z</time>
      </trkpt>
      <trkpt lat="47.431099" lon="13.354084">
        <ele>787.60</ele>
        <time>2012-05-02T11:58:13Z</time>
      </trkpt>
      <trkpt lat="47.430996" lon="13.354013">
        <ele>787.20</ele>
        <time>2012-05-02T11:58:14Z</time>
      </trkpt>
      <trkpt lat="47.430683" lon="13.353790">
        <ele>786.80</ele>
        <time>2012-05-02T11:58:17Z</time>
      </trkpt>
      <trkpt lat="47.430580" lon="13.353714">
        <ele>786.20</ele>
        <time>2012-05-02T11:58:18Z</time>
      </trkpt>
      <trkpt lat="47.430477" lon="13.353641">
        <ele>785.80</ele>
        <time>2012-05-02T11:58:19Z</time>
      </trkpt>
      <trkpt lat="47.430378" lon="13.353562">
        <ele>785.40</ele>
        <time>2012-05-02T11:58:20Z</time>
      </trkpt>
      <trkpt lat="47.430283" lon="13.353486">
        <ele>785.00</ele>
        <time>2012-05-02T11:58:21Z</time>
      </trkpt>
      <trkpt lat="47.430183" lon="13.353412">
        <ele>784.40</ele>
        <time>2012-05-02T11:58:22Z</time>
      </trkpt>
      <trkpt lat="47.430080" lon="13.353335">
        <ele>784.00</ele>
        <time>2012-05-02T11:58:23Z</time>
      </trkpt>
      <trkpt lat="47.429981" lon="13.353258">
        <ele>783.60</ele>
        <time>2012-05-02T11:58:24Z</time>
      </trkpt>
      <trkpt lat="47.429886" lon="13.353174">
        <ele>783.00</ele>
        <time>2012-05-02T11:58:25Z</time>
      </trkpt>
      <trkpt lat="47.429779" lon="13.353082">
        <ele>782.60</ele>
        <time>2012-05-02T11:58:26Z</time>
      </trkpt>
      <trkpt lat="47.429688" lon="13.352978">
        <ele>782.00</ele>
        <time>2012-05-02T11:58:27Z</time>
      </trkpt>
      <trkpt lat="47.429596" lon="13.352866">
        <ele>781.60</ele>
        <time>2012-05-02T11:58:28Z</time>
      </trkpt>
      <trkpt lat="47.429508" lon="13.352745">
        <ele>781.00</ele>
        <time>2012-05-02T11:58:29Z</time>
      </trkpt>
      <trkpt lat="47.429424" lon="13.352618">
        <ele>780.60</ele>
        <time>2012-05-02T11:58:30Z</time>
      </trkpt>
      <trkpt lat="47.429184" lon="13.352209">
        <ele>780.00</ele>
        <time>2012-05-02T11:58:33Z</time>
      </trkpt>
      <trkpt lat="47.429108" lon="13.352076">
        <ele>779.60</ele>
        <time>2012-05-02T11:58:34Z</time>
      </trkpt>
      <trkpt lat="47.429035" lon="13.351944">
        <ele>779.00</ele>
        <time>2012-05-02T11:58:35Z</time>
      </trkpt>
      <trkpt lat="47.428955" lon="13.351810">
        <ele>778.60</ele>
        <time>2012-05-02T11:58:36Z</time>
      </trkpt>
      <trkpt lat="47.428883" lon="13.351673">
        <ele>778.00</ele>
        <time>2012-05-02T11:58:37Z</time>
      </trkpt>
      <trkpt lat="47.428741" lon="13.351401">
        <ele>777.60</ele>
        <time>2012-05-02T11:58:39Z</time>
      </trkpt>
      <trkpt lat="47.428669" lon="13.351262">
        <ele>777.00</ele>
        <time>2012-05-02T11:58:40Z</time>
      </trkpt>
      <trkpt lat="47.428596" lon="13.351131">
        <ele>776.60</ele>
        <time>2012-05-02T11:58:41Z</time>
      </trkpt>
      <trkpt lat="47.428528" lon="13.350998">
        <ele>776.00</ele>
        <time>2012-05-02T11:58:42Z</time>
      </trkpt>
      <trkpt lat="47.428459" lon="13.350864">
        <ele>775.40</ele>
        <time>2012-05-02T11:58:43Z</time>
      </trkpt>
      <trkpt lat="47.428391" lon="13.350730">
        <ele>774.80</ele>
        <time>2012-05-02T11:58:44Z</time>
      </trkpt>
      <trkpt lat="47.428322" lon="13.350598">
        <ele>774.20</ele>
        <time>2012-05-02T11:58:45Z</time>
      </trkpt>
      <trkpt lat="47.428249" lon="13.350458">
        <ele>773.60</ele>
        <time>2012-05-02T11:58:46Z</time>
      </trkpt>
      <trkpt lat="47.428181" lon="13.350326">
        <ele>773.00</ele>
        <time>2012-05-02T11:58:47Z</time>
      </trkpt>
      <trkpt lat="47.428112" lon="13.350194">
        <ele>772.40</ele>
        <time>2012-05-02T11:58:48Z</time>
      </trkpt>
      <trkpt lat="47.428043" lon="13.350061">
        <ele>772.00</ele>
        <time>2012-05-02T11:58:49Z</time>
      </trkpt>
      <trkpt lat="47.427975" lon="13.349927">
        <ele>771.40</ele>
        <time>2012-05-02T11:58:50Z</time>
      </trkpt>
      <trkpt lat="47.427837" lon="13.349669">
        <ele>770.80</ele>
        <time>2012-05-02T11:58:52Z</time>
      </trkpt>
      <trkpt lat="47.427773" lon="13.349539">
        <ele>770.40</ele>
        <time>2012-05-02T11:58:53Z</time>
      </trkpt>
      <trkpt lat="47.427704" lon="13.349412">
        <ele>770.00</ele>
        <time>2012-05-02T11:58:54Z</time>
      </trkpt>
      <trkpt lat="47.427631" lon="13.349283">
        <ele>769.60</ele>
        <time>2012-05-02T11:58:55Z</time>
      </trkpt>
      <trkpt lat="47.427555" lon="13.349150">
        <ele>769.00</ele>
        <time>2012-05-02T11:58:56Z</time>
      </trkpt>
      <trkpt lat="47.427479" lon="13.349029">
        <ele>769.00</ele>
        <time>2012-05-02T11:58:57Z</time>
      </trkpt>
      <trkpt lat="47.427147" lon="13.348582">
        <ele>768.60</ele>
        <time>2012-05-02T11:59:01Z</time>
      </trkpt>
      <trkpt lat="47.427055" lon="13.348491">
        <ele>768.20</ele>
        <time>2012-05-02T11:59:02Z</time>
      </trkpt>
      <trkpt lat="47.426960" lon="13.348410">
        <ele>767.80</ele>
        <time>2012-05-02T11:59:03Z</time>
      </trkpt>
      <trkpt lat="47.426861" lon="13.348324">
        <ele>767.20</ele>
        <time>2012-05-02T11:59:04Z</time>
      </trkpt>
      <trkpt lat="47.426765" lon="13.348248">
        <ele>766.80</ele>
        <time>2012-05-02T11:59:05Z</time>
      </trkpt>
      <trkpt lat="47.426586" lon="13.348096">
        <ele>766.80</ele>
        <time>2012-05-02T11:59:07Z</time>
      </trkpt>
      <trkpt lat="47.426498" lon="13.348016">
        <ele>766.40</ele>
        <time>2012-05-02T11:59:08Z</time>
      </trkpt>
      <trkpt lat="47.426411" lon="13.347940">
        <ele>765.80</ele>
        <time>2012-05-02T11:59:09Z</time>
      </trkpt>
      <trkpt lat="47.426319" lon="13.347866">
        <ele>765.40</ele>
        <time>2012-05-02T11:59:10Z</time>
      </trkpt>
      <trkpt lat="47.426216" lon="13.347794">
        <ele>765.00</ele>
        <time>2012-05-02T11:59:11Z</time>
      </trkpt>
      <trkpt lat="47.426121" lon="13.347727">
        <ele>764.40</ele>
        <time>2012-05-02T11:59:12Z</time>
      </trkpt>
      <trkpt lat="47.425812" lon="13.347557">
        <ele>764.00</ele>
        <time>2012-05-02T11:59:15Z</time>
      </trkpt>
      <trkpt lat="47.425705" lon="13.347505">
        <ele>763.60</ele>
        <time>2012-05-02T11:59:16Z</time>
      </trkpt>
      <trkpt lat="47.425598" lon="13.347449">
        <ele>763.00</ele>
        <time>2012-05-02T11:59:17Z</time>
      </trkpt>
      <trkpt lat="47.425491" lon="13.347395">
        <ele>762.60</ele>
        <time>2012-05-02T11:59:18Z</time>
      </trkpt>
      <trkpt lat="47.425377" lon="13.347343">
        <ele>762.20</ele>
        <time>2012-05-02T11:59:19Z</time>
      </trkpt>
      <trkpt lat="47.425266" lon="13.347284">
        <ele>761.60</ele>
        <time>2012-05-02T11:59:20Z</time>
      </trkpt>
      <trkpt lat="47.425159" lon="13.347228">
        <ele>761.00</ele>
        <time>2012-05-02T11:59:21Z</time>
      </trkpt>
      <trkpt lat="47.425045" lon="13.347174">
        <ele>760.60</ele>
        <time>2012-05-02T11:59:22Z</time>
      </trkpt>
      <trkpt lat="47.424931" lon="13.347122">
        <ele>760.00</ele>
        <time>2012-05-02T11:59:23Z</time>
      </trkpt>
      <trkpt lat="47.424820" lon="13.347066">
        <ele>759.20</ele>
        <time>2012-05-02T11:59:24Z</time>
      </trkpt>
      <trkpt lat="47.424706" lon="13.347015">
        <ele>758.60</ele>
        <time>2012-05-02T11:59:25Z</time>
      </trkpt>
      <trkpt lat="47.424591" lon="13.346953">
        <ele>758.20</ele>
        <time>2012-05-02T11:59:26Z</time>
      </trkpt>
      <trkpt lat="47.424473" lon="13.346888">
        <ele>757.60</ele>
        <time>2012-05-02T11:59:27Z</time>
      </trkpt>
      <trkpt lat="47.424366" lon="13.346817">
        <ele>757.20</ele>
        <time>2012-05-02T11:59:28Z</time>
      </trkpt>
      <trkpt lat="47.424263" lon="13.346736">
        <ele>756.60</ele>
        <time>2012-05-02T11:59:29Z</time>
      </trkpt>
      <trkpt lat="47.424160" lon="13.346649">
        <ele>756.20</ele>
        <time>2012-05-02T11:59:30Z</time>
      </trkpt>
      <trkpt lat="47.424061" lon="13.346559">
        <ele>755.60</ele>
        <time>2012-05-02T11:59:31Z</time>
      </trkpt>
      <trkpt lat="47.423672" lon="13.346199">
        <ele>755.20</ele>
        <time>2012-05-02T11:59:35Z</time>
      </trkpt>
      <trkpt lat="47.423580" lon="13.346110">
        <ele>754.60</ele>
        <time>2012-05-02T11:59:36Z</time>
      </trkpt>
      <trkpt lat="47.423481" lon="13.346034">
        <ele>754.20</ele>
        <time>2012-05-02T11:59:37Z</time>
      </trkpt>
      <trkpt lat="47.423382" lon="13.345962">
        <ele>753.60</ele>
        <time>2012-05-02T11:59:38Z</time>
      </trkpt>
      <trkpt lat="47.423275" lon="13.345905">
        <ele>753.00</ele>
        <time>2012-05-02T11:59:39Z</time>
      </trkpt>
      <trkpt lat="47.423168" lon="13.345860">
        <ele>752.40</ele>
        <time>2012-05-02T11:59:40Z</time>
      </trkpt>
      <trkpt lat="47.423054" lon="13.345818">
        <ele>751.80</ele>
        <time>2012-05-02T11:59:41Z</time>
      </trkpt>
      <trkpt lat="47.422947" lon="13.345786">
        <ele>751.00</ele>
        <time>2012-05-02T11:59:42Z</time>
      </trkpt>
      <trkpt lat="47.422836" lon="13.345755">
        <ele>750.60</ele>
        <time>2012-05-02T11:59:43Z</time>
      </trkpt>
      <trkpt lat="47.422726" lon="13.345715">
        <ele>750.00</ele>
        <time>2012-05-02T11:59:44Z</time>
      </trkpt>
      <trkpt lat="47.422619" lon="13.345662">
        <ele>749.40</ele>
        <time>2012-05-02T11:59:45Z</time>
      </trkpt>
      <trkpt lat="47.422512" lon="13.345600">
        <ele>748.80</ele>
        <time>2012-05-02T11:59:46Z</time>
      </trkpt>
      <trkpt lat="47.422413" lon="13.345521">
        <ele>748.20</ele>
        <time>2012-05-02T11:59:47Z</time>
      </trkpt>
      <trkpt lat="47.422310" lon="13.345430">
        <ele>747.80</ele>
        <time>2012-05-02T11:59:48Z</time>
      </trkpt>
      <trkpt lat="47.422218" lon="13.345333">
        <ele>746.80</ele>
        <time>2012-05-02T11:59:49Z</time>
      </trkpt>
      <trkpt lat="47.422123" lon="13.345245">
        <ele>746.20</ele>
        <time>2012-05-02T11:59:50Z</time>
      </trkpt>
      <trkpt lat="47.422039" lon="13.345153">
        <ele>745.40</ele>
        <time>2012-05-02T11:59:51Z</time>
      </trkpt>
      <trkpt lat="47.421967" lon="13.345061">
        <ele>744.80</ele>
        <time>2012-05-02T11:59:52Z</time>
      </trkpt>
      <trkpt lat="47.421898" lon="13.344970">
        <ele>744.20</ele>
        <time>2012-05-02T11:59:53Z</time>
      </trkpt>
      <trkpt lat="47.421856" lon="13.344863">
        <ele>743.40</ele>
        <time>2012-05-02T11:59:54Z</time>
      </trkpt>
      <trkpt lat="47.421844" lon="13.344592">
        <ele>743.40</ele>
        <time>2012-05-02T11:59:56Z</time>
      </trkpt>
      <trkpt lat="47.421852" lon="13.344298">
        <ele>743.00</ele>
        <time>2012-05-02T11:59:58Z</time>
      </trkpt>
      <trkpt lat="47.421844" lon="13.344144">
        <ele>742.60</ele>
        <time>2012-05-02T11:59:59Z</time>
      </trkpt>
      <trkpt lat="47.421829" lon="13.343988">
        <ele>742.20</ele>
        <time>2012-05-02T12:00:00Z</time>
      </trkpt>
      <trkpt lat="47.421818" lon="13.343828">
        <ele>741.60</ele>
        <time>2012-05-02T12:00:01Z</time>
      </trkpt>
      <trkpt lat="47.421795" lon="13.343662">
        <ele>741.20</ele>
        <time>2012-05-02T12:00:02Z</time>
      </trkpt>
      <trkpt lat="47.421764" lon="13.343496">
        <ele>741.20</ele>
        <time>2012-05-02T12:00:03Z</time>
      </trkpt>
      <trkpt lat="47.421730" lon="13.343329">
        <ele>741.20</ele>
        <time>2012-05-02T12:00:04Z</time>
      </trkpt>
      <trkpt lat="47.421631" lon="13.342529">
        <ele>741.20</ele>
        <time>2012-05-02T12:00:09Z</time>
      </trkpt>
      <trkpt lat="47.421608" lon="13.341772">
        <ele>741.20</ele>
        <time>2012-05-02T12:00:14Z</time>
      </trkpt>
      <trkpt lat="47.421711" lon="13.340915">
        <ele>741.20</ele>
        <time>2012-05-02T12:00:20Z</time>
      </trkpt>
      <trkpt lat="47.421894" lon="13.340274">
        <ele>741.20</ele>
        <time>2012-05-02T12:00:25Z</time>
      </trkpt>
      <trkpt lat="47.422161" lon="13.339718">
        <ele>741.20</ele>
        <time>2012-05-02T12:00:30Z</time>
      </trkpt>
      <trkpt lat="47.422466" lon="13.339138">
        <ele>741.20</ele>
        <time>2012-05-02T12:00:36Z</time>
      </trkpt>
      <trkpt lat="47.422550" lon="13.338924">
        <ele>740.80</ele>
        <time>2012-05-02T12:00:38Z</time>
      </trkpt>
      <trkpt lat="47.422588" lon="13.338812">
        <ele>739.80</ele>
        <time>2012-05-02T12:00:39Z</time>
      </trkpt>
      <trkpt lat="47.422626" lon="13.338696">
        <ele>739.40</ele>
        <time>2012-05-02T12:00:40Z</time>
      </trkpt>
      <trkpt lat="47.422657" lon="13.338577">
        <ele>739.00</ele>
        <time>2012-05-02T12:00:41Z</time>
      </trkpt>
      <trkpt lat="47.422791" lon="13.337797">
        <ele>739.00</ele>
        <time>2012-05-02T12:00:47Z</time>
      </trkpt>
      <trkpt lat="47.422806" lon="13.337388">
        <ele>739.40</ele>
        <time>2012-05-02T12:00:50Z</time>
      </trkpt>
      <trkpt lat="47.422802" lon="13.337258">
        <ele>739.80</ele>
        <time>2012-05-02T12:00:51Z</time>
      </trkpt>
      <trkpt lat="47.422794" lon="13.337125">
        <ele>740.20</ele>
        <time>2012-05-02T12:00:52Z</time>
      </trkpt>
      <trkpt lat="47.422787" lon="13.336994">
        <ele>740.60</ele>
        <time>2012-05-02T12:00:53Z</time>
      </trkpt>
      <trkpt lat="47.422771" lon="13.336865">
        <ele>741.00</ele>
        <time>2012-05-02T12:00:54Z</time>
      </trkpt>
      <trkpt lat="47.422676" lon="13.336348">
        <ele>741.00</ele>
        <time>2012-05-02T12:00:58Z</time>
      </trkpt>
      <trkpt lat="47.422649" lon="13.336225">
        <ele>741.00</ele>
        <time>2012-05-02T12:00:59Z</time>
      </trkpt>
      <trkpt lat="47.422615" lon="13.336105">
        <ele>740.40</ele>
        <time>2012-05-02T12:01:00Z</time>
      </trkpt>
      <trkpt lat="47.422577" lon="13.335991">
        <ele>740.00</ele>
        <time>2012-05-02T12:01:01Z</time>
      </trkpt>
      <trkpt lat="47.422531" lon="13.335876">
        <ele>739.40</ele>
        <time>2012-05-02T12:01:02Z</time>
      </trkpt>
      <trkpt lat="47.422489" lon="13.335762">
        <ele>739.00</ele>
        <time>2012-05-02T12:01:03Z</time>
      </trkpt>
      <trkpt lat="47.422443" lon="13.335649">
        <ele>738.60</ele>
        <time>2012-05-02T12:01:04Z</time>
      </trkpt>
      <trkpt lat="47.422127" lon="13.334853">
        <ele>738.00</ele>
        <time>2012-05-02T12:01:11Z</time>
      </trkpt>
      <trkpt lat="47.422085" lon="13.334736">
        <ele>737.60</ele>
        <time>2012-05-02T12:01:12Z</time>
      </trkpt>
      <trkpt lat="47.422039" lon="13.334612">
        <ele>737.00</ele>
        <time>2012-05-02T12:01:13Z</time>
      </trkpt>
      <trkpt lat="47.422005" lon="13.334492">
        <ele>736.60</ele>
        <time>2012-05-02T12:01:14Z</time>
      </trkpt>
      <trkpt lat="47.421970" lon="13.334371">
        <ele>736.00</ele>
        <time>2012-05-02T12:01:15Z</time>
      </trkpt>
      <trkpt lat="47.421917" lon="13.334128">
        <ele>736.00</ele>
        <time>2012-05-02T12:01:17Z</time>
      </trkpt>
      <trkpt lat="47.421837" lon="13.333484">
        <ele>735.60</ele>
        <time>2012-05-02T12:01:22Z</time>
      </trkpt>
      <trkpt lat="47.421833" lon="13.333351">
        <ele>735.00</ele>
        <time>2012-05-02T12:01:23Z</time>
      </trkpt>
      <trkpt lat="47.421829" lon="13.333219">
        <ele>734.60</ele>
        <time>2012-05-02T12:01:24Z</time>
      </trkpt>
      <trkpt lat="47.421825" lon="13.333085">
        <ele>734.00</ele>
        <time>2012-05-02T12:01:25Z</time>
      </trkpt>
      <trkpt lat="47.421822" lon="13.332953">
        <ele>733.60</ele>
        <time>2012-05-02T12:01:26Z</time>
      </trkpt>
      <trkpt lat="47.421822" lon="13.332822">
        <ele>733.60</ele>
        <time>2012-05-02T12:01:27Z</time>
      </trkpt>
      <trkpt lat="47.421818" lon="13.332022">
        <ele>733.60</ele>
        <time>2012-05-02T12:01:33Z</time>
      </trkpt>
      <trkpt lat="47.421810" lon="13.331889">
        <ele>733.60</ele>
        <time>2012-05-02T12:01:34Z</time>
      </trkpt>
      <trkpt lat="47.421776" lon="13.331622">
        <ele>733.20</ele>
        <time>2012-05-02T12:01:36Z</time>
      </trkpt>
      <trkpt lat="47.421753" lon="13.331495">
        <ele>732.60</ele>
        <time>2012-05-02T12:01:37Z</time>
      </trkpt>
      <trkpt lat="47.421730" lon="13.331366">
        <ele>732.20</ele>
        <time>2012-05-02T12:01:38Z</time>
      </trkpt>
      <trkpt lat="47.421700" lon="13.331239">
        <ele>731.80</ele>
        <time>2012-05-02T12:01:39Z</time>
      </trkpt>
      <trkpt lat="47.421665" lon="13.331114">
        <ele>731.40</ele>
        <time>2012-05-02T12:01:40Z</time>
      </trkpt>
      <trkpt lat="47.421459" lon="13.330520">
        <ele>731.40</ele>
        <time>2012-05-02T12:01:45Z</time>
      </trkpt>
      <trkpt lat="47.421352" lon="13.330305">
        <ele>730.80</ele>
        <time>2012-05-02T12:01:47Z</time>
      </trkpt>
      <trkpt lat="47.421295" lon="13.330202">
        <ele>730.40</ele>
        <time>2012-05-02T12:01:48Z</time>
      </trkpt>
      <trkpt lat="47.421238" lon="13.330097">
        <ele>729.80</ele>
        <time>2012-05-02T12:01:49Z</time>
      </trkpt>
      <trkpt lat="47.421177" lon="13.329998">
        <ele>729.40</ele>
        <time>2012-05-02T12:01:50Z</time>
      </trkpt>
      <trkpt lat="47.421112" lon="13.329893">
        <ele>728.80</ele>
        <time>2012-05-02T12:01:51Z</time>
      </trkpt>
      <trkpt lat="47.420986" lon="13.329702">
        <ele>728.00</ele>
        <time>2012-05-02T12:01:53Z</time>
      </trkpt>
      <trkpt lat="47.420921" lon="13.329607">
        <ele>727.60</ele>
        <time>2012-05-02T12:01:54Z</time>
      </trkpt>
      <trkpt lat="47.420856" lon="13.329511">
        <ele>727.20</ele>
        <time>2012-05-02T12:01:55Z</time>
      </trkpt>
      <trkpt lat="47.420795" lon="13.329417">
        <ele>726.60</ele>
        <time>2012-05-02T12:01:56Z</time>
      </trkpt>
      <trkpt lat="47.420731" lon="13.329324">
        <ele>726.60</ele>
        <time>2012-05-02T12:01:57Z</time>
      </trkpt>
      <trkpt lat="47.420345" lon="13.328778">
        <ele>726.60</ele>
        <time>2012-05-02T12:02:03Z</time>
      </trkpt>
      <trkpt lat="47.419895" lon="13.328142">
        <ele>726.60</ele>
        <time>2012-05-02T12:02:10Z</time>
      </trkpt>
      <trkpt lat="47.419830" lon="13.328053">
        <ele>726.20</ele>
        <time>2012-05-02T12:02:11Z</time>
      </trkpt>
      <trkpt lat="47.419765" lon="13.327963">
        <ele>725.60</ele>
        <time>2012-05-02T12:02:12Z</time>
      </trkpt>
      <trkpt lat="47.419701" lon="13.327871">
        <ele>725.00</ele>
        <time>2012-05-02T12:02:13Z</time>
      </trkpt>
      <trkpt lat="47.419628" lon="13.327774">
        <ele>724.60</ele>
        <time>2012-05-02T12:02:14Z</time>
      </trkpt>
      <trkpt lat="47.419559" lon="13.327680">
        <ele>724.00</ele>
        <time>2012-05-02T12:02:15Z</time>
      </trkpt>
      <trkpt lat="47.419353" lon="13.327395">
        <ele>723.20</ele>
        <time>2012-05-02T12:02:18Z</time>
      </trkpt>
      <trkpt lat="47.419289" lon="13.327299">
        <ele>722.80</ele>
        <time>2012-05-02T12:02:19Z</time>
      </trkpt>
      <trkpt lat="47.419220" lon="13.327198">
        <ele>722.20</ele>
        <time>2012-05-02T12:02:20Z</time>
      </trkpt>
      <trkpt lat="47.419155" lon="13.327092">
        <ele>721.60</ele>
        <time>2012-05-02T12:02:21Z</time>
      </trkpt>
      <trkpt lat="47.419086" lon="13.326982">
        <ele>721.00</ele>
        <time>2012-05-02T12:02:22Z</time>
      </trkpt>
      <trkpt lat="47.419025" lon="13.326877">
        <ele>720.40</ele>
        <time>2012-05-02T12:02:23Z</time>
      </trkpt>
      <trkpt lat="47.418964" lon="13.326774">
        <ele>719.80</ele>
        <time>2012-05-02T12:02:24Z</time>
      </trkpt>
      <trkpt lat="47.418903" lon="13.326668">
        <ele>719.80</ele>
        <time>2012-05-02T12:02:25Z</time>
      </trkpt>
      <trkpt lat="47.418583" lon="13.326005">
        <ele>719.80</ele>
        <time>2012-05-02T12:02:31Z</time>
      </trkpt>
      <trkpt lat="47.418480" lon="13.325788">
        <ele>719.40</ele>
        <time>2012-05-02T12:02:33Z</time>
      </trkpt>
      <trkpt lat="47.418427" lon="13.325685">
        <ele>718.80</ele>
        <time>2012-05-02T12:02:34Z</time>
      </trkpt>
      <trkpt lat="47.418377" lon="13.325575">
        <ele>718.40</ele>
        <time>2012-05-02T12:02:35Z</time>
      </trkpt>
      <trkpt lat="47.418324" lon="13.325461">
        <ele>718.00</ele>
        <time>2012-05-02T12:02:36Z</time>
      </trkpt>
      <trkpt lat="47.418274" lon="13.325351">
        <ele>717.40</ele>
        <time>2012-05-02T12:02:37Z</time>
      </trkpt>
      <trkpt lat="47.418221" lon="13.325238">
        <ele>717.40</ele>
        <time>2012-05-02T12:02:38Z</time>
      </trkpt>
      <trkpt lat="47.418118" lon="13.325024">
        <ele>717.00</ele>
        <time>2012-05-02T12:02:40Z</time>
      </trkpt>
      <trkpt lat="47.418068" lon="13.324914">
        <ele>716.60</ele>
        <time>2012-05-02T12:02:41Z</time>
      </trkpt>
      <trkpt lat="47.418015" lon="13.324804">
        <ele>716.20</ele>
        <time>2012-05-02T12:02:42Z</time>
      </trkpt>
      <trkpt lat="47.417961" lon="13.324697">
        <ele>715.40</ele>
        <time>2012-05-02T12:02:43Z</time>
      </trkpt>
      <trkpt lat="47.417850" lon="13.324469">
        <ele>715.40</ele>
        <time>2012-05-02T12:02:45Z</time>
      </trkpt>
      <trkpt lat="47.417534" lon="13.323787">
        <ele>715.40</ele>
        <time>2012-05-02T12:02:51Z</time>
      </trkpt>
      <trkpt lat="47.417480" lon="13.323669">
        <ele>715.40</ele>
        <time>2012-05-02T12:02:52Z</time>
      </trkpt>
      <trkpt lat="47.417427" lon="13.323548">
        <ele>715.00</ele>
        <time>2012-05-02T12:02:53Z</time>
      </trkpt>
      <trkpt lat="47.417381" lon="13.323430">
        <ele>714.40</ele>
        <time>2012-05-02T12:02:54Z</time>
      </trkpt>
      <trkpt lat="47.417336" lon="13.323313">
        <ele>714.00</ele>
        <time>2012-05-02T12:02:55Z</time>
      </trkpt>
      <trkpt lat="47.417290" lon="13.323194">
        <ele>713.60</ele>
        <time>2012-05-02T12:02:56Z</time>
      </trkpt>
      <trkpt lat="47.417248" lon="13.323069">
        <ele>713.00</ele>
        <time>2012-05-02T12:02:57Z</time>
      </trkpt>
      <trkpt lat="47.417168" lon="13.322821">
        <ele>713.00</ele>
        <time>2012-05-02T12:02:59Z</time>
      </trkpt>
      <trkpt lat="47.416950" lon="13.322052">
        <ele>713.00</ele>
        <time>2012-05-02T12:03:05Z</time>
      </trkpt>
      <trkpt lat="47.416916" lon="13.321921">
        <ele>712.60</ele>
        <time>2012-05-02T12:03:06Z</time>
      </trkpt>
      <trkpt lat="47.416878" lon="13.321793">
        <ele>711.60</ele>
        <time>2012-05-02T12:03:07Z</time>
      </trkpt>
      <trkpt lat="47.416840" lon="13.321659">
        <ele>711.20</ele>
        <time>2012-05-02T12:03:08Z</time>
      </trkpt>
      <trkpt lat="47.416801" lon="13.321530">
        <ele>710.80</ele>
        <time>2012-05-02T12:03:09Z</time>
      </trkpt>
      <trkpt lat="47.416573" lon="13.320735">
        <ele>710.80</ele>
        <time>2012-05-02T12:03:15Z</time>
      </trkpt>
      <trkpt lat="47.416424" lon="13.320201">
        <ele>710.40</ele>
        <time>2012-05-02T12:03:19Z</time>
      </trkpt>
      <trkpt lat="47.416386" lon="13.320074">
        <ele>710.00</ele>
        <time>2012-05-02T12:03:20Z</time>
      </trkpt>
      <trkpt lat="47.416348" lon="13.319948">
        <ele>709.60</ele>
        <time>2012-05-02T12:03:21Z</time>
      </trkpt>
      <trkpt lat="47.416313" lon="13.319825">
        <ele>709.20</ele>
        <time>2012-05-02T12:03:22Z</time>
      </trkpt>
      <trkpt lat="47.416279" lon="13.319697">
        <ele>708.80</ele>
        <time>2012-05-02T12:03:23Z</time>
      </trkpt>
      <trkpt lat="47.416096" lon="13.319091">
        <ele>708.80</ele>
        <time>2012-05-02T12:03:28Z</time>
      </trkpt>
      <trkpt lat="47.415840" lon="13.318540">
        <ele>708.80</ele>
        <time>2012-05-02T12:03:33Z</time>
      </trkpt>
      <trkpt lat="47.415592" lon="13.318190">
        <ele>708.80</ele>
        <time>2012-05-02T12:03:37Z</time>
      </trkpt>
      <trkpt lat="47.415520" lon="13.318112">
        <ele>708.80</ele>
        <time>2012-05-02T12:03:38Z</time>
      </trkpt>
      <trkpt lat="47.415134" lon="13.317737">
        <ele>708.80</ele>
        <time>2012-05-02T12:03:43Z</time>
      </trkpt>
      <trkpt lat="47.415077" lon="13.317628">
        <ele>708.80</ele>
        <time>2012-05-02T12:03:44Z</time>
      </trkpt>
      <trkpt lat="47.415020" lon="13.317505">
        <ele>708.40</ele>
        <time>2012-05-02T12:03:45Z</time>
      </trkpt>
      <trkpt lat="47.414974" lon="13.317364">
        <ele>708.00</ele>
        <time>2012-05-02T12:03:46Z</time>
      </trkpt>
      <trkpt lat="47.414940" lon="13.317230">
        <ele>707.60</ele>
        <time>2012-05-02T12:03:47Z</time>
      </trkpt>
      <trkpt lat="47.414909" lon="13.317096">
        <ele>707.00</ele>
        <time>2012-05-02T12:03:48Z</time>
      </trkpt>
      <trkpt lat="47.414890" lon="13.316957">
        <ele>706.60</ele>
        <time>2012-05-02T12:03:49Z</time>
      </trkpt>
      <trkpt lat="47.414871" lon="13.316821">
        <ele>706.60</ele>
        <time>2012-05-02T12:03:50Z</time>
      </trkpt>
      <trkpt lat="47.414776" lon="13.316079">
        <ele>706.60</ele>
        <time>2012-05-02T12:03:55Z</time>
      </trkpt>
      <trkpt lat="47.414684" lon="13.315671">
        <ele>706.60</ele>
        <time>2012-05-02T12:03:58Z</time>
      </trkpt>
      <trkpt lat="47.414642" lon="13.315538">
        <ele>706.20</ele>
        <time>2012-05-02T12:03:59Z</time>
      </trkpt>
      <trkpt lat="47.414589" lon="13.315409">
        <ele>705.80</ele>
        <time>2012-05-02T12:04:00Z</time>
      </trkpt>
      <trkpt lat="47.414539" lon="13.315281">
        <ele>705.40</ele>
        <time>2012-05-02T12:04:01Z</time>
      </trkpt>
      <trkpt lat="47.414490" lon="13.315162">
        <ele>704.80</ele>
        <time>2012-05-02T12:04:02Z</time>
      </trkpt>
      <trkpt lat="47.414444" lon="13.315039">
        <ele>704.40</ele>
        <time>2012-05-02T12:04:03Z</time>
      </trkpt>
      <trkpt lat="47.414333" lon="13.314653">
        <ele>704.40</ele>
        <time>2012-05-02T12:04:06Z</time>
      </trkpt>
      <trkpt lat="47.414318" lon="13.314532">
        <ele>704.40</ele>
        <time>2012-05-02T12:04:07Z</time>
      </trkpt>
      <trkpt lat="47.414303" lon="13.314309">
        <ele>704.40</ele>
        <time>2012-05-02T12:04:09Z</time>
      </trkpt>
      <trkpt lat="47.414410" lon="13.314015">
        <ele>704.40</ele>
        <time>2012-05-02T12:04:11Z</time>
      </trkpt>
      <trkpt lat="47.414555" lon="13.313467">
        <ele>704.40</ele>
        <time>2012-05-02T12:04:15Z</time>
      </trkpt>
      <trkpt lat="47.414661" lon="13.313317">
        <ele>704.00</ele>
        <time>2012-05-02T12:04:16Z</time>
      </trkpt>
      <trkpt lat="47.414726" lon="13.313167">
        <ele>703.60</ele>
        <time>2012-05-02T12:04:17Z</time>
      </trkpt>
      <trkpt lat="47.414761" lon="13.313025">
        <ele>703.00</ele>
        <time>2012-05-02T12:04:18Z</time>
      </trkpt>
      <trkpt lat="47.414768" lon="13.312880">
        <ele>702.60</ele>
        <time>2012-05-02T12:04:19Z</time>
      </trkpt>
      <trkpt lat="47.414757" lon="13.312740">
        <ele>702.20</ele>
        <time>2012-05-02T12:04:20Z</time>
      </trkpt>
      <trkpt lat="47.414665" lon="13.312517">
        <ele>702.20</ele>
        <time>2012-05-02T12:04:22Z</time>
      </trkpt>
      <trkpt lat="47.414547" lon="13.312308">
        <ele>702.20</ele>
        <time>2012-05-02T12:04:24Z</time>
      </trkpt>
      <trkpt lat="47.414349" lon="13.312000">
        <ele>702.20</ele>
        <time>2012-05-02T12:04:27Z</time>
      </trkpt>
      <trkpt lat="47.414112" lon="13.311464">
        <ele>701.60</ele>
        <time>2012-05-02T12:04:32Z</time>
      </trkpt>
      <trkpt lat="47.414085" lon="13.311342">
        <ele>701.20</ele>
        <time>2012-05-02T12:04:33Z</time>
      </trkpt>
      <trkpt lat="47.414074" lon="13.311213">
        <ele>700.80</ele>
        <time>2012-05-02T12:04:34Z</time>
      </trkpt>
      <trkpt lat="47.414089" lon="13.311057">
        <ele>700.20</ele>
        <time>2012-05-02T12:04:35Z</time>
      </trkpt>
      <trkpt lat="47.414124" lon="13.310887">
        <ele>699.80</ele>
        <time>2012-05-02T12:04:36Z</time>
      </trkpt>
      <trkpt lat="47.414196" lon="13.310558">
        <ele>699.40</ele>
        <time>2012-05-02T12:04:38Z</time>
      </trkpt>
      <trkpt lat="47.414230" lon="13.310397">
        <ele>699.00</ele>
        <time>2012-05-02T12:04:39Z</time>
      </trkpt>
      <trkpt lat="47.414261" lon="13.310235">
        <ele>698.60</ele>
        <time>2012-05-02T12:04:40Z</time>
      </trkpt>
      <trkpt lat="47.414299" lon="13.310082">
        <ele>698.20</ele>
        <time>2012-05-02T12:04:41Z</time>
      </trkpt>
      <trkpt lat="47.414341" lon="13.309937">
        <ele>697.80</ele>
        <time>2012-05-02T12:04:42Z</time>
      </trkpt>
      <trkpt lat="47.414398" lon="13.309803">
        <ele>697.80</ele>
        <time>2012-05-02T12:04:43Z</time>
      </trkpt>
      <trkpt lat="47.414696" lon="13.309324">
        <ele>697.80</ele>
        <time>2012-05-02T12:04:47Z</time>
      </trkpt>
      <trkpt lat="47.414783" lon="13.309219">
        <ele>697.80</ele>
        <time>2012-05-02T12:04:48Z</time>
      </trkpt>
      <trkpt lat="47.414875" lon="13.309124">
        <ele>697.40</ele>
        <time>2012-05-02T12:04:49Z</time>
      </trkpt>
      <trkpt lat="47.414963" lon="13.309019">
        <ele>696.80</ele>
        <time>2012-05-02T12:04:50Z</time>
      </trkpt>
      <trkpt lat="47.415051" lon="13.308912">
        <ele>696.40</ele>
        <time>2012-05-02T12:04:51Z</time>
      </trkpt>
      <trkpt lat="47.415138" lon="13.308811">
        <ele>696.00</ele>
        <time>2012-05-02T12:04:52Z</time>
      </trkpt>
      <trkpt lat="47.415226" lon="13.308707">
        <ele>695.60</ele>
        <time>2012-05-02T12:04:53Z</time>
      </trkpt>
      <trkpt lat="47.415390" lon="13.308492">
        <ele>695.20</ele>
        <time>2012-05-02T12:04:55Z</time>
      </trkpt>
      <trkpt lat="47.415466" lon="13.308377">
        <ele>694.80</ele>
        <time>2012-05-02T12:04:56Z</time>
      </trkpt>
      <trkpt lat="47.415535" lon="13.308258">
        <ele>694.20</ele>
        <time>2012-05-02T12:04:57Z</time>
      </trkpt>
      <trkpt lat="47.415592" lon="13.308125">
        <ele>693.60</ele>
        <time>2012-05-02T12:04:58Z</time>
      </trkpt>
      <trkpt lat="47.415646" lon="13.307995">
        <ele>693.00</ele>
        <time>2012-05-02T12:04:59Z</time>
      </trkpt>
      <trkpt lat="47.415695" lon="13.307867">
        <ele>692.40</ele>
        <time>2012-05-02T12:05:00Z</time>
      </trkpt>
      <trkpt lat="47.415741" lon="13.307732">
        <ele>691.60</ele>
        <time>2012-05-02T12:05:01Z</time>
      </trkpt>
      <trkpt lat="47.415787" lon="13.307602">
        <ele>691.00</ele>
        <time>2012-05-02T12:05:02Z</time>
      </trkpt>
      <trkpt lat="47.415913" lon="13.307171">
        <ele>691.00</ele>
        <time>2012-05-02T12:05:05Z</time>
      </trkpt>
      <trkpt lat="47.416145" lon="13.306488">
        <ele>691.00</ele>
        <time>2012-05-02T12:05:10Z</time>
      </trkpt>
      <trkpt lat="47.416187" lon="13.306342">
        <ele>691.00</ele>
        <time>2012-05-02T12:05:11Z</time>
      </trkpt>
      <trkpt lat="47.416229" lon="13.306204">
        <ele>690.60</ele>
        <time>2012-05-02T12:05:12Z</time>
      </trkpt>
      <trkpt lat="47.416275" lon="13.306071">
        <ele>690.20</ele>
        <time>2012-05-02T12:05:13Z</time>
      </trkpt>
      <trkpt lat="47.416332" lon="13.305940">
        <ele>689.80</ele>
        <time>2012-05-02T12:05:14Z</time>
      </trkpt>
      <trkpt lat="47.416397" lon="13.305806">
        <ele>689.40</ele>
        <time>2012-05-02T12:05:15Z</time>
      </trkpt>
      <trkpt lat="47.416473" lon="13.305706">
        <ele>689.00</ele>
        <time>2012-05-02T12:05:16Z</time>
      </trkpt>
      <trkpt lat="47.416767" lon="13.305502">
        <ele>689.00</ele>
        <time>2012-05-02T12:05:19Z</time>
      </trkpt>
      <trkpt lat="47.417168" lon="13.305275">
        <ele>688.60</ele>
        <time>2012-05-02T12:05:23Z</time>
      </trkpt>
      <trkpt lat="47.417267" lon="13.305210">
        <ele>688.00</ele>
        <time>2012-05-02T12:05:24Z</time>
      </trkpt>
      <trkpt lat="47.417362" lon="13.305140">
        <ele>687.60</ele>
        <time>2012-05-02T12:05:25Z</time>
      </trkpt>
      <trkpt lat="47.417454" lon="13.305055">
        <ele>687.20</ele>
        <time>2012-05-02T12:05:26Z</time>
      </trkpt>
      <trkpt lat="47.417542" lon="13.304970">
        <ele>686.80</ele>
        <time>2012-05-02T12:05:27Z</time>
      </trkpt>
      <trkpt lat="47.417625" lon="13.304871">
        <ele>686.80</ele>
        <time>2012-05-02T12:05:28Z</time>
      </trkpt>
      <trkpt lat="47.417706" lon="13.304764">
        <ele>686.80</ele>
        <time>2012-05-02T12:05:29Z</time>
      </trkpt>
      <trkpt lat="47.417953" lon="13.304428">
        <ele>686.80</ele>
        <time>2012-05-02T12:05:32Z</time>
      </trkpt>
      <trkpt lat="47.418041" lon="13.304316">
        <ele>686.40</ele>
        <time>2012-05-02T12:05:33Z</time>
      </trkpt>
      <trkpt lat="47.418129" lon="13.304206">
        <ele>686.00</ele>
        <time>2012-05-02T12:05:34Z</time>
      </trkpt>
      <trkpt lat="47.418217" lon="13.304088">
        <ele>685.60</ele>
        <time>2012-05-02T12:05:35Z</time>
      </trkpt>
      <trkpt lat="47.418297" lon="13.303971">
        <ele>684.60</ele>
        <time>2012-05-02T12:05:36Z</time>
      </trkpt>
      <trkpt lat="47.418461" lon="13.303742">
        <ele>684.20</ele>
        <time>2012-05-02T12:05:38Z</time>
      </trkpt>
      <trkpt lat="47.418545" lon="13.303637">
        <ele>683.80</ele>
        <time>2012-05-02T12:05:39Z</time>
      </trkpt>
      <trkpt lat="47.418617" lon="13.303523">
        <ele>683.40</ele>
        <time>2012-05-02T12:05:40Z</time>
      </trkpt>
      <trkpt lat="47.418709" lon="13.303426">
        <ele>683.00</ele>
        <time>2012-05-02T12:05:41Z</time>
      </trkpt>
      <trkpt lat="47.418751" lon="13.303280">
        <ele>682.60</ele>
        <time>2012-05-02T12:05:42Z</time>
      </trkpt>
      <trkpt lat="47.418755" lon="13.303100">
        <ele>682.60</ele>
        <time>2012-05-02T12:05:43Z</time>
      </trkpt>
      <trkpt lat="47.418758" lon="13.302727">
        <ele>682.20</ele>
        <time>2012-05-02T12:05:45Z</time>
      </trkpt>
      <trkpt lat="47.418770" lon="13.302555">
        <ele>681.80</ele>
        <time>2012-05-02T12:05:46Z</time>
      </trkpt>
      <trkpt lat="47.418812" lon="13.302391">
        <ele>681.20</ele>
        <time>2012-05-02T12:05:47Z</time>
      </trkpt>
      <trkpt lat="47.418884" lon="13.302238">
        <ele>680.80</ele>
        <time>2012-05-02T12:05:48Z</time>
      </trkpt>
      <trkpt lat="47.418968" lon="13.302121">
        <ele>680.40</ele>
        <time>2012-05-02T12:05:49Z</time>
      </trkpt>
      <trkpt lat="47.419067" lon="13.302024">
        <ele>680.40</ele>
        <time>2012-05-02T12:05:50Z</time>
      </trkpt>
      <trkpt lat="47.419170" lon="13.301929">
        <ele>680.40</ele>
        <time>2012-05-02T12:05:51Z</time>
      </trkpt>
      <trkpt lat="47.419552" lon="13.301519">
        <ele>680.40</ele>
        <time>2012-05-02T12:05:55Z</time>
      </trkpt>
      <trkpt lat="47.419792" lon="13.301142">
        <ele>680.00</ele>
        <time>2012-05-02T12:05:58Z</time>
      </trkpt>
      <trkpt lat="47.419865" lon="13.301008">
        <ele>679.40</ele>
        <time>2012-05-02T12:05:59Z</time>
      </trkpt>
      <trkpt lat="47.419922" lon="13.300866">
        <ele>679.00</ele>
        <time>2012-05-02T12:06:00Z</time>
      </trkpt>
      <trkpt lat="47.419949" lon="13.300692">
        <ele>678.00</ele>
        <time>2012-05-02T12:06:01Z</time>
      </trkpt>
      <trkpt lat="47.419975" lon="13.300535">
        <ele>678.00</ele>
        <time>2012-05-02T12:06:02Z</time>
      </trkpt>
      <trkpt lat="47.419983" lon="13.300360">
        <ele>678.00</ele>
        <time>2012-05-02T12:06:03Z</time>
      </trkpt>
      <trkpt lat="47.420010" lon="13.300006">
        <ele>677.60</ele>
        <time>2012-05-02T12:06:05Z</time>
      </trkpt>
      <trkpt lat="47.420033" lon="13.299842">
        <ele>677.20</ele>
        <time>2012-05-02T12:06:06Z</time>
      </trkpt>
      <trkpt lat="47.420082" lon="13.299691">
        <ele>676.60</ele>
        <time>2012-05-02T12:06:07Z</time>
      </trkpt>
      <trkpt lat="47.420151" lon="13.299562">
        <ele>676.20</ele>
        <time>2012-05-02T12:06:08Z</time>
      </trkpt>
      <trkpt lat="47.420231" lon="13.299442">
        <ele>675.80</ele>
        <time>2012-05-02T12:06:09Z</time>
      </trkpt>
      <trkpt lat="47.420406" lon="13.299233">
        <ele>675.80</ele>
        <time>2012-05-02T12:06:11Z</time>
      </trkpt>
      <trkpt lat="47.420494" lon="13.299129">
        <ele>675.40</ele>
        <time>2012-05-02T12:06:12Z</time>
      </trkpt>
      <trkpt lat="47.420582" lon="13.299027">
        <ele>675.00</ele>
        <time>2012-05-02T12:06:13Z</time>
      </trkpt>
      <trkpt lat="47.420666" lon="13.298925">
        <ele>674.40</ele>
        <time>2012-05-02T12:06:14Z</time>
      </trkpt>
      <trkpt lat="47.420757" lon="13.298826">
        <ele>674.00</ele>
        <time>2012-05-02T12:06:15Z</time>
      </trkpt>
      <trkpt lat="47.420834" lon="13.298714">
        <ele>673.60</ele>
        <time>2012-05-02T12:06:16Z</time>
      </trkpt>
      <trkpt lat="47.420906" lon="13.298597">
        <ele>673.60</ele>
        <time>2012-05-02T12:06:17Z</time>
      </trkpt>
      <trkpt lat="47.421055" lon="13.298336">
        <ele>673.20</ele>
        <time>2012-05-02T12:06:19Z</time>
      </trkpt>
      <trkpt lat="47.421116" lon="13.298196">
        <ele>672.80</ele>
        <time>2012-05-02T12:06:20Z</time>
      </trkpt>
      <trkpt lat="47.421173" lon="13.298058">
        <ele>672.40</ele>
        <time>2012-05-02T12:06:21Z</time>
      </trkpt>
      <trkpt lat="47.421227" lon="13.297921">
        <ele>672.00</ele>
        <time>2012-05-02T12:06:22Z</time>
      </trkpt>
      <trkpt lat="47.421280" lon="13.297778">
        <ele>671.60</ele>
        <time>2012-05-02T12:06:23Z</time>
      </trkpt>
      <trkpt lat="47.421406" lon="13.297344">
        <ele>671.60</ele>
        <time>2012-05-02T12:06:26Z</time>
      </trkpt>
      <trkpt lat="47.421528" lon="13.296556">
        <ele>671.60</ele>
        <time>2012-05-02T12:06:31Z</time>
      </trkpt>
      <trkpt lat="47.421547" lon="13.296399">
        <ele>671.00</ele>
        <time>2012-05-02T12:06:32Z</time>
      </trkpt>
      <trkpt lat="47.421562" lon="13.296239">
        <ele>670.60</ele>
        <time>2012-05-02T12:06:33Z</time>
      </trkpt>
      <trkpt lat="47.421570" lon="13.296070">
        <ele>670.20</ele>
        <time>2012-05-02T12:06:34Z</time>
      </trkpt>
      <trkpt lat="47.421589" lon="13.295914">
        <ele>669.80</ele>
        <time>2012-05-02T12:06:35Z</time>
      </trkpt>
      <trkpt lat="47.421608" lon="13.295756">
        <ele>669.40</ele>
        <time>2012-05-02T12:06:36Z</time>
      </trkpt>
      <trkpt lat="47.421658" lon="13.295450">
        <ele>669.40</ele>
        <time>2012-05-02T12:06:38Z</time>
      </trkpt>
      <trkpt lat="47.421860" lon="13.295106">
        <ele>669.40</ele>
        <time>2012-05-02T12:06:41Z</time>
      </trkpt>
      <trkpt lat="47.422073" lon="13.295094">
        <ele>669.00</ele>
        <time>2012-05-02T12:06:43Z</time>
      </trkpt>
      <trkpt lat="47.422188" lon="13.295105">
        <ele>668.60</ele>
        <time>2012-05-02T12:06:44Z</time>
      </trkpt>
      <trkpt lat="47.422295" lon="13.295134">
        <ele>668.20</ele>
        <time>2012-05-02T12:06:45Z</time>
      </trkpt>
      <trkpt lat="47.422401" lon="13.295158">
        <ele>667.80</ele>
        <time>2012-05-02T12:06:46Z</time>
      </trkpt>
      <trkpt lat="47.422504" lon="13.295184">
        <ele>667.20</ele>
        <time>2012-05-02T12:06:47Z</time>
      </trkpt>
      <trkpt lat="47.422840" lon="13.295246">
        <ele>667.20</ele>
        <time>2012-05-02T12:06:50Z</time>
      </trkpt>
      <trkpt lat="47.422955" lon="13.295218">
        <ele>667.20</ele>
        <time>2012-05-02T12:06:51Z</time>
      </trkpt>
      <trkpt lat="47.423225" lon="13.294963">
        <ele>667.20</ele>
        <time>2012-05-02T12:06:54Z</time>
      </trkpt>
      <trkpt lat="47.423298" lon="13.294686">
        <ele>667.20</ele>
        <time>2012-05-02T12:06:56Z</time>
      </trkpt>
      <trkpt lat="47.423260" lon="13.294222">
        <ele>667.20</ele>
        <time>2012-05-02T12:06:59Z</time>
      </trkpt>
      <trkpt lat="47.423264" lon="13.294065">
        <ele>667.20</ele>
        <time>2012-05-02T12:07:00Z</time>
      </trkpt>
      <trkpt lat="47.423336" lon="13.293773">
        <ele>667.20</ele>
        <time>2012-05-02T12:07:02Z</time>
      </trkpt>
      <trkpt lat="47.423405" lon="13.293663">
        <ele>666.80</ele>
        <time>2012-05-02T12:07:03Z</time>
      </trkpt>
      <trkpt lat="47.423500" lon="13.293583">
        <ele>666.40</ele>
        <time>2012-05-02T12:07:04Z</time>
      </trkpt>
      <trkpt lat="47.423595" lon="13.293492">
        <ele>666.00</ele>
        <time>2012-05-02T12:07:05Z</time>
      </trkpt>
      <trkpt lat="47.423672" lon="13.293376">
        <ele>665.40</ele>
        <time>2012-05-02T12:07:06Z</time>
      </trkpt>
      <trkpt lat="47.423721" lon="13.293233">
        <ele>665.00</ele>
        <time>2012-05-02T12:07:07Z</time>
      </trkpt>
      <trkpt lat="47.423779" lon="13.292771">
        <ele>664.60</ele>
        <time>2012-05-02T12:07:10Z</time>
      </trkpt>
      <trkpt lat="47.423813" lon="13.292620">
        <ele>664.20</ele>
        <time>2012-05-02T12:07:11Z</time>
      </trkpt>
      <trkpt lat="47.423862" lon="13.292472">
        <ele>663.80</ele>
        <time>2012-05-02T12:07:12Z</time>
      </trkpt>
      <trkpt lat="47.423923" lon="13.292338">
        <ele>663.20</ele>
        <time>2012-05-02T12:07:13Z</time>
      </trkpt>
      <trkpt lat="47.423977" lon="13.292196">
        <ele>662.80</ele>
        <time>2012-05-02T12:07:14Z</time>
      </trkpt>
      <trkpt lat="47.424156" lon="13.291780">
        <ele>662.40</ele>
        <time>2012-05-02T12:07:17Z</time>
      </trkpt>
      <trkpt lat="47.424229" lon="13.291649">
        <ele>661.80</ele>
        <time>2012-05-02T12:07:18Z</time>
      </trkpt>
      <trkpt lat="47.424297" lon="13.291510">
        <ele>661.40</ele>
        <time>2012-05-02T12:07:19Z</time>
      </trkpt>
      <trkpt lat="47.424377" lon="13.291376">
        <ele>661.00</ele>
        <time>2012-05-02T12:07:20Z</time>
      </trkpt>
      <trkpt lat="47.424450" lon="13.291242">
        <ele>660.40</ele>
        <time>2012-05-02T12:07:21Z</time>
      </trkpt>
      <trkpt lat="47.424511" lon="13.291098">
        <ele>660.40</ele>
        <time>2012-05-02T12:07:22Z</time>
      </trkpt>
      <trkpt lat="47.424660" lon="13.290659">
        <ele>660.00</ele>
        <time>2012-05-02T12:07:25Z</time>
      </trkpt>
      <trkpt lat="47.424706" lon="13.290514">
        <ele>659.60</ele>
        <time>2012-05-02T12:07:26Z</time>
      </trkpt>
      <trkpt lat="47.424751" lon="13.290358">
        <ele>659.20</ele>
        <time>2012-05-02T12:07:27Z</time>
      </trkpt>
      <trkpt lat="47.424793" lon="13.290206">
        <ele>658.80</ele>
        <time>2012-05-02T12:07:28Z</time>
      </trkpt>
      <trkpt lat="47.424831" lon="13.290056">
        <ele>658.40</ele>
        <time>2012-05-02T12:07:29Z</time>
      </trkpt>
      <trkpt lat="47.424934" lon="13.289618">
        <ele>658.40</ele>
        <time>2012-05-02T12:07:32Z</time>
      </trkpt>
      <trkpt lat="47.424973" lon="13.289476">
        <ele>658.00</ele>
        <time>2012-05-02T12:07:33Z</time>
      </trkpt>
      <trkpt lat="47.425003" lon="13.289336">
        <ele>657.40</ele>
        <time>2012-05-02T12:07:34Z</time>
      </trkpt>
      <trkpt lat="47.425030" lon="13.289186">
        <ele>657.00</ele>
        <time>2012-05-02T12:07:35Z</time>
      </trkpt>
      <trkpt lat="47.425045" lon="13.289039">
        <ele>656.60</ele>
        <time>2012-05-02T12:07:36Z</time>
      </trkpt>
      <trkpt lat="47.425053" lon="13.288888">
        <ele>656.20</ele>
        <time>2012-05-02T12:07:37Z</time>
      </trkpt>
      <trkpt lat="47.425026" lon="13.288297">
        <ele>656.20</ele>
        <time>2012-05-02T12:07:41Z</time>
      </trkpt>
      <trkpt lat="47.424999" lon="13.288158">
        <ele>656.20</ele>
        <time>2012-05-02T12:07:42Z</time>
      </trkpt>
      <trkpt lat="47.424927" lon="13.287872">
        <ele>656.20</ele>
        <time>2012-05-02T12:07:44Z</time>
      </trkpt>
      <trkpt lat="47.424847" lon="13.287439">
        <ele>655.80</ele>
        <time>2012-05-02T12:07:47Z</time>
      </trkpt>
      <trkpt lat="47.424831" lon="13.287293">
        <ele>655.40</ele>
        <time>2012-05-02T12:07:48Z</time>
      </trkpt>
      <trkpt lat="47.424820" lon="13.287151">
        <ele>655.00</ele>
        <time>2012-05-02T12:07:49Z</time>
      </trkpt>
      <trkpt lat="47.424828" lon="13.287005">
        <ele>654.40</ele>
        <time>2012-05-02T12:07:50Z</time>
      </trkpt>
      <trkpt lat="47.424850" lon="13.286851">
        <ele>654.00</ele>
        <time>2012-05-02T12:07:51Z</time>
      </trkpt>
      <trkpt lat="47.424892" lon="13.286702">
        <ele>654.00</ele>
        <time>2012-05-02T12:07:52Z</time>
      </trkpt>
      <trkpt lat="47.424992" lon="13.286429">
        <ele>654.00</ele>
        <time>2012-05-02T12:07:54Z</time>
      </trkpt>
      <trkpt lat="47.425095" lon="13.286158">
        <ele>654.00</ele>
        <time>2012-05-02T12:07:56Z</time>
      </trkpt>
      <trkpt lat="47.425144" lon="13.286015">
        <ele>653.60</ele>
        <time>2012-05-02T12:07:57Z</time>
      </trkpt>
      <trkpt lat="47.425186" lon="13.285876">
        <ele>653.00</ele>
        <time>2012-05-02T12:07:58Z</time>
      </trkpt>
      <trkpt lat="47.425236" lon="13.285731">
        <ele>652.60</ele>
        <time>2012-05-02T12:07:59Z</time>
      </trkpt>
      <trkpt lat="47.425278" lon="13.285596">
        <ele>652.00</ele>
        <time>2012-05-02T12:08:00Z</time>
      </trkpt>
      <trkpt lat="47.425323" lon="13.285454">
        <ele>651.60</ele>
        <time>2012-05-02T12:08:01Z</time>
      </trkpt>
      <trkpt lat="47.425365" lon="13.285313">
        <ele>651.60</ele>
        <time>2012-05-02T12:08:02Z</time>
      </trkpt>
      <trkpt lat="47.425636" lon="13.284485">
        <ele>651.60</ele>
        <time>2012-05-02T12:08:08Z</time>
      </trkpt>
      <trkpt lat="47.425720" lon="13.284213">
        <ele>651.60</ele>
        <time>2012-05-02T12:08:10Z</time>
      </trkpt>
      <trkpt lat="47.425964" lon="13.283404">
        <ele>651.60</ele>
        <time>2012-05-02T12:08:16Z</time>
      </trkpt>
      <trkpt lat="47.426003" lon="13.283266">
        <ele>651.20</ele>
        <time>2012-05-02T12:08:17Z</time>
      </trkpt>
      <trkpt lat="47.426044" lon="13.283128">
        <ele>650.60</ele>
        <time>2012-05-02T12:08:18Z</time>
      </trkpt>
      <trkpt lat="47.426083" lon="13.282984">
        <ele>650.20</ele>
        <time>2012-05-02T12:08:19Z</time>
      </trkpt>
      <trkpt lat="47.426121" lon="13.282836">
        <ele>649.80</ele>
        <time>2012-05-02T12:08:20Z</time>
      </trkpt>
      <trkpt lat="47.426155" lon="13.282680">
        <ele>649.40</ele>
        <time>2012-05-02T12:08:21Z</time>
      </trkpt>
      <trkpt lat="47.426178" lon="13.282529">
        <ele>649.40</ele>
        <time>2012-05-02T12:08:22Z</time>
      </trkpt>
      <trkpt lat="47.426189" lon="13.282375">
        <ele>649.40</ele>
        <time>2012-05-02T12:08:23Z</time>
      </trkpt>
      <trkpt lat="47.426147" lon="13.281892">
        <ele>649.40</ele>
        <time>2012-05-02T12:08:26Z</time>
      </trkpt>
      <trkpt lat="47.426155" lon="13.281730">
        <ele>648.80</ele>
        <time>2012-05-02T12:08:27Z</time>
      </trkpt>
      <trkpt lat="47.426178" lon="13.281582">
        <ele>648.40</ele>
        <time>2012-05-02T12:08:28Z</time>
      </trkpt>
      <trkpt lat="47.426224" lon="13.281431">
        <ele>647.60</ele>
        <time>2012-05-02T12:08:29Z</time>
      </trkpt>
      <trkpt lat="47.426296" lon="13.281308">
        <ele>647.20</ele>
        <time>2012-05-02T12:08:30Z</time>
      </trkpt>
      <trkpt lat="47.426388" lon="13.281232">
        <ele>646.60</ele>
        <time>2012-05-02T12:08:31Z</time>
      </trkpt>
      <trkpt lat="47.426491" lon="13.281183">
        <ele>646.20</ele>
        <time>2012-05-02T12:08:32Z</time>
      </trkpt>
      <trkpt lat="47.426601" lon="13.281154">
        <ele>645.80</ele>
        <time>2012-05-02T12:08:33Z</time>
      </trkpt>
      <trkpt lat="47.426704" lon="13.281122">
        <ele>645.40</ele>
        <time>2012-05-02T12:08:34Z</time>
      </trkpt>
      <trkpt lat="47.426800" lon="13.281076">
        <ele>644.80</ele>
        <time>2012-05-02T12:08:35Z</time>
      </trkpt>
      <trkpt lat="47.427116" lon="13.280948">
        <ele>644.80</ele>
        <time>2012-05-02T12:08:38Z</time>
      </trkpt>
      <trkpt lat="47.427311" lon="13.280829">
        <ele>644.80</ele>
        <time>2012-05-02T12:08:40Z</time>
      </trkpt>
      <trkpt lat="47.427494" lon="13.280680">
        <ele>644.80</ele>
        <time>2012-05-02T12:08:42Z</time>
      </trkpt>
      <trkpt lat="47.427746" lon="13.280391">
        <ele>644.80</ele>
        <time>2012-05-02T12:08:45Z</time>
      </trkpt>
      <trkpt lat="47.427814" lon="13.280261">
        <ele>644.80</ele>
        <time>2012-05-02T12:08:46Z</time>
      </trkpt>
      <trkpt lat="47.428040" lon="13.279701">
        <ele>644.80</ele>
        <time>2012-05-02T12:08:50Z</time>
      </trkpt>
      <trkpt lat="47.428104" lon="13.279557">
        <ele>644.40</ele>
        <time>2012-05-02T12:08:51Z</time>
      </trkpt>
      <trkpt lat="47.428165" lon="13.279422">
        <ele>644.00</ele>
        <time>2012-05-02T12:08:52Z</time>
      </trkpt>
      <trkpt lat="47.428226" lon="13.279285">
        <ele>643.60</ele>
        <time>2012-05-02T12:08:53Z</time>
      </trkpt>
      <trkpt lat="47.428284" lon="13.279145">
        <ele>642.60</ele>
        <time>2012-05-02T12:08:54Z</time>
      </trkpt>
      <trkpt lat="47.428341" lon="13.279008">
        <ele>642.20</ele>
        <time>2012-05-02T12:08:55Z</time>
      </trkpt>
      <trkpt lat="47.428402" lon="13.278867">
        <ele>641.60</ele>
        <time>2012-05-02T12:08:56Z</time>
      </trkpt>
      <trkpt lat="47.428452" lon="13.278725">
        <ele>641.20</ele>
        <time>2012-05-02T12:08:57Z</time>
      </trkpt>
      <trkpt lat="47.428513" lon="13.278590">
        <ele>640.60</ele>
        <time>2012-05-02T12:08:58Z</time>
      </trkpt>
      <trkpt lat="47.428623" lon="13.278295">
        <ele>640.60</ele>
        <time>2012-05-02T12:09:00Z</time>
      </trkpt>
      <trkpt lat="47.428699" lon="13.277980">
        <ele>640.60</ele>
        <time>2012-05-02T12:09:02Z</time>
      </trkpt>
      <trkpt lat="47.428722" lon="13.277811">
        <ele>640.20</ele>
        <time>2012-05-02T12:09:03Z</time>
      </trkpt>
      <trkpt lat="47.428722" lon="13.277636">
        <ele>639.80</ele>
        <time>2012-05-02T12:09:04Z</time>
      </trkpt>
      <trkpt lat="47.428722" lon="13.277470">
        <ele>639.40</ele>
        <time>2012-05-02T12:09:05Z</time>
      </trkpt>
      <trkpt lat="47.428745" lon="13.277305">
        <ele>639.00</ele>
        <time>2012-05-02T12:09:06Z</time>
      </trkpt>
      <trkpt lat="47.428795" lon="13.277165">
        <ele>638.60</ele>
        <time>2012-05-02T12:09:07Z</time>
      </trkpt>
      <trkpt lat="47.428864" lon="13.277050">
        <ele>638.60</ele>
        <time>2012-05-02T12:09:08Z</time>
      </trkpt>
      <trkpt lat="47.429050" lon="13.276906">
        <ele>638.60</ele>
        <time>2012-05-02T12:09:10Z</time>
      </trkpt>
      <trkpt lat="47.429142" lon="13.276841">
        <ele>638.60</ele>
        <time>2012-05-02T12:09:11Z</time>
      </trkpt>
      <trkpt lat="47.429516" lon="13.276528">
        <ele>638.60</ele>
        <time>2012-05-02T12:09:15Z</time>
      </trkpt>
      <trkpt lat="47.429600" lon="13.276437">
        <ele>638.00</ele>
        <time>2012-05-02T12:09:16Z</time>
      </trkpt>
      <trkpt lat="47.429676" lon="13.276335">
        <ele>637.60</ele>
        <time>2012-05-02T12:09:17Z</time>
      </trkpt>
      <trkpt lat="47.429752" lon="13.276233">
        <ele>637.20</ele>
        <time>2012-05-02T12:09:18Z</time>
      </trkpt>
      <trkpt lat="47.429825" lon="13.276133">
        <ele>636.20</ele>
        <time>2012-05-02T12:09:19Z</time>
      </trkpt>
      <trkpt lat="47.429890" lon="13.276011">
        <ele>636.20</ele>
        <time>2012-05-02T12:09:20Z</time>
      </trkpt>
      <trkpt lat="47.429951" lon="13.275885">
        <ele>635.80</ele>
        <time>2012-05-02T12:09:21Z</time>
      </trkpt>
      <trkpt lat="47.430008" lon="13.275750">
        <ele>635.40</ele>
        <time>2012-05-02T12:09:22Z</time>
      </trkpt>
      <trkpt lat="47.430046" lon="13.275608">
        <ele>635.00</ele>
        <time>2012-05-02T12:09:23Z</time>
      </trkpt>
      <trkpt lat="47.430077" lon="13.275465">
        <ele>634.60</ele>
        <time>2012-05-02T12:09:24Z</time>
      </trkpt>
      <trkpt lat="47.430092" lon="13.275311">
        <ele>634.20</ele>
        <time>2012-05-02T12:09:25Z</time>
      </trkpt>
      <trkpt lat="47.430107" lon="13.274999">
        <ele>634.20</ele>
        <time>2012-05-02T12:09:27Z</time>
      </trkpt>
      <trkpt lat="47.430012" lon="13.274546">
        <ele>634.20</ele>
        <time>2012-05-02T12:09:30Z</time>
      </trkpt>
      <trkpt lat="47.429962" lon="13.274411">
        <ele>634.20</ele>
        <time>2012-05-02T12:09:31Z</time>
      </trkpt>
      <trkpt lat="47.429852" lon="13.273988">
        <ele>633.80</ele>
        <time>2012-05-02T12:09:34Z</time>
      </trkpt>
      <trkpt lat="47.429844" lon="13.273838">
        <ele>633.40</ele>
        <time>2012-05-02T12:09:35Z</time>
      </trkpt>
      <trkpt lat="47.429848" lon="13.273678">
        <ele>633.00</ele>
        <time>2012-05-02T12:09:36Z</time>
      </trkpt>
      <trkpt lat="47.429859" lon="13.273513">
        <ele>632.40</ele>
        <time>2012-05-02T12:09:37Z</time>
      </trkpt>
      <trkpt lat="47.429886" lon="13.273369">
        <ele>632.00</ele>
        <time>2012-05-02T12:09:38Z</time>
      </trkpt>
      <trkpt lat="47.429913" lon="13.273225">
        <ele>632.00</ele>
        <time>2012-05-02T12:09:39Z</time>
      </trkpt>
      <trkpt lat="47.429928" lon="13.273077">
        <ele>632.00</ele>
        <time>2012-05-02T12:09:40Z</time>
      </trkpt>
      <trkpt lat="47.429935" lon="13.272769">
        <ele>632.00</ele>
        <time>2012-05-02T12:09:42Z</time>
      </trkpt>
      <trkpt lat="47.429890" lon="13.272185">
        <ele>632.00</ele>
        <time>2012-05-02T12:09:46Z</time>
      </trkpt>
      <trkpt lat="47.429867" lon="13.271610">
        <ele>631.60</ele>
        <time>2012-05-02T12:09:50Z</time>
      </trkpt>
      <trkpt lat="47.429886" lon="13.271467">
        <ele>631.00</ele>
        <time>2012-05-02T12:09:51Z</time>
      </trkpt>
      <trkpt lat="47.429909" lon="13.271315">
        <ele>630.60</ele>
        <time>2012-05-02T12:09:52Z</time>
      </trkpt>
      <trkpt lat="47.429935" lon="13.271178">
        <ele>630.00</ele>
        <time>2012-05-02T12:09:53Z</time>
      </trkpt>
      <trkpt lat="47.429958" lon="13.271039">
        <ele>629.60</ele>
        <time>2012-05-02T12:09:54Z</time>
      </trkpt>
      <trkpt lat="47.430016" lon="13.270766">
        <ele>629.60</ele>
        <time>2012-05-02T12:09:56Z</time>
      </trkpt>
      <trkpt lat="47.430138" lon="13.270090">
        <ele>629.60</ele>
        <time>2012-05-02T12:10:01Z</time>
      </trkpt>
      <trkpt lat="47.430195" lon="13.269547">
        <ele>629.60</ele>
        <time>2012-05-02T12:10:05Z</time>
      </trkpt>
      <trkpt lat="47.430191" lon="13.269419">
        <ele>629.60</ele>
        <time>2012-05-02T12:10:06Z</time>
      </trkpt>
      <trkpt lat="47.430153" lon="13.269038">
        <ele>629.60</ele>
        <time>2012-05-02T12:10:09Z</time>
      </trkpt>
      <trkpt lat="47.430031" lon="13.268586">
        <ele>629.60</ele>
        <time>2012-05-02T12:10:13Z</time>
      </trkpt>
      <trkpt lat="47.429993" lon="13.268481">
        <ele>629.00</ele>
        <time>2012-05-02T12:10:14Z</time>
      </trkpt>
      <trkpt lat="47.429962" lon="13.268365">
        <ele>628.40</ele>
        <time>2012-05-02T12:10:15Z</time>
      </trkpt>
      <trkpt lat="47.429935" lon="13.268255">
        <ele>628.00</ele>
        <time>2012-05-02T12:10:16Z</time>
      </trkpt>
      <trkpt lat="47.429913" lon="13.268138">
        <ele>627.40</ele>
        <time>2012-05-02T12:10:17Z</time>
      </trkpt>
      <trkpt lat="47.429901" lon="13.268019">
        <ele>627.00</ele>
        <time>2012-05-02T12:10:18Z</time>
      </trkpt>
      <trkpt lat="47.429920" lon="13.267572">
        <ele>627.00</ele>
        <time>2012-05-02T12:10:22Z</time>
      </trkpt>
      <trkpt lat="47.429970" lon="13.267087">
        <ele>627.00</ele>
        <time>2012-05-02T12:10:27Z</time>
      </trkpt>
      <trkpt lat="47.429993" lon="13.267000">
        <ele>627.00</ele>
        <time>2012-05-02T12:10:28Z</time>
      </trkpt>
      <trkpt lat="47.430119" lon="13.266750">
        <ele>627.00</ele>
        <time>2012-05-02T12:10:31Z</time>
      </trkpt>
      <trkpt lat="47.430168" lon="13.266674">
        <ele>627.00</ele>
        <time>2012-05-02T12:10:32Z</time>
      </trkpt>
      <trkpt lat="47.430340" lon="13.266453">
        <ele>626.40</ele>
        <time>2012-05-02T12:10:35Z</time>
      </trkpt>
      <trkpt lat="47.430389" lon="13.266373">
        <ele>626.00</ele>
        <time>2012-05-02T12:10:36Z</time>
      </trkpt>
      <trkpt lat="47.430443" lon="13.266274">
        <ele>625.40</ele>
        <time>2012-05-02T12:10:37Z</time>
      </trkpt>
      <trkpt lat="47.430496" lon="13.266159">
        <ele>624.80</ele>
        <time>2012-05-02T12:10:38Z</time>
      </trkpt>
      <trkpt lat="47.430538" lon="13.266036">
        <ele>624.20</ele>
        <time>2012-05-02T12:10:39Z</time>
      </trkpt>
      <trkpt lat="47.430576" lon="13.265901">
        <ele>623.40</ele>
        <time>2012-05-02T12:10:40Z</time>
      </trkpt>
      <trkpt lat="47.430611" lon="13.265760">
        <ele>622.80</ele>
        <time>2012-05-02T12:10:41Z</time>
      </trkpt>
      <trkpt lat="47.430630" lon="13.265601">
        <ele>622.20</ele>
        <time>2012-05-02T12:10:42Z</time>
      </trkpt>
      <trkpt lat="47.430603" lon="13.265133">
        <ele>622.20</ele>
        <time>2012-05-02T12:10:45Z</time>
      </trkpt>
      <trkpt lat="47.430573" lon="13.264967">
        <ele>621.80</ele>
        <time>2012-05-02T12:10:46Z</time>
      </trkpt>
      <trkpt lat="47.430546" lon="13.264809">
        <ele>621.40</ele>
        <time>2012-05-02T12:10:47Z</time>
      </trkpt>
      <trkpt lat="47.430523" lon="13.264646">
        <ele>620.80</ele>
        <time>2012-05-02T12:10:48Z</time>
      </trkpt>
      <trkpt lat="47.430511" lon="13.264476">
        <ele>620.40</ele>
        <time>2012-05-02T12:10:49Z</time>
      </trkpt>
      <trkpt lat="47.430511" lon="13.264307">
        <ele>620.00</ele>
        <time>2012-05-02T12:10:50Z</time>
      </trkpt>
      <trkpt lat="47.430504" lon="13.264130">
        <ele>619.40</ele>
        <time>2012-05-02T12:10:51Z</time>
      </trkpt>
      <trkpt lat="47.430496" lon="13.263971">
        <ele>619.00</ele>
        <time>2012-05-02T12:10:52Z</time>
      </trkpt>
      <trkpt lat="47.430481" lon="13.263803">
        <ele>618.40</ele>
        <time>2012-05-02T12:10:53Z</time>
      </trkpt>
      <trkpt lat="47.430450" lon="13.263639">
        <ele>617.80</ele>
        <time>2012-05-02T12:10:54Z</time>
      </trkpt>
      <trkpt lat="47.430420" lon="13.263483">
        <ele>617.40</ele>
        <time>2012-05-02T12:10:55Z</time>
      </trkpt>
      <trkpt lat="47.430344" lon="13.263177">
        <ele>616.80</ele>
        <time>2012-05-02T12:10:57Z</time>
      </trkpt>
      <trkpt lat="47.430298" lon="13.263021">
        <ele>616.00</ele>
        <time>2012-05-02T12:10:58Z</time>
      </trkpt>
      <trkpt lat="47.430256" lon="13.262877">
        <ele>615.60</ele>
        <time>2012-05-02T12:10:59Z</time>
      </trkpt>
      <trkpt lat="47.430210" lon="13.262733">
        <ele>615.20</ele>
        <time>2012-05-02T12:11:00Z</time>
      </trkpt>
      <trkpt lat="47.430058" lon="13.261998">
        <ele>615.20</ele>
        <time>2012-05-02T12:11:05Z</time>
      </trkpt>
      <trkpt lat="47.430073" lon="13.261384">
        <ele>614.80</ele>
        <time>2012-05-02T12:11:09Z</time>
      </trkpt>
      <trkpt lat="47.430092" lon="13.261229">
        <ele>614.20</ele>
        <time>2012-05-02T12:11:10Z</time>
      </trkpt>
      <trkpt lat="47.430122" lon="13.261079">
        <ele>613.80</ele>
        <time>2012-05-02T12:11:11Z</time>
      </trkpt>
      <trkpt lat="47.430149" lon="13.260928">
        <ele>613.40</ele>
        <time>2012-05-02T12:11:12Z</time>
      </trkpt>
      <trkpt lat="47.430176" lon="13.260774">
        <ele>613.00</ele>
        <time>2012-05-02T12:11:13Z</time>
      </trkpt>
      <trkpt lat="47.430328" lon="13.260010">
        <ele>612.40</ele>
        <time>2012-05-02T12:11:18Z</time>
      </trkpt>
      <trkpt lat="47.430355" lon="13.259860">
        <ele>612.00</ele>
        <time>2012-05-02T12:11:19Z</time>
      </trkpt>
      <trkpt lat="47.430374" lon="13.259708">
        <ele>611.40</ele>
        <time>2012-05-02T12:11:20Z</time>
      </trkpt>
      <trkpt lat="47.430397" lon="13.259558">
        <ele>610.80</ele>
        <time>2012-05-02T12:11:21Z</time>
      </trkpt>
      <trkpt lat="47.430412" lon="13.259401">
        <ele>610.40</ele>
        <time>2012-05-02T12:11:22Z</time>
      </trkpt>
      <trkpt lat="47.430492" lon="13.258633">
        <ele>610.00</ele>
        <time>2012-05-02T12:11:27Z</time>
      </trkpt>
      <trkpt lat="47.430504" lon="13.258482">
        <ele>609.60</ele>
        <time>2012-05-02T12:11:28Z</time>
      </trkpt>
      <trkpt lat="47.430511" lon="13.258326">
        <ele>609.20</ele>
        <time>2012-05-02T12:11:29Z</time>
      </trkpt>
      <trkpt lat="47.430519" lon="13.258161">
        <ele>608.80</ele>
        <time>2012-05-02T12:11:30Z</time>
      </trkpt>
      <trkpt lat="47.430519" lon="13.258000">
        <ele>608.40</ele>
        <time>2012-05-02T12:11:31Z</time>
      </trkpt>
      <trkpt lat="47.430538" lon="13.257686">
        <ele>608.40</ele>
        <time>2012-05-02T12:11:33Z</time>
      </trkpt>
      <trkpt lat="47.430569" lon="13.256876">
        <ele>608.40</ele>
        <time>2012-05-02T12:11:38Z</time>
      </trkpt>
      <trkpt lat="47.430584" lon="13.256555">
        <ele>607.80</ele>
        <time>2012-05-02T12:11:40Z</time>
      </trkpt>
      <trkpt lat="47.430592" lon="13.256395">
        <ele>607.40</ele>
        <time>2012-05-02T12:11:41Z</time>
      </trkpt>
      <trkpt lat="47.430595" lon="13.256234">
        <ele>606.80</ele>
        <time>2012-05-02T12:11:42Z</time>
      </trkpt>
      <trkpt lat="47.430595" lon="13.256074">
        <ele>606.40</ele>
        <time>2012-05-02T12:11:43Z</time>
      </trkpt>
      <trkpt lat="47.430607" lon="13.255919">
        <ele>605.80</ele>
        <time>2012-05-02T12:11:44Z</time>
      </trkpt>
      <trkpt lat="47.430614" lon="13.255587">
        <ele>605.80</ele>
        <time>2012-05-02T12:11:46Z</time>
      </trkpt>
      <trkpt lat="47.430714" lon="13.254812">
        <ele>605.40</ele>
        <time>2012-05-02T12:11:51Z</time>
      </trkpt>
      <trkpt lat="47.430740" lon="13.254660">
        <ele>605.00</ele>
        <time>2012-05-02T12:11:52Z</time>
      </trkpt>
      <trkpt lat="47.430775" lon="13.254503">
        <ele>604.60</ele>
        <time>2012-05-02T12:11:53Z</time>
      </trkpt>
      <trkpt lat="47.430809" lon="13.254357">
        <ele>604.20</ele>
        <time>2012-05-02T12:11:54Z</time>
      </trkpt>
      <trkpt lat="47.430843" lon="13.254215">
        <ele>603.80</ele>
        <time>2012-05-02T12:11:55Z</time>
      </trkpt>
      <trkpt lat="47.430969" lon="13.253801">
        <ele>603.80</ele>
        <time>2012-05-02T12:11:58Z</time>
      </trkpt>
      <trkpt lat="47.431095" lon="13.253369">
        <ele>603.20</ele>
        <time>2012-05-02T12:12:01Z</time>
      </trkpt>
      <trkpt lat="47.431137" lon="13.253228">
        <ele>602.80</ele>
        <time>2012-05-02T12:12:02Z</time>
      </trkpt>
      <trkpt lat="47.431190" lon="13.253098">
        <ele>602.40</ele>
        <time>2012-05-02T12:12:03Z</time>
      </trkpt>
      <trkpt lat="47.431248" lon="13.252958">
        <ele>602.00</ele>
        <time>2012-05-02T12:12:04Z</time>
      </trkpt>
      <trkpt lat="47.431297" lon="13.252825">
        <ele>601.40</ele>
        <time>2012-05-02T12:12:05Z</time>
      </trkpt>
      <trkpt lat="47.431473" lon="13.252247">
        <ele>601.40</ele>
        <time>2012-05-02T12:12:09Z</time>
      </trkpt>
      <trkpt lat="47.431568" lon="13.251807">
        <ele>601.00</ele>
        <time>2012-05-02T12:12:12Z</time>
      </trkpt>
      <trkpt lat="47.431591" lon="13.251652">
        <ele>600.60</ele>
        <time>2012-05-02T12:12:13Z</time>
      </trkpt>
      <trkpt lat="47.431610" lon="13.251497">
        <ele>600.20</ele>
        <time>2012-05-02T12:12:14Z</time>
      </trkpt>
      <trkpt lat="47.431625" lon="13.251340">
        <ele>599.80</ele>
        <time>2012-05-02T12:12:15Z</time>
      </trkpt>
      <trkpt lat="47.431637" lon="13.251171">
        <ele>599.20</ele>
        <time>2012-05-02T12:12:16Z</time>
      </trkpt>
      <trkpt lat="47.431652" lon="13.250687">
        <ele>599.20</ele>
        <time>2012-05-02T12:12:19Z</time>
      </trkpt>
      <trkpt lat="47.431660" lon="13.249883">
        <ele>599.20</ele>
        <time>2012-05-02T12:12:24Z</time>
      </trkpt>
      <trkpt lat="47.431648" lon="13.249570">
        <ele>599.20</ele>
        <time>2012-05-02T12:12:26Z</time>
      </trkpt>
      <trkpt lat="47.431602" lon="13.249084">
        <ele>598.80</ele>
        <time>2012-05-02T12:12:29Z</time>
      </trkpt>
      <trkpt lat="47.431576" lon="13.248927">
        <ele>598.40</ele>
        <time>2012-05-02T12:12:30Z</time>
      </trkpt>
      <trkpt lat="47.431538" lon="13.248764">
        <ele>598.00</ele>
        <time>2012-05-02T12:12:31Z</time>
      </trkpt>
      <trkpt lat="47.431480" lon="13.248619">
        <ele>597.60</ele>
        <time>2012-05-02T12:12:32Z</time>
      </trkpt>
      <trkpt lat="47.431431" lon="13.248470">
        <ele>597.20</ele>
        <time>2012-05-02T12:12:33Z</time>
      </trkpt>
      <trkpt lat="47.431339" lon="13.248169">
        <ele>597.20</ele>
        <time>2012-05-02T12:12:35Z</time>
      </trkpt>
      <trkpt lat="47.431072" lon="13.247446">
        <ele>597.20</ele>
        <time>2012-05-02T12:12:40Z</time>
      </trkpt>
      <trkpt lat="47.430950" lon="13.247177">
        <ele>596.80</ele>
        <time>2012-05-02T12:12:42Z</time>
      </trkpt>
      <trkpt lat="47.430885" lon="13.247036">
        <ele>596.40</ele>
        <time>2012-05-02T12:12:43Z</time>
      </trkpt>
      <trkpt lat="47.430828" lon="13.246901">
        <ele>596.00</ele>
        <time>2012-05-02T12:12:44Z</time>
      </trkpt>
      <trkpt lat="47.430786" lon="13.246743">
        <ele>595.60</ele>
        <time>2012-05-02T12:12:45Z</time>
      </trkpt>
      <trkpt lat="47.430752" lon="13.246598">
        <ele>595.00</ele>
        <time>2012-05-02T12:12:46Z</time>
      </trkpt>
      <trkpt lat="47.430721" lon="13.246448">
        <ele>595.00</ele>
        <time>2012-05-02T12:12:47Z</time>
      </trkpt>
      <trkpt lat="47.430679" lon="13.246139">
        <ele>595.00</ele>
        <time>2012-05-02T12:12:49Z</time>
      </trkpt>
      <trkpt lat="47.430679" lon="13.245821">
        <ele>595.00</ele>
        <time>2012-05-02T12:12:51Z</time>
      </trkpt>
      <trkpt lat="47.430737" lon="13.245033">
        <ele>594.60</ele>
        <time>2012-05-02T12:12:56Z</time>
      </trkpt>
      <trkpt lat="47.430752" lon="13.244877">
        <ele>594.00</ele>
        <time>2012-05-02T12:12:57Z</time>
      </trkpt>
      <trkpt lat="47.430759" lon="13.244722">
        <ele>593.40</ele>
        <time>2012-05-02T12:12:58Z</time>
      </trkpt>
      <trkpt lat="47.430771" lon="13.244570">
        <ele>593.00</ele>
        <time>2012-05-02T12:12:59Z</time>
      </trkpt>
      <trkpt lat="47.430779" lon="13.244409">
        <ele>592.40</ele>
        <time>2012-05-02T12:13:00Z</time>
      </trkpt>
      <trkpt lat="47.430805" lon="13.243792">
        <ele>592.40</ele>
        <time>2012-05-02T12:13:04Z</time>
      </trkpt>
      <trkpt lat="47.430809" lon="13.242901">
        <ele>592.40</ele>
        <time>2012-05-02T12:13:10Z</time>
      </trkpt>
      <trkpt lat="47.430809" lon="13.242756">
        <ele>592.40</ele>
        <time>2012-05-02T12:13:11Z</time>
      </trkpt>
      <trkpt lat="47.430824" lon="13.242192">
        <ele>591.80</ele>
        <time>2012-05-02T12:13:15Z</time>
      </trkpt>
      <trkpt lat="47.430836" lon="13.242048">
        <ele>591.40</ele>
        <time>2012-05-02T12:13:16Z</time>
      </trkpt>
      <trkpt lat="47.430855" lon="13.241900">
        <ele>590.80</ele>
        <time>2012-05-02T12:13:17Z</time>
      </trkpt>
      <trkpt lat="47.430882" lon="13.241761">
        <ele>590.20</ele>
        <time>2012-05-02T12:13:18Z</time>
      </trkpt>
      <trkpt lat="47.430912" lon="13.241620">
        <ele>589.80</ele>
        <time>2012-05-02T12:13:19Z</time>
      </trkpt>
      <trkpt lat="47.430988" lon="13.241364">
        <ele>589.80</ele>
        <time>2012-05-02T12:13:21Z</time>
      </trkpt>
      <trkpt lat="47.431133" lon="13.240981">
        <ele>589.80</ele>
        <time>2012-05-02T12:13:24Z</time>
      </trkpt>
      <trkpt lat="47.431259" lon="13.240748">
        <ele>589.80</ele>
        <time>2012-05-02T12:13:26Z</time>
      </trkpt>
      <trkpt lat="47.431606" lon="13.240271">
        <ele>589.80</ele>
        <time>2012-05-02T12:13:31Z</time>
      </trkpt>
      <trkpt lat="47.431679" lon="13.240183">
        <ele>589.20</ele>
        <time>2012-05-02T12:13:32Z</time>
      </trkpt>
      <trkpt lat="47.431759" lon="13.240095">
        <ele>588.80</ele>
        <time>2012-05-02T12:13:33Z</time>
      </trkpt>
      <trkpt lat="47.431831" lon="13.240015">
        <ele>588.20</ele>
        <time>2012-05-02T12:13:34Z</time>
      </trkpt>
      <trkpt lat="47.431904" lon="13.239931">
        <ele>587.80</ele>
        <time>2012-05-02T12:13:35Z</time>
      </trkpt>
      <trkpt lat="47.431976" lon="13.239841">
        <ele>587.40</ele>
        <time>2012-05-02T12:13:36Z</time>
      </trkpt>
      <trkpt lat="47.432041" lon="13.239750">
        <ele>587.40</ele>
        <time>2012-05-02T12:13:37Z</time>
      </trkpt>
      <trkpt lat="47.432182" lon="13.239555">
        <ele>587.00</ele>
        <time>2012-05-02T12:13:39Z</time>
      </trkpt>
      <trkpt lat="47.432247" lon="13.239446">
        <ele>586.40</ele>
        <time>2012-05-02T12:13:40Z</time>
      </trkpt>
      <trkpt lat="47.432301" lon="13.239316">
        <ele>586.00</ele>
        <time>2012-05-02T12:13:41Z</time>
      </trkpt>
      <trkpt lat="47.432350" lon="13.239186">
        <ele>585.60</ele>
        <time>2012-05-02T12:13:42Z</time>
      </trkpt>
      <trkpt lat="47.432392" lon="13.239048">
        <ele>585.20</ele>
        <time>2012-05-02T12:13:43Z</time>
      </trkpt>
      <trkpt lat="47.432480" lon="13.238609">
        <ele>585.20</ele>
        <time>2012-05-02T12:13:46Z</time>
      </trkpt>
      <trkpt lat="47.432499" lon="13.238452">
        <ele>585.20</ele>
        <time>2012-05-02T12:13:47Z</time>
      </trkpt>
      <trkpt lat="47.432537" lon="13.238154">
        <ele>584.80</ele>
        <time>2012-05-02T12:13:49Z</time>
      </trkpt>
      <trkpt lat="47.432556" lon="13.238004">
        <ele>584.40</ele>
        <time>2012-05-02T12:13:50Z</time>
      </trkpt>
      <trkpt lat="47.432575" lon="13.237865">
        <ele>584.00</ele>
        <time>2012-05-02T12:13:51Z</time>
      </trkpt>
      <trkpt lat="47.432602" lon="13.237721">
        <ele>583.40</ele>
        <time>2012-05-02T12:13:52Z</time>
      </trkpt>
      <trkpt lat="47.432629" lon="13.237580">
        <ele>583.00</ele>
        <time>2012-05-02T12:13:53Z</time>
      </trkpt>
      <trkpt lat="47.432774" lon="13.236754">
        <ele>583.00</ele>
        <time>2012-05-02T12:13:59Z</time>
      </trkpt>
      <trkpt lat="47.432793" lon="13.236620">
        <ele>583.00</ele>
        <time>2012-05-02T12:14:00Z</time>
      </trkpt>
      <trkpt lat="47.432892" lon="13.235774">
        <ele>583.00</ele>
        <time>2012-05-02T12:14:06Z</time>
      </trkpt>
      <trkpt lat="47.432899" lon="13.235637">
        <ele>583.00</ele>
        <time>2012-05-02T12:14:07Z</time>
      </trkpt>
      <trkpt lat="47.432964" lon="13.234925">
        <ele>582.60</ele>
        <time>2012-05-02T12:14:12Z</time>
      </trkpt>
      <trkpt lat="47.432987" lon="13.234784">
        <ele>582.20</ele>
        <time>2012-05-02T12:14:13Z</time>
      </trkpt>
      <trkpt lat="47.432999" lon="13.234642">
        <ele>581.40</ele>
        <time>2012-05-02T12:14:14Z</time>
      </trkpt>
      <trkpt lat="47.433018" lon="13.234500">
        <ele>580.80</ele>
        <time>2012-05-02T12:14:15Z</time>
      </trkpt>
      <trkpt lat="47.433105" lon="13.233941">
        <ele>580.80</ele>
        <time>2012-05-02T12:14:19Z</time>
      </trkpt>
      <trkpt lat="47.433289" lon="13.233129">
        <ele>580.80</ele>
        <time>2012-05-02T12:14:25Z</time>
      </trkpt>
      <trkpt lat="47.433331" lon="13.233008">
        <ele>580.80</ele>
        <time>2012-05-02T12:14:26Z</time>
      </trkpt>
      <trkpt lat="47.433464" lon="13.232487">
        <ele>580.40</ele>
        <time>2012-05-02T12:14:30Z</time>
      </trkpt>
      <trkpt lat="47.433491" lon="13.232348">
        <ele>579.80</ele>
        <time>2012-05-02T12:14:31Z</time>
      </trkpt>
      <trkpt lat="47.433514" lon="13.232210">
        <ele>579.40</ele>
        <time>2012-05-02T12:14:32Z</time>
      </trkpt>
      <trkpt lat="47.433533" lon="13.232061">
        <ele>578.80</ele>
        <time>2012-05-02T12:14:33Z</time>
      </trkpt>
      <trkpt lat="47.433548" lon="13.231925">
        <ele>578.40</ele>
        <time>2012-05-02T12:14:34Z</time>
      </trkpt>
      <trkpt lat="47.433636" lon="13.231380">
        <ele>578.40</ele>
        <time>2012-05-02T12:14:38Z</time>
      </trkpt>
      <trkpt lat="47.433712" lon="13.230963">
        <ele>577.80</ele>
        <time>2012-05-02T12:14:41Z</time>
      </trkpt>
      <trkpt lat="47.433727" lon="13.230824">
        <ele>577.40</ele>
        <time>2012-05-02T12:14:42Z</time>
      </trkpt>
      <trkpt lat="47.433735" lon="13.230683">
        <ele>577.00</ele>
        <time>2012-05-02T12:14:43Z</time>
      </trkpt>
      <trkpt lat="47.433743" lon="13.230543">
        <ele>576.60</ele>
        <time>2012-05-02T12:14:44Z</time>
      </trkpt>
      <trkpt lat="47.433754" lon="13.230407">
        <ele>576.20</ele>
        <time>2012-05-02T12:14:45Z</time>
      </trkpt>
      <trkpt lat="47.433784" lon="13.230266">
        <ele>576.20</ele>
        <time>2012-05-02T12:14:46Z</time>
      </trkpt>
      <trkpt lat="47.433846" lon="13.230150">
        <ele>576.20</ele>
        <time>2012-05-02T12:14:47Z</time>
      </trkpt>
      <trkpt lat="47.434113" lon="13.229933">
        <ele>576.20</ele>
        <time>2012-05-02T12:14:50Z</time>
      </trkpt>
      <trkpt lat="47.434311" lon="13.229860">
        <ele>576.20</ele>
        <time>2012-05-02T12:14:52Z</time>
      </trkpt>
      <trkpt lat="47.434502" lon="13.229767">
        <ele>576.20</ele>
        <time>2012-05-02T12:14:54Z</time>
      </trkpt>
      <trkpt lat="47.434582" lon="13.229683">
        <ele>576.20</ele>
        <time>2012-05-02T12:14:55Z</time>
      </trkpt>
      <trkpt lat="47.434753" lon="13.229515">
        <ele>576.20</ele>
        <time>2012-05-02T12:14:57Z</time>
      </trkpt>
      <trkpt lat="47.435127" lon="13.229084">
        <ele>575.80</ele>
        <time>2012-05-02T12:15:02Z</time>
      </trkpt>
      <trkpt lat="47.435192" lon="13.228984">
        <ele>574.80</ele>
        <time>2012-05-02T12:15:03Z</time>
      </trkpt>
      <trkpt lat="47.435249" lon="13.228886">
        <ele>574.40</ele>
        <time>2012-05-02T12:15:04Z</time>
      </trkpt>
      <trkpt lat="47.435303" lon="13.228795">
        <ele>574.00</ele>
        <time>2012-05-02T12:15:05Z</time>
      </trkpt>
      <trkpt lat="47.435368" lon="13.228573">
        <ele>574.00</ele>
        <time>2012-05-02T12:15:07Z</time>
      </trkpt>
      <trkpt lat="47.435310" lon="13.228251">
        <ele>574.00</ele>
        <time>2012-05-02T12:15:09Z</time>
      </trkpt>
      <trkpt lat="47.435276" lon="13.227945">
        <ele>573.60</ele>
        <time>2012-05-02T12:15:11Z</time>
      </trkpt>
      <trkpt lat="47.435284" lon="13.227798">
        <ele>573.00</ele>
        <time>2012-05-02T12:15:12Z</time>
      </trkpt>
      <trkpt lat="47.435314" lon="13.227658">
        <ele>572.60</ele>
        <time>2012-05-02T12:15:13Z</time>
      </trkpt>
      <trkpt lat="47.435352" lon="13.227523">
        <ele>572.00</ele>
        <time>2012-05-02T12:15:14Z</time>
      </trkpt>
      <trkpt lat="47.435406" lon="13.227402">
        <ele>571.60</ele>
        <time>2012-05-02T12:15:15Z</time>
      </trkpt>
      <trkpt lat="47.435467" lon="13.227293">
        <ele>571.60</ele>
        <time>2012-05-02T12:15:16Z</time>
      </trkpt>
      <trkpt lat="47.435600" lon="13.227111">
        <ele>571.20</ele>
        <time>2012-05-02T12:15:18Z</time>
      </trkpt>
      <trkpt lat="47.435688" lon="13.227043">
        <ele>570.80</ele>
        <time>2012-05-02T12:15:19Z</time>
      </trkpt>
      <trkpt lat="47.435780" lon="13.226971">
        <ele>570.20</ele>
        <time>2012-05-02T12:15:20Z</time>
      </trkpt>
      <trkpt lat="47.435867" lon="13.226894">
        <ele>569.80</ele>
        <time>2012-05-02T12:15:21Z</time>
      </trkpt>
      <trkpt lat="47.435959" lon="13.226802">
        <ele>569.40</ele>
        <time>2012-05-02T12:15:22Z</time>
      </trkpt>
      <trkpt lat="47.436001" lon="13.226666">
        <ele>569.40</ele>
        <time>2012-05-02T12:15:23Z</time>
      </trkpt>
      <trkpt lat="47.436089" lon="13.226252">
        <ele>569.40</ele>
        <time>2012-05-02T12:15:26Z</time>
      </trkpt>
      <trkpt lat="47.436111" lon="13.226098">
        <ele>569.40</ele>
        <time>2012-05-02T12:15:27Z</time>
      </trkpt>
      <trkpt lat="47.436153" lon="13.225960">
        <ele>569.40</ele>
        <time>2012-05-02T12:15:28Z</time>
      </trkpt>
      <trkpt lat="47.436211" lon="13.225832">
        <ele>569.00</ele>
        <time>2012-05-02T12:15:29Z</time>
      </trkpt>
      <trkpt lat="47.436279" lon="13.225725">
        <ele>568.60</ele>
        <time>2012-05-02T12:15:30Z</time>
      </trkpt>
      <trkpt lat="47.436340" lon="13.225628">
        <ele>568.00</ele>
        <time>2012-05-02T12:15:31Z</time>
      </trkpt>
      <trkpt lat="47.436398" lon="13.225524">
        <ele>567.60</ele>
        <time>2012-05-02T12:15:32Z</time>
      </trkpt>
      <trkpt lat="47.436462" lon="13.225423">
        <ele>567.20</ele>
        <time>2012-05-02T12:15:33Z</time>
      </trkpt>
      <trkpt lat="47.436592" lon="13.225204">
        <ele>567.20</ele>
        <time>2012-05-02T12:15:35Z</time>
      </trkpt>
      <trkpt lat="47.436699" lon="13.224813">
        <ele>566.60</ele>
        <time>2012-05-02T12:15:38Z</time>
      </trkpt>
      <trkpt lat="47.436695" lon="13.224647">
        <ele>566.20</ele>
        <time>2012-05-02T12:15:39Z</time>
      </trkpt>
      <trkpt lat="47.436687" lon="13.224474">
        <ele>565.80</ele>
        <time>2012-05-02T12:15:40Z</time>
      </trkpt>
      <trkpt lat="47.436657" lon="13.224332">
        <ele>565.40</ele>
        <time>2012-05-02T12:15:41Z</time>
      </trkpt>
      <trkpt lat="47.436634" lon="13.224193">
        <ele>564.80</ele>
        <time>2012-05-02T12:15:42Z</time>
      </trkpt>
      <trkpt lat="47.436531" lon="13.223690">
        <ele>564.40</ele>
        <time>2012-05-02T12:15:46Z</time>
      </trkpt>
      <trkpt lat="47.436508" lon="13.223616">
        <ele>564.00</ele>
        <time>2012-05-02T12:15:47Z</time>
      </trkpt>
      <trkpt lat="47.436485" lon="13.223563">
        <ele>563.60</ele>
        <time>2012-05-02T12:15:48Z</time>
      </trkpt>
      <trkpt lat="47.436462" lon="13.223532">
        <ele>563.20</ele>
        <time>2012-05-02T12:15:49Z</time>
      </trkpt>
      <trkpt lat="47.436443" lon="13.223513">
        <ele>562.80</ele>
        <time>2012-05-02T12:15:50Z</time>
      </trkpt>
      <trkpt lat="47.436428" lon="13.223500">
        <ele>562.40</ele>
        <time>2012-05-02T12:15:51Z</time>
      </trkpt>
      <trkpt lat="47.436413" lon="13.223491">
        <ele>561.40</ele>
        <time>2012-05-02T12:15:52Z</time>
      </trkpt>
      <trkpt lat="47.436405" lon="13.223480">
        <ele>561.00</ele>
        <time>2012-05-02T12:15:53Z</time>
      </trkpt>
      <trkpt lat="47.436401" lon="13.223479">
        <ele>560.60</ele>
        <time>2012-05-02T12:15:54Z</time>
      </trkpt>
      <trkpt lat="47.436398" lon="13.223485">
        <ele>560.60</ele>
        <time>2012-05-02T12:15:55Z</time>
      </trkpt>
      <trkpt lat="47.436401" lon="13.223478">
        <ele>560.60</ele>
        <time>2012-05-02T12:15:56Z</time>
      </trkpt>
      <trkpt lat="47.436398" lon="13.223493">
        <ele>560.60</ele>
        <time>2012-05-02T12:18:55Z</time>
      </trkpt>
      <trkpt lat="47.436409" lon="13.223416">
        <ele>560.60</ele>
        <time>2012-05-02T12:18:57Z</time>
      </trkpt>
      <trkpt lat="47.436466" lon="13.223156">
        <ele>560.60</ele>
        <time>2012-05-02T12:19:01Z</time>
      </trkpt>
      <trkpt lat="47.436565" lon="13.222783">
        <ele>560.60</ele>
        <time>2012-05-02T12:19:05Z</time>
      </trkpt>
      <trkpt lat="47.436714" lon="13.222101">
        <ele>560.60</ele>
        <time>2012-05-02T12:19:11Z</time>
      </trkpt>
      <trkpt lat="47.436737" lon="13.221991">
        <ele>560.20</ele>
        <time>2012-05-02T12:19:12Z</time>
      </trkpt>
      <trkpt lat="47.436764" lon="13.221882">
        <ele>559.60</ele>
        <time>2012-05-02T12:19:13Z</time>
      </trkpt>
      <trkpt lat="47.436779" lon="13.221787">
        <ele>559.20</ele>
        <time>2012-05-02T12:19:14Z</time>
      </trkpt>
      <trkpt lat="47.436794" lon="13.221676">
        <ele>558.80</ele>
        <time>2012-05-02T12:19:15Z</time>
      </trkpt>
      <trkpt lat="47.436806" lon="13.221570">
        <ele>558.20</ele>
        <time>2012-05-02T12:19:16Z</time>
      </trkpt>
      <trkpt lat="47.436810" lon="13.221466">
        <ele>558.20</ele>
        <time>2012-05-02T12:19:17Z</time>
      </trkpt>
      <trkpt lat="47.436810" lon="13.221055">
        <ele>557.80</ele>
        <time>2012-05-02T12:19:21Z</time>
      </trkpt>
      <trkpt lat="47.436790" lon="13.220964">
        <ele>557.40</ele>
        <time>2012-05-02T12:19:22Z</time>
      </trkpt>
      <trkpt lat="47.436775" lon="13.220878">
        <ele>557.00</ele>
        <time>2012-05-02T12:19:23Z</time>
      </trkpt>
      <trkpt lat="47.436764" lon="13.220782">
        <ele>556.60</ele>
        <time>2012-05-02T12:19:24Z</time>
      </trkpt>
      <trkpt lat="47.436752" lon="13.220679">
        <ele>556.20</ele>
        <time>2012-05-02T12:19:25Z</time>
      </trkpt>
      <trkpt lat="47.436726" lon="13.220580">
        <ele>556.20</ele>
        <time>2012-05-02T12:19:26Z</time>
      </trkpt>
      <trkpt lat="47.436699" lon="13.220473">
        <ele>556.20</ele>
        <time>2012-05-02T12:19:27Z</time>
      </trkpt>
      <trkpt lat="47.436531" lon="13.219909">
        <ele>556.20</ele>
        <time>2012-05-02T12:19:32Z</time>
      </trkpt>
      <trkpt lat="47.436451" lon="13.219495">
        <ele>555.20</ele>
        <time>2012-05-02T12:19:35Z</time>
      </trkpt>
      <trkpt lat="47.436424" lon="13.219350">
        <ele>554.60</ele>
        <time>2012-05-02T12:19:36Z</time>
      </trkpt>
      <trkpt lat="47.436401" lon="13.219205">
        <ele>554.00</ele>
        <time>2012-05-02T12:19:37Z</time>
      </trkpt>
      <trkpt lat="47.436378" lon="13.219060">
        <ele>553.60</ele>
        <time>2012-05-02T12:19:38Z</time>
      </trkpt>
      <trkpt lat="47.436310" lon="13.218596">
        <ele>553.20</ele>
        <time>2012-05-02T12:19:41Z</time>
      </trkpt>
      <trkpt lat="47.436295" lon="13.218436">
        <ele>552.80</ele>
        <time>2012-05-02T12:19:42Z</time>
      </trkpt>
      <trkpt lat="47.436279" lon="13.218269">
        <ele>552.40</ele>
        <time>2012-05-02T12:19:43Z</time>
      </trkpt>
      <trkpt lat="47.436272" lon="13.218104">
        <ele>551.80</ele>
        <time>2012-05-02T12:19:44Z</time>
      </trkpt>
      <trkpt lat="47.436268" lon="13.217942">
        <ele>551.40</ele>
        <time>2012-05-02T12:19:45Z</time>
      </trkpt>
      <trkpt lat="47.436310" lon="13.217397">
        <ele>551.40</ele>
        <time>2012-05-02T12:19:48Z</time>
      </trkpt>
      <trkpt lat="47.436329" lon="13.217217">
        <ele>551.00</ele>
        <time>2012-05-02T12:19:49Z</time>
      </trkpt>
      <trkpt lat="47.436337" lon="13.217039">
        <ele>550.60</ele>
        <time>2012-05-02T12:19:50Z</time>
      </trkpt>
      <trkpt lat="47.436356" lon="13.216863">
        <ele>550.20</ele>
        <time>2012-05-02T12:19:51Z</time>
      </trkpt>
      <trkpt lat="47.436371" lon="13.216673">
        <ele>549.80</ele>
        <time>2012-05-02T12:19:52Z</time>
      </trkpt>
      <trkpt lat="47.436375" lon="13.216493">
        <ele>549.20</ele>
        <time>2012-05-02T12:19:53Z</time>
      </trkpt>
      <trkpt lat="47.436359" lon="13.216130">
        <ele>548.80</ele>
        <time>2012-05-02T12:19:55Z</time>
      </trkpt>
      <trkpt lat="47.436348" lon="13.215957">
        <ele>548.40</ele>
        <time>2012-05-02T12:19:56Z</time>
      </trkpt>
      <trkpt lat="47.436337" lon="13.215787">
        <ele>547.80</ele>
        <time>2012-05-02T12:19:57Z</time>
      </trkpt>
      <trkpt lat="47.436321" lon="13.215623">
        <ele>547.40</ele>
        <time>2012-05-02T12:19:58Z</time>
      </trkpt>
      <trkpt lat="47.436302" lon="13.215461">
        <ele>546.80</ele>
        <time>2012-05-02T12:19:59Z</time>
      </trkpt>
      <trkpt lat="47.436226" lon="13.215003">
        <ele>546.80</ele>
        <time>2012-05-02T12:20:02Z</time>
      </trkpt>
      <trkpt lat="47.436214" lon="13.214381">
        <ele>546.80</ele>
        <time>2012-05-02T12:20:07Z</time>
      </trkpt>
      <trkpt lat="47.436218" lon="13.213562">
        <ele>546.80</ele>
        <time>2012-05-02T12:20:13Z</time>
      </trkpt>
      <trkpt lat="47.436295" lon="13.212826">
        <ele>546.80</ele>
        <time>2012-05-02T12:20:19Z</time>
      </trkpt>
      <trkpt lat="47.436398" lon="13.212305">
        <ele>546.80</ele>
        <time>2012-05-02T12:20:24Z</time>
      </trkpt>
      <trkpt lat="47.436470" lon="13.212019">
        <ele>547.20</ele>
        <time>2012-05-02T12:20:27Z</time>
      </trkpt>
      <trkpt lat="47.436497" lon="13.211925">
        <ele>547.60</ele>
        <time>2012-05-02T12:20:28Z</time>
      </trkpt>
      <trkpt lat="47.436523" lon="13.211831">
        <ele>548.20</ele>
        <time>2012-05-02T12:20:29Z</time>
      </trkpt>
      <trkpt lat="47.436550" lon="13.211744">
        <ele>548.60</ele>
        <time>2012-05-02T12:20:30Z</time>
      </trkpt>
      <trkpt lat="47.436577" lon="13.211655">
        <ele>549.00</ele>
        <time>2012-05-02T12:20:31Z</time>
      </trkpt>
      <trkpt lat="47.436726" lon="13.211208">
        <ele>549.00</ele>
        <time>2012-05-02T12:20:36Z</time>
      </trkpt>
      <trkpt lat="47.436859" lon="13.210842">
        <ele>549.40</ele>
        <time>2012-05-02T12:20:40Z</time>
      </trkpt>
      <trkpt lat="47.436893" lon="13.210752">
        <ele>549.80</ele>
        <time>2012-05-02T12:20:41Z</time>
      </trkpt>
      <trkpt lat="47.436932" lon="13.210661">
        <ele>550.20</ele>
        <time>2012-05-02T12:20:42Z</time>
      </trkpt>
      <trkpt lat="47.436962" lon="13.210568">
        <ele>550.60</ele>
        <time>2012-05-02T12:20:43Z</time>
      </trkpt>
      <trkpt lat="47.436993" lon="13.210476">
        <ele>551.00</ele>
        <time>2012-05-02T12:20:44Z</time>
      </trkpt>
      <trkpt lat="47.437084" lon="13.210069">
        <ele>551.00</ele>
        <time>2012-05-02T12:20:48Z</time>
      </trkpt>
      <trkpt lat="47.437092" lon="13.209952">
        <ele>551.00</ele>
        <time>2012-05-02T12:20:49Z</time>
      </trkpt>
      <trkpt lat="47.437065" lon="13.209515">
        <ele>551.00</ele>
        <time>2012-05-02T12:20:53Z</time>
      </trkpt>
      <trkpt lat="47.436920" lon="13.209108">
        <ele>551.00</ele>
        <time>2012-05-02T12:20:57Z</time>
      </trkpt>
      <trkpt lat="47.436882" lon="13.209020">
        <ele>551.00</ele>
        <time>2012-05-02T12:20:58Z</time>
      </trkpt>
      <trkpt lat="47.436653" lon="13.208639">
        <ele>551.00</ele>
        <time>2012-05-02T12:21:03Z</time>
      </trkpt>
      <trkpt lat="47.436520" lon="13.208431">
        <ele>551.00</ele>
        <time>2012-05-02T12:21:07Z</time>
      </trkpt>
      <trkpt lat="47.436432" lon="13.208345">
        <ele>551.00</ele>
        <time>2012-05-02T12:21:11Z</time>
      </trkpt>
      <trkpt lat="47.436394" lon="13.208356">
        <ele>551.00</ele>
        <time>2012-05-02T12:21:12Z</time>
      </trkpt>
      <trkpt lat="47.436321" lon="13.208426">
        <ele>551.00</ele>
        <time>2012-05-02T12:21:14Z</time>
      </trkpt>
      <trkpt lat="47.436241" lon="13.208543">
        <ele>551.00</ele>
        <time>2012-05-02T12:21:16Z</time>
      </trkpt>
      <trkpt lat="47.436142" lon="13.208682">
        <ele>551.00</ele>
        <time>2012-05-02T12:21:18Z</time>
      </trkpt>
      <trkpt lat="47.435818" lon="13.209125">
        <ele>551.00</ele>
        <time>2012-05-02T12:21:24Z</time>
      </trkpt>
      <trkpt lat="47.435677" lon="13.209274">
        <ele>551.00</ele>
        <time>2012-05-02T12:21:26Z</time>
      </trkpt>
      <trkpt lat="47.435455" lon="13.209462">
        <ele>551.00</ele>
        <time>2012-05-02T12:21:29Z</time>
      </trkpt>
      <trkpt lat="47.435123" lon="13.209653">
        <ele>550.40</ele>
        <time>2012-05-02T12:21:33Z</time>
      </trkpt>
      <trkpt lat="47.435036" lon="13.209693">
        <ele>549.80</ele>
        <time>2012-05-02T12:21:34Z</time>
      </trkpt>
      <trkpt lat="47.434952" lon="13.209728">
        <ele>549.40</ele>
        <time>2012-05-02T12:21:35Z</time>
      </trkpt>
      <trkpt lat="47.434864" lon="13.209757">
        <ele>548.80</ele>
        <time>2012-05-02T12:21:36Z</time>
      </trkpt>
      <trkpt lat="47.434776" lon="13.209785">
        <ele>548.20</ele>
        <time>2012-05-02T12:21:37Z</time>
      </trkpt>
      <trkpt lat="47.434502" lon="13.209854">
        <ele>547.80</ele>
        <time>2012-05-02T12:21:40Z</time>
      </trkpt>
      <trkpt lat="47.434410" lon="13.209878">
        <ele>547.40</ele>
        <time>2012-05-02T12:21:41Z</time>
      </trkpt>
      <trkpt lat="47.434322" lon="13.209906">
        <ele>547.00</ele>
        <time>2012-05-02T12:21:42Z</time>
      </trkpt>
      <trkpt lat="47.434231" lon="13.209930">
        <ele>546.60</ele>
        <time>2012-05-02T12:21:43Z</time>
      </trkpt>
      <trkpt lat="47.434135" lon="13.209951">
        <ele>546.00</ele>
        <time>2012-05-02T12:21:44Z</time>
      </trkpt>
      <trkpt lat="47.433960" lon="13.210001">
        <ele>545.60</ele>
        <time>2012-05-02T12:21:46Z</time>
      </trkpt>
      <trkpt lat="47.433868" lon="13.210032">
        <ele>545.20</ele>
        <time>2012-05-02T12:21:47Z</time>
      </trkpt>
      <trkpt lat="47.433777" lon="13.210070">
        <ele>544.80</ele>
        <time>2012-05-02T12:21:48Z</time>
      </trkpt>
      <trkpt lat="47.433685" lon="13.210106">
        <ele>544.40</ele>
        <time>2012-05-02T12:21:49Z</time>
      </trkpt>
      <trkpt lat="47.433598" lon="13.210145">
        <ele>544.00</ele>
        <time>2012-05-02T12:21:50Z</time>
      </trkpt>
      <trkpt lat="47.433422" lon="13.210238">
        <ele>543.60</ele>
        <time>2012-05-02T12:21:52Z</time>
      </trkpt>
      <trkpt lat="47.433334" lon="13.210291">
        <ele>543.20</ele>
        <time>2012-05-02T12:21:53Z</time>
      </trkpt>
      <trkpt lat="47.433247" lon="13.210340">
        <ele>542.80</ele>
        <time>2012-05-02T12:21:54Z</time>
      </trkpt>
      <trkpt lat="47.433159" lon="13.210404">
        <ele>542.40</ele>
        <time>2012-05-02T12:21:55Z</time>
      </trkpt>
      <trkpt lat="47.433079" lon="13.210462">
        <ele>542.00</ele>
        <time>2012-05-02T12:21:56Z</time>
      </trkpt>
      <trkpt lat="47.432743" lon="13.210711">
        <ele>542.00</ele>
        <time>2012-05-02T12:22:00Z</time>
      </trkpt>
      <trkpt lat="47.432579" lon="13.210835">
        <ele>541.60</ele>
        <time>2012-05-02T12:22:02Z</time>
      </trkpt>
      <trkpt lat="47.432495" lon="13.210897">
        <ele>541.00</ele>
        <time>2012-05-02T12:22:03Z</time>
      </trkpt>
      <trkpt lat="47.432415" lon="13.210957">
        <ele>540.20</ele>
        <time>2012-05-02T12:22:04Z</time>
      </trkpt>
      <trkpt lat="47.432339" lon="13.211015">
        <ele>539.80</ele>
        <time>2012-05-02T12:22:05Z</time>
      </trkpt>
      <trkpt lat="47.432186" lon="13.211130">
        <ele>539.80</ele>
        <time>2012-05-02T12:22:07Z</time>
      </trkpt>
      <trkpt lat="47.431675" lon="13.211515">
        <ele>539.80</ele>
        <time>2012-05-02T12:22:14Z</time>
      </trkpt>
      <trkpt lat="47.431602" lon="13.211570">
        <ele>539.80</ele>
        <time>2012-05-02T12:22:15Z</time>
      </trkpt>
      <trkpt lat="47.431118" lon="13.211936">
        <ele>539.80</ele>
        <time>2012-05-02T12:22:22Z</time>
      </trkpt>
      <trkpt lat="47.430599" lon="13.212331">
        <ele>539.80</ele>
        <time>2012-05-02T12:22:30Z</time>
      </trkpt>
      <trkpt lat="47.430534" lon="13.212380">
        <ele>539.80</ele>
        <time>2012-05-02T12:22:31Z</time>
      </trkpt>
      <trkpt lat="47.430023" lon="13.212772">
        <ele>539.80</ele>
        <time>2012-05-02T12:22:39Z</time>
      </trkpt>
      <trkpt lat="47.429516" lon="13.213151">
        <ele>539.80</ele>
        <time>2012-05-02T12:22:47Z</time>
      </trkpt>
      <trkpt lat="47.429455" lon="13.213201">
        <ele>539.80</ele>
        <time>2012-05-02T12:22:48Z</time>
      </trkpt>
      <trkpt lat="47.429153" lon="13.213470">
        <ele>539.80</ele>
        <time>2012-05-02T12:22:53Z</time>
      </trkpt>
      <trkpt lat="47.429092" lon="13.213508">
        <ele>539.80</ele>
        <time>2012-05-02T12:22:54Z</time>
      </trkpt>
      <trkpt lat="47.428749" lon="13.213697">
        <ele>539.80</ele>
        <time>2012-05-02T12:23:00Z</time>
      </trkpt>
      <trkpt lat="47.428627" lon="13.213760">
        <ele>539.80</ele>
        <time>2012-05-02T12:23:04Z</time>
      </trkpt>
      <trkpt lat="47.428532" lon="13.213809">
        <ele>539.80</ele>
        <time>2012-05-02T12:23:10Z</time>
      </trkpt>
      <trkpt lat="47.428493" lon="13.213830">
        <ele>539.40</ele>
        <time>2012-05-02T12:23:14Z</time>
      </trkpt>
      <trkpt lat="47.428490" lon="13.213830">
        <ele>539.00</ele>
        <time>2012-05-02T12:23:15Z</time>
      </trkpt>
      <trkpt lat="47.428497" lon="13.213857">
        <ele>537.80</ele>
        <time>2012-05-02T12:23:24Z</time>
      </trkpt>
      <trkpt lat="47.428589" lon="13.213984">
        <ele>537.80</ele>
        <time>2012-05-02T12:23:30Z</time>
      </trkpt>
      <trkpt lat="47.428684" lon="13.214320">
        <ele>537.80</ele>
        <time>2012-05-02T12:23:35Z</time>
      </trkpt>
      <trkpt lat="47.428905" lon="13.215030">
        <ele>537.80</ele>
        <time>2012-05-02T12:23:44Z</time>
      </trkpt>
      <trkpt lat="47.428810" lon="13.215212">
        <ele>537.80</ele>
        <time>2012-05-02T12:23:47Z</time>
      </trkpt>
      <trkpt lat="47.428726" lon="13.215294">
        <ele>537.80</ele>
        <time>2012-05-02T12:23:49Z</time>
      </trkpt>
      <trkpt lat="47.428577" lon="13.215416">
        <ele>537.80</ele>
        <time>2012-05-02T12:23:52Z</time>
      </trkpt>
      <trkpt lat="47.428539" lon="13.215463">
        <ele>537.80</ele>
        <time>2012-05-02T12:23:53Z</time>
      </trkpt>
      <trkpt lat="47.428387" lon="13.215658">
        <ele>537.80</ele>
        <time>2012-05-02T12:23:57Z</time>
      </trkpt>
      <trkpt lat="47.428257" lon="13.215793">
        <ele>537.80</ele>
        <time>2012-05-02T12:24:00Z</time>
      </trkpt>
      <trkpt lat="47.428181" lon="13.215886">
        <ele>537.80</ele>
        <time>2012-05-02T12:24:02Z</time>
      </trkpt>
      <trkpt lat="47.427956" lon="13.216212">
        <ele>537.80</ele>
        <time>2012-05-02T12:24:08Z</time>
      </trkpt>
      <trkpt lat="47.427662" lon="13.216675">
        <ele>537.80</ele>
        <time>2012-05-02T12:24:16Z</time>
      </trkpt>
      <trkpt lat="47.427505" lon="13.216940">
        <ele>537.80</ele>
        <time>2012-05-02T12:24:21Z</time>
      </trkpt>
      <trkpt lat="47.427464" lon="13.216981">
        <ele>537.80</ele>
        <time>2012-05-02T12:24:22Z</time>
      </trkpt>
      <trkpt lat="47.427261" lon="13.217044">
        <ele>537.80</ele>
        <time>2012-05-02T12:24:26Z</time>
      </trkpt>
      <trkpt lat="47.427055" lon="13.217050">
        <ele>537.80</ele>
        <time>2012-05-02T12:24:30Z</time>
      </trkpt>
      <trkpt lat="47.426952" lon="13.217023">
        <ele>537.80</ele>
        <time>2012-05-02T12:24:32Z</time>
      </trkpt>
      <trkpt lat="47.426842" lon="13.217008">
        <ele>537.80</ele>
        <time>2012-05-02T12:24:34Z</time>
      </trkpt>
      <trkpt lat="47.426620" lon="13.216997">
        <ele>537.80</ele>
        <time>2012-05-02T12:24:38Z</time>
      </trkpt>
      <trkpt lat="47.426250" lon="13.217017">
        <ele>537.80</ele>
        <time>2012-05-02T12:24:45Z</time>
      </trkpt>
      <trkpt lat="47.426197" lon="13.217029">
        <ele>537.80</ele>
        <time>2012-05-02T12:24:46Z</time>
      </trkpt>
      <trkpt lat="47.425922" lon="13.217134">
        <ele>537.80</ele>
        <time>2012-05-02T12:24:51Z</time>
      </trkpt>
      <trkpt lat="47.425514" lon="13.217307">
        <ele>537.80</ele>
        <time>2012-05-02T12:24:59Z</time>
      </trkpt>
      <trkpt lat="47.425217" lon="13.217472">
        <ele>537.80</ele>
        <time>2012-05-02T12:25:05Z</time>
      </trkpt>
      <trkpt lat="47.425175" lon="13.217511">
        <ele>537.80</ele>
        <time>2012-05-02T12:25:06Z</time>
      </trkpt>
      <trkpt lat="47.425011" lon="13.217780">
        <ele>537.80</ele>
        <time>2012-05-02T12:25:11Z</time>
      </trkpt>
      <trkpt lat="47.424938" lon="13.217936">
        <ele>537.00</ele>
        <time>2012-05-02T12:25:14Z</time>
      </trkpt>
      <trkpt lat="47.424915" lon="13.217986">
        <ele>536.60</ele>
        <time>2012-05-02T12:25:15Z</time>
      </trkpt>
      <trkpt lat="47.424889" lon="13.218034">
        <ele>536.20</ele>
        <time>2012-05-02T12:25:16Z</time>
      </trkpt>
      <trkpt lat="47.424854" lon="13.218081">
        <ele>535.60</ele>
        <time>2012-05-02T12:25:17Z</time>
      </trkpt>
      <trkpt lat="47.424686" lon="13.218371">
        <ele>535.60</ele>
        <time>2012-05-02T12:25:23Z</time>
      </trkpt>
      <trkpt lat="47.424530" lon="13.218639">
        <ele>536.20</ele>
        <time>2012-05-02T12:25:28Z</time>
      </trkpt>
      <trkpt lat="47.424496" lon="13.218690">
        <ele>536.60</ele>
        <time>2012-05-02T12:25:29Z</time>
      </trkpt>
      <trkpt lat="47.424458" lon="13.218746">
        <ele>537.00</ele>
        <time>2012-05-02T12:25:30Z</time>
      </trkpt>
      <trkpt lat="47.424427" lon="13.218801">
        <ele>537.60</ele>
        <time>2012-05-02T12:25:31Z</time>
      </trkpt>
      <trkpt lat="47.424393" lon="13.218857">
        <ele>538.00</ele>
        <time>2012-05-02T12:25:32Z</time>
      </trkpt>
      <trkpt lat="47.424297" lon="13.219009">
        <ele>538.00</ele>
        <time>2012-05-02T12:25:35Z</time>
      </trkpt>
      <trkpt lat="47.424252" lon="13.219128">
        <ele>538.00</ele>
        <time>2012-05-02T12:25:37Z</time>
      </trkpt>
      <trkpt lat="47.424210" lon="13.219250">
        <ele>538.00</ele>
        <time>2012-05-02T12:25:39Z</time>
      </trkpt>
      <trkpt lat="47.424129" lon="13.219316">
        <ele>538.00</ele>
        <time>2012-05-02T12:25:41Z</time>
      </trkpt>
      <trkpt lat="47.423985" lon="13.219294">
        <ele>538.00</ele>
        <time>2012-05-02T12:25:44Z</time>
      </trkpt>
      <trkpt lat="47.423935" lon="13.219286">
        <ele>538.00</ele>
        <time>2012-05-02T12:25:45Z</time>
      </trkpt>
      <trkpt lat="47.423695" lon="13.219287">
        <ele>538.00</ele>
        <time>2012-05-02T12:25:50Z</time>
      </trkpt>
      <trkpt lat="47.423325" lon="13.219298">
        <ele>538.00</ele>
        <time>2012-05-02T12:25:58Z</time>
      </trkpt>
      <trkpt lat="47.423073" lon="13.219313">
        <ele>538.00</ele>
        <time>2012-05-02T12:26:04Z</time>
      </trkpt>
      <trkpt lat="47.423054" lon="13.219318">
        <ele>538.00</ele>
        <time>2012-05-02T12:26:07Z</time>
      </trkpt>
      <trkpt lat="47.423054" lon="13.219322">
        <ele>535.80</ele>
        <time>2012-05-02T12:28:12Z</time>
      </trkpt>
      <trkpt lat="47.423000" lon="13.219326">
        <ele>535.80</ele>
        <time>2012-05-02T12:28:15Z</time>
      </trkpt>
      <trkpt lat="47.422863" lon="13.219337">
        <ele>535.80</ele>
        <time>2012-05-02T12:28:19Z</time>
      </trkpt>
      <trkpt lat="47.422661" lon="13.219344">
        <ele>535.80</ele>
        <time>2012-05-02T12:28:23Z</time>
      </trkpt>
      <trkpt lat="47.422611" lon="13.219349">
        <ele>536.20</ele>
        <time>2012-05-02T12:28:24Z</time>
      </trkpt>
      <trkpt lat="47.422565" lon="13.219356">
        <ele>536.80</ele>
        <time>2012-05-02T12:28:25Z</time>
      </trkpt>
      <trkpt lat="47.422520" lon="13.219357">
        <ele>537.20</ele>
        <time>2012-05-02T12:28:26Z</time>
      </trkpt>
      <trkpt lat="47.422474" lon="13.219358">
        <ele>537.60</ele>
        <time>2012-05-02T12:28:27Z</time>
      </trkpt>
      <trkpt lat="47.422424" lon="13.219361">
        <ele>538.00</ele>
        <time>2012-05-02T12:28:28Z</time>
      </trkpt>
      <trkpt lat="47.422382" lon="13.219363">
        <ele>538.00</ele>
        <time>2012-05-02T12:28:29Z</time>
      </trkpt>
      <trkpt lat="47.422077" lon="13.219382">
        <ele>538.00</ele>
        <time>2012-05-02T12:28:37Z</time>
      </trkpt>
      <trkpt lat="47.421898" lon="13.219378">
        <ele>538.00</ele>
        <time>2012-05-02T12:28:43Z</time>
      </trkpt>
    </trkseg>
  </trk>
</gpx>
